<?xml version="1.0" encoding="UTF-8" standalone="no" ?>
<gpx xmlns="http://www.topografix.com/GPX/1/1" xmlns:xsi="http://www.w3.org/2001/XMLSchema-instance" xsi:schemaLocation="http://www.topografix.com/GPX/1/1 http://www.topografix.com/GPX/1/1/gpx.xsd" version="1.1" creator="VisuGPX - https://www.visugpx.com">
  <metadata>
    <name>Nocturne Mercy le Bas 20 km</name>
    <desc><![CDATA[Nocturne 20km MLB
parties communes techniques, parties 20km seul plus simples.
Possibilité de raccourci et d'extension à partir du 2e ravitaillement.]]></desc>
  </metadata>
  <trk>
    <name><![CDATA[Mercy-le-Bas VTT]]></name>
    <extensions>
      <line xmlns="http://www.topografix.com/GPX/gpx_style/0/2">
        <color>0000FF</color>
        <width>4</width>
      </line>
    </extensions>
    <trkseg>
      <trkpt lat="49.39447" lon="5.7643">
        <ele>314.79998779297</ele>
        <time>2022-09-13T10:26:19.000Z</time>
      </trkpt>
      <trkpt lat="49.39446" lon="5.7643">
        <ele>304.79998779297</ele>
        <time>2022-09-13T10:26:20.000Z</time>
      </trkpt>
      <trkpt lat="49.39444" lon="5.7643">
        <ele>304.39999389648</ele>
        <time>2022-09-13T10:26:37.000Z</time>
      </trkpt>
      <trkpt lat="49.3944" lon="5.7643">
        <ele>304.60000610352</ele>
        <time>2022-09-13T10:26:39.000Z</time>
      </trkpt>
      <trkpt lat="49.39425" lon="5.76436">
        <ele>305</ele>
        <time>2022-09-13T10:26:45.000Z</time>
      </trkpt>
      <trkpt lat="49.39422" lon="5.76438">
        <ele>305</ele>
        <time>2022-09-13T10:26:46.000Z</time>
      </trkpt>
      <trkpt lat="49.39398" lon="5.76456">
        <ele>305.39999389648</ele>
        <time>2022-09-13T10:26:55.000Z</time>
      </trkpt>
      <trkpt lat="49.3939" lon="5.76463">
        <ele>305.60000610352</ele>
        <time>2022-09-13T10:26:59.000Z</time>
      </trkpt>
      <trkpt lat="49.39386" lon="5.76468">
        <ele>305.79998779297</ele>
        <time>2022-09-13T10:27:01.000Z</time>
      </trkpt>
      <trkpt lat="49.39383" lon="5.76471">
        <ele>305.60000610352</ele>
        <time>2022-09-13T10:27:02.000Z</time>
      </trkpt>
      <trkpt lat="49.39381" lon="5.76473">
        <ele>305.60000610352</ele>
        <time>2022-09-13T10:27:03.000Z</time>
      </trkpt>
      <trkpt lat="49.39378" lon="5.76475">
        <ele>305.79998779297</ele>
        <time>2022-09-13T10:27:04.000Z</time>
      </trkpt>
      <trkpt lat="49.39376" lon="5.76477">
        <ele>305.79998779297</ele>
        <time>2022-09-13T10:27:05.000Z</time>
      </trkpt>
      <trkpt lat="49.39374" lon="5.76479">
        <ele>305.79998779297</ele>
        <time>2022-09-13T10:27:06.000Z</time>
      </trkpt>
      <trkpt lat="49.39371" lon="5.76481">
        <ele>305.79998779297</ele>
        <time>2022-09-13T10:27:07.000Z</time>
      </trkpt>
      <trkpt lat="49.39349" lon="5.76496">
        <ele>306</ele>
        <time>2022-09-13T10:27:14.000Z</time>
      </trkpt>
      <trkpt lat="49.39339" lon="5.76511">
        <ele>306</ele>
        <time>2022-09-13T10:27:18.000Z</time>
      </trkpt>
      <trkpt lat="49.39338" lon="5.76514">
        <ele>306</ele>
        <time>2022-09-13T10:27:19.000Z</time>
      </trkpt>
      <trkpt lat="49.39337" lon="5.76519">
        <ele>306.20001220703</ele>
        <time>2022-09-13T10:27:20.000Z</time>
      </trkpt>
      <trkpt lat="49.39337" lon="5.76525">
        <ele>306.20001220703</ele>
        <time>2022-09-13T10:27:21.000Z</time>
      </trkpt>
      <trkpt lat="49.39336" lon="5.76529">
        <ele>306.39999389648</ele>
        <time>2022-09-13T10:27:22.000Z</time>
      </trkpt>
      <trkpt lat="49.39335" lon="5.76538">
        <ele>306.39999389648</ele>
        <time>2022-09-13T10:27:24.000Z</time>
      </trkpt>
      <trkpt lat="49.39335" lon="5.76543">
        <ele>306.39999389648</ele>
        <time>2022-09-13T10:27:25.000Z</time>
      </trkpt>
      <trkpt lat="49.39333" lon="5.76548">
        <ele>306.60000610352</ele>
        <time>2022-09-13T10:27:26.000Z</time>
      </trkpt>
      <trkpt lat="49.39332" lon="5.76552">
        <ele>306.60000610352</ele>
        <time>2022-09-13T10:27:27.000Z</time>
      </trkpt>
      <trkpt lat="49.39331" lon="5.76556">
        <ele>306.60000610352</ele>
        <time>2022-09-13T10:27:28.000Z</time>
      </trkpt>
      <trkpt lat="49.39324" lon="5.7657">
        <ele>307.20001220703</ele>
        <time>2022-09-13T10:27:31.000Z</time>
      </trkpt>
      <trkpt lat="49.39309" lon="5.76607">
        <ele>307.60000610352</ele>
        <time>2022-09-13T10:27:40.000Z</time>
      </trkpt>
      <trkpt lat="49.39307" lon="5.76612">
        <ele>307.60000610352</ele>
        <time>2022-09-13T10:27:41.000Z</time>
      </trkpt>
      <trkpt lat="49.39306" lon="5.76615">
        <ele>307.79998779297</ele>
        <time>2022-09-13T10:27:42.000Z</time>
      </trkpt>
      <trkpt lat="49.39304" lon="5.76618">
        <ele>308</ele>
        <time>2022-09-13T10:27:43.000Z</time>
      </trkpt>
      <trkpt lat="49.39302" lon="5.76622">
        <ele>308</ele>
        <time>2022-09-13T10:27:44.000Z</time>
      </trkpt>
      <trkpt lat="49.393" lon="5.76624">
        <ele>307.79998779297</ele>
        <time>2022-09-13T10:27:45.000Z</time>
      </trkpt>
      <trkpt lat="49.39298" lon="5.76627">
        <ele>307.79998779297</ele>
        <time>2022-09-13T10:27:46.000Z</time>
      </trkpt>
      <trkpt lat="49.39297" lon="5.76629">
        <ele>308</ele>
        <time>2022-09-13T10:27:47.000Z</time>
      </trkpt>
      <trkpt lat="49.39283" lon="5.76649">
        <ele>308</ele>
        <time>2022-09-13T10:27:52.000Z</time>
      </trkpt>
      <trkpt lat="49.39262" lon="5.76688">
        <ele>308.20001220703</ele>
        <time>2022-09-13T10:28:00.000Z</time>
      </trkpt>
      <trkpt lat="49.39239" lon="5.76735">
        <ele>307.60000610352</ele>
        <time>2022-09-13T10:28:09.000Z</time>
      </trkpt>
      <trkpt lat="49.3922" lon="5.76776">
        <ele>307.20001220703</ele>
        <time>2022-09-13T10:28:16.000Z</time>
      </trkpt>
      <trkpt lat="49.39209" lon="5.76801">
        <ele>306.60000610352</ele>
        <time>2022-09-13T10:28:20.000Z</time>
      </trkpt>
      <trkpt lat="49.39196" lon="5.76831">
        <ele>305.60000610352</ele>
        <time>2022-09-13T10:28:25.000Z</time>
      </trkpt>
      <trkpt lat="49.39186" lon="5.76854">
        <ele>305.20001220703</ele>
        <time>2022-09-13T10:28:29.000Z</time>
      </trkpt>
      <trkpt lat="49.39184" lon="5.76859">
        <ele>305</ele>
        <time>2022-09-13T10:28:30.000Z</time>
      </trkpt>
      <trkpt lat="49.39184" lon="5.76865">
        <ele>305</ele>
        <time>2022-09-13T10:28:31.000Z</time>
      </trkpt>
      <trkpt lat="49.39185" lon="5.76869">
        <ele>305.20001220703</ele>
        <time>2022-09-13T10:28:32.000Z</time>
      </trkpt>
      <trkpt lat="49.39186" lon="5.76874">
        <ele>305</ele>
        <time>2022-09-13T10:28:33.000Z</time>
      </trkpt>
      <trkpt lat="49.39188" lon="5.76877">
        <ele>305</ele>
        <time>2022-09-13T10:28:34.000Z</time>
      </trkpt>
      <trkpt lat="49.39191" lon="5.76881">
        <ele>305</ele>
        <time>2022-09-13T10:28:35.000Z</time>
      </trkpt>
      <trkpt lat="49.39193" lon="5.76885">
        <ele>304.60000610352</ele>
        <time>2022-09-13T10:28:36.000Z</time>
      </trkpt>
      <trkpt lat="49.39196" lon="5.76888">
        <ele>304.60000610352</ele>
        <time>2022-09-13T10:28:37.000Z</time>
      </trkpt>
      <trkpt lat="49.39199" lon="5.76891">
        <ele>304.39999389648</ele>
        <time>2022-09-13T10:28:38.000Z</time>
      </trkpt>
      <trkpt lat="49.39202" lon="5.76895">
        <ele>304</ele>
        <time>2022-09-13T10:28:39.000Z</time>
      </trkpt>
      <trkpt lat="49.39204" lon="5.76898">
        <ele>303.79998779297</ele>
        <time>2022-09-13T10:28:40.000Z</time>
      </trkpt>
      <trkpt lat="49.39206" lon="5.76901">
        <ele>303.60000610352</ele>
        <time>2022-09-13T10:28:41.000Z</time>
      </trkpt>
      <trkpt lat="49.39208" lon="5.76904">
        <ele>303.39999389648</ele>
        <time>2022-09-13T10:28:42.000Z</time>
      </trkpt>
      <trkpt lat="49.3921" lon="5.76908">
        <ele>303.20001220703</ele>
        <time>2022-09-13T10:28:43.000Z</time>
      </trkpt>
      <trkpt lat="49.39213" lon="5.76912">
        <ele>303.20001220703</ele>
        <time>2022-09-13T10:28:44.000Z</time>
      </trkpt>
      <trkpt lat="49.39216" lon="5.76916">
        <ele>303</ele>
        <time>2022-09-13T10:28:45.000Z</time>
      </trkpt>
      <trkpt lat="49.39218" lon="5.7692">
        <ele>303</ele>
        <time>2022-09-13T10:28:46.000Z</time>
      </trkpt>
      <trkpt lat="49.3922" lon="5.76923">
        <ele>303</ele>
        <time>2022-09-13T10:28:47.000Z</time>
      </trkpt>
      <trkpt lat="49.39223" lon="5.76926">
        <ele>302.79998779297</ele>
        <time>2022-09-13T10:28:48.000Z</time>
      </trkpt>
      <trkpt lat="49.39227" lon="5.7693">
        <ele>302.79998779297</ele>
        <time>2022-09-13T10:28:49.000Z</time>
      </trkpt>
      <trkpt lat="49.3924" lon="5.7695">
        <ele>302.39999389648</ele>
        <time>2022-09-13T10:28:53.000Z</time>
      </trkpt>
      <trkpt lat="49.39244" lon="5.76954">
        <ele>302.20001220703</ele>
        <time>2022-09-13T10:28:54.000Z</time>
      </trkpt>
      <trkpt lat="49.39249" lon="5.76958">
        <ele>301.79998779297</ele>
        <time>2022-09-13T10:28:55.000Z</time>
      </trkpt>
      <trkpt lat="49.39253" lon="5.76962">
        <ele>301.60000610352</ele>
        <time>2022-09-13T10:28:56.000Z</time>
      </trkpt>
      <trkpt lat="49.3926" lon="5.76971">
        <ele>300.20001220703</ele>
        <time>2022-09-13T10:28:59.000Z</time>
      </trkpt>
      <trkpt lat="49.39285" lon="5.76989">
        <ele>299</ele>
        <time>2022-09-13T10:29:04.000Z</time>
      </trkpt>
      <trkpt lat="49.3929" lon="5.76992">
        <ele>299</ele>
        <time>2022-09-13T10:29:05.000Z</time>
      </trkpt>
      <trkpt lat="49.39299" lon="5.76994">
        <ele>298.60000610352</ele>
        <time>2022-09-13T10:29:07.000Z</time>
      </trkpt>
      <trkpt lat="49.39301" lon="5.76995">
        <ele>298.20001220703</ele>
        <time>2022-09-13T10:29:08.000Z</time>
      </trkpt>
      <trkpt lat="49.39303" lon="5.76997">
        <ele>297.79998779297</ele>
        <time>2022-09-13T10:29:09.000Z</time>
      </trkpt>
      <trkpt lat="49.39304" lon="5.76997">
        <ele>297.60000610352</ele>
        <time>2022-09-13T10:29:10.000Z</time>
      </trkpt>
      <trkpt lat="49.39305" lon="5.76995">
        <ele>297</ele>
        <time>2022-09-13T10:29:12.000Z</time>
      </trkpt>
      <trkpt lat="49.39305" lon="5.76996">
        <ele>296.60000610352</ele>
        <time>2022-09-13T10:29:13.000Z</time>
      </trkpt>
      <trkpt lat="49.39306" lon="5.76997">
        <ele>296.39999389648</ele>
        <time>2022-09-13T10:29:14.000Z</time>
      </trkpt>
      <trkpt lat="49.39306" lon="5.76996">
        <ele>296.20001220703</ele>
        <time>2022-09-13T10:29:15.000Z</time>
      </trkpt>
      <trkpt lat="49.39307" lon="5.76996">
        <ele>296</ele>
        <time>2022-09-13T10:29:16.000Z</time>
      </trkpt>
      <trkpt lat="49.39308" lon="5.76996">
        <ele>295.79998779297</ele>
        <time>2022-09-13T10:29:17.000Z</time>
      </trkpt>
      <trkpt lat="49.39309" lon="5.76996">
        <ele>295.60000610352</ele>
        <time>2022-09-13T10:29:18.000Z</time>
      </trkpt>
      <trkpt lat="49.39312" lon="5.76997">
        <ele>295.60000610352</ele>
        <time>2022-09-13T10:29:19.000Z</time>
      </trkpt>
      <trkpt lat="49.39318" lon="5.77">
        <ele>295.39999389648</ele>
        <time>2022-09-13T10:29:21.000Z</time>
      </trkpt>
      <trkpt lat="49.39329" lon="5.77001">
        <ele>295</ele>
        <time>2022-09-13T10:29:24.000Z</time>
      </trkpt>
      <trkpt lat="49.39332" lon="5.77002">
        <ele>295</ele>
        <time>2022-09-13T10:29:25.000Z</time>
      </trkpt>
      <trkpt lat="49.39335" lon="5.77003">
        <ele>295</ele>
        <time>2022-09-13T10:29:26.000Z</time>
      </trkpt>
      <trkpt lat="49.39338" lon="5.77003">
        <ele>294.60000610352</ele>
        <time>2022-09-13T10:29:27.000Z</time>
      </trkpt>
      <trkpt lat="49.3934" lon="5.77003">
        <ele>294.60000610352</ele>
        <time>2022-09-13T10:29:28.000Z</time>
      </trkpt>
      <trkpt lat="49.39343" lon="5.77003">
        <ele>294.39999389648</ele>
        <time>2022-09-13T10:29:29.000Z</time>
      </trkpt>
      <trkpt lat="49.39345" lon="5.77002">
        <ele>294</ele>
        <time>2022-09-13T10:29:30.000Z</time>
      </trkpt>
      <trkpt lat="49.39347" lon="5.77001">
        <ele>293.79998779297</ele>
        <time>2022-09-13T10:29:31.000Z</time>
      </trkpt>
      <trkpt lat="49.39349" lon="5.77">
        <ele>293.39999389648</ele>
        <time>2022-09-13T10:29:32.000Z</time>
      </trkpt>
      <trkpt lat="49.3935" lon="5.76999">
        <ele>293.20001220703</ele>
        <time>2022-09-13T10:29:33.000Z</time>
      </trkpt>
      <trkpt lat="49.39351" lon="5.76997">
        <ele>293</ele>
        <time>2022-09-13T10:29:34.000Z</time>
      </trkpt>
      <trkpt lat="49.39353" lon="5.76995">
        <ele>292.79998779297</ele>
        <time>2022-09-13T10:29:35.000Z</time>
      </trkpt>
      <trkpt lat="49.39354" lon="5.76994">
        <ele>292.39999389648</ele>
        <time>2022-09-13T10:29:36.000Z</time>
      </trkpt>
      <trkpt lat="49.39355" lon="5.76992">
        <ele>292.39999389648</ele>
        <time>2022-09-13T10:29:37.000Z</time>
      </trkpt>
      <trkpt lat="49.39361" lon="5.76985">
        <ele>292</ele>
        <time>2022-09-13T10:29:40.000Z</time>
      </trkpt>
      <trkpt lat="49.39363" lon="5.76984">
        <ele>291.79998779297</ele>
        <time>2022-09-13T10:29:41.000Z</time>
      </trkpt>
      <trkpt lat="49.39372" lon="5.76977">
        <ele>290.79998779297</ele>
        <time>2022-09-13T10:29:46.000Z</time>
      </trkpt>
      <trkpt lat="49.39376" lon="5.76971">
        <ele>290.39999389648</ele>
        <time>2022-09-13T10:29:48.000Z</time>
      </trkpt>
      <trkpt lat="49.39378" lon="5.76966">
        <ele>290.39999389648</ele>
        <time>2022-09-13T10:29:49.000Z</time>
      </trkpt>
      <trkpt lat="49.39381" lon="5.76963">
        <ele>290</ele>
        <time>2022-09-13T10:29:50.000Z</time>
      </trkpt>
      <trkpt lat="49.39383" lon="5.76961">
        <ele>289.79998779297</ele>
        <time>2022-09-13T10:29:51.000Z</time>
      </trkpt>
      <trkpt lat="49.39385" lon="5.7696">
        <ele>289.39999389648</ele>
        <time>2022-09-13T10:29:52.000Z</time>
      </trkpt>
      <trkpt lat="49.39389" lon="5.76956">
        <ele>289</ele>
        <time>2022-09-13T10:29:55.000Z</time>
      </trkpt>
      <trkpt lat="49.3939" lon="5.76954">
        <ele>288.79998779297</ele>
        <time>2022-09-13T10:29:56.000Z</time>
      </trkpt>
      <trkpt lat="49.39392" lon="5.76952">
        <ele>288.60000610352</ele>
        <time>2022-09-13T10:29:57.000Z</time>
      </trkpt>
      <trkpt lat="49.39393" lon="5.76951">
        <ele>288.60000610352</ele>
        <time>2022-09-13T10:29:58.000Z</time>
      </trkpt>
      <trkpt lat="49.394" lon="5.76942">
        <ele>288.20001220703</ele>
        <time>2022-09-13T10:30:01.000Z</time>
      </trkpt>
      <trkpt lat="49.39401" lon="5.76938">
        <ele>288</ele>
        <time>2022-09-13T10:30:02.000Z</time>
      </trkpt>
      <trkpt lat="49.39409" lon="5.76931">
        <ele>287.60000610352</ele>
        <time>2022-09-13T10:30:04.000Z</time>
      </trkpt>
      <trkpt lat="49.3942" lon="5.76918">
        <ele>286.79998779297</ele>
        <time>2022-09-13T10:30:07.000Z</time>
      </trkpt>
      <trkpt lat="49.39432" lon="5.76904">
        <ele>285.39999389648</ele>
        <time>2022-09-13T10:30:11.000Z</time>
      </trkpt>
      <trkpt lat="49.39444" lon="5.76895">
        <ele>285</ele>
        <time>2022-09-13T10:30:14.000Z</time>
      </trkpt>
      <trkpt lat="49.39453" lon="5.76889">
        <ele>284.20001220703</ele>
        <time>2022-09-13T10:30:16.000Z</time>
      </trkpt>
      <trkpt lat="49.39468" lon="5.76881">
        <ele>283.79998779297</ele>
        <time>2022-09-13T10:30:19.000Z</time>
      </trkpt>
      <trkpt lat="49.39474" lon="5.76879">
        <ele>283</ele>
        <time>2022-09-13T10:30:20.000Z</time>
      </trkpt>
      <trkpt lat="49.39491" lon="5.76872">
        <ele>281.60000610352</ele>
        <time>2022-09-13T10:30:23.000Z</time>
      </trkpt>
      <trkpt lat="49.39498" lon="5.7687">
        <ele>281.20001220703</ele>
        <time>2022-09-13T10:30:24.000Z</time>
      </trkpt>
      <trkpt lat="49.39504" lon="5.76869">
        <ele>280.39999389648</ele>
        <time>2022-09-13T10:30:25.000Z</time>
      </trkpt>
      <trkpt lat="49.39532" lon="5.76867">
        <ele>279.20001220703</ele>
        <time>2022-09-13T10:30:29.000Z</time>
      </trkpt>
      <trkpt lat="49.39539" lon="5.76867">
        <ele>278.60000610352</ele>
        <time>2022-09-13T10:30:30.000Z</time>
      </trkpt>
      <trkpt lat="49.39555" lon="5.76866">
        <ele>278</ele>
        <time>2022-09-13T10:30:32.000Z</time>
      </trkpt>
      <trkpt lat="49.39576" lon="5.76867">
        <ele>276.79998779297</ele>
        <time>2022-09-13T10:30:35.000Z</time>
      </trkpt>
      <trkpt lat="49.39582" lon="5.76869">
        <ele>276.20001220703</ele>
        <time>2022-09-13T10:30:36.000Z</time>
      </trkpt>
      <trkpt lat="49.39586" lon="5.76869">
        <ele>275.20001220703</ele>
        <time>2022-09-13T10:30:37.000Z</time>
      </trkpt>
      <trkpt lat="49.3959" lon="5.76871">
        <ele>274.79998779297</ele>
        <time>2022-09-13T10:30:38.000Z</time>
      </trkpt>
      <trkpt lat="49.39594" lon="5.76874">
        <ele>274</ele>
        <time>2022-09-13T10:30:39.000Z</time>
      </trkpt>
      <trkpt lat="49.39596" lon="5.76878">
        <ele>273.60000610352</ele>
        <time>2022-09-13T10:30:40.000Z</time>
      </trkpt>
      <trkpt lat="49.39599" lon="5.76881">
        <ele>272.79998779297</ele>
        <time>2022-09-13T10:30:41.000Z</time>
      </trkpt>
      <trkpt lat="49.39602" lon="5.76884">
        <ele>272.79998779297</ele>
        <time>2022-09-13T10:30:42.000Z</time>
      </trkpt>
      <trkpt lat="49.39605" lon="5.76887">
        <ele>272.20001220703</ele>
        <time>2022-09-13T10:30:43.000Z</time>
      </trkpt>
      <trkpt lat="49.39606" lon="5.7689">
        <ele>271.79998779297</ele>
        <time>2022-09-13T10:30:44.000Z</time>
      </trkpt>
      <trkpt lat="49.39608" lon="5.76894">
        <ele>271.39999389648</ele>
        <time>2022-09-13T10:30:45.000Z</time>
      </trkpt>
      <trkpt lat="49.39609" lon="5.76898">
        <ele>271</ele>
        <time>2022-09-13T10:30:46.000Z</time>
      </trkpt>
      <trkpt lat="49.39611" lon="5.76901">
        <ele>270.79998779297</ele>
        <time>2022-09-13T10:30:47.000Z</time>
      </trkpt>
      <trkpt lat="49.39612" lon="5.76905">
        <ele>270.60000610352</ele>
        <time>2022-09-13T10:30:48.000Z</time>
      </trkpt>
      <trkpt lat="49.39613" lon="5.76909">
        <ele>270.20001220703</ele>
        <time>2022-09-13T10:30:49.000Z</time>
      </trkpt>
      <trkpt lat="49.39615" lon="5.7693">
        <ele>269.20001220703</ele>
        <time>2022-09-13T10:30:53.000Z</time>
      </trkpt>
      <trkpt lat="49.39615" lon="5.76948">
        <ele>268.60000610352</ele>
        <time>2022-09-13T10:30:57.000Z</time>
      </trkpt>
      <trkpt lat="49.39615" lon="5.76957">
        <ele>268.60000610352</ele>
        <time>2022-09-13T10:30:59.000Z</time>
      </trkpt>
      <trkpt lat="49.39614" lon="5.7696">
        <ele>268.60000610352</ele>
        <time>2022-09-13T10:31:00.000Z</time>
      </trkpt>
      <trkpt lat="49.39613" lon="5.76963">
        <ele>268.60000610352</ele>
        <time>2022-09-13T10:31:01.000Z</time>
      </trkpt>
      <trkpt lat="49.39613" lon="5.76967">
        <ele>268.60000610352</ele>
        <time>2022-09-13T10:31:02.000Z</time>
      </trkpt>
      <trkpt lat="49.39612" lon="5.76969">
        <ele>268.60000610352</ele>
        <time>2022-09-13T10:31:03.000Z</time>
      </trkpt>
      <trkpt lat="49.39611" lon="5.76969">
        <ele>268.60000610352</ele>
        <time>2022-09-13T10:31:04.000Z</time>
      </trkpt>
      <trkpt lat="49.3961" lon="5.7697">
        <ele>268.60000610352</ele>
        <time>2022-09-13T10:31:05.000Z</time>
      </trkpt>
      <trkpt lat="49.3961" lon="5.76973">
        <ele>268.79998779297</ele>
        <time>2022-09-13T10:31:06.000Z</time>
      </trkpt>
      <trkpt lat="49.3961" lon="5.76975">
        <ele>268.79998779297</ele>
        <time>2022-09-13T10:31:07.000Z</time>
      </trkpt>
      <trkpt lat="49.39619" lon="5.76979">
        <ele>269.39999389648</ele>
        <time>2022-09-13T10:31:11.000Z</time>
      </trkpt>
      <trkpt lat="49.3962" lon="5.76981">
        <ele>269.60000610352</ele>
        <time>2022-09-13T10:31:12.000Z</time>
      </trkpt>
      <trkpt lat="49.39621" lon="5.76983">
        <ele>269.79998779297</ele>
        <time>2022-09-13T10:31:13.000Z</time>
      </trkpt>
      <trkpt lat="49.39623" lon="5.76984">
        <ele>270</ele>
        <time>2022-09-13T10:31:14.000Z</time>
      </trkpt>
      <trkpt lat="49.39624" lon="5.76984">
        <ele>270.20001220703</ele>
        <time>2022-09-13T10:31:15.000Z</time>
      </trkpt>
      <trkpt lat="49.39625" lon="5.76983">
        <ele>270.39999389648</ele>
        <time>2022-09-13T10:31:16.000Z</time>
      </trkpt>
      <trkpt lat="49.39626" lon="5.76983">
        <ele>270.39999389648</ele>
        <time>2022-09-13T10:31:17.000Z</time>
      </trkpt>
      <trkpt lat="49.39627" lon="5.76983">
        <ele>270.60000610352</ele>
        <time>2022-09-13T10:31:18.000Z</time>
      </trkpt>
      <trkpt lat="49.39629" lon="5.76983">
        <ele>270.79998779297</ele>
        <time>2022-09-13T10:31:19.000Z</time>
      </trkpt>
      <trkpt lat="49.39631" lon="5.76983">
        <ele>271</ele>
        <time>2022-09-13T10:31:20.000Z</time>
      </trkpt>
      <trkpt lat="49.39633" lon="5.76983">
        <ele>271.20001220703</ele>
        <time>2022-09-13T10:31:21.000Z</time>
      </trkpt>
      <trkpt lat="49.39634" lon="5.76983">
        <ele>271.20001220703</ele>
        <time>2022-09-13T10:31:22.000Z</time>
      </trkpt>
      <trkpt lat="49.39636" lon="5.76983">
        <ele>271.39999389648</ele>
        <time>2022-09-13T10:31:23.000Z</time>
      </trkpt>
      <trkpt lat="49.39638" lon="5.76983">
        <ele>271.39999389648</ele>
        <time>2022-09-13T10:31:24.000Z</time>
      </trkpt>
      <trkpt lat="49.3964" lon="5.76983">
        <ele>271.39999389648</ele>
        <time>2022-09-13T10:31:25.000Z</time>
      </trkpt>
      <trkpt lat="49.39641" lon="5.76983">
        <ele>271.60000610352</ele>
        <time>2022-09-13T10:31:26.000Z</time>
      </trkpt>
      <trkpt lat="49.39644" lon="5.76983">
        <ele>271.60000610352</ele>
        <time>2022-09-13T10:31:28.000Z</time>
      </trkpt>
      <trkpt lat="49.39646" lon="5.76983">
        <ele>271.79998779297</ele>
        <time>2022-09-13T10:31:29.000Z</time>
      </trkpt>
      <trkpt lat="49.39646" lon="5.76982">
        <ele>271.79998779297</ele>
        <time>2022-09-13T10:31:30.000Z</time>
      </trkpt>
      <trkpt lat="49.39648" lon="5.76982">
        <ele>271.79998779297</ele>
        <time>2022-09-13T10:31:31.000Z</time>
      </trkpt>
      <trkpt lat="49.3965" lon="5.7698">
        <ele>271.79998779297</ele>
        <time>2022-09-13T10:31:32.000Z</time>
      </trkpt>
      <trkpt lat="49.39653" lon="5.76975">
        <ele>271.79998779297</ele>
        <time>2022-09-13T10:31:33.000Z</time>
      </trkpt>
      <trkpt lat="49.39655" lon="5.76972">
        <ele>271.79998779297</ele>
        <time>2022-09-13T10:31:34.000Z</time>
      </trkpt>
      <trkpt lat="49.39659" lon="5.76971">
        <ele>271.39999389648</ele>
        <time>2022-09-13T10:31:35.000Z</time>
      </trkpt>
      <trkpt lat="49.39664" lon="5.7697">
        <ele>271.39999389648</ele>
        <time>2022-09-13T10:31:37.000Z</time>
      </trkpt>
      <trkpt lat="49.39667" lon="5.76969">
        <ele>271.39999389648</ele>
        <time>2022-09-13T10:31:38.000Z</time>
      </trkpt>
      <trkpt lat="49.39668" lon="5.7697">
        <ele>271.39999389648</ele>
        <time>2022-09-13T10:31:39.000Z</time>
      </trkpt>
      <trkpt lat="49.39671" lon="5.76968">
        <ele>271.20001220703</ele>
        <time>2022-09-13T10:31:40.000Z</time>
      </trkpt>
      <trkpt lat="49.39684" lon="5.7696">
        <ele>271</ele>
        <time>2022-09-13T10:31:44.000Z</time>
      </trkpt>
      <trkpt lat="49.39688" lon="5.76957">
        <ele>271</ele>
        <time>2022-09-13T10:31:45.000Z</time>
      </trkpt>
      <trkpt lat="49.39691" lon="5.76955">
        <ele>271</ele>
        <time>2022-09-13T10:31:46.000Z</time>
      </trkpt>
      <trkpt lat="49.39695" lon="5.76954">
        <ele>271</ele>
        <time>2022-09-13T10:31:47.000Z</time>
      </trkpt>
      <trkpt lat="49.39698" lon="5.76955">
        <ele>270.79998779297</ele>
        <time>2022-09-13T10:31:48.000Z</time>
      </trkpt>
      <trkpt lat="49.397" lon="5.76955">
        <ele>270.79998779297</ele>
        <time>2022-09-13T10:31:49.000Z</time>
      </trkpt>
      <trkpt lat="49.39703" lon="5.76956">
        <ele>270.79998779297</ele>
        <time>2022-09-13T10:31:50.000Z</time>
      </trkpt>
      <trkpt lat="49.39717" lon="5.76955">
        <ele>270.79998779297</ele>
        <time>2022-09-13T10:31:54.000Z</time>
      </trkpt>
      <trkpt lat="49.39721" lon="5.76953">
        <ele>270.79998779297</ele>
        <time>2022-09-13T10:31:55.000Z</time>
      </trkpt>
      <trkpt lat="49.39723" lon="5.76952">
        <ele>270.79998779297</ele>
        <time>2022-09-13T10:31:56.000Z</time>
      </trkpt>
      <trkpt lat="49.39732" lon="5.76947">
        <ele>270.79998779297</ele>
        <time>2022-09-13T10:31:59.000Z</time>
      </trkpt>
      <trkpt lat="49.39733" lon="5.76947">
        <ele>271</ele>
        <time>2022-09-13T10:32:00.000Z</time>
      </trkpt>
      <trkpt lat="49.39733" lon="5.76945">
        <ele>271</ele>
        <time>2022-09-13T10:32:01.000Z</time>
      </trkpt>
      <trkpt lat="49.39735" lon="5.76943">
        <ele>271</ele>
        <time>2022-09-13T10:32:02.000Z</time>
      </trkpt>
      <trkpt lat="49.39738" lon="5.76942">
        <ele>271</ele>
        <time>2022-09-13T10:32:03.000Z</time>
      </trkpt>
      <trkpt lat="49.39751" lon="5.76936">
        <ele>271.39999389648</ele>
        <time>2022-09-13T10:32:09.000Z</time>
      </trkpt>
      <trkpt lat="49.39753" lon="5.76935">
        <ele>271.39999389648</ele>
        <time>2022-09-13T10:32:10.000Z</time>
      </trkpt>
      <trkpt lat="49.3976" lon="5.76933">
        <ele>271.79998779297</ele>
        <time>2022-09-13T10:32:12.000Z</time>
      </trkpt>
      <trkpt lat="49.39764" lon="5.76931">
        <ele>272</ele>
        <time>2022-09-13T10:32:13.000Z</time>
      </trkpt>
      <trkpt lat="49.39767" lon="5.76929">
        <ele>272</ele>
        <time>2022-09-13T10:32:14.000Z</time>
      </trkpt>
      <trkpt lat="49.39769" lon="5.76927">
        <ele>272</ele>
        <time>2022-09-13T10:32:16.000Z</time>
      </trkpt>
      <trkpt lat="49.39771" lon="5.76926">
        <ele>272.20001220703</ele>
        <time>2022-09-13T10:32:17.000Z</time>
      </trkpt>
      <trkpt lat="49.39774" lon="5.76925">
        <ele>272.39999389648</ele>
        <time>2022-09-13T10:32:18.000Z</time>
      </trkpt>
      <trkpt lat="49.39776" lon="5.76922">
        <ele>272.39999389648</ele>
        <time>2022-09-13T10:32:19.000Z</time>
      </trkpt>
      <trkpt lat="49.39779" lon="5.7692">
        <ele>272.60000610352</ele>
        <time>2022-09-13T10:32:20.000Z</time>
      </trkpt>
      <trkpt lat="49.39783" lon="5.76916">
        <ele>272.60000610352</ele>
        <time>2022-09-13T10:32:22.000Z</time>
      </trkpt>
      <trkpt lat="49.39789" lon="5.76912">
        <ele>272.79998779297</ele>
        <time>2022-09-13T10:32:24.000Z</time>
      </trkpt>
      <trkpt lat="49.39798" lon="5.76908">
        <ele>273</ele>
        <time>2022-09-13T10:32:26.000Z</time>
      </trkpt>
      <trkpt lat="49.39799" lon="5.76908">
        <ele>273</ele>
        <time>2022-09-13T10:32:27.000Z</time>
      </trkpt>
      <trkpt lat="49.39801" lon="5.76907">
        <ele>273.20001220703</ele>
        <time>2022-09-13T10:32:28.000Z</time>
      </trkpt>
      <trkpt lat="49.39802" lon="5.76907">
        <ele>273.39999389648</ele>
        <time>2022-09-13T10:32:29.000Z</time>
      </trkpt>
      <trkpt lat="49.39805" lon="5.76908">
        <ele>273.79998779297</ele>
        <time>2022-09-13T10:32:30.000Z</time>
      </trkpt>
      <trkpt lat="49.39811" lon="5.76909">
        <ele>274</ele>
        <time>2022-09-13T10:32:31.000Z</time>
      </trkpt>
      <trkpt lat="49.39815" lon="5.76911">
        <ele>274.39999389648</ele>
        <time>2022-09-13T10:32:32.000Z</time>
      </trkpt>
      <trkpt lat="49.39816" lon="5.76911">
        <ele>274.60000610352</ele>
        <time>2022-09-13T10:32:33.000Z</time>
      </trkpt>
      <trkpt lat="49.39818" lon="5.7691">
        <ele>274.79998779297</ele>
        <time>2022-09-13T10:32:34.000Z</time>
      </trkpt>
      <trkpt lat="49.39819" lon="5.76909">
        <ele>275</ele>
        <time>2022-09-13T10:32:35.000Z</time>
      </trkpt>
      <trkpt lat="49.3982" lon="5.76909">
        <ele>275.20001220703</ele>
        <time>2022-09-13T10:32:36.000Z</time>
      </trkpt>
      <trkpt lat="49.39822" lon="5.76911">
        <ele>275.79998779297</ele>
        <time>2022-09-13T10:32:37.000Z</time>
      </trkpt>
      <trkpt lat="49.39823" lon="5.76912">
        <ele>276</ele>
        <time>2022-09-13T10:32:38.000Z</time>
      </trkpt>
      <trkpt lat="49.39823" lon="5.76913">
        <ele>276.39999389648</ele>
        <time>2022-09-13T10:32:39.000Z</time>
      </trkpt>
      <trkpt lat="49.39823" lon="5.76915">
        <ele>276.60000610352</ele>
        <time>2022-09-13T10:32:40.000Z</time>
      </trkpt>
      <trkpt lat="49.39823" lon="5.76917">
        <ele>277.20001220703</ele>
        <time>2022-09-13T10:32:41.000Z</time>
      </trkpt>
      <trkpt lat="49.39823" lon="5.76918">
        <ele>277.79998779297</ele>
        <time>2022-09-13T10:32:43.000Z</time>
      </trkpt>
      <trkpt lat="49.39824" lon="5.76919">
        <ele>278</ele>
        <time>2022-09-13T10:32:44.000Z</time>
      </trkpt>
      <trkpt lat="49.39824" lon="5.76921">
        <ele>278.39999389648</ele>
        <time>2022-09-13T10:32:45.000Z</time>
      </trkpt>
      <trkpt lat="49.39824" lon="5.76923">
        <ele>278.79998779297</ele>
        <time>2022-09-13T10:32:46.000Z</time>
      </trkpt>
      <trkpt lat="49.39824" lon="5.76924">
        <ele>278.79998779297</ele>
        <time>2022-09-13T10:32:47.000Z</time>
      </trkpt>
      <trkpt lat="49.39824" lon="5.76926">
        <ele>280</ele>
        <time>2022-09-13T10:32:50.000Z</time>
      </trkpt>
      <trkpt lat="49.39824" lon="5.76928">
        <ele>280</ele>
        <time>2022-09-13T10:32:51.000Z</time>
      </trkpt>
      <trkpt lat="49.39824" lon="5.7693">
        <ele>280.39999389648</ele>
        <time>2022-09-13T10:32:52.000Z</time>
      </trkpt>
      <trkpt lat="49.39823" lon="5.76931">
        <ele>280.79998779297</ele>
        <time>2022-09-13T10:32:53.000Z</time>
      </trkpt>
      <trkpt lat="49.39822" lon="5.76933">
        <ele>281</ele>
        <time>2022-09-13T10:32:54.000Z</time>
      </trkpt>
      <trkpt lat="49.39822" lon="5.76935">
        <ele>281.20001220703</ele>
        <time>2022-09-13T10:32:55.000Z</time>
      </trkpt>
      <trkpt lat="49.39821" lon="5.76938">
        <ele>281.60000610352</ele>
        <time>2022-09-13T10:32:56.000Z</time>
      </trkpt>
      <trkpt lat="49.3982" lon="5.7694">
        <ele>281.79998779297</ele>
        <time>2022-09-13T10:32:57.000Z</time>
      </trkpt>
      <trkpt lat="49.39819" lon="5.76942">
        <ele>282</ele>
        <time>2022-09-13T10:32:58.000Z</time>
      </trkpt>
      <trkpt lat="49.39818" lon="5.76944">
        <ele>282.39999389648</ele>
        <time>2022-09-13T10:32:59.000Z</time>
      </trkpt>
      <trkpt lat="49.39818" lon="5.76947">
        <ele>282.79998779297</ele>
        <time>2022-09-13T10:33:00.000Z</time>
      </trkpt>
      <trkpt lat="49.39817" lon="5.7695">
        <ele>283</ele>
        <time>2022-09-13T10:33:01.000Z</time>
      </trkpt>
      <trkpt lat="49.39817" lon="5.76953">
        <ele>283.60000610352</ele>
        <time>2022-09-13T10:33:02.000Z</time>
      </trkpt>
      <trkpt lat="49.39815" lon="5.76956">
        <ele>284</ele>
        <time>2022-09-13T10:33:03.000Z</time>
      </trkpt>
      <trkpt lat="49.39814" lon="5.7696">
        <ele>284.60000610352</ele>
        <time>2022-09-13T10:33:04.000Z</time>
      </trkpt>
      <trkpt lat="49.39812" lon="5.76964">
        <ele>284.79998779297</ele>
        <time>2022-09-13T10:33:05.000Z</time>
      </trkpt>
      <trkpt lat="49.3981" lon="5.76967">
        <ele>285.39999389648</ele>
        <time>2022-09-13T10:33:06.000Z</time>
      </trkpt>
      <trkpt lat="49.39807" lon="5.76971">
        <ele>285.79998779297</ele>
        <time>2022-09-13T10:33:07.000Z</time>
      </trkpt>
      <trkpt lat="49.39805" lon="5.76974">
        <ele>286.20001220703</ele>
        <time>2022-09-13T10:33:08.000Z</time>
      </trkpt>
      <trkpt lat="49.39803" lon="5.76978">
        <ele>286.60000610352</ele>
        <time>2022-09-13T10:33:09.000Z</time>
      </trkpt>
      <trkpt lat="49.39802" lon="5.76979">
        <ele>286.60000610352</ele>
        <time>2022-09-13T10:33:10.000Z</time>
      </trkpt>
      <trkpt lat="49.39802" lon="5.7698">
        <ele>287</ele>
        <time>2022-09-13T10:33:11.000Z</time>
      </trkpt>
      <trkpt lat="49.39801" lon="5.7698">
        <ele>287.20001220703</ele>
        <time>2022-09-13T10:33:12.000Z</time>
      </trkpt>
      <trkpt lat="49.39799" lon="5.7698">
        <ele>287.60000610352</ele>
        <time>2022-09-13T10:33:13.000Z</time>
      </trkpt>
      <trkpt lat="49.39796" lon="5.76982">
        <ele>287.79998779297</ele>
        <time>2022-09-13T10:33:14.000Z</time>
      </trkpt>
      <trkpt lat="49.39794" lon="5.76983">
        <ele>288.39999389648</ele>
        <time>2022-09-13T10:33:15.000Z</time>
      </trkpt>
      <trkpt lat="49.39791" lon="5.76985">
        <ele>289</ele>
        <time>2022-09-13T10:33:16.000Z</time>
      </trkpt>
      <trkpt lat="49.3979" lon="5.76987">
        <ele>289.39999389648</ele>
        <time>2022-09-13T10:33:17.000Z</time>
      </trkpt>
      <trkpt lat="49.39788" lon="5.76988">
        <ele>289.79998779297</ele>
        <time>2022-09-13T10:33:18.000Z</time>
      </trkpt>
      <trkpt lat="49.39787" lon="5.7699">
        <ele>290</ele>
        <time>2022-09-13T10:33:19.000Z</time>
      </trkpt>
      <trkpt lat="49.39784" lon="5.76992">
        <ele>290.20001220703</ele>
        <time>2022-09-13T10:33:20.000Z</time>
      </trkpt>
      <trkpt lat="49.39781" lon="5.76994">
        <ele>290.20001220703</ele>
        <time>2022-09-13T10:33:21.000Z</time>
      </trkpt>
      <trkpt lat="49.39778" lon="5.76997">
        <ele>290.20001220703</ele>
        <time>2022-09-13T10:33:22.000Z</time>
      </trkpt>
      <trkpt lat="49.39775" lon="5.76998">
        <ele>290.39999389648</ele>
        <time>2022-09-13T10:33:23.000Z</time>
      </trkpt>
      <trkpt lat="49.39774" lon="5.76999">
        <ele>290.39999389648</ele>
        <time>2022-09-13T10:33:24.000Z</time>
      </trkpt>
      <trkpt lat="49.39772" lon="5.76999">
        <ele>290.39999389648</ele>
        <time>2022-09-13T10:33:25.000Z</time>
      </trkpt>
      <trkpt lat="49.3977" lon="5.77002">
        <ele>290.39999389648</ele>
        <time>2022-09-13T10:33:26.000Z</time>
      </trkpt>
      <trkpt lat="49.39768" lon="5.77004">
        <ele>290.39999389648</ele>
        <time>2022-09-13T10:33:27.000Z</time>
      </trkpt>
      <trkpt lat="49.39767" lon="5.77006">
        <ele>290.39999389648</ele>
        <time>2022-09-13T10:33:28.000Z</time>
      </trkpt>
      <trkpt lat="49.39764" lon="5.77008">
        <ele>290.39999389648</ele>
        <time>2022-09-13T10:33:29.000Z</time>
      </trkpt>
      <trkpt lat="49.39762" lon="5.77009">
        <ele>290.39999389648</ele>
        <time>2022-09-13T10:33:30.000Z</time>
      </trkpt>
      <trkpt lat="49.3976" lon="5.77011">
        <ele>290.39999389648</ele>
        <time>2022-09-13T10:33:31.000Z</time>
      </trkpt>
      <trkpt lat="49.39759" lon="5.77012">
        <ele>290.60000610352</ele>
        <time>2022-09-13T10:33:32.000Z</time>
      </trkpt>
      <trkpt lat="49.39759" lon="5.77014">
        <ele>290.60000610352</ele>
        <time>2022-09-13T10:33:34.000Z</time>
      </trkpt>
      <trkpt lat="49.39758" lon="5.77017">
        <ele>290.79998779297</ele>
        <time>2022-09-13T10:33:35.000Z</time>
      </trkpt>
      <trkpt lat="49.39757" lon="5.77019">
        <ele>290.79998779297</ele>
        <time>2022-09-13T10:33:36.000Z</time>
      </trkpt>
      <trkpt lat="49.39756" lon="5.7702">
        <ele>290.79998779297</ele>
        <time>2022-09-13T10:33:37.000Z</time>
      </trkpt>
      <trkpt lat="49.39754" lon="5.77022">
        <ele>291</ele>
        <time>2022-09-13T10:33:38.000Z</time>
      </trkpt>
      <trkpt lat="49.39752" lon="5.77023">
        <ele>291</ele>
        <time>2022-09-13T10:33:39.000Z</time>
      </trkpt>
      <trkpt lat="49.3975" lon="5.77025">
        <ele>291.20001220703</ele>
        <time>2022-09-13T10:33:40.000Z</time>
      </trkpt>
      <trkpt lat="49.39748" lon="5.77027">
        <ele>291.20001220703</ele>
        <time>2022-09-13T10:33:41.000Z</time>
      </trkpt>
      <trkpt lat="49.39747" lon="5.77029">
        <ele>291.39999389648</ele>
        <time>2022-09-13T10:33:42.000Z</time>
      </trkpt>
      <trkpt lat="49.39746" lon="5.7703">
        <ele>291.60000610352</ele>
        <time>2022-09-13T10:33:43.000Z</time>
      </trkpt>
      <trkpt lat="49.39745" lon="5.77031">
        <ele>291.79998779297</ele>
        <time>2022-09-13T10:33:44.000Z</time>
      </trkpt>
      <trkpt lat="49.39744" lon="5.77032">
        <ele>291.79998779297</ele>
        <time>2022-09-13T10:33:45.000Z</time>
      </trkpt>
      <trkpt lat="49.39742" lon="5.77034">
        <ele>292</ele>
        <time>2022-09-13T10:33:46.000Z</time>
      </trkpt>
      <trkpt lat="49.39739" lon="5.77037">
        <ele>292.20001220703</ele>
        <time>2022-09-13T10:33:47.000Z</time>
      </trkpt>
      <trkpt lat="49.39738" lon="5.7704">
        <ele>292.39999389648</ele>
        <time>2022-09-13T10:33:48.000Z</time>
      </trkpt>
      <trkpt lat="49.39736" lon="5.77041">
        <ele>292.60000610352</ele>
        <time>2022-09-13T10:33:49.000Z</time>
      </trkpt>
      <trkpt lat="49.39734" lon="5.77043">
        <ele>292.60000610352</ele>
        <time>2022-09-13T10:33:50.000Z</time>
      </trkpt>
      <trkpt lat="49.39731" lon="5.77043">
        <ele>292.60000610352</ele>
        <time>2022-09-13T10:33:51.000Z</time>
      </trkpt>
      <trkpt lat="49.39728" lon="5.77044">
        <ele>292.60000610352</ele>
        <time>2022-09-13T10:33:52.000Z</time>
      </trkpt>
      <trkpt lat="49.39725" lon="5.77046">
        <ele>292.60000610352</ele>
        <time>2022-09-13T10:33:53.000Z</time>
      </trkpt>
      <trkpt lat="49.3972" lon="5.77047">
        <ele>292.60000610352</ele>
        <time>2022-09-13T10:33:54.000Z</time>
      </trkpt>
      <trkpt lat="49.39717" lon="5.7705">
        <ele>292.60000610352</ele>
        <time>2022-09-13T10:33:55.000Z</time>
      </trkpt>
      <trkpt lat="49.39715" lon="5.77054">
        <ele>292.60000610352</ele>
        <time>2022-09-13T10:33:56.000Z</time>
      </trkpt>
      <trkpt lat="49.39713" lon="5.77061">
        <ele>292.60000610352</ele>
        <time>2022-09-13T10:33:57.000Z</time>
      </trkpt>
      <trkpt lat="49.39711" lon="5.77065">
        <ele>292.39999389648</ele>
        <time>2022-09-13T10:33:58.000Z</time>
      </trkpt>
      <trkpt lat="49.3971" lon="5.77068">
        <ele>292.20001220703</ele>
        <time>2022-09-13T10:33:59.000Z</time>
      </trkpt>
      <trkpt lat="49.39709" lon="5.77072">
        <ele>292.20001220703</ele>
        <time>2022-09-13T10:34:00.000Z</time>
      </trkpt>
      <trkpt lat="49.39708" lon="5.77075">
        <ele>292.39999389648</ele>
        <time>2022-09-13T10:34:01.000Z</time>
      </trkpt>
      <trkpt lat="49.39709" lon="5.77078">
        <ele>292.39999389648</ele>
        <time>2022-09-13T10:34:02.000Z</time>
      </trkpt>
      <trkpt lat="49.3971" lon="5.7708">
        <ele>292.39999389648</ele>
        <time>2022-09-13T10:34:03.000Z</time>
      </trkpt>
      <trkpt lat="49.3971" lon="5.77083">
        <ele>292.39999389648</ele>
        <time>2022-09-13T10:34:04.000Z</time>
      </trkpt>
      <trkpt lat="49.39711" lon="5.77086">
        <ele>292.39999389648</ele>
        <time>2022-09-13T10:34:05.000Z</time>
      </trkpt>
      <trkpt lat="49.39713" lon="5.77089">
        <ele>292.60000610352</ele>
        <time>2022-09-13T10:34:06.000Z</time>
      </trkpt>
      <trkpt lat="49.3972" lon="5.77099">
        <ele>292.60000610352</ele>
        <time>2022-09-13T10:34:10.000Z</time>
      </trkpt>
      <trkpt lat="49.39721" lon="5.77102">
        <ele>292.79998779297</ele>
        <time>2022-09-13T10:34:11.000Z</time>
      </trkpt>
      <trkpt lat="49.39724" lon="5.77107">
        <ele>292.79998779297</ele>
        <time>2022-09-13T10:34:14.000Z</time>
      </trkpt>
      <trkpt lat="49.39724" lon="5.77108">
        <ele>292.79998779297</ele>
        <time>2022-09-13T10:34:15.000Z</time>
      </trkpt>
      <trkpt lat="49.39724" lon="5.7711">
        <ele>292.79998779297</ele>
        <time>2022-09-13T10:34:16.000Z</time>
      </trkpt>
      <trkpt lat="49.39724" lon="5.77115">
        <ele>292.79998779297</ele>
        <time>2022-09-13T10:34:17.000Z</time>
      </trkpt>
      <trkpt lat="49.39728" lon="5.77132">
        <ele>292.60000610352</ele>
        <time>2022-09-13T10:34:20.000Z</time>
      </trkpt>
      <trkpt lat="49.39726" lon="5.77143">
        <ele>292.39999389648</ele>
        <time>2022-09-13T10:34:22.000Z</time>
      </trkpt>
      <trkpt lat="49.39727" lon="5.77148">
        <ele>292.39999389648</ele>
        <time>2022-09-13T10:34:23.000Z</time>
      </trkpt>
      <trkpt lat="49.39728" lon="5.77153">
        <ele>291.60000610352</ele>
        <time>2022-09-13T10:34:25.000Z</time>
      </trkpt>
      <trkpt lat="49.39727" lon="5.77157">
        <ele>291.39999389648</ele>
        <time>2022-09-13T10:34:26.000Z</time>
      </trkpt>
      <trkpt lat="49.39726" lon="5.77159">
        <ele>291.20001220703</ele>
        <time>2022-09-13T10:34:27.000Z</time>
      </trkpt>
      <trkpt lat="49.39724" lon="5.77161">
        <ele>291</ele>
        <time>2022-09-13T10:34:28.000Z</time>
      </trkpt>
      <trkpt lat="49.3972" lon="5.77161">
        <ele>290.79998779297</ele>
        <time>2022-09-13T10:34:30.000Z</time>
      </trkpt>
      <trkpt lat="49.39718" lon="5.77161">
        <ele>290.79998779297</ele>
        <time>2022-09-13T10:34:31.000Z</time>
      </trkpt>
      <trkpt lat="49.39713" lon="5.77166">
        <ele>290.79998779297</ele>
        <time>2022-09-13T10:34:33.000Z</time>
      </trkpt>
      <trkpt lat="49.39711" lon="5.77169">
        <ele>290.79998779297</ele>
        <time>2022-09-13T10:34:34.000Z</time>
      </trkpt>
      <trkpt lat="49.39708" lon="5.77177">
        <ele>290.79998779297</ele>
        <time>2022-09-13T10:34:36.000Z</time>
      </trkpt>
      <trkpt lat="49.39706" lon="5.77181">
        <ele>290.79998779297</ele>
        <time>2022-09-13T10:34:37.000Z</time>
      </trkpt>
      <trkpt lat="49.397" lon="5.77192">
        <ele>291.20001220703</ele>
        <time>2022-09-13T10:34:40.000Z</time>
      </trkpt>
      <trkpt lat="49.39698" lon="5.77194">
        <ele>291.39999389648</ele>
        <time>2022-09-13T10:34:41.000Z</time>
      </trkpt>
      <trkpt lat="49.39697" lon="5.77198">
        <ele>291.60000610352</ele>
        <time>2022-09-13T10:34:42.000Z</time>
      </trkpt>
      <trkpt lat="49.39687" lon="5.7722">
        <ele>291.79998779297</ele>
        <time>2022-09-13T10:34:48.000Z</time>
      </trkpt>
      <trkpt lat="49.39681" lon="5.77233">
        <ele>291.79998779297</ele>
        <time>2022-09-13T10:34:52.000Z</time>
      </trkpt>
      <trkpt lat="49.3968" lon="5.77237">
        <ele>292</ele>
        <time>2022-09-13T10:34:53.000Z</time>
      </trkpt>
      <trkpt lat="49.39678" lon="5.7724">
        <ele>292.20001220703</ele>
        <time>2022-09-13T10:34:54.000Z</time>
      </trkpt>
      <trkpt lat="49.39677" lon="5.77244">
        <ele>292.39999389648</ele>
        <time>2022-09-13T10:34:55.000Z</time>
      </trkpt>
      <trkpt lat="49.39675" lon="5.77247">
        <ele>292.60000610352</ele>
        <time>2022-09-13T10:34:56.000Z</time>
      </trkpt>
      <trkpt lat="49.39672" lon="5.77254">
        <ele>292.79998779297</ele>
        <time>2022-09-13T10:34:58.000Z</time>
      </trkpt>
      <trkpt lat="49.39667" lon="5.77268">
        <ele>293.20001220703</ele>
        <time>2022-09-13T10:35:02.000Z</time>
      </trkpt>
      <trkpt lat="49.39662" lon="5.77278">
        <ele>293.39999389648</ele>
        <time>2022-09-13T10:35:05.000Z</time>
      </trkpt>
      <trkpt lat="49.39659" lon="5.77288">
        <ele>293.60000610352</ele>
        <time>2022-09-13T10:35:08.000Z</time>
      </trkpt>
      <trkpt lat="49.39657" lon="5.77291">
        <ele>293.60000610352</ele>
        <time>2022-09-13T10:35:09.000Z</time>
      </trkpt>
      <trkpt lat="49.39656" lon="5.77294">
        <ele>293.79998779297</ele>
        <time>2022-09-13T10:35:10.000Z</time>
      </trkpt>
      <trkpt lat="49.39655" lon="5.77297">
        <ele>293.79998779297</ele>
        <time>2022-09-13T10:35:11.000Z</time>
      </trkpt>
      <trkpt lat="49.39655" lon="5.77301">
        <ele>294</ele>
        <time>2022-09-13T10:35:12.000Z</time>
      </trkpt>
      <trkpt lat="49.39654" lon="5.77304">
        <ele>294.20001220703</ele>
        <time>2022-09-13T10:35:13.000Z</time>
      </trkpt>
      <trkpt lat="49.39653" lon="5.77308">
        <ele>294.20001220703</ele>
        <time>2022-09-13T10:35:14.000Z</time>
      </trkpt>
      <trkpt lat="49.39652" lon="5.77311">
        <ele>294.20001220703</ele>
        <time>2022-09-13T10:35:15.000Z</time>
      </trkpt>
      <trkpt lat="49.3965" lon="5.77316">
        <ele>294.60000610352</ele>
        <time>2022-09-13T10:35:17.000Z</time>
      </trkpt>
      <trkpt lat="49.39649" lon="5.77319">
        <ele>294.60000610352</ele>
        <time>2022-09-13T10:35:18.000Z</time>
      </trkpt>
      <trkpt lat="49.39648" lon="5.77326">
        <ele>294.79998779297</ele>
        <time>2022-09-13T10:35:20.000Z</time>
      </trkpt>
      <trkpt lat="49.39642" lon="5.77354">
        <ele>295.20001220703</ele>
        <time>2022-09-13T10:35:27.000Z</time>
      </trkpt>
      <trkpt lat="49.39641" lon="5.77362">
        <ele>295.20001220703</ele>
        <time>2022-09-13T10:35:29.000Z</time>
      </trkpt>
      <trkpt lat="49.39638" lon="5.77392">
        <ele>295</ele>
        <time>2022-09-13T10:35:36.000Z</time>
      </trkpt>
      <trkpt lat="49.39637" lon="5.77431">
        <ele>295.20001220703</ele>
        <time>2022-09-13T10:35:44.000Z</time>
      </trkpt>
      <trkpt lat="49.39638" lon="5.77462">
        <ele>295</ele>
        <time>2022-09-13T10:35:50.000Z</time>
      </trkpt>
      <trkpt lat="49.39639" lon="5.77499">
        <ele>294.79998779297</ele>
        <time>2022-09-13T10:35:57.000Z</time>
      </trkpt>
      <trkpt lat="49.39642" lon="5.77533">
        <ele>294.60000610352</ele>
        <time>2022-09-13T10:36:04.000Z</time>
      </trkpt>
      <trkpt lat="49.39642" lon="5.77538">
        <ele>294.60000610352</ele>
        <time>2022-09-13T10:36:05.000Z</time>
      </trkpt>
      <trkpt lat="49.39642" lon="5.77543">
        <ele>294.60000610352</ele>
        <time>2022-09-13T10:36:06.000Z</time>
      </trkpt>
      <trkpt lat="49.39642" lon="5.77548">
        <ele>294.60000610352</ele>
        <time>2022-09-13T10:36:07.000Z</time>
      </trkpt>
      <trkpt lat="49.39642" lon="5.77553">
        <ele>294.39999389648</ele>
        <time>2022-09-13T10:36:08.000Z</time>
      </trkpt>
      <trkpt lat="49.39642" lon="5.77558">
        <ele>294.39999389648</ele>
        <time>2022-09-13T10:36:09.000Z</time>
      </trkpt>
      <trkpt lat="49.39642" lon="5.77563">
        <ele>294.39999389648</ele>
        <time>2022-09-13T10:36:10.000Z</time>
      </trkpt>
      <trkpt lat="49.39643" lon="5.77567">
        <ele>294.60000610352</ele>
        <time>2022-09-13T10:36:11.000Z</time>
      </trkpt>
      <trkpt lat="49.39643" lon="5.77572">
        <ele>295</ele>
        <time>2022-09-13T10:36:12.000Z</time>
      </trkpt>
      <trkpt lat="49.39643" lon="5.77577">
        <ele>295</ele>
        <time>2022-09-13T10:36:13.000Z</time>
      </trkpt>
      <trkpt lat="49.39643" lon="5.77587">
        <ele>295.39999389648</ele>
        <time>2022-09-13T10:36:15.000Z</time>
      </trkpt>
      <trkpt lat="49.39644" lon="5.77592">
        <ele>295.39999389648</ele>
        <time>2022-09-13T10:36:16.000Z</time>
      </trkpt>
      <trkpt lat="49.39644" lon="5.77597">
        <ele>295.39999389648</ele>
        <time>2022-09-13T10:36:17.000Z</time>
      </trkpt>
      <trkpt lat="49.39644" lon="5.77607">
        <ele>295.60000610352</ele>
        <time>2022-09-13T10:36:19.000Z</time>
      </trkpt>
      <trkpt lat="49.39648" lon="5.77649">
        <ele>295.79998779297</ele>
        <time>2022-09-13T10:36:27.000Z</time>
      </trkpt>
      <trkpt lat="49.39649" lon="5.77659">
        <ele>296</ele>
        <time>2022-09-13T10:36:29.000Z</time>
      </trkpt>
      <trkpt lat="49.39649" lon="5.77663">
        <ele>296</ele>
        <time>2022-09-13T10:36:30.000Z</time>
      </trkpt>
      <trkpt lat="49.39649" lon="5.77667">
        <ele>296</ele>
        <time>2022-09-13T10:36:31.000Z</time>
      </trkpt>
      <trkpt lat="49.3965" lon="5.77672">
        <ele>296.20001220703</ele>
        <time>2022-09-13T10:36:32.000Z</time>
      </trkpt>
      <trkpt lat="49.3965" lon="5.77676">
        <ele>296.20001220703</ele>
        <time>2022-09-13T10:36:33.000Z</time>
      </trkpt>
      <trkpt lat="49.39651" lon="5.77681">
        <ele>296.60000610352</ele>
        <time>2022-09-13T10:36:34.000Z</time>
      </trkpt>
      <trkpt lat="49.39652" lon="5.7769">
        <ele>297.20001220703</ele>
        <time>2022-09-13T10:36:36.000Z</time>
      </trkpt>
      <trkpt lat="49.39652" lon="5.77695">
        <ele>297.39999389648</ele>
        <time>2022-09-13T10:36:37.000Z</time>
      </trkpt>
      <trkpt lat="49.39652" lon="5.77699">
        <ele>297.60000610352</ele>
        <time>2022-09-13T10:36:38.000Z</time>
      </trkpt>
      <trkpt lat="49.39653" lon="5.77713">
        <ele>297.60000610352</ele>
        <time>2022-09-13T10:36:41.000Z</time>
      </trkpt>
      <trkpt lat="49.39656" lon="5.77734">
        <ele>298.20001220703</ele>
        <time>2022-09-13T10:36:46.000Z</time>
      </trkpt>
      <trkpt lat="49.39656" lon="5.77738">
        <ele>298.39999389648</ele>
        <time>2022-09-13T10:36:47.000Z</time>
      </trkpt>
      <trkpt lat="49.39657" lon="5.77742">
        <ele>298.20001220703</ele>
        <time>2022-09-13T10:36:48.000Z</time>
      </trkpt>
      <trkpt lat="49.39657" lon="5.77747">
        <ele>298.39999389648</ele>
        <time>2022-09-13T10:36:49.000Z</time>
      </trkpt>
      <trkpt lat="49.39657" lon="5.77752">
        <ele>298.60000610352</ele>
        <time>2022-09-13T10:36:50.000Z</time>
      </trkpt>
      <trkpt lat="49.39657" lon="5.77756">
        <ele>298.60000610352</ele>
        <time>2022-09-13T10:36:51.000Z</time>
      </trkpt>
      <trkpt lat="49.39657" lon="5.77765">
        <ele>298.79998779297</ele>
        <time>2022-09-13T10:36:53.000Z</time>
      </trkpt>
      <trkpt lat="49.39657" lon="5.77769">
        <ele>299</ele>
        <time>2022-09-13T10:36:54.000Z</time>
      </trkpt>
      <trkpt lat="49.39657" lon="5.77773">
        <ele>299.20001220703</ele>
        <time>2022-09-13T10:36:55.000Z</time>
      </trkpt>
      <trkpt lat="49.39657" lon="5.77777">
        <ele>299.39999389648</ele>
        <time>2022-09-13T10:36:56.000Z</time>
      </trkpt>
      <trkpt lat="49.39656" lon="5.77781">
        <ele>299.60000610352</ele>
        <time>2022-09-13T10:36:57.000Z</time>
      </trkpt>
      <trkpt lat="49.39656" lon="5.77786">
        <ele>299.79998779297</ele>
        <time>2022-09-13T10:36:58.000Z</time>
      </trkpt>
      <trkpt lat="49.39656" lon="5.77789">
        <ele>300.20001220703</ele>
        <time>2022-09-13T10:36:59.000Z</time>
      </trkpt>
      <trkpt lat="49.39656" lon="5.77793">
        <ele>300.20001220703</ele>
        <time>2022-09-13T10:37:00.000Z</time>
      </trkpt>
      <trkpt lat="49.39656" lon="5.77797">
        <ele>300.39999389648</ele>
        <time>2022-09-13T10:37:01.000Z</time>
      </trkpt>
      <trkpt lat="49.39657" lon="5.778">
        <ele>300.39999389648</ele>
        <time>2022-09-13T10:37:02.000Z</time>
      </trkpt>
      <trkpt lat="49.39657" lon="5.77804">
        <ele>300.39999389648</ele>
        <time>2022-09-13T10:37:03.000Z</time>
      </trkpt>
      <trkpt lat="49.39657" lon="5.77807">
        <ele>300.39999389648</ele>
        <time>2022-09-13T10:37:04.000Z</time>
      </trkpt>
      <trkpt lat="49.39657" lon="5.7781">
        <ele>300.79998779297</ele>
        <time>2022-09-13T10:37:05.000Z</time>
      </trkpt>
      <trkpt lat="49.39657" lon="5.77813">
        <ele>301</ele>
        <time>2022-09-13T10:37:06.000Z</time>
      </trkpt>
      <trkpt lat="49.39657" lon="5.77817">
        <ele>301</ele>
        <time>2022-09-13T10:37:07.000Z</time>
      </trkpt>
      <trkpt lat="49.39657" lon="5.77821">
        <ele>301.20001220703</ele>
        <time>2022-09-13T10:37:08.000Z</time>
      </trkpt>
      <trkpt lat="49.39656" lon="5.77825">
        <ele>301.20001220703</ele>
        <time>2022-09-13T10:37:09.000Z</time>
      </trkpt>
      <trkpt lat="49.39656" lon="5.77829">
        <ele>301.39999389648</ele>
        <time>2022-09-13T10:37:10.000Z</time>
      </trkpt>
      <trkpt lat="49.39656" lon="5.77834">
        <ele>301.39999389648</ele>
        <time>2022-09-13T10:37:11.000Z</time>
      </trkpt>
      <trkpt lat="49.39656" lon="5.77837">
        <ele>301.60000610352</ele>
        <time>2022-09-13T10:37:12.000Z</time>
      </trkpt>
      <trkpt lat="49.39656" lon="5.7784">
        <ele>301.60000610352</ele>
        <time>2022-09-13T10:37:13.000Z</time>
      </trkpt>
      <trkpt lat="49.39656" lon="5.77845">
        <ele>301.79998779297</ele>
        <time>2022-09-13T10:37:14.000Z</time>
      </trkpt>
      <trkpt lat="49.39656" lon="5.77849">
        <ele>302</ele>
        <time>2022-09-13T10:37:15.000Z</time>
      </trkpt>
      <trkpt lat="49.39656" lon="5.77853">
        <ele>302</ele>
        <time>2022-09-13T10:37:16.000Z</time>
      </trkpt>
      <trkpt lat="49.39656" lon="5.77857">
        <ele>302</ele>
        <time>2022-09-13T10:37:17.000Z</time>
      </trkpt>
      <trkpt lat="49.39655" lon="5.77862">
        <ele>302</ele>
        <time>2022-09-13T10:37:18.000Z</time>
      </trkpt>
      <trkpt lat="49.39655" lon="5.77867">
        <ele>302.20001220703</ele>
        <time>2022-09-13T10:37:19.000Z</time>
      </trkpt>
      <trkpt lat="49.39654" lon="5.77872">
        <ele>302.20001220703</ele>
        <time>2022-09-13T10:37:20.000Z</time>
      </trkpt>
      <trkpt lat="49.39654" lon="5.77876">
        <ele>302.39999389648</ele>
        <time>2022-09-13T10:37:21.000Z</time>
      </trkpt>
      <trkpt lat="49.39654" lon="5.7788">
        <ele>302.39999389648</ele>
        <time>2022-09-13T10:37:22.000Z</time>
      </trkpt>
      <trkpt lat="49.39654" lon="5.77884">
        <ele>302.60000610352</ele>
        <time>2022-09-13T10:37:23.000Z</time>
      </trkpt>
      <trkpt lat="49.39653" lon="5.77889">
        <ele>302.60000610352</ele>
        <time>2022-09-13T10:37:24.000Z</time>
      </trkpt>
      <trkpt lat="49.39653" lon="5.77894">
        <ele>302.60000610352</ele>
        <time>2022-09-13T10:37:25.000Z</time>
      </trkpt>
      <trkpt lat="49.39653" lon="5.77898">
        <ele>302.79998779297</ele>
        <time>2022-09-13T10:37:26.000Z</time>
      </trkpt>
      <trkpt lat="49.39653" lon="5.77902">
        <ele>302.79998779297</ele>
        <time>2022-09-13T10:37:27.000Z</time>
      </trkpt>
      <trkpt lat="49.39654" lon="5.77907">
        <ele>303</ele>
        <time>2022-09-13T10:37:28.000Z</time>
      </trkpt>
      <trkpt lat="49.39653" lon="5.77911">
        <ele>303.20001220703</ele>
        <time>2022-09-13T10:37:29.000Z</time>
      </trkpt>
      <trkpt lat="49.39653" lon="5.77916">
        <ele>303.20001220703</ele>
        <time>2022-09-13T10:37:30.000Z</time>
      </trkpt>
      <trkpt lat="49.39653" lon="5.7792">
        <ele>303.39999389648</ele>
        <time>2022-09-13T10:37:31.000Z</time>
      </trkpt>
      <trkpt lat="49.39654" lon="5.77924">
        <ele>303.39999389648</ele>
        <time>2022-09-13T10:37:32.000Z</time>
      </trkpt>
      <trkpt lat="49.39654" lon="5.77928">
        <ele>303.60000610352</ele>
        <time>2022-09-13T10:37:33.000Z</time>
      </trkpt>
      <trkpt lat="49.39654" lon="5.77933">
        <ele>303.60000610352</ele>
        <time>2022-09-13T10:37:34.000Z</time>
      </trkpt>
      <trkpt lat="49.39654" lon="5.77937">
        <ele>303.79998779297</ele>
        <time>2022-09-13T10:37:35.000Z</time>
      </trkpt>
      <trkpt lat="49.39654" lon="5.77942">
        <ele>304</ele>
        <time>2022-09-13T10:37:36.000Z</time>
      </trkpt>
      <trkpt lat="49.39654" lon="5.77946">
        <ele>304</ele>
        <time>2022-09-13T10:37:37.000Z</time>
      </trkpt>
      <trkpt lat="49.39654" lon="5.77951">
        <ele>304.20001220703</ele>
        <time>2022-09-13T10:37:38.000Z</time>
      </trkpt>
      <trkpt lat="49.39654" lon="5.77955">
        <ele>304.20001220703</ele>
        <time>2022-09-13T10:37:39.000Z</time>
      </trkpt>
      <trkpt lat="49.39653" lon="5.7796">
        <ele>304.60000610352</ele>
        <time>2022-09-13T10:37:40.000Z</time>
      </trkpt>
      <trkpt lat="49.39653" lon="5.77964">
        <ele>304.60000610352</ele>
        <time>2022-09-13T10:37:41.000Z</time>
      </trkpt>
      <trkpt lat="49.39653" lon="5.77969">
        <ele>304.79998779297</ele>
        <time>2022-09-13T10:37:42.000Z</time>
      </trkpt>
      <trkpt lat="49.39653" lon="5.77974">
        <ele>305</ele>
        <time>2022-09-13T10:37:43.000Z</time>
      </trkpt>
      <trkpt lat="49.39653" lon="5.77978">
        <ele>305</ele>
        <time>2022-09-13T10:37:44.000Z</time>
      </trkpt>
      <trkpt lat="49.39653" lon="5.77983">
        <ele>305</ele>
        <time>2022-09-13T10:37:45.000Z</time>
      </trkpt>
      <trkpt lat="49.39652" lon="5.77988">
        <ele>305.20001220703</ele>
        <time>2022-09-13T10:37:46.000Z</time>
      </trkpt>
      <trkpt lat="49.39652" lon="5.77993">
        <ele>305.20001220703</ele>
        <time>2022-09-13T10:37:47.000Z</time>
      </trkpt>
      <trkpt lat="49.39652" lon="5.77998">
        <ele>305.20001220703</ele>
        <time>2022-09-13T10:37:48.000Z</time>
      </trkpt>
      <trkpt lat="49.39652" lon="5.78002">
        <ele>305.39999389648</ele>
        <time>2022-09-13T10:37:49.000Z</time>
      </trkpt>
      <trkpt lat="49.39652" lon="5.78007">
        <ele>305.39999389648</ele>
        <time>2022-09-13T10:37:50.000Z</time>
      </trkpt>
      <trkpt lat="49.39652" lon="5.78012">
        <ele>305.60000610352</ele>
        <time>2022-09-13T10:37:51.000Z</time>
      </trkpt>
      <trkpt lat="49.39652" lon="5.78017">
        <ele>305.79998779297</ele>
        <time>2022-09-13T10:37:52.000Z</time>
      </trkpt>
      <trkpt lat="49.39652" lon="5.78022">
        <ele>305.79998779297</ele>
        <time>2022-09-13T10:37:53.000Z</time>
      </trkpt>
      <trkpt lat="49.39652" lon="5.78027">
        <ele>306</ele>
        <time>2022-09-13T10:37:54.000Z</time>
      </trkpt>
      <trkpt lat="49.39652" lon="5.78031">
        <ele>306</ele>
        <time>2022-09-13T10:37:55.000Z</time>
      </trkpt>
      <trkpt lat="49.39652" lon="5.78036">
        <ele>306</ele>
        <time>2022-09-13T10:37:56.000Z</time>
      </trkpt>
      <trkpt lat="49.39651" lon="5.78046">
        <ele>306.20001220703</ele>
        <time>2022-09-13T10:37:58.000Z</time>
      </trkpt>
      <trkpt lat="49.39651" lon="5.78052">
        <ele>306.20001220703</ele>
        <time>2022-09-13T10:37:59.000Z</time>
      </trkpt>
      <trkpt lat="49.3965" lon="5.78056">
        <ele>306.20001220703</ele>
        <time>2022-09-13T10:38:00.000Z</time>
      </trkpt>
      <trkpt lat="49.3965" lon="5.78062">
        <ele>306.20001220703</ele>
        <time>2022-09-13T10:38:01.000Z</time>
      </trkpt>
      <trkpt lat="49.3965" lon="5.78066">
        <ele>306.20001220703</ele>
        <time>2022-09-13T10:38:02.000Z</time>
      </trkpt>
      <trkpt lat="49.3965" lon="5.7807">
        <ele>306.39999389648</ele>
        <time>2022-09-13T10:38:03.000Z</time>
      </trkpt>
      <trkpt lat="49.3965" lon="5.7808">
        <ele>306.79998779297</ele>
        <time>2022-09-13T10:38:05.000Z</time>
      </trkpt>
      <trkpt lat="49.3965" lon="5.781">
        <ele>307</ele>
        <time>2022-09-13T10:38:09.000Z</time>
      </trkpt>
      <trkpt lat="49.3965" lon="5.78105">
        <ele>307</ele>
        <time>2022-09-13T10:38:10.000Z</time>
      </trkpt>
      <trkpt lat="49.3965" lon="5.78134">
        <ele>307.39999389648</ele>
        <time>2022-09-13T10:38:16.000Z</time>
      </trkpt>
      <trkpt lat="49.3965" lon="5.78139">
        <ele>307.39999389648</ele>
        <time>2022-09-13T10:38:17.000Z</time>
      </trkpt>
      <trkpt lat="49.3965" lon="5.78173">
        <ele>307.79998779297</ele>
        <time>2022-09-13T10:38:24.000Z</time>
      </trkpt>
      <trkpt lat="49.3965" lon="5.78178">
        <ele>307.79998779297</ele>
        <time>2022-09-13T10:38:25.000Z</time>
      </trkpt>
      <trkpt lat="49.3965" lon="5.78183">
        <ele>307.79998779297</ele>
        <time>2022-09-13T10:38:26.000Z</time>
      </trkpt>
      <trkpt lat="49.3965" lon="5.78218">
        <ele>308</ele>
        <time>2022-09-13T10:38:33.000Z</time>
      </trkpt>
      <trkpt lat="49.3965" lon="5.78263">
        <ele>308.60000610352</ele>
        <time>2022-09-13T10:38:41.000Z</time>
      </trkpt>
      <trkpt lat="49.3965" lon="5.78284">
        <ele>308.79998779297</ele>
        <time>2022-09-13T10:38:45.000Z</time>
      </trkpt>
      <trkpt lat="49.3965" lon="5.783">
        <ele>308.79998779297</ele>
        <time>2022-09-13T10:38:48.000Z</time>
      </trkpt>
      <trkpt lat="49.3965" lon="5.78306">
        <ele>308.79998779297</ele>
        <time>2022-09-13T10:38:49.000Z</time>
      </trkpt>
      <trkpt lat="49.3965" lon="5.7831">
        <ele>308.79998779297</ele>
        <time>2022-09-13T10:38:50.000Z</time>
      </trkpt>
      <trkpt lat="49.39649" lon="5.78321">
        <ele>308.79998779297</ele>
        <time>2022-09-13T10:38:52.000Z</time>
      </trkpt>
      <trkpt lat="49.39649" lon="5.7833">
        <ele>308.60000610352</ele>
        <time>2022-09-13T10:38:54.000Z</time>
      </trkpt>
      <trkpt lat="49.39649" lon="5.78335">
        <ele>308.79998779297</ele>
        <time>2022-09-13T10:38:55.000Z</time>
      </trkpt>
      <trkpt lat="49.39649" lon="5.78355">
        <ele>309.39999389648</ele>
        <time>2022-09-13T10:38:59.000Z</time>
      </trkpt>
      <trkpt lat="49.39648" lon="5.78377">
        <ele>309.60000610352</ele>
        <time>2022-09-13T10:39:03.000Z</time>
      </trkpt>
      <trkpt lat="49.39647" lon="5.78397">
        <ele>309.79998779297</ele>
        <time>2022-09-13T10:39:07.000Z</time>
      </trkpt>
      <trkpt lat="49.39647" lon="5.78406">
        <ele>309.79998779297</ele>
        <time>2022-09-13T10:39:09.000Z</time>
      </trkpt>
      <trkpt lat="49.39647" lon="5.78411">
        <ele>309.79998779297</ele>
        <time>2022-09-13T10:39:10.000Z</time>
      </trkpt>
      <trkpt lat="49.39647" lon="5.78416">
        <ele>310</ele>
        <time>2022-09-13T10:39:11.000Z</time>
      </trkpt>
      <trkpt lat="49.39648" lon="5.7842">
        <ele>309.79998779297</ele>
        <time>2022-09-13T10:39:12.000Z</time>
      </trkpt>
      <trkpt lat="49.39649" lon="5.78424">
        <ele>309.79998779297</ele>
        <time>2022-09-13T10:39:13.000Z</time>
      </trkpt>
      <trkpt lat="49.39651" lon="5.78425">
        <ele>309.79998779297</ele>
        <time>2022-09-13T10:39:14.000Z</time>
      </trkpt>
      <trkpt lat="49.39653" lon="5.78426">
        <ele>309.79998779297</ele>
        <time>2022-09-13T10:39:15.000Z</time>
      </trkpt>
      <trkpt lat="49.39655" lon="5.78426">
        <ele>309.79998779297</ele>
        <time>2022-09-13T10:39:16.000Z</time>
      </trkpt>
      <trkpt lat="49.39657" lon="5.78426">
        <ele>309.79998779297</ele>
        <time>2022-09-13T10:39:17.000Z</time>
      </trkpt>
      <trkpt lat="49.39658" lon="5.78427">
        <ele>309.79998779297</ele>
        <time>2022-09-13T10:39:18.000Z</time>
      </trkpt>
      <trkpt lat="49.39659" lon="5.78429">
        <ele>309.60000610352</ele>
        <time>2022-09-13T10:39:19.000Z</time>
      </trkpt>
      <trkpt lat="49.3966" lon="5.78431">
        <ele>309.60000610352</ele>
        <time>2022-09-13T10:39:20.000Z</time>
      </trkpt>
      <trkpt lat="49.39661" lon="5.78434">
        <ele>309.39999389648</ele>
        <time>2022-09-13T10:39:21.000Z</time>
      </trkpt>
      <trkpt lat="49.39662" lon="5.78436">
        <ele>309.39999389648</ele>
        <time>2022-09-13T10:39:22.000Z</time>
      </trkpt>
      <trkpt lat="49.39662" lon="5.78438">
        <ele>309.20001220703</ele>
        <time>2022-09-13T10:39:23.000Z</time>
      </trkpt>
      <trkpt lat="49.39662" lon="5.78441">
        <ele>309</ele>
        <time>2022-09-13T10:39:24.000Z</time>
      </trkpt>
      <trkpt lat="49.39663" lon="5.78444">
        <ele>309</ele>
        <time>2022-09-13T10:39:25.000Z</time>
      </trkpt>
      <trkpt lat="49.39664" lon="5.78448">
        <ele>309</ele>
        <time>2022-09-13T10:39:26.000Z</time>
      </trkpt>
      <trkpt lat="49.39665" lon="5.78451">
        <ele>309</ele>
        <time>2022-09-13T10:39:27.000Z</time>
      </trkpt>
      <trkpt lat="49.39665" lon="5.78465">
        <ele>309</ele>
        <time>2022-09-13T10:39:32.000Z</time>
      </trkpt>
      <trkpt lat="49.39665" lon="5.78467">
        <ele>309</ele>
        <time>2022-09-13T10:39:33.000Z</time>
      </trkpt>
      <trkpt lat="49.39665" lon="5.78469">
        <ele>309</ele>
        <time>2022-09-13T10:39:34.000Z</time>
      </trkpt>
      <trkpt lat="49.39665" lon="5.78472">
        <ele>309.20001220703</ele>
        <time>2022-09-13T10:39:35.000Z</time>
      </trkpt>
      <trkpt lat="49.39665" lon="5.78475">
        <ele>309.20001220703</ele>
        <time>2022-09-13T10:39:36.000Z</time>
      </trkpt>
      <trkpt lat="49.39666" lon="5.78489">
        <ele>309.60000610352</ele>
        <time>2022-09-13T10:39:39.000Z</time>
      </trkpt>
      <trkpt lat="49.39663" lon="5.78507">
        <ele>310</ele>
        <time>2022-09-13T10:39:43.000Z</time>
      </trkpt>
      <trkpt lat="49.39662" lon="5.7851">
        <ele>310</ele>
        <time>2022-09-13T10:39:44.000Z</time>
      </trkpt>
      <trkpt lat="49.39661" lon="5.78514">
        <ele>310</ele>
        <time>2022-09-13T10:39:45.000Z</time>
      </trkpt>
      <trkpt lat="49.3966" lon="5.78522">
        <ele>310</ele>
        <time>2022-09-13T10:39:47.000Z</time>
      </trkpt>
      <trkpt lat="49.39657" lon="5.78533">
        <ele>310</ele>
        <time>2022-09-13T10:39:50.000Z</time>
      </trkpt>
      <trkpt lat="49.39656" lon="5.78534">
        <ele>310.20001220703</ele>
        <time>2022-09-13T10:39:51.000Z</time>
      </trkpt>
      <trkpt lat="49.39656" lon="5.78537">
        <ele>310.20001220703</ele>
        <time>2022-09-13T10:39:52.000Z</time>
      </trkpt>
      <trkpt lat="49.39657" lon="5.78542">
        <ele>310.20001220703</ele>
        <time>2022-09-13T10:39:53.000Z</time>
      </trkpt>
      <trkpt lat="49.39653" lon="5.78556">
        <ele>310.39999389648</ele>
        <time>2022-09-13T10:39:56.000Z</time>
      </trkpt>
      <trkpt lat="49.39652" lon="5.78561">
        <ele>310.39999389648</ele>
        <time>2022-09-13T10:39:57.000Z</time>
      </trkpt>
      <trkpt lat="49.39653" lon="5.78565">
        <ele>310.60000610352</ele>
        <time>2022-09-13T10:39:58.000Z</time>
      </trkpt>
      <trkpt lat="49.39653" lon="5.7857">
        <ele>311</ele>
        <time>2022-09-13T10:39:59.000Z</time>
      </trkpt>
      <trkpt lat="49.39654" lon="5.78572">
        <ele>311</ele>
        <time>2022-09-13T10:40:00.000Z</time>
      </trkpt>
      <trkpt lat="49.39654" lon="5.78575">
        <ele>311.20001220703</ele>
        <time>2022-09-13T10:40:01.000Z</time>
      </trkpt>
      <trkpt lat="49.39661" lon="5.78587">
        <ele>311.39999389648</ele>
        <time>2022-09-13T10:40:04.000Z</time>
      </trkpt>
      <trkpt lat="49.39663" lon="5.78601">
        <ele>311</ele>
        <time>2022-09-13T10:40:07.000Z</time>
      </trkpt>
      <trkpt lat="49.39661" lon="5.78608">
        <ele>310.79998779297</ele>
        <time>2022-09-13T10:40:08.000Z</time>
      </trkpt>
      <trkpt lat="49.3966" lon="5.78617">
        <ele>310.79998779297</ele>
        <time>2022-09-13T10:40:09.000Z</time>
      </trkpt>
      <trkpt lat="49.3966" lon="5.78621">
        <ele>310.60000610352</ele>
        <time>2022-09-13T10:40:10.000Z</time>
      </trkpt>
      <trkpt lat="49.3966" lon="5.78622">
        <ele>310.60000610352</ele>
        <time>2022-09-13T10:40:11.000Z</time>
      </trkpt>
      <trkpt lat="49.39659" lon="5.78624">
        <ele>310.39999389648</ele>
        <time>2022-09-13T10:40:12.000Z</time>
      </trkpt>
      <trkpt lat="49.39658" lon="5.78627">
        <ele>310.39999389648</ele>
        <time>2022-09-13T10:40:13.000Z</time>
      </trkpt>
      <trkpt lat="49.39658" lon="5.78629">
        <ele>310.20001220703</ele>
        <time>2022-09-13T10:40:15.000Z</time>
      </trkpt>
      <trkpt lat="49.39658" lon="5.78632">
        <ele>310</ele>
        <time>2022-09-13T10:40:16.000Z</time>
      </trkpt>
      <trkpt lat="49.39657" lon="5.78636">
        <ele>310</ele>
        <time>2022-09-13T10:40:17.000Z</time>
      </trkpt>
      <trkpt lat="49.39654" lon="5.78642">
        <ele>309.79998779297</ele>
        <time>2022-09-13T10:40:19.000Z</time>
      </trkpt>
      <trkpt lat="49.39652" lon="5.78648">
        <ele>309.79998779297</ele>
        <time>2022-09-13T10:40:20.000Z</time>
      </trkpt>
      <trkpt lat="49.3965" lon="5.78653">
        <ele>309.79998779297</ele>
        <time>2022-09-13T10:40:21.000Z</time>
      </trkpt>
      <trkpt lat="49.39649" lon="5.78656">
        <ele>309.60000610352</ele>
        <time>2022-09-13T10:40:22.000Z</time>
      </trkpt>
      <trkpt lat="49.39645" lon="5.78676">
        <ele>309.39999389648</ele>
        <time>2022-09-13T10:40:26.000Z</time>
      </trkpt>
      <trkpt lat="49.39643" lon="5.78685">
        <ele>309.39999389648</ele>
        <time>2022-09-13T10:40:27.000Z</time>
      </trkpt>
      <trkpt lat="49.39636" lon="5.78714">
        <ele>308.60000610352</ele>
        <time>2022-09-13T10:40:31.000Z</time>
      </trkpt>
      <trkpt lat="49.39636" lon="5.78722">
        <ele>308.39999389648</ele>
        <time>2022-09-13T10:40:32.000Z</time>
      </trkpt>
      <trkpt lat="49.39635" lon="5.78729">
        <ele>308</ele>
        <time>2022-09-13T10:40:33.000Z</time>
      </trkpt>
      <trkpt lat="49.39634" lon="5.78741">
        <ele>307</ele>
        <time>2022-09-13T10:40:35.000Z</time>
      </trkpt>
      <trkpt lat="49.39635" lon="5.78745">
        <ele>306</ele>
        <time>2022-09-13T10:40:36.000Z</time>
      </trkpt>
      <trkpt lat="49.39633" lon="5.78752">
        <ele>305.79998779297</ele>
        <time>2022-09-13T10:40:37.000Z</time>
      </trkpt>
      <trkpt lat="49.39632" lon="5.78758">
        <ele>305.39999389648</ele>
        <time>2022-09-13T10:40:38.000Z</time>
      </trkpt>
      <trkpt lat="49.39632" lon="5.78765">
        <ele>305.20001220703</ele>
        <time>2022-09-13T10:40:39.000Z</time>
      </trkpt>
      <trkpt lat="49.39633" lon="5.78771">
        <ele>305</ele>
        <time>2022-09-13T10:40:40.000Z</time>
      </trkpt>
      <trkpt lat="49.39635" lon="5.78778">
        <ele>304.79998779297</ele>
        <time>2022-09-13T10:40:41.000Z</time>
      </trkpt>
      <trkpt lat="49.39634" lon="5.78784">
        <ele>304.20001220703</ele>
        <time>2022-09-13T10:40:42.000Z</time>
      </trkpt>
      <trkpt lat="49.3963" lon="5.78794">
        <ele>302.79998779297</ele>
        <time>2022-09-13T10:40:44.000Z</time>
      </trkpt>
      <trkpt lat="49.39628" lon="5.78801">
        <ele>301.20001220703</ele>
        <time>2022-09-13T10:40:45.000Z</time>
      </trkpt>
      <trkpt lat="49.39622" lon="5.78815">
        <ele>300</ele>
        <time>2022-09-13T10:40:47.000Z</time>
      </trkpt>
      <trkpt lat="49.39616" lon="5.78832">
        <ele>298.79998779297</ele>
        <time>2022-09-13T10:40:49.000Z</time>
      </trkpt>
      <trkpt lat="49.39614" lon="5.78836">
        <ele>298.60000610352</ele>
        <time>2022-09-13T10:40:50.000Z</time>
      </trkpt>
      <trkpt lat="49.39614" lon="5.78837">
        <ele>298.39999389648</ele>
        <time>2022-09-13T10:40:51.000Z</time>
      </trkpt>
      <trkpt lat="49.39613" lon="5.7884">
        <ele>298.20001220703</ele>
        <time>2022-09-13T10:40:52.000Z</time>
      </trkpt>
      <trkpt lat="49.39612" lon="5.78844">
        <ele>298</ele>
        <time>2022-09-13T10:40:53.000Z</time>
      </trkpt>
      <trkpt lat="49.39609" lon="5.7885">
        <ele>297.79998779297</ele>
        <time>2022-09-13T10:40:54.000Z</time>
      </trkpt>
      <trkpt lat="49.39606" lon="5.7886">
        <ele>297.60000610352</ele>
        <time>2022-09-13T10:40:57.000Z</time>
      </trkpt>
      <trkpt lat="49.39605" lon="5.78864">
        <ele>297.60000610352</ele>
        <time>2022-09-13T10:40:58.000Z</time>
      </trkpt>
      <trkpt lat="49.39605" lon="5.78867">
        <ele>297.60000610352</ele>
        <time>2022-09-13T10:40:59.000Z</time>
      </trkpt>
      <trkpt lat="49.39603" lon="5.78871">
        <ele>297.60000610352</ele>
        <time>2022-09-13T10:41:00.000Z</time>
      </trkpt>
      <trkpt lat="49.39603" lon="5.78875">
        <ele>297.60000610352</ele>
        <time>2022-09-13T10:41:01.000Z</time>
      </trkpt>
      <trkpt lat="49.39603" lon="5.78878">
        <ele>297.60000610352</ele>
        <time>2022-09-13T10:41:02.000Z</time>
      </trkpt>
      <trkpt lat="49.39604" lon="5.78881">
        <ele>297.39999389648</ele>
        <time>2022-09-13T10:41:03.000Z</time>
      </trkpt>
      <trkpt lat="49.39604" lon="5.78885">
        <ele>297.39999389648</ele>
        <time>2022-09-13T10:41:04.000Z</time>
      </trkpt>
      <trkpt lat="49.39603" lon="5.7889">
        <ele>297.60000610352</ele>
        <time>2022-09-13T10:41:05.000Z</time>
      </trkpt>
      <trkpt lat="49.39603" lon="5.78894">
        <ele>297.60000610352</ele>
        <time>2022-09-13T10:41:06.000Z</time>
      </trkpt>
      <trkpt lat="49.39602" lon="5.78895">
        <ele>297.60000610352</ele>
        <time>2022-09-13T10:41:07.000Z</time>
      </trkpt>
      <trkpt lat="49.39602" lon="5.78899">
        <ele>297.60000610352</ele>
        <time>2022-09-13T10:41:08.000Z</time>
      </trkpt>
      <trkpt lat="49.39601" lon="5.78904">
        <ele>297.60000610352</ele>
        <time>2022-09-13T10:41:09.000Z</time>
      </trkpt>
      <trkpt lat="49.396" lon="5.78914">
        <ele>297.60000610352</ele>
        <time>2022-09-13T10:41:11.000Z</time>
      </trkpt>
      <trkpt lat="49.39595" lon="5.7893">
        <ele>297.39999389648</ele>
        <time>2022-09-13T10:41:14.000Z</time>
      </trkpt>
      <trkpt lat="49.39595" lon="5.78935">
        <ele>297.39999389648</ele>
        <time>2022-09-13T10:41:15.000Z</time>
      </trkpt>
      <trkpt lat="49.39594" lon="5.78938">
        <ele>297.39999389648</ele>
        <time>2022-09-13T10:41:16.000Z</time>
      </trkpt>
      <trkpt lat="49.39594" lon="5.78942">
        <ele>297.39999389648</ele>
        <time>2022-09-13T10:41:17.000Z</time>
      </trkpt>
      <trkpt lat="49.39594" lon="5.78946">
        <ele>297.39999389648</ele>
        <time>2022-09-13T10:41:18.000Z</time>
      </trkpt>
      <trkpt lat="49.39595" lon="5.78947">
        <ele>297.39999389648</ele>
        <time>2022-09-13T10:41:19.000Z</time>
      </trkpt>
      <trkpt lat="49.39593" lon="5.78959">
        <ele>297.39999389648</ele>
        <time>2022-09-13T10:41:23.000Z</time>
      </trkpt>
      <trkpt lat="49.3959" lon="5.78965">
        <ele>297.20001220703</ele>
        <time>2022-09-13T10:41:24.000Z</time>
      </trkpt>
      <trkpt lat="49.39589" lon="5.78971">
        <ele>297.20001220703</ele>
        <time>2022-09-13T10:41:25.000Z</time>
      </trkpt>
      <trkpt lat="49.39577" lon="5.78994">
        <ele>297.60000610352</ele>
        <time>2022-09-13T10:41:32.000Z</time>
      </trkpt>
      <trkpt lat="49.39578" lon="5.78999">
        <ele>297.79998779297</ele>
        <time>2022-09-13T10:41:34.000Z</time>
      </trkpt>
      <trkpt lat="49.3958" lon="5.79002">
        <ele>298.20001220703</ele>
        <time>2022-09-13T10:41:35.000Z</time>
      </trkpt>
      <trkpt lat="49.39581" lon="5.79007">
        <ele>298.20001220703</ele>
        <time>2022-09-13T10:41:36.000Z</time>
      </trkpt>
      <trkpt lat="49.39582" lon="5.79011">
        <ele>298.39999389648</ele>
        <time>2022-09-13T10:41:37.000Z</time>
      </trkpt>
      <trkpt lat="49.39582" lon="5.79017">
        <ele>298.39999389648</ele>
        <time>2022-09-13T10:41:38.000Z</time>
      </trkpt>
      <trkpt lat="49.39584" lon="5.79024">
        <ele>298.39999389648</ele>
        <time>2022-09-13T10:41:39.000Z</time>
      </trkpt>
      <trkpt lat="49.39585" lon="5.79031">
        <ele>298.39999389648</ele>
        <time>2022-09-13T10:41:40.000Z</time>
      </trkpt>
      <trkpt lat="49.39588" lon="5.79041">
        <ele>298.20001220703</ele>
        <time>2022-09-13T10:41:42.000Z</time>
      </trkpt>
      <trkpt lat="49.39589" lon="5.79043">
        <ele>298</ele>
        <time>2022-09-13T10:41:43.000Z</time>
      </trkpt>
      <trkpt lat="49.39591" lon="5.79043">
        <ele>297.60000610352</ele>
        <time>2022-09-13T10:41:44.000Z</time>
      </trkpt>
      <trkpt lat="49.39593" lon="5.79042">
        <ele>297</ele>
        <time>2022-09-13T10:41:45.000Z</time>
      </trkpt>
      <trkpt lat="49.39599" lon="5.79037">
        <ele>296.39999389648</ele>
        <time>2022-09-13T10:41:47.000Z</time>
      </trkpt>
      <trkpt lat="49.3961" lon="5.79029">
        <ele>295.60000610352</ele>
        <time>2022-09-13T10:41:49.000Z</time>
      </trkpt>
      <trkpt lat="49.39616" lon="5.79022">
        <ele>295.20001220703</ele>
        <time>2022-09-13T10:41:50.000Z</time>
      </trkpt>
      <trkpt lat="49.39626" lon="5.79008">
        <ele>294</ele>
        <time>2022-09-13T10:41:52.000Z</time>
      </trkpt>
      <trkpt lat="49.39631" lon="5.79">
        <ele>293.39999389648</ele>
        <time>2022-09-13T10:41:53.000Z</time>
      </trkpt>
      <trkpt lat="49.39634" lon="5.78993">
        <ele>292.60000610352</ele>
        <time>2022-09-13T10:41:54.000Z</time>
      </trkpt>
      <trkpt lat="49.39638" lon="5.78985">
        <ele>292.39999389648</ele>
        <time>2022-09-13T10:41:55.000Z</time>
      </trkpt>
      <trkpt lat="49.39641" lon="5.78977">
        <ele>291</ele>
        <time>2022-09-13T10:41:56.000Z</time>
      </trkpt>
      <trkpt lat="49.39644" lon="5.7897">
        <ele>290.20001220703</ele>
        <time>2022-09-13T10:41:57.000Z</time>
      </trkpt>
      <trkpt lat="49.39647" lon="5.78966">
        <ele>289</ele>
        <time>2022-09-13T10:41:58.000Z</time>
      </trkpt>
      <trkpt lat="49.3965" lon="5.78964">
        <ele>288.39999389648</ele>
        <time>2022-09-13T10:41:59.000Z</time>
      </trkpt>
      <trkpt lat="49.39653" lon="5.78964">
        <ele>287</ele>
        <time>2022-09-13T10:42:00.000Z</time>
      </trkpt>
      <trkpt lat="49.39655" lon="5.78968">
        <ele>285.39999389648</ele>
        <time>2022-09-13T10:42:01.000Z</time>
      </trkpt>
      <trkpt lat="49.39656" lon="5.78974">
        <ele>284.60000610352</ele>
        <time>2022-09-13T10:42:02.000Z</time>
      </trkpt>
      <trkpt lat="49.39656" lon="5.7898">
        <ele>283.39999389648</ele>
        <time>2022-09-13T10:42:03.000Z</time>
      </trkpt>
      <trkpt lat="49.39657" lon="5.78994">
        <ele>281.79998779297</ele>
        <time>2022-09-13T10:42:05.000Z</time>
      </trkpt>
      <trkpt lat="49.39655" lon="5.79004">
        <ele>281.39999389648</ele>
        <time>2022-09-13T10:42:06.000Z</time>
      </trkpt>
      <trkpt lat="49.39649" lon="5.7903">
        <ele>280.60000610352</ele>
        <time>2022-09-13T10:42:08.000Z</time>
      </trkpt>
      <trkpt lat="49.39643" lon="5.79078">
        <ele>279.39999389648</ele>
        <time>2022-09-13T10:42:11.000Z</time>
      </trkpt>
      <trkpt lat="49.39636" lon="5.79108">
        <ele>278</ele>
        <time>2022-09-13T10:42:13.000Z</time>
      </trkpt>
      <trkpt lat="49.39629" lon="5.79118">
        <ele>276.79998779297</ele>
        <time>2022-09-13T10:42:14.000Z</time>
      </trkpt>
      <trkpt lat="49.39625" lon="5.79127">
        <ele>275.60000610352</ele>
        <time>2022-09-13T10:42:15.000Z</time>
      </trkpt>
      <trkpt lat="49.3962" lon="5.79134">
        <ele>275.20001220703</ele>
        <time>2022-09-13T10:42:16.000Z</time>
      </trkpt>
      <trkpt lat="49.39616" lon="5.7914">
        <ele>274</ele>
        <time>2022-09-13T10:42:17.000Z</time>
      </trkpt>
      <trkpt lat="49.39612" lon="5.79147">
        <ele>273.39999389648</ele>
        <time>2022-09-13T10:42:18.000Z</time>
      </trkpt>
      <trkpt lat="49.39609" lon="5.79153">
        <ele>272.60000610352</ele>
        <time>2022-09-13T10:42:19.000Z</time>
      </trkpt>
      <trkpt lat="49.39605" lon="5.7916">
        <ele>272.20001220703</ele>
        <time>2022-09-13T10:42:20.000Z</time>
      </trkpt>
      <trkpt lat="49.39602" lon="5.79166">
        <ele>271.60000610352</ele>
        <time>2022-09-13T10:42:21.000Z</time>
      </trkpt>
      <trkpt lat="49.39598" lon="5.79174">
        <ele>270.60000610352</ele>
        <time>2022-09-13T10:42:22.000Z</time>
      </trkpt>
      <trkpt lat="49.39595" lon="5.7918">
        <ele>270.39999389648</ele>
        <time>2022-09-13T10:42:23.000Z</time>
      </trkpt>
      <trkpt lat="49.39592" lon="5.79185">
        <ele>270</ele>
        <time>2022-09-13T10:42:24.000Z</time>
      </trkpt>
      <trkpt lat="49.3959" lon="5.79188">
        <ele>270</ele>
        <time>2022-09-13T10:42:25.000Z</time>
      </trkpt>
      <trkpt lat="49.39589" lon="5.79191">
        <ele>269.79998779297</ele>
        <time>2022-09-13T10:42:26.000Z</time>
      </trkpt>
      <trkpt lat="49.39587" lon="5.79193">
        <ele>269.79998779297</ele>
        <time>2022-09-13T10:42:27.000Z</time>
      </trkpt>
      <trkpt lat="49.39584" lon="5.79196">
        <ele>269.79998779297</ele>
        <time>2022-09-13T10:42:28.000Z</time>
      </trkpt>
      <trkpt lat="49.39582" lon="5.792">
        <ele>269.60000610352</ele>
        <time>2022-09-13T10:42:29.000Z</time>
      </trkpt>
      <trkpt lat="49.3958" lon="5.79204">
        <ele>269.60000610352</ele>
        <time>2022-09-13T10:42:30.000Z</time>
      </trkpt>
      <trkpt lat="49.39577" lon="5.7921">
        <ele>269.60000610352</ele>
        <time>2022-09-13T10:42:32.000Z</time>
      </trkpt>
      <trkpt lat="49.39574" lon="5.79214">
        <ele>269.60000610352</ele>
        <time>2022-09-13T10:42:33.000Z</time>
      </trkpt>
      <trkpt lat="49.39571" lon="5.7922">
        <ele>269.60000610352</ele>
        <time>2022-09-13T10:42:34.000Z</time>
      </trkpt>
      <trkpt lat="49.39559" lon="5.79246">
        <ele>269.60000610352</ele>
        <time>2022-09-13T10:42:38.000Z</time>
      </trkpt>
      <trkpt lat="49.39556" lon="5.79253">
        <ele>269.79998779297</ele>
        <time>2022-09-13T10:42:39.000Z</time>
      </trkpt>
      <trkpt lat="49.39554" lon="5.79258">
        <ele>270.20001220703</ele>
        <time>2022-09-13T10:42:40.000Z</time>
      </trkpt>
      <trkpt lat="49.39549" lon="5.79283">
        <ele>270.60000610352</ele>
        <time>2022-09-13T10:42:42.000Z</time>
      </trkpt>
      <trkpt lat="49.39547" lon="5.79291">
        <ele>270.60000610352</ele>
        <time>2022-09-13T10:42:43.000Z</time>
      </trkpt>
      <trkpt lat="49.39545" lon="5.79299">
        <ele>270.79998779297</ele>
        <time>2022-09-13T10:42:44.000Z</time>
      </trkpt>
      <trkpt lat="49.39545" lon="5.79304">
        <ele>271</ele>
        <time>2022-09-13T10:42:45.000Z</time>
      </trkpt>
      <trkpt lat="49.39543" lon="5.79312">
        <ele>271</ele>
        <time>2022-09-13T10:42:46.000Z</time>
      </trkpt>
      <trkpt lat="49.39542" lon="5.79319">
        <ele>271</ele>
        <time>2022-09-13T10:42:47.000Z</time>
      </trkpt>
      <trkpt lat="49.39538" lon="5.79352">
        <ele>271.39999389648</ele>
        <time>2022-09-13T10:42:52.000Z</time>
      </trkpt>
      <trkpt lat="49.3954" lon="5.79357">
        <ele>271.60000610352</ele>
        <time>2022-09-13T10:42:53.000Z</time>
      </trkpt>
      <trkpt lat="49.3954" lon="5.79361">
        <ele>271.60000610352</ele>
        <time>2022-09-13T10:42:54.000Z</time>
      </trkpt>
      <trkpt lat="49.39538" lon="5.79367">
        <ele>271.79998779297</ele>
        <time>2022-09-13T10:42:55.000Z</time>
      </trkpt>
      <trkpt lat="49.39537" lon="5.79372">
        <ele>272</ele>
        <time>2022-09-13T10:42:56.000Z</time>
      </trkpt>
      <trkpt lat="49.39537" lon="5.79378">
        <ele>272.20001220703</ele>
        <time>2022-09-13T10:42:57.000Z</time>
      </trkpt>
      <trkpt lat="49.39539" lon="5.79384">
        <ele>272.20001220703</ele>
        <time>2022-09-13T10:42:58.000Z</time>
      </trkpt>
      <trkpt lat="49.39542" lon="5.79389">
        <ele>272.39999389648</ele>
        <time>2022-09-13T10:42:59.000Z</time>
      </trkpt>
      <trkpt lat="49.39544" lon="5.79395">
        <ele>272.39999389648</ele>
        <time>2022-09-13T10:43:00.000Z</time>
      </trkpt>
      <trkpt lat="49.39546" lon="5.79419">
        <ele>272.79998779297</ele>
        <time>2022-09-13T10:43:02.000Z</time>
      </trkpt>
      <trkpt lat="49.39546" lon="5.79429">
        <ele>272.79998779297</ele>
        <time>2022-09-13T10:43:03.000Z</time>
      </trkpt>
      <trkpt lat="49.39547" lon="5.79437">
        <ele>272.79998779297</ele>
        <time>2022-09-13T10:43:04.000Z</time>
      </trkpt>
      <trkpt lat="49.3955" lon="5.79448">
        <ele>272.79998779297</ele>
        <time>2022-09-13T10:43:06.000Z</time>
      </trkpt>
      <trkpt lat="49.39551" lon="5.79453">
        <ele>272.79998779297</ele>
        <time>2022-09-13T10:43:07.000Z</time>
      </trkpt>
      <trkpt lat="49.39555" lon="5.7946">
        <ele>272.79998779297</ele>
        <time>2022-09-13T10:43:08.000Z</time>
      </trkpt>
      <trkpt lat="49.39558" lon="5.79478">
        <ele>272.79998779297</ele>
        <time>2022-09-13T10:43:09.000Z</time>
      </trkpt>
      <trkpt lat="49.3956" lon="5.79486">
        <ele>272.60000610352</ele>
        <time>2022-09-13T10:43:10.000Z</time>
      </trkpt>
      <trkpt lat="49.39563" lon="5.79506">
        <ele>272.60000610352</ele>
        <time>2022-09-13T10:43:12.000Z</time>
      </trkpt>
      <trkpt lat="49.39564" lon="5.79518">
        <ele>272.60000610352</ele>
        <time>2022-09-13T10:43:13.000Z</time>
      </trkpt>
      <trkpt lat="49.39566" lon="5.79524">
        <ele>272.39999389648</ele>
        <time>2022-09-13T10:43:14.000Z</time>
      </trkpt>
      <trkpt lat="49.39568" lon="5.79527">
        <ele>272.39999389648</ele>
        <time>2022-09-13T10:43:15.000Z</time>
      </trkpt>
      <trkpt lat="49.3957" lon="5.79531">
        <ele>272.39999389648</ele>
        <time>2022-09-13T10:43:16.000Z</time>
      </trkpt>
      <trkpt lat="49.39572" lon="5.79536">
        <ele>272.20001220703</ele>
        <time>2022-09-13T10:43:17.000Z</time>
      </trkpt>
      <trkpt lat="49.39574" lon="5.79541">
        <ele>272.20001220703</ele>
        <time>2022-09-13T10:43:18.000Z</time>
      </trkpt>
      <trkpt lat="49.39578" lon="5.79548">
        <ele>272.20001220703</ele>
        <time>2022-09-13T10:43:19.000Z</time>
      </trkpt>
      <trkpt lat="49.39595" lon="5.79587">
        <ele>271.60000610352</ele>
        <time>2022-09-13T10:43:25.000Z</time>
      </trkpt>
      <trkpt lat="49.39599" lon="5.7959">
        <ele>271.60000610352</ele>
        <time>2022-09-13T10:43:26.000Z</time>
      </trkpt>
      <trkpt lat="49.39601" lon="5.79593">
        <ele>271.60000610352</ele>
        <time>2022-09-13T10:43:27.000Z</time>
      </trkpt>
      <trkpt lat="49.39605" lon="5.79596">
        <ele>271.60000610352</ele>
        <time>2022-09-13T10:43:28.000Z</time>
      </trkpt>
      <trkpt lat="49.39609" lon="5.79601">
        <ele>271.60000610352</ele>
        <time>2022-09-13T10:43:29.000Z</time>
      </trkpt>
      <trkpt lat="49.39613" lon="5.79608">
        <ele>271.39999389648</ele>
        <time>2022-09-13T10:43:30.000Z</time>
      </trkpt>
      <trkpt lat="49.39632" lon="5.79644">
        <ele>271.39999389648</ele>
        <time>2022-09-13T10:43:35.000Z</time>
      </trkpt>
      <trkpt lat="49.39634" lon="5.79655">
        <ele>271.39999389648</ele>
        <time>2022-09-13T10:43:37.000Z</time>
      </trkpt>
      <trkpt lat="49.39635" lon="5.79659">
        <ele>271.39999389648</ele>
        <time>2022-09-13T10:43:38.000Z</time>
      </trkpt>
      <trkpt lat="49.39635" lon="5.79663">
        <ele>271.60000610352</ele>
        <time>2022-09-13T10:43:39.000Z</time>
      </trkpt>
      <trkpt lat="49.39635" lon="5.79666">
        <ele>271.60000610352</ele>
        <time>2022-09-13T10:43:40.000Z</time>
      </trkpt>
      <trkpt lat="49.39636" lon="5.79671">
        <ele>271.60000610352</ele>
        <time>2022-09-13T10:43:41.000Z</time>
      </trkpt>
      <trkpt lat="49.39637" lon="5.79675">
        <ele>271.79998779297</ele>
        <time>2022-09-13T10:43:42.000Z</time>
      </trkpt>
      <trkpt lat="49.39651" lon="5.797">
        <ele>272.39999389648</ele>
        <time>2022-09-13T10:43:45.000Z</time>
      </trkpt>
      <trkpt lat="49.39652" lon="5.79708">
        <ele>272.79998779297</ele>
        <time>2022-09-13T10:43:46.000Z</time>
      </trkpt>
      <trkpt lat="49.39654" lon="5.79716">
        <ele>273.20001220703</ele>
        <time>2022-09-13T10:43:47.000Z</time>
      </trkpt>
      <trkpt lat="49.39656" lon="5.7972">
        <ele>273.39999389648</ele>
        <time>2022-09-13T10:43:48.000Z</time>
      </trkpt>
      <trkpt lat="49.39656" lon="5.79725">
        <ele>273.79998779297</ele>
        <time>2022-09-13T10:43:49.000Z</time>
      </trkpt>
      <trkpt lat="49.39656" lon="5.79732">
        <ele>274</ele>
        <time>2022-09-13T10:43:50.000Z</time>
      </trkpt>
      <trkpt lat="49.39656" lon="5.79742">
        <ele>274.60000610352</ele>
        <time>2022-09-13T10:43:52.000Z</time>
      </trkpt>
      <trkpt lat="49.39656" lon="5.79745">
        <ele>275</ele>
        <time>2022-09-13T10:43:53.000Z</time>
      </trkpt>
      <trkpt lat="49.39656" lon="5.79749">
        <ele>275.20001220703</ele>
        <time>2022-09-13T10:43:54.000Z</time>
      </trkpt>
      <trkpt lat="49.39657" lon="5.79753">
        <ele>275.39999389648</ele>
        <time>2022-09-13T10:43:55.000Z</time>
      </trkpt>
      <trkpt lat="49.39658" lon="5.79757">
        <ele>275.60000610352</ele>
        <time>2022-09-13T10:43:56.000Z</time>
      </trkpt>
      <trkpt lat="49.3966" lon="5.79761">
        <ele>276</ele>
        <time>2022-09-13T10:43:57.000Z</time>
      </trkpt>
      <trkpt lat="49.39661" lon="5.79765">
        <ele>276.60000610352</ele>
        <time>2022-09-13T10:43:58.000Z</time>
      </trkpt>
      <trkpt lat="49.39662" lon="5.7977">
        <ele>276.79998779297</ele>
        <time>2022-09-13T10:43:59.000Z</time>
      </trkpt>
      <trkpt lat="49.39663" lon="5.79775">
        <ele>277</ele>
        <time>2022-09-13T10:44:00.000Z</time>
      </trkpt>
      <trkpt lat="49.39663" lon="5.79779">
        <ele>277</ele>
        <time>2022-09-13T10:44:01.000Z</time>
      </trkpt>
      <trkpt lat="49.39663" lon="5.79784">
        <ele>277.60000610352</ele>
        <time>2022-09-13T10:44:02.000Z</time>
      </trkpt>
      <trkpt lat="49.39661" lon="5.79788">
        <ele>278</ele>
        <time>2022-09-13T10:44:03.000Z</time>
      </trkpt>
      <trkpt lat="49.39662" lon="5.79792">
        <ele>278.39999389648</ele>
        <time>2022-09-13T10:44:04.000Z</time>
      </trkpt>
      <trkpt lat="49.39662" lon="5.79796">
        <ele>278.79998779297</ele>
        <time>2022-09-13T10:44:05.000Z</time>
      </trkpt>
      <trkpt lat="49.39663" lon="5.79801">
        <ele>279</ele>
        <time>2022-09-13T10:44:06.000Z</time>
      </trkpt>
      <trkpt lat="49.39663" lon="5.79805">
        <ele>279.20001220703</ele>
        <time>2022-09-13T10:44:07.000Z</time>
      </trkpt>
      <trkpt lat="49.39663" lon="5.79808">
        <ele>279.60000610352</ele>
        <time>2022-09-13T10:44:08.000Z</time>
      </trkpt>
      <trkpt lat="49.39662" lon="5.79812">
        <ele>280.20001220703</ele>
        <time>2022-09-13T10:44:09.000Z</time>
      </trkpt>
      <trkpt lat="49.39661" lon="5.79817">
        <ele>280.39999389648</ele>
        <time>2022-09-13T10:44:10.000Z</time>
      </trkpt>
      <trkpt lat="49.3966" lon="5.79823">
        <ele>280.60000610352</ele>
        <time>2022-09-13T10:44:11.000Z</time>
      </trkpt>
      <trkpt lat="49.3966" lon="5.79827">
        <ele>281</ele>
        <time>2022-09-13T10:44:12.000Z</time>
      </trkpt>
      <trkpt lat="49.39659" lon="5.79831">
        <ele>281.39999389648</ele>
        <time>2022-09-13T10:44:13.000Z</time>
      </trkpt>
      <trkpt lat="49.3966" lon="5.79837">
        <ele>281.79998779297</ele>
        <time>2022-09-13T10:44:14.000Z</time>
      </trkpt>
      <trkpt lat="49.39659" lon="5.79841">
        <ele>281.79998779297</ele>
        <time>2022-09-13T10:44:15.000Z</time>
      </trkpt>
      <trkpt lat="49.39658" lon="5.79846">
        <ele>282</ele>
        <time>2022-09-13T10:44:16.000Z</time>
      </trkpt>
      <trkpt lat="49.39655" lon="5.7985">
        <ele>282</ele>
        <time>2022-09-13T10:44:17.000Z</time>
      </trkpt>
      <trkpt lat="49.39652" lon="5.79854">
        <ele>282</ele>
        <time>2022-09-13T10:44:18.000Z</time>
      </trkpt>
      <trkpt lat="49.39649" lon="5.79858">
        <ele>282</ele>
        <time>2022-09-13T10:44:19.000Z</time>
      </trkpt>
      <trkpt lat="49.39645" lon="5.79863">
        <ele>282</ele>
        <time>2022-09-13T10:44:20.000Z</time>
      </trkpt>
      <trkpt lat="49.3964" lon="5.79868">
        <ele>282</ele>
        <time>2022-09-13T10:44:21.000Z</time>
      </trkpt>
      <trkpt lat="49.39634" lon="5.79873">
        <ele>282</ele>
        <time>2022-09-13T10:44:22.000Z</time>
      </trkpt>
      <trkpt lat="49.39627" lon="5.79878">
        <ele>281.79998779297</ele>
        <time>2022-09-13T10:44:23.000Z</time>
      </trkpt>
      <trkpt lat="49.39621" lon="5.79884">
        <ele>281.60000610352</ele>
        <time>2022-09-13T10:44:24.000Z</time>
      </trkpt>
      <trkpt lat="49.39615" lon="5.79891">
        <ele>281.39999389648</ele>
        <time>2022-09-13T10:44:25.000Z</time>
      </trkpt>
      <trkpt lat="49.39609" lon="5.79897">
        <ele>281</ele>
        <time>2022-09-13T10:44:26.000Z</time>
      </trkpt>
      <trkpt lat="49.39603" lon="5.79903">
        <ele>280.79998779297</ele>
        <time>2022-09-13T10:44:27.000Z</time>
      </trkpt>
      <trkpt lat="49.39598" lon="5.79909">
        <ele>280.20001220703</ele>
        <time>2022-09-13T10:44:28.000Z</time>
      </trkpt>
      <trkpt lat="49.39594" lon="5.79914">
        <ele>279.39999389648</ele>
        <time>2022-09-13T10:44:29.000Z</time>
      </trkpt>
      <trkpt lat="49.39589" lon="5.79918">
        <ele>278</ele>
        <time>2022-09-13T10:44:30.000Z</time>
      </trkpt>
      <trkpt lat="49.39584" lon="5.79924">
        <ele>277.79998779297</ele>
        <time>2022-09-13T10:44:31.000Z</time>
      </trkpt>
      <trkpt lat="49.39577" lon="5.79931">
        <ele>277</ele>
        <time>2022-09-13T10:44:32.000Z</time>
      </trkpt>
      <trkpt lat="49.39572" lon="5.79936">
        <ele>276.39999389648</ele>
        <time>2022-09-13T10:44:33.000Z</time>
      </trkpt>
      <trkpt lat="49.39568" lon="5.7994">
        <ele>276</ele>
        <time>2022-09-13T10:44:34.000Z</time>
      </trkpt>
      <trkpt lat="49.39566" lon="5.79946">
        <ele>274.79998779297</ele>
        <time>2022-09-13T10:44:35.000Z</time>
      </trkpt>
      <trkpt lat="49.39561" lon="5.79954">
        <ele>274.20001220703</ele>
        <time>2022-09-13T10:44:36.000Z</time>
      </trkpt>
      <trkpt lat="49.39556" lon="5.79959">
        <ele>273.20001220703</ele>
        <time>2022-09-13T10:44:37.000Z</time>
      </trkpt>
      <trkpt lat="49.39552" lon="5.79962">
        <ele>273</ele>
        <time>2022-09-13T10:44:38.000Z</time>
      </trkpt>
      <trkpt lat="49.39548" lon="5.79964">
        <ele>272.20001220703</ele>
        <time>2022-09-13T10:44:39.000Z</time>
      </trkpt>
      <trkpt lat="49.39546" lon="5.79966">
        <ele>272</ele>
        <time>2022-09-13T10:44:40.000Z</time>
      </trkpt>
      <trkpt lat="49.39544" lon="5.79968">
        <ele>271.60000610352</ele>
        <time>2022-09-13T10:44:41.000Z</time>
      </trkpt>
      <trkpt lat="49.39542" lon="5.79971">
        <ele>271.39999389648</ele>
        <time>2022-09-13T10:44:42.000Z</time>
      </trkpt>
      <trkpt lat="49.39538" lon="5.79974">
        <ele>271.20001220703</ele>
        <time>2022-09-13T10:44:43.000Z</time>
      </trkpt>
      <trkpt lat="49.39535" lon="5.79978">
        <ele>271</ele>
        <time>2022-09-13T10:44:44.000Z</time>
      </trkpt>
      <trkpt lat="49.39526" lon="5.79982">
        <ele>270.79998779297</ele>
        <time>2022-09-13T10:44:47.000Z</time>
      </trkpt>
      <trkpt lat="49.39523" lon="5.79983">
        <ele>270.79998779297</ele>
        <time>2022-09-13T10:44:48.000Z</time>
      </trkpt>
      <trkpt lat="49.3952" lon="5.79986">
        <ele>270.79998779297</ele>
        <time>2022-09-13T10:44:49.000Z</time>
      </trkpt>
      <trkpt lat="49.39517" lon="5.79989">
        <ele>270.79998779297</ele>
        <time>2022-09-13T10:44:50.000Z</time>
      </trkpt>
      <trkpt lat="49.39508" lon="5.79997">
        <ele>271.20001220703</ele>
        <time>2022-09-13T10:44:53.000Z</time>
      </trkpt>
      <trkpt lat="49.39502" lon="5.80005">
        <ele>271.39999389648</ele>
        <time>2022-09-13T10:44:56.000Z</time>
      </trkpt>
      <trkpt lat="49.39501" lon="5.80008">
        <ele>271.39999389648</ele>
        <time>2022-09-13T10:44:57.000Z</time>
      </trkpt>
      <trkpt lat="49.39497" lon="5.80015">
        <ele>271.39999389648</ele>
        <time>2022-09-13T10:45:00.000Z</time>
      </trkpt>
      <trkpt lat="49.39497" lon="5.80018">
        <ele>271.60000610352</ele>
        <time>2022-09-13T10:45:01.000Z</time>
      </trkpt>
      <trkpt lat="49.39495" lon="5.80021">
        <ele>271.79998779297</ele>
        <time>2022-09-13T10:45:02.000Z</time>
      </trkpt>
      <trkpt lat="49.39493" lon="5.80018">
        <ele>271.79998779297</ele>
        <time>2022-09-13T10:45:03.000Z</time>
      </trkpt>
      <trkpt lat="49.39492" lon="5.8002">
        <ele>271.79998779297</ele>
        <time>2022-09-13T10:45:04.000Z</time>
      </trkpt>
      <trkpt lat="49.3949" lon="5.80024">
        <ele>271.79998779297</ele>
        <time>2022-09-13T10:45:05.000Z</time>
      </trkpt>
      <trkpt lat="49.39488" lon="5.80027">
        <ele>271.79998779297</ele>
        <time>2022-09-13T10:45:06.000Z</time>
      </trkpt>
      <trkpt lat="49.39486" lon="5.8003">
        <ele>271.79998779297</ele>
        <time>2022-09-13T10:45:07.000Z</time>
      </trkpt>
      <trkpt lat="49.39478" lon="5.80048">
        <ele>271.79998779297</ele>
        <time>2022-09-13T10:45:11.000Z</time>
      </trkpt>
      <trkpt lat="49.39476" lon="5.80052">
        <ele>271.79998779297</ele>
        <time>2022-09-13T10:45:12.000Z</time>
      </trkpt>
      <trkpt lat="49.39475" lon="5.80054">
        <ele>271.60000610352</ele>
        <time>2022-09-13T10:45:13.000Z</time>
      </trkpt>
      <trkpt lat="49.39473" lon="5.80058">
        <ele>271.60000610352</ele>
        <time>2022-09-13T10:45:14.000Z</time>
      </trkpt>
      <trkpt lat="49.39461" lon="5.80081">
        <ele>271.60000610352</ele>
        <time>2022-09-13T10:45:19.000Z</time>
      </trkpt>
      <trkpt lat="49.39455" lon="5.80108">
        <ele>271.79998779297</ele>
        <time>2022-09-13T10:45:23.000Z</time>
      </trkpt>
      <trkpt lat="49.39453" lon="5.80116">
        <ele>271.79998779297</ele>
        <time>2022-09-13T10:45:24.000Z</time>
      </trkpt>
      <trkpt lat="49.39449" lon="5.80134">
        <ele>272</ele>
        <time>2022-09-13T10:45:26.000Z</time>
      </trkpt>
      <trkpt lat="49.39448" lon="5.80141">
        <ele>272</ele>
        <time>2022-09-13T10:45:27.000Z</time>
      </trkpt>
      <trkpt lat="49.39448" lon="5.80146">
        <ele>272</ele>
        <time>2022-09-13T10:45:28.000Z</time>
      </trkpt>
      <trkpt lat="49.39448" lon="5.80152">
        <ele>272</ele>
        <time>2022-09-13T10:45:29.000Z</time>
      </trkpt>
      <trkpt lat="49.39444" lon="5.80182">
        <ele>272</ele>
        <time>2022-09-13T10:45:33.000Z</time>
      </trkpt>
      <trkpt lat="49.39443" lon="5.80189">
        <ele>272.20001220703</ele>
        <time>2022-09-13T10:45:34.000Z</time>
      </trkpt>
      <trkpt lat="49.39442" lon="5.80194">
        <ele>272.20001220703</ele>
        <time>2022-09-13T10:45:35.000Z</time>
      </trkpt>
      <trkpt lat="49.39441" lon="5.802">
        <ele>272.20001220703</ele>
        <time>2022-09-13T10:45:36.000Z</time>
      </trkpt>
      <trkpt lat="49.3944" lon="5.80206">
        <ele>272.20001220703</ele>
        <time>2022-09-13T10:45:37.000Z</time>
      </trkpt>
      <trkpt lat="49.3944" lon="5.80212">
        <ele>272.20001220703</ele>
        <time>2022-09-13T10:45:38.000Z</time>
      </trkpt>
      <trkpt lat="49.39441" lon="5.80216">
        <ele>272.39999389648</ele>
        <time>2022-09-13T10:45:39.000Z</time>
      </trkpt>
      <trkpt lat="49.39441" lon="5.8022">
        <ele>272.60000610352</ele>
        <time>2022-09-13T10:45:40.000Z</time>
      </trkpt>
      <trkpt lat="49.39441" lon="5.80225">
        <ele>272.79998779297</ele>
        <time>2022-09-13T10:45:41.000Z</time>
      </trkpt>
      <trkpt lat="49.3944" lon="5.80231">
        <ele>272.79998779297</ele>
        <time>2022-09-13T10:45:42.000Z</time>
      </trkpt>
      <trkpt lat="49.39438" lon="5.80238">
        <ele>272.79998779297</ele>
        <time>2022-09-13T10:45:43.000Z</time>
      </trkpt>
      <trkpt lat="49.39438" lon="5.80245">
        <ele>273</ele>
        <time>2022-09-13T10:45:44.000Z</time>
      </trkpt>
      <trkpt lat="49.39438" lon="5.80249">
        <ele>272.79998779297</ele>
        <time>2022-09-13T10:45:45.000Z</time>
      </trkpt>
      <trkpt lat="49.39437" lon="5.80253">
        <ele>273</ele>
        <time>2022-09-13T10:45:46.000Z</time>
      </trkpt>
      <trkpt lat="49.39438" lon="5.80257">
        <ele>273.20001220703</ele>
        <time>2022-09-13T10:45:47.000Z</time>
      </trkpt>
      <trkpt lat="49.39438" lon="5.80262">
        <ele>273.39999389648</ele>
        <time>2022-09-13T10:45:48.000Z</time>
      </trkpt>
      <trkpt lat="49.39437" lon="5.80268">
        <ele>273.39999389648</ele>
        <time>2022-09-13T10:45:49.000Z</time>
      </trkpt>
      <trkpt lat="49.39435" lon="5.80275">
        <ele>273.60000610352</ele>
        <time>2022-09-13T10:45:50.000Z</time>
      </trkpt>
      <trkpt lat="49.39435" lon="5.8028">
        <ele>273.79998779297</ele>
        <time>2022-09-13T10:45:51.000Z</time>
      </trkpt>
      <trkpt lat="49.39435" lon="5.80284">
        <ele>274</ele>
        <time>2022-09-13T10:45:52.000Z</time>
      </trkpt>
      <trkpt lat="49.39435" lon="5.80288">
        <ele>274.20001220703</ele>
        <time>2022-09-13T10:45:53.000Z</time>
      </trkpt>
      <trkpt lat="49.39434" lon="5.80294">
        <ele>274.20001220703</ele>
        <time>2022-09-13T10:45:54.000Z</time>
      </trkpt>
      <trkpt lat="49.39433" lon="5.80315">
        <ele>274.60000610352</ele>
        <time>2022-09-13T10:45:58.000Z</time>
      </trkpt>
      <trkpt lat="49.39433" lon="5.80319">
        <ele>274.60000610352</ele>
        <time>2022-09-13T10:45:59.000Z</time>
      </trkpt>
      <trkpt lat="49.39432" lon="5.80324">
        <ele>275</ele>
        <time>2022-09-13T10:46:00.000Z</time>
      </trkpt>
      <trkpt lat="49.3943" lon="5.80331">
        <ele>275.20001220703</ele>
        <time>2022-09-13T10:46:01.000Z</time>
      </trkpt>
      <trkpt lat="49.3943" lon="5.80336">
        <ele>275.39999389648</ele>
        <time>2022-09-13T10:46:02.000Z</time>
      </trkpt>
      <trkpt lat="49.3943" lon="5.8034">
        <ele>275.60000610352</ele>
        <time>2022-09-13T10:46:03.000Z</time>
      </trkpt>
      <trkpt lat="49.39432" lon="5.80346">
        <ele>276</ele>
        <time>2022-09-13T10:46:04.000Z</time>
      </trkpt>
      <trkpt lat="49.39432" lon="5.80351">
        <ele>276.20001220703</ele>
        <time>2022-09-13T10:46:05.000Z</time>
      </trkpt>
      <trkpt lat="49.39432" lon="5.80355">
        <ele>276.79998779297</ele>
        <time>2022-09-13T10:46:06.000Z</time>
      </trkpt>
      <trkpt lat="49.39432" lon="5.8036">
        <ele>277</ele>
        <time>2022-09-13T10:46:07.000Z</time>
      </trkpt>
      <trkpt lat="49.39432" lon="5.80365">
        <ele>277.20001220703</ele>
        <time>2022-09-13T10:46:08.000Z</time>
      </trkpt>
      <trkpt lat="49.39432" lon="5.8037">
        <ele>277.39999389648</ele>
        <time>2022-09-13T10:46:09.000Z</time>
      </trkpt>
      <trkpt lat="49.39431" lon="5.80375">
        <ele>277.60000610352</ele>
        <time>2022-09-13T10:46:10.000Z</time>
      </trkpt>
      <trkpt lat="49.39429" lon="5.80381">
        <ele>278</ele>
        <time>2022-09-13T10:46:11.000Z</time>
      </trkpt>
      <trkpt lat="49.39429" lon="5.80387">
        <ele>278</ele>
        <time>2022-09-13T10:46:12.000Z</time>
      </trkpt>
      <trkpt lat="49.39428" lon="5.80391">
        <ele>278.39999389648</ele>
        <time>2022-09-13T10:46:13.000Z</time>
      </trkpt>
      <trkpt lat="49.39427" lon="5.80394">
        <ele>278.79998779297</ele>
        <time>2022-09-13T10:46:14.000Z</time>
      </trkpt>
      <trkpt lat="49.39426" lon="5.80398">
        <ele>278.79998779297</ele>
        <time>2022-09-13T10:46:15.000Z</time>
      </trkpt>
      <trkpt lat="49.39426" lon="5.80403">
        <ele>279.20001220703</ele>
        <time>2022-09-13T10:46:16.000Z</time>
      </trkpt>
      <trkpt lat="49.39426" lon="5.80407">
        <ele>279.60000610352</ele>
        <time>2022-09-13T10:46:17.000Z</time>
      </trkpt>
      <trkpt lat="49.39426" lon="5.80413">
        <ele>280</ele>
        <time>2022-09-13T10:46:18.000Z</time>
      </trkpt>
      <trkpt lat="49.39425" lon="5.80418">
        <ele>280.39999389648</ele>
        <time>2022-09-13T10:46:19.000Z</time>
      </trkpt>
      <trkpt lat="49.39424" lon="5.80421">
        <ele>280.79998779297</ele>
        <time>2022-09-13T10:46:20.000Z</time>
      </trkpt>
      <trkpt lat="49.39425" lon="5.80425">
        <ele>281</ele>
        <time>2022-09-13T10:46:21.000Z</time>
      </trkpt>
      <trkpt lat="49.39425" lon="5.80428">
        <ele>281.20001220703</ele>
        <time>2022-09-13T10:46:22.000Z</time>
      </trkpt>
      <trkpt lat="49.39424" lon="5.80432">
        <ele>281.39999389648</ele>
        <time>2022-09-13T10:46:23.000Z</time>
      </trkpt>
      <trkpt lat="49.39424" lon="5.80436">
        <ele>281.60000610352</ele>
        <time>2022-09-13T10:46:24.000Z</time>
      </trkpt>
      <trkpt lat="49.39423" lon="5.80439">
        <ele>282</ele>
        <time>2022-09-13T10:46:25.000Z</time>
      </trkpt>
      <trkpt lat="49.39423" lon="5.80443">
        <ele>282.20001220703</ele>
        <time>2022-09-13T10:46:26.000Z</time>
      </trkpt>
      <trkpt lat="49.39422" lon="5.80446">
        <ele>282.79998779297</ele>
        <time>2022-09-13T10:46:27.000Z</time>
      </trkpt>
      <trkpt lat="49.39421" lon="5.8045">
        <ele>283</ele>
        <time>2022-09-13T10:46:28.000Z</time>
      </trkpt>
      <trkpt lat="49.39421" lon="5.80453">
        <ele>283.39999389648</ele>
        <time>2022-09-13T10:46:29.000Z</time>
      </trkpt>
      <trkpt lat="49.3942" lon="5.80456">
        <ele>283.79998779297</ele>
        <time>2022-09-13T10:46:30.000Z</time>
      </trkpt>
      <trkpt lat="49.39419" lon="5.80459">
        <ele>283.79998779297</ele>
        <time>2022-09-13T10:46:31.000Z</time>
      </trkpt>
      <trkpt lat="49.39419" lon="5.80463">
        <ele>284</ele>
        <time>2022-09-13T10:46:32.000Z</time>
      </trkpt>
      <trkpt lat="49.3942" lon="5.80467">
        <ele>284.20001220703</ele>
        <time>2022-09-13T10:46:33.000Z</time>
      </trkpt>
      <trkpt lat="49.3942" lon="5.80471">
        <ele>284.39999389648</ele>
        <time>2022-09-13T10:46:34.000Z</time>
      </trkpt>
      <trkpt lat="49.39419" lon="5.80474">
        <ele>284.60000610352</ele>
        <time>2022-09-13T10:46:35.000Z</time>
      </trkpt>
      <trkpt lat="49.39418" lon="5.80478">
        <ele>285</ele>
        <time>2022-09-13T10:46:36.000Z</time>
      </trkpt>
      <trkpt lat="49.39418" lon="5.80482">
        <ele>285.20001220703</ele>
        <time>2022-09-13T10:46:37.000Z</time>
      </trkpt>
      <trkpt lat="49.39418" lon="5.80486">
        <ele>285.60000610352</ele>
        <time>2022-09-13T10:46:38.000Z</time>
      </trkpt>
      <trkpt lat="49.39418" lon="5.80491">
        <ele>286</ele>
        <time>2022-09-13T10:46:39.000Z</time>
      </trkpt>
      <trkpt lat="49.39417" lon="5.80496">
        <ele>286.20001220703</ele>
        <time>2022-09-13T10:46:40.000Z</time>
      </trkpt>
      <trkpt lat="49.39418" lon="5.80501">
        <ele>286.39999389648</ele>
        <time>2022-09-13T10:46:41.000Z</time>
      </trkpt>
      <trkpt lat="49.39417" lon="5.80507">
        <ele>286.60000610352</ele>
        <time>2022-09-13T10:46:42.000Z</time>
      </trkpt>
      <trkpt lat="49.39415" lon="5.80513">
        <ele>286.79998779297</ele>
        <time>2022-09-13T10:46:43.000Z</time>
      </trkpt>
      <trkpt lat="49.39414" lon="5.80519">
        <ele>286.79998779297</ele>
        <time>2022-09-13T10:46:44.000Z</time>
      </trkpt>
      <trkpt lat="49.39413" lon="5.80524">
        <ele>287.20001220703</ele>
        <time>2022-09-13T10:46:45.000Z</time>
      </trkpt>
      <trkpt lat="49.39413" lon="5.8053">
        <ele>287.39999389648</ele>
        <time>2022-09-13T10:46:46.000Z</time>
      </trkpt>
      <trkpt lat="49.39412" lon="5.80534">
        <ele>287.60000610352</ele>
        <time>2022-09-13T10:46:47.000Z</time>
      </trkpt>
      <trkpt lat="49.39412" lon="5.80538">
        <ele>287.79998779297</ele>
        <time>2022-09-13T10:46:48.000Z</time>
      </trkpt>
      <trkpt lat="49.3941" lon="5.80542">
        <ele>288</ele>
        <time>2022-09-13T10:46:49.000Z</time>
      </trkpt>
      <trkpt lat="49.39409" lon="5.80546">
        <ele>288.60000610352</ele>
        <time>2022-09-13T10:46:50.000Z</time>
      </trkpt>
      <trkpt lat="49.39408" lon="5.80549">
        <ele>288.79998779297</ele>
        <time>2022-09-13T10:46:51.000Z</time>
      </trkpt>
      <trkpt lat="49.39406" lon="5.80552">
        <ele>289.39999389648</ele>
        <time>2022-09-13T10:46:52.000Z</time>
      </trkpt>
      <trkpt lat="49.39404" lon="5.80556">
        <ele>289.60000610352</ele>
        <time>2022-09-13T10:46:53.000Z</time>
      </trkpt>
      <trkpt lat="49.39403" lon="5.80559">
        <ele>289.60000610352</ele>
        <time>2022-09-13T10:46:54.000Z</time>
      </trkpt>
      <trkpt lat="49.39401" lon="5.80562">
        <ele>289.79998779297</ele>
        <time>2022-09-13T10:46:55.000Z</time>
      </trkpt>
      <trkpt lat="49.39399" lon="5.80566">
        <ele>290</ele>
        <time>2022-09-13T10:46:56.000Z</time>
      </trkpt>
      <trkpt lat="49.39397" lon="5.8057">
        <ele>290</ele>
        <time>2022-09-13T10:46:57.000Z</time>
      </trkpt>
      <trkpt lat="49.39395" lon="5.80574">
        <ele>290.20001220703</ele>
        <time>2022-09-13T10:46:58.000Z</time>
      </trkpt>
      <trkpt lat="49.39393" lon="5.80577">
        <ele>290.60000610352</ele>
        <time>2022-09-13T10:46:59.000Z</time>
      </trkpt>
      <trkpt lat="49.3939" lon="5.8058">
        <ele>290.60000610352</ele>
        <time>2022-09-13T10:47:00.000Z</time>
      </trkpt>
      <trkpt lat="49.39388" lon="5.80582">
        <ele>290.79998779297</ele>
        <time>2022-09-13T10:47:01.000Z</time>
      </trkpt>
      <trkpt lat="49.39385" lon="5.80585">
        <ele>291.20001220703</ele>
        <time>2022-09-13T10:47:02.000Z</time>
      </trkpt>
      <trkpt lat="49.39382" lon="5.80588">
        <ele>291.39999389648</ele>
        <time>2022-09-13T10:47:03.000Z</time>
      </trkpt>
      <trkpt lat="49.3938" lon="5.80591">
        <ele>291.79998779297</ele>
        <time>2022-09-13T10:47:04.000Z</time>
      </trkpt>
      <trkpt lat="49.39377" lon="5.80593">
        <ele>292</ele>
        <time>2022-09-13T10:47:05.000Z</time>
      </trkpt>
      <trkpt lat="49.39375" lon="5.80596">
        <ele>292.20001220703</ele>
        <time>2022-09-13T10:47:06.000Z</time>
      </trkpt>
      <trkpt lat="49.39372" lon="5.80598">
        <ele>292.20001220703</ele>
        <time>2022-09-13T10:47:07.000Z</time>
      </trkpt>
      <trkpt lat="49.39369" lon="5.80601">
        <ele>292.60000610352</ele>
        <time>2022-09-13T10:47:08.000Z</time>
      </trkpt>
      <trkpt lat="49.39366" lon="5.80603">
        <ele>292.79998779297</ele>
        <time>2022-09-13T10:47:09.000Z</time>
      </trkpt>
      <trkpt lat="49.39364" lon="5.80605">
        <ele>293</ele>
        <time>2022-09-13T10:47:10.000Z</time>
      </trkpt>
      <trkpt lat="49.39361" lon="5.80607">
        <ele>293.20001220703</ele>
        <time>2022-09-13T10:47:11.000Z</time>
      </trkpt>
      <trkpt lat="49.39358" lon="5.80609">
        <ele>293.20001220703</ele>
        <time>2022-09-13T10:47:12.000Z</time>
      </trkpt>
      <trkpt lat="49.39355" lon="5.80611">
        <ele>293.60000610352</ele>
        <time>2022-09-13T10:47:13.000Z</time>
      </trkpt>
      <trkpt lat="49.39353" lon="5.80613">
        <ele>293.79998779297</ele>
        <time>2022-09-13T10:47:14.000Z</time>
      </trkpt>
      <trkpt lat="49.39351" lon="5.80615">
        <ele>294.20001220703</ele>
        <time>2022-09-13T10:47:15.000Z</time>
      </trkpt>
      <trkpt lat="49.39348" lon="5.80617">
        <ele>294.39999389648</ele>
        <time>2022-09-13T10:47:16.000Z</time>
      </trkpt>
      <trkpt lat="49.39346" lon="5.80618">
        <ele>294.60000610352</ele>
        <time>2022-09-13T10:47:17.000Z</time>
      </trkpt>
      <trkpt lat="49.39343" lon="5.8062">
        <ele>294.60000610352</ele>
        <time>2022-09-13T10:47:18.000Z</time>
      </trkpt>
      <trkpt lat="49.39341" lon="5.80621">
        <ele>294.60000610352</ele>
        <time>2022-09-13T10:47:19.000Z</time>
      </trkpt>
      <trkpt lat="49.39339" lon="5.80623">
        <ele>294.79998779297</ele>
        <time>2022-09-13T10:47:20.000Z</time>
      </trkpt>
      <trkpt lat="49.39337" lon="5.80624">
        <ele>295</ele>
        <time>2022-09-13T10:47:21.000Z</time>
      </trkpt>
      <trkpt lat="49.39335" lon="5.80626">
        <ele>295.20001220703</ele>
        <time>2022-09-13T10:47:22.000Z</time>
      </trkpt>
      <trkpt lat="49.39332" lon="5.80627">
        <ele>295.39999389648</ele>
        <time>2022-09-13T10:47:23.000Z</time>
      </trkpt>
      <trkpt lat="49.39329" lon="5.80629">
        <ele>295.60000610352</ele>
        <time>2022-09-13T10:47:24.000Z</time>
      </trkpt>
      <trkpt lat="49.39327" lon="5.8063">
        <ele>295.79998779297</ele>
        <time>2022-09-13T10:47:25.000Z</time>
      </trkpt>
      <trkpt lat="49.39324" lon="5.80631">
        <ele>296</ele>
        <time>2022-09-13T10:47:26.000Z</time>
      </trkpt>
      <trkpt lat="49.39321" lon="5.80633">
        <ele>296.20001220703</ele>
        <time>2022-09-13T10:47:27.000Z</time>
      </trkpt>
      <trkpt lat="49.39319" lon="5.80635">
        <ele>296.39999389648</ele>
        <time>2022-09-13T10:47:28.000Z</time>
      </trkpt>
      <trkpt lat="49.39316" lon="5.80637">
        <ele>296.79998779297</ele>
        <time>2022-09-13T10:47:29.000Z</time>
      </trkpt>
      <trkpt lat="49.39314" lon="5.80638">
        <ele>297</ele>
        <time>2022-09-13T10:47:30.000Z</time>
      </trkpt>
      <trkpt lat="49.39312" lon="5.80639">
        <ele>297.20001220703</ele>
        <time>2022-09-13T10:47:31.000Z</time>
      </trkpt>
      <trkpt lat="49.3931" lon="5.8064">
        <ele>297.39999389648</ele>
        <time>2022-09-13T10:47:32.000Z</time>
      </trkpt>
      <trkpt lat="49.39308" lon="5.80641">
        <ele>297.60000610352</ele>
        <time>2022-09-13T10:47:33.000Z</time>
      </trkpt>
      <trkpt lat="49.39305" lon="5.80643">
        <ele>298</ele>
        <time>2022-09-13T10:47:34.000Z</time>
      </trkpt>
      <trkpt lat="49.39303" lon="5.80646">
        <ele>298.20001220703</ele>
        <time>2022-09-13T10:47:35.000Z</time>
      </trkpt>
      <trkpt lat="49.39301" lon="5.80647">
        <ele>298.60000610352</ele>
        <time>2022-09-13T10:47:36.000Z</time>
      </trkpt>
      <trkpt lat="49.39298" lon="5.80649">
        <ele>298.60000610352</ele>
        <time>2022-09-13T10:47:37.000Z</time>
      </trkpt>
      <trkpt lat="49.39296" lon="5.8065">
        <ele>299.39999389648</ele>
        <time>2022-09-13T10:47:38.000Z</time>
      </trkpt>
      <trkpt lat="49.39293" lon="5.80651">
        <ele>299.20001220703</ele>
        <time>2022-09-13T10:47:39.000Z</time>
      </trkpt>
      <trkpt lat="49.3929" lon="5.80653">
        <ele>299.79998779297</ele>
        <time>2022-09-13T10:47:40.000Z</time>
      </trkpt>
      <trkpt lat="49.39288" lon="5.80655">
        <ele>300.20001220703</ele>
        <time>2022-09-13T10:47:41.000Z</time>
      </trkpt>
      <trkpt lat="49.39285" lon="5.80656">
        <ele>300.39999389648</ele>
        <time>2022-09-13T10:47:42.000Z</time>
      </trkpt>
      <trkpt lat="49.39283" lon="5.80657">
        <ele>300.60000610352</ele>
        <time>2022-09-13T10:47:43.000Z</time>
      </trkpt>
      <trkpt lat="49.3928" lon="5.80658">
        <ele>300.60000610352</ele>
        <time>2022-09-13T10:47:44.000Z</time>
      </trkpt>
      <trkpt lat="49.39278" lon="5.80657">
        <ele>301.20001220703</ele>
        <time>2022-09-13T10:47:45.000Z</time>
      </trkpt>
      <trkpt lat="49.39276" lon="5.80655">
        <ele>301.60000610352</ele>
        <time>2022-09-13T10:47:46.000Z</time>
      </trkpt>
      <trkpt lat="49.39275" lon="5.80652">
        <ele>302.20001220703</ele>
        <time>2022-09-13T10:47:47.000Z</time>
      </trkpt>
      <trkpt lat="49.39276" lon="5.80649">
        <ele>302.60000610352</ele>
        <time>2022-09-13T10:47:48.000Z</time>
      </trkpt>
      <trkpt lat="49.39277" lon="5.80645">
        <ele>302.79998779297</ele>
        <time>2022-09-13T10:47:49.000Z</time>
      </trkpt>
      <trkpt lat="49.39279" lon="5.80641">
        <ele>303.20001220703</ele>
        <time>2022-09-13T10:47:50.000Z</time>
      </trkpt>
      <trkpt lat="49.3928" lon="5.80637">
        <ele>303.20001220703</ele>
        <time>2022-09-13T10:47:51.000Z</time>
      </trkpt>
      <trkpt lat="49.39282" lon="5.80633">
        <ele>303.60000610352</ele>
        <time>2022-09-13T10:47:52.000Z</time>
      </trkpt>
      <trkpt lat="49.39283" lon="5.80629">
        <ele>303.79998779297</ele>
        <time>2022-09-13T10:47:53.000Z</time>
      </trkpt>
      <trkpt lat="49.39284" lon="5.80625">
        <ele>304.39999389648</ele>
        <time>2022-09-13T10:47:54.000Z</time>
      </trkpt>
      <trkpt lat="49.39285" lon="5.8062">
        <ele>304.60000610352</ele>
        <time>2022-09-13T10:47:55.000Z</time>
      </trkpt>
      <trkpt lat="49.39286" lon="5.80616">
        <ele>304.79998779297</ele>
        <time>2022-09-13T10:47:56.000Z</time>
      </trkpt>
      <trkpt lat="49.39287" lon="5.80612">
        <ele>305</ele>
        <time>2022-09-13T10:47:57.000Z</time>
      </trkpt>
      <trkpt lat="49.39288" lon="5.80607">
        <ele>305</ele>
        <time>2022-09-13T10:47:58.000Z</time>
      </trkpt>
      <trkpt lat="49.39289" lon="5.80603">
        <ele>305.39999389648</ele>
        <time>2022-09-13T10:47:59.000Z</time>
      </trkpt>
      <trkpt lat="49.3929" lon="5.80599">
        <ele>305.39999389648</ele>
        <time>2022-09-13T10:48:00.000Z</time>
      </trkpt>
      <trkpt lat="49.3929" lon="5.80594">
        <ele>305.60000610352</ele>
        <time>2022-09-13T10:48:01.000Z</time>
      </trkpt>
      <trkpt lat="49.39291" lon="5.8059">
        <ele>305.60000610352</ele>
        <time>2022-09-13T10:48:02.000Z</time>
      </trkpt>
      <trkpt lat="49.39292" lon="5.80585">
        <ele>306</ele>
        <time>2022-09-13T10:48:03.000Z</time>
      </trkpt>
      <trkpt lat="49.39292" lon="5.8058">
        <ele>306.20001220703</ele>
        <time>2022-09-13T10:48:04.000Z</time>
      </trkpt>
      <trkpt lat="49.39293" lon="5.80576">
        <ele>306.20001220703</ele>
        <time>2022-09-13T10:48:05.000Z</time>
      </trkpt>
      <trkpt lat="49.39293" lon="5.80571">
        <ele>306.39999389648</ele>
        <time>2022-09-13T10:48:06.000Z</time>
      </trkpt>
      <trkpt lat="49.39293" lon="5.80567">
        <ele>306.60000610352</ele>
        <time>2022-09-13T10:48:07.000Z</time>
      </trkpt>
      <trkpt lat="49.39293" lon="5.80564">
        <ele>306.79998779297</ele>
        <time>2022-09-13T10:48:08.000Z</time>
      </trkpt>
      <trkpt lat="49.39291" lon="5.80559">
        <ele>306.79998779297</ele>
        <time>2022-09-13T10:48:09.000Z</time>
      </trkpt>
      <trkpt lat="49.3929" lon="5.80555">
        <ele>307</ele>
        <time>2022-09-13T10:48:10.000Z</time>
      </trkpt>
      <trkpt lat="49.39288" lon="5.80551">
        <ele>307.20001220703</ele>
        <time>2022-09-13T10:48:11.000Z</time>
      </trkpt>
      <trkpt lat="49.39286" lon="5.80547">
        <ele>307.39999389648</ele>
        <time>2022-09-13T10:48:12.000Z</time>
      </trkpt>
      <trkpt lat="49.39284" lon="5.80544">
        <ele>307.60000610352</ele>
        <time>2022-09-13T10:48:13.000Z</time>
      </trkpt>
      <trkpt lat="49.39282" lon="5.80542">
        <ele>307.60000610352</ele>
        <time>2022-09-13T10:48:14.000Z</time>
      </trkpt>
      <trkpt lat="49.39279" lon="5.8054">
        <ele>307.79998779297</ele>
        <time>2022-09-13T10:48:15.000Z</time>
      </trkpt>
      <trkpt lat="49.39276" lon="5.80538">
        <ele>308</ele>
        <time>2022-09-13T10:48:16.000Z</time>
      </trkpt>
      <trkpt lat="49.39273" lon="5.80537">
        <ele>308.20001220703</ele>
        <time>2022-09-13T10:48:17.000Z</time>
      </trkpt>
      <trkpt lat="49.3927" lon="5.80536">
        <ele>308.60000610352</ele>
        <time>2022-09-13T10:48:18.000Z</time>
      </trkpt>
      <trkpt lat="49.39267" lon="5.80537">
        <ele>308.79998779297</ele>
        <time>2022-09-13T10:48:19.000Z</time>
      </trkpt>
      <trkpt lat="49.39264" lon="5.80538">
        <ele>309.20001220703</ele>
        <time>2022-09-13T10:48:20.000Z</time>
      </trkpt>
      <trkpt lat="49.39261" lon="5.80539">
        <ele>309.39999389648</ele>
        <time>2022-09-13T10:48:21.000Z</time>
      </trkpt>
      <trkpt lat="49.39258" lon="5.80541">
        <ele>310</ele>
        <time>2022-09-13T10:48:22.000Z</time>
      </trkpt>
      <trkpt lat="49.39255" lon="5.80542">
        <ele>310.20001220703</ele>
        <time>2022-09-13T10:48:23.000Z</time>
      </trkpt>
      <trkpt lat="49.39253" lon="5.80544">
        <ele>310.79998779297</ele>
        <time>2022-09-13T10:48:24.000Z</time>
      </trkpt>
      <trkpt lat="49.39251" lon="5.80547">
        <ele>311</ele>
        <time>2022-09-13T10:48:25.000Z</time>
      </trkpt>
      <trkpt lat="49.39248" lon="5.8055">
        <ele>311.39999389648</ele>
        <time>2022-09-13T10:48:26.000Z</time>
      </trkpt>
      <trkpt lat="49.39246" lon="5.80553">
        <ele>311.60000610352</ele>
        <time>2022-09-13T10:48:27.000Z</time>
      </trkpt>
      <trkpt lat="49.39243" lon="5.80556">
        <ele>311.79998779297</ele>
        <time>2022-09-13T10:48:28.000Z</time>
      </trkpt>
      <trkpt lat="49.39241" lon="5.80558">
        <ele>312</ele>
        <time>2022-09-13T10:48:29.000Z</time>
      </trkpt>
      <trkpt lat="49.39239" lon="5.80561">
        <ele>312.20001220703</ele>
        <time>2022-09-13T10:48:30.000Z</time>
      </trkpt>
      <trkpt lat="49.39236" lon="5.80564">
        <ele>312.79998779297</ele>
        <time>2022-09-13T10:48:31.000Z</time>
      </trkpt>
      <trkpt lat="49.39234" lon="5.80567">
        <ele>313</ele>
        <time>2022-09-13T10:48:32.000Z</time>
      </trkpt>
      <trkpt lat="49.39231" lon="5.8057">
        <ele>313.39999389648</ele>
        <time>2022-09-13T10:48:33.000Z</time>
      </trkpt>
      <trkpt lat="49.39228" lon="5.80572">
        <ele>313.79998779297</ele>
        <time>2022-09-13T10:48:34.000Z</time>
      </trkpt>
      <trkpt lat="49.39226" lon="5.80575">
        <ele>314</ele>
        <time>2022-09-13T10:48:35.000Z</time>
      </trkpt>
      <trkpt lat="49.39223" lon="5.80578">
        <ele>314.39999389648</ele>
        <time>2022-09-13T10:48:36.000Z</time>
      </trkpt>
      <trkpt lat="49.39221" lon="5.8058">
        <ele>314.60000610352</ele>
        <time>2022-09-13T10:48:37.000Z</time>
      </trkpt>
      <trkpt lat="49.39218" lon="5.80583">
        <ele>314.79998779297</ele>
        <time>2022-09-13T10:48:38.000Z</time>
      </trkpt>
      <trkpt lat="49.39216" lon="5.80586">
        <ele>315</ele>
        <time>2022-09-13T10:48:39.000Z</time>
      </trkpt>
      <trkpt lat="49.39213" lon="5.80589">
        <ele>315.20001220703</ele>
        <time>2022-09-13T10:48:40.000Z</time>
      </trkpt>
      <trkpt lat="49.39211" lon="5.80591">
        <ele>315.39999389648</ele>
        <time>2022-09-13T10:48:41.000Z</time>
      </trkpt>
      <trkpt lat="49.39209" lon="5.80594">
        <ele>315.60000610352</ele>
        <time>2022-09-13T10:48:42.000Z</time>
      </trkpt>
      <trkpt lat="49.39206" lon="5.80596">
        <ele>315.79998779297</ele>
        <time>2022-09-13T10:48:43.000Z</time>
      </trkpt>
      <trkpt lat="49.39204" lon="5.80598">
        <ele>316</ele>
        <time>2022-09-13T10:48:44.000Z</time>
      </trkpt>
      <trkpt lat="49.39202" lon="5.80601">
        <ele>316.39999389648</ele>
        <time>2022-09-13T10:48:45.000Z</time>
      </trkpt>
      <trkpt lat="49.39199" lon="5.80603">
        <ele>316.60000610352</ele>
        <time>2022-09-13T10:48:46.000Z</time>
      </trkpt>
      <trkpt lat="49.39197" lon="5.80606">
        <ele>316.79998779297</ele>
        <time>2022-09-13T10:48:47.000Z</time>
      </trkpt>
      <trkpt lat="49.39195" lon="5.80608">
        <ele>317.20001220703</ele>
        <time>2022-09-13T10:48:48.000Z</time>
      </trkpt>
      <trkpt lat="49.39192" lon="5.80611">
        <ele>317.39999389648</ele>
        <time>2022-09-13T10:48:49.000Z</time>
      </trkpt>
      <trkpt lat="49.39191" lon="5.80613">
        <ele>317.60000610352</ele>
        <time>2022-09-13T10:48:50.000Z</time>
      </trkpt>
      <trkpt lat="49.39188" lon="5.80615">
        <ele>318</ele>
        <time>2022-09-13T10:48:51.000Z</time>
      </trkpt>
      <trkpt lat="49.39185" lon="5.80618">
        <ele>318.20001220703</ele>
        <time>2022-09-13T10:48:52.000Z</time>
      </trkpt>
      <trkpt lat="49.39183" lon="5.80621">
        <ele>318.39999389648</ele>
        <time>2022-09-13T10:48:53.000Z</time>
      </trkpt>
      <trkpt lat="49.3918" lon="5.80623">
        <ele>318.39999389648</ele>
        <time>2022-09-13T10:48:54.000Z</time>
      </trkpt>
      <trkpt lat="49.39177" lon="5.80625">
        <ele>318.39999389648</ele>
        <time>2022-09-13T10:48:55.000Z</time>
      </trkpt>
      <trkpt lat="49.39175" lon="5.80627">
        <ele>318.60000610352</ele>
        <time>2022-09-13T10:48:56.000Z</time>
      </trkpt>
      <trkpt lat="49.39172" lon="5.80628">
        <ele>318.79998779297</ele>
        <time>2022-09-13T10:48:57.000Z</time>
      </trkpt>
      <trkpt lat="49.39169" lon="5.80629">
        <ele>318.79998779297</ele>
        <time>2022-09-13T10:48:58.000Z</time>
      </trkpt>
      <trkpt lat="49.39166" lon="5.8063">
        <ele>319.20001220703</ele>
        <time>2022-09-13T10:48:59.000Z</time>
      </trkpt>
      <trkpt lat="49.39164" lon="5.8063">
        <ele>319.39999389648</ele>
        <time>2022-09-13T10:49:00.000Z</time>
      </trkpt>
      <trkpt lat="49.39161" lon="5.80631">
        <ele>319.79998779297</ele>
        <time>2022-09-13T10:49:01.000Z</time>
      </trkpt>
      <trkpt lat="49.39159" lon="5.80632">
        <ele>320</ele>
        <time>2022-09-13T10:49:02.000Z</time>
      </trkpt>
      <trkpt lat="49.39156" lon="5.80635">
        <ele>320.20001220703</ele>
        <time>2022-09-13T10:49:03.000Z</time>
      </trkpt>
      <trkpt lat="49.39155" lon="5.80638">
        <ele>320.39999389648</ele>
        <time>2022-09-13T10:49:04.000Z</time>
      </trkpt>
      <trkpt lat="49.39154" lon="5.8064">
        <ele>320.79998779297</ele>
        <time>2022-09-13T10:49:05.000Z</time>
      </trkpt>
      <trkpt lat="49.39154" lon="5.80643">
        <ele>321.20001220703</ele>
        <time>2022-09-13T10:49:06.000Z</time>
      </trkpt>
      <trkpt lat="49.39155" lon="5.80647">
        <ele>321.39999389648</ele>
        <time>2022-09-13T10:49:07.000Z</time>
      </trkpt>
      <trkpt lat="49.39155" lon="5.80651">
        <ele>321.79998779297</ele>
        <time>2022-09-13T10:49:08.000Z</time>
      </trkpt>
      <trkpt lat="49.39156" lon="5.80655">
        <ele>322</ele>
        <time>2022-09-13T10:49:09.000Z</time>
      </trkpt>
      <trkpt lat="49.39157" lon="5.8066">
        <ele>322</ele>
        <time>2022-09-13T10:49:10.000Z</time>
      </trkpt>
      <trkpt lat="49.39158" lon="5.80665">
        <ele>322</ele>
        <time>2022-09-13T10:49:11.000Z</time>
      </trkpt>
      <trkpt lat="49.39159" lon="5.80671">
        <ele>322</ele>
        <time>2022-09-13T10:49:12.000Z</time>
      </trkpt>
      <trkpt lat="49.3916" lon="5.80676">
        <ele>322</ele>
        <time>2022-09-13T10:49:13.000Z</time>
      </trkpt>
      <trkpt lat="49.39162" lon="5.80683">
        <ele>322</ele>
        <time>2022-09-13T10:49:14.000Z</time>
      </trkpt>
      <trkpt lat="49.39162" lon="5.8069">
        <ele>321.60000610352</ele>
        <time>2022-09-13T10:49:15.000Z</time>
      </trkpt>
      <trkpt lat="49.39162" lon="5.80695">
        <ele>321.39999389648</ele>
        <time>2022-09-13T10:49:16.000Z</time>
      </trkpt>
      <trkpt lat="49.39163" lon="5.80721">
        <ele>316.7</ele>
      </trkpt>
      <trkpt lat="49.39164" lon="5.80736">
        <ele>315.5</ele>
      </trkpt>
      <trkpt lat="49.39164" lon="5.80766">
        <ele>312.9</ele>
      </trkpt>
      <trkpt lat="49.39164" lon="5.80785">
        <ele>311.4</ele>
      </trkpt>
      <trkpt lat="49.39159" lon="5.80829">
        <ele>309.4</ele>
      </trkpt>
      <trkpt lat="49.39157" lon="5.8085">
        <ele>307.5</ele>
      </trkpt>
      <trkpt lat="49.39155" lon="5.80933">
        <ele>300.2</ele>
      </trkpt>
      <trkpt lat="49.39161" lon="5.8102">
        <ele>293.1</ele>
      </trkpt>
      <trkpt lat="49.39175" lon="5.81123">
        <ele>289.3</ele>
      </trkpt>
      <trkpt lat="49.39207" lon="5.81214">
        <ele>284.3</ele>
      </trkpt>
      <trkpt lat="49.39247" lon="5.8128">
        <ele>275.4</ele>
      </trkpt>
      <trkpt lat="49.39259" lon="5.8129">
        <ele>272.9</ele>
      </trkpt>
      <trkpt lat="49.39275" lon="5.81328">
        <ele>269.9</ele>
      </trkpt>
      <trkpt lat="49.39289" lon="5.81341">
        <ele>268.9</ele>
      </trkpt>
      <trkpt lat="49.39318" lon="5.81348">
        <ele>267.6</ele>
      </trkpt>
      <trkpt lat="49.39338" lon="5.81363">
        <ele>267.8</ele>
      </trkpt>
      <trkpt lat="49.39361" lon="5.81357">
        <ele>267</ele>
      </trkpt>
      <trkpt lat="49.39386" lon="5.81351">
        <ele>268.8</ele>
      </trkpt>
      <trkpt lat="49.39403" lon="5.81327">
        <ele>269</ele>
      </trkpt>
      <trkpt lat="49.39386" lon="5.81351">
        <ele>268.8</ele>
      </trkpt>
      <trkpt lat="49.39337" lon="5.81363">
        <ele>267.9</ele>
      </trkpt>
      <trkpt lat="49.39339" lon="5.81363">
        <ele>267.8</ele>
      </trkpt>
      <trkpt lat="49.39318" lon="5.81349">
        <ele>267.6</ele>
      </trkpt>
      <trkpt lat="49.39288" lon="5.81342">
        <ele>269</ele>
      </trkpt>
      <trkpt lat="49.39275" lon="5.81328">
        <ele>269.8</ele>
      </trkpt>
      <trkpt lat="49.39259" lon="5.8129">
        <ele>272.8</ele>
      </trkpt>
      <trkpt lat="49.39247" lon="5.8128">
        <ele>275.3</ele>
      </trkpt>
      <trkpt lat="49.39206" lon="5.81214">
        <ele>284.5</ele>
      </trkpt>
      <trkpt lat="49.39175" lon="5.81123">
        <ele>289.2</ele>
      </trkpt>
      <trkpt lat="49.39161" lon="5.8102">
        <ele>292.8</ele>
      </trkpt>
      <trkpt lat="49.39155" lon="5.80934">
        <ele>300.1</ele>
      </trkpt>
      <trkpt lat="49.39155" lon="5.80933">
        <ele>300.2</ele>
      </trkpt>
      <trkpt lat="49.39157" lon="5.80877">
        <ele>305</ele>
      </trkpt>
      <trkpt lat="49.39157" lon="5.80851">
        <ele>307.5</ele>
      </trkpt>
      <trkpt lat="49.39159" lon="5.80829">
        <ele>309.4</ele>
      </trkpt>
      <trkpt lat="49.39161" lon="5.80813">
        <ele>310.2</ele>
      </trkpt>
      <trkpt lat="49.39164" lon="5.80784">
        <ele>311.5</ele>
      </trkpt>
      <trkpt lat="49.39164" lon="5.80784">
        <ele>311.4</ele>
      </trkpt>
      <trkpt lat="49.39164" lon="5.80748">
        <ele>314.6</ele>
      </trkpt>
      <trkpt lat="49.39164" lon="5.80747">
        <ele>314.6</ele>
      </trkpt>
      <trkpt lat="49.39163" lon="5.80719">
        <ele>316.7</ele>
        <time>2022-09-13T10:49:17.000Z</time>
      </trkpt>
      <trkpt lat="49.39162" lon="5.80696">
        <ele>317.8</ele>
        <time>2022-09-13T10:49:18.000Z</time>
      </trkpt>
    </trkseg>
  </trk>
  <trk>
    <name><![CDATA[Nocturne Mercy le Bas 20 km_2]]></name>
    <extensions>
      <line xmlns="http://www.topografix.com/GPX/gpx_style/0/2">
        <color>00FF00</color>
        <width>4</width>
      </line>
    </extensions>
    <trkseg>
      <trkpt lat="49.39403" lon="5.81327">
        <ele>279.60000610352</ele>
        <time>2022-09-13T11:31:57.000Z</time>
      </trkpt>
      <trkpt lat="49.39404" lon="5.81322">
        <ele>278.79998779297</ele>
        <time>2022-09-13T11:31:58.000Z</time>
      </trkpt>
      <trkpt lat="49.39404" lon="5.81318">
        <ele>278.39999389648</ele>
        <time>2022-09-13T11:31:59.000Z</time>
      </trkpt>
      <trkpt lat="49.39403" lon="5.81314">
        <ele>278.20001220703</ele>
        <time>2022-09-13T11:32:00.000Z</time>
      </trkpt>
      <trkpt lat="49.39403" lon="5.8131">
        <ele>278</ele>
        <time>2022-09-13T11:32:01.000Z</time>
      </trkpt>
      <trkpt lat="49.39404" lon="5.81307">
        <ele>278</ele>
        <time>2022-09-13T11:32:02.000Z</time>
      </trkpt>
      <trkpt lat="49.39404" lon="5.81304">
        <ele>277.79998779297</ele>
        <time>2022-09-13T11:32:03.000Z</time>
      </trkpt>
      <trkpt lat="49.39405" lon="5.81302">
        <ele>277.79998779297</ele>
        <time>2022-09-13T11:32:04.000Z</time>
      </trkpt>
      <trkpt lat="49.39405" lon="5.813">
        <ele>277.79998779297</ele>
        <time>2022-09-13T11:32:05.000Z</time>
      </trkpt>
      <trkpt lat="49.39405" lon="5.81298">
        <ele>277.60000610352</ele>
        <time>2022-09-13T11:32:06.000Z</time>
      </trkpt>
      <trkpt lat="49.39405" lon="5.81296">
        <ele>277.60000610352</ele>
        <time>2022-09-13T11:32:07.000Z</time>
      </trkpt>
      <trkpt lat="49.39405" lon="5.81295">
        <ele>277.60000610352</ele>
        <time>2022-09-13T11:32:08.000Z</time>
      </trkpt>
      <trkpt lat="49.39404" lon="5.81293">
        <ele>277.39999389648</ele>
        <time>2022-09-13T11:32:09.000Z</time>
      </trkpt>
      <trkpt lat="49.39403" lon="5.81291">
        <ele>277.39999389648</ele>
        <time>2022-09-13T11:32:10.000Z</time>
      </trkpt>
      <trkpt lat="49.39403" lon="5.81289">
        <ele>277.39999389648</ele>
        <time>2022-09-13T11:32:11.000Z</time>
      </trkpt>
      <trkpt lat="49.39402" lon="5.81286">
        <ele>277.39999389648</ele>
        <time>2022-09-13T11:32:12.000Z</time>
      </trkpt>
      <trkpt lat="49.39403" lon="5.81283">
        <ele>277.39999389648</ele>
        <time>2022-09-13T11:32:13.000Z</time>
      </trkpt>
      <trkpt lat="49.39403" lon="5.81278">
        <ele>277.39999389648</ele>
        <time>2022-09-13T11:32:14.000Z</time>
      </trkpt>
      <trkpt lat="49.39403" lon="5.81274">
        <ele>277.39999389648</ele>
        <time>2022-09-13T11:32:15.000Z</time>
      </trkpt>
      <trkpt lat="49.39403" lon="5.81264">
        <ele>277.60000610352</ele>
        <time>2022-09-13T11:32:17.000Z</time>
      </trkpt>
      <trkpt lat="49.39403" lon="5.81254">
        <ele>277.60000610352</ele>
        <time>2022-09-13T11:32:19.000Z</time>
      </trkpt>
      <trkpt lat="49.39403" lon="5.81239">
        <ele>277.60000610352</ele>
        <time>2022-09-13T11:32:22.000Z</time>
      </trkpt>
      <trkpt lat="49.39403" lon="5.81218">
        <ele>277.60000610352</ele>
        <time>2022-09-13T11:32:26.000Z</time>
      </trkpt>
      <trkpt lat="49.39401" lon="5.81203">
        <ele>277.60000610352</ele>
        <time>2022-09-13T11:32:29.000Z</time>
      </trkpt>
      <trkpt lat="49.394" lon="5.81199">
        <ele>277.60000610352</ele>
        <time>2022-09-13T11:32:30.000Z</time>
      </trkpt>
      <trkpt lat="49.394" lon="5.81194">
        <ele>277.60000610352</ele>
        <time>2022-09-13T11:32:31.000Z</time>
      </trkpt>
      <trkpt lat="49.394" lon="5.81191">
        <ele>277.60000610352</ele>
        <time>2022-09-13T11:32:32.000Z</time>
      </trkpt>
      <trkpt lat="49.394" lon="5.81187">
        <ele>277.60000610352</ele>
        <time>2022-09-13T11:32:33.000Z</time>
      </trkpt>
      <trkpt lat="49.394" lon="5.81185">
        <ele>277.79998779297</ele>
        <time>2022-09-13T11:32:34.000Z</time>
      </trkpt>
      <trkpt lat="49.394" lon="5.81179">
        <ele>278.60000610352</ele>
        <time>2022-09-13T11:32:36.000Z</time>
      </trkpt>
      <trkpt lat="49.394" lon="5.81176">
        <ele>278.79998779297</ele>
        <time>2022-09-13T11:32:37.000Z</time>
      </trkpt>
      <trkpt lat="49.394" lon="5.81174">
        <ele>278.79998779297</ele>
        <time>2022-09-13T11:32:38.000Z</time>
      </trkpt>
      <trkpt lat="49.394" lon="5.81171">
        <ele>279.39999389648</ele>
        <time>2022-09-13T11:32:39.000Z</time>
      </trkpt>
      <trkpt lat="49.39401" lon="5.81169">
        <ele>279.60000610352</ele>
        <time>2022-09-13T11:32:40.000Z</time>
      </trkpt>
      <trkpt lat="49.39401" lon="5.81166">
        <ele>279.79998779297</ele>
        <time>2022-09-13T11:32:41.000Z</time>
      </trkpt>
      <trkpt lat="49.394" lon="5.81164">
        <ele>280</ele>
        <time>2022-09-13T11:32:42.000Z</time>
      </trkpt>
      <trkpt lat="49.394" lon="5.81162">
        <ele>280.39999389648</ele>
        <time>2022-09-13T11:32:43.000Z</time>
      </trkpt>
      <trkpt lat="49.394" lon="5.8116">
        <ele>280.60000610352</ele>
        <time>2022-09-13T11:32:44.000Z</time>
      </trkpt>
      <trkpt lat="49.39401" lon="5.81158">
        <ele>281</ele>
        <time>2022-09-13T11:32:45.000Z</time>
      </trkpt>
      <trkpt lat="49.39402" lon="5.81155">
        <ele>281.20001220703</ele>
        <time>2022-09-13T11:32:46.000Z</time>
      </trkpt>
      <trkpt lat="49.39402" lon="5.81153">
        <ele>281.60000610352</ele>
        <time>2022-09-13T11:32:47.000Z</time>
      </trkpt>
      <trkpt lat="49.39403" lon="5.81151">
        <ele>282.20001220703</ele>
        <time>2022-09-13T11:32:48.000Z</time>
      </trkpt>
      <trkpt lat="49.39403" lon="5.81148">
        <ele>282.39999389648</ele>
        <time>2022-09-13T11:32:49.000Z</time>
      </trkpt>
      <trkpt lat="49.39403" lon="5.81146">
        <ele>282.60000610352</ele>
        <time>2022-09-13T11:32:50.000Z</time>
      </trkpt>
      <trkpt lat="49.39404" lon="5.81143">
        <ele>283</ele>
        <time>2022-09-13T11:32:51.000Z</time>
      </trkpt>
      <trkpt lat="49.39404" lon="5.8114">
        <ele>283.20001220703</ele>
        <time>2022-09-13T11:32:52.000Z</time>
      </trkpt>
      <trkpt lat="49.39405" lon="5.81138">
        <ele>283.39999389648</ele>
        <time>2022-09-13T11:32:53.000Z</time>
      </trkpt>
      <trkpt lat="49.39405" lon="5.81135">
        <ele>283.60000610352</ele>
        <time>2022-09-13T11:32:54.000Z</time>
      </trkpt>
      <trkpt lat="49.39406" lon="5.81133">
        <ele>283.60000610352</ele>
        <time>2022-09-13T11:32:55.000Z</time>
      </trkpt>
      <trkpt lat="49.39407" lon="5.81132">
        <ele>283.79998779297</ele>
        <time>2022-09-13T11:32:56.000Z</time>
      </trkpt>
      <trkpt lat="49.39408" lon="5.81129">
        <ele>284.20001220703</ele>
        <time>2022-09-13T11:32:57.000Z</time>
      </trkpt>
      <trkpt lat="49.39409" lon="5.81127">
        <ele>284.60000610352</ele>
        <time>2022-09-13T11:32:58.000Z</time>
      </trkpt>
      <trkpt lat="49.3941" lon="5.81124">
        <ele>285.20001220703</ele>
        <time>2022-09-13T11:32:59.000Z</time>
      </trkpt>
      <trkpt lat="49.39411" lon="5.81122">
        <ele>285.79998779297</ele>
        <time>2022-09-13T11:33:00.000Z</time>
      </trkpt>
      <trkpt lat="49.39412" lon="5.81119">
        <ele>286</ele>
        <time>2022-09-13T11:33:01.000Z</time>
      </trkpt>
      <trkpt lat="49.39413" lon="5.81116">
        <ele>286.39999389648</ele>
        <time>2022-09-13T11:33:02.000Z</time>
      </trkpt>
      <trkpt lat="49.39414" lon="5.81113">
        <ele>286.60000610352</ele>
        <time>2022-09-13T11:33:03.000Z</time>
      </trkpt>
      <trkpt lat="49.39413" lon="5.8111">
        <ele>286.79998779297</ele>
        <time>2022-09-13T11:33:04.000Z</time>
      </trkpt>
      <trkpt lat="49.39413" lon="5.81109">
        <ele>287</ele>
        <time>2022-09-13T11:33:05.000Z</time>
      </trkpt>
      <trkpt lat="49.39415" lon="5.81107">
        <ele>287.20001220703</ele>
        <time>2022-09-13T11:33:06.000Z</time>
      </trkpt>
      <trkpt lat="49.39417" lon="5.81104">
        <ele>287.60000610352</ele>
        <time>2022-09-13T11:33:07.000Z</time>
      </trkpt>
      <trkpt lat="49.39418" lon="5.81103">
        <ele>287.79998779297</ele>
        <time>2022-09-13T11:33:08.000Z</time>
      </trkpt>
      <trkpt lat="49.39419" lon="5.81101">
        <ele>288</ele>
        <time>2022-09-13T11:33:09.000Z</time>
      </trkpt>
      <trkpt lat="49.39421" lon="5.811">
        <ele>288.20001220703</ele>
        <time>2022-09-13T11:33:10.000Z</time>
      </trkpt>
      <trkpt lat="49.39422" lon="5.81098">
        <ele>288.60000610352</ele>
        <time>2022-09-13T11:33:11.000Z</time>
      </trkpt>
      <trkpt lat="49.39423" lon="5.81097">
        <ele>288.60000610352</ele>
        <time>2022-09-13T11:33:12.000Z</time>
      </trkpt>
      <trkpt lat="49.39424" lon="5.81095">
        <ele>289</ele>
        <time>2022-09-13T11:33:13.000Z</time>
      </trkpt>
      <trkpt lat="49.39425" lon="5.81093">
        <ele>289.39999389648</ele>
        <time>2022-09-13T11:33:14.000Z</time>
      </trkpt>
      <trkpt lat="49.39426" lon="5.81091">
        <ele>289.79998779297</ele>
        <time>2022-09-13T11:33:15.000Z</time>
      </trkpt>
      <trkpt lat="49.39427" lon="5.81089">
        <ele>290</ele>
        <time>2022-09-13T11:33:16.000Z</time>
      </trkpt>
      <trkpt lat="49.39428" lon="5.81087">
        <ele>290.20001220703</ele>
        <time>2022-09-13T11:33:17.000Z</time>
      </trkpt>
      <trkpt lat="49.39429" lon="5.81084">
        <ele>290.79998779297</ele>
        <time>2022-09-13T11:33:18.000Z</time>
      </trkpt>
      <trkpt lat="49.39431" lon="5.81081">
        <ele>291</ele>
        <time>2022-09-13T11:33:19.000Z</time>
      </trkpt>
      <trkpt lat="49.39432" lon="5.81079">
        <ele>291.20001220703</ele>
        <time>2022-09-13T11:33:20.000Z</time>
      </trkpt>
      <trkpt lat="49.39433" lon="5.81077">
        <ele>292</ele>
        <time>2022-09-13T11:33:21.000Z</time>
      </trkpt>
      <trkpt lat="49.39434" lon="5.81073">
        <ele>292.20001220703</ele>
        <time>2022-09-13T11:33:22.000Z</time>
      </trkpt>
      <trkpt lat="49.39435" lon="5.81071">
        <ele>292.39999389648</ele>
        <time>2022-09-13T11:33:23.000Z</time>
      </trkpt>
      <trkpt lat="49.39436" lon="5.8107">
        <ele>292.60000610352</ele>
        <time>2022-09-13T11:33:24.000Z</time>
      </trkpt>
      <trkpt lat="49.39437" lon="5.81068">
        <ele>292.79998779297</ele>
        <time>2022-09-13T11:33:25.000Z</time>
      </trkpt>
      <trkpt lat="49.39438" lon="5.81065">
        <ele>292.79998779297</ele>
        <time>2022-09-13T11:33:26.000Z</time>
      </trkpt>
      <trkpt lat="49.39438" lon="5.81061">
        <ele>293</ele>
        <time>2022-09-13T11:33:27.000Z</time>
      </trkpt>
      <trkpt lat="49.39439" lon="5.81058">
        <ele>293.20001220703</ele>
        <time>2022-09-13T11:33:28.000Z</time>
      </trkpt>
      <trkpt lat="49.39439" lon="5.81056">
        <ele>294</ele>
        <time>2022-09-13T11:33:29.000Z</time>
      </trkpt>
      <trkpt lat="49.39441" lon="5.81054">
        <ele>294.39999389648</ele>
        <time>2022-09-13T11:33:30.000Z</time>
      </trkpt>
      <trkpt lat="49.39442" lon="5.81052">
        <ele>294.79998779297</ele>
        <time>2022-09-13T11:33:31.000Z</time>
      </trkpt>
      <trkpt lat="49.39442" lon="5.81049">
        <ele>295.39999389648</ele>
        <time>2022-09-13T11:33:32.000Z</time>
      </trkpt>
      <trkpt lat="49.39443" lon="5.81047">
        <ele>295.60000610352</ele>
        <time>2022-09-13T11:33:33.000Z</time>
      </trkpt>
      <trkpt lat="49.39443" lon="5.81046">
        <ele>296.20001220703</ele>
        <time>2022-09-13T11:33:34.000Z</time>
      </trkpt>
      <trkpt lat="49.39444" lon="5.81044">
        <ele>296.39999389648</ele>
        <time>2022-09-13T11:33:35.000Z</time>
      </trkpt>
      <trkpt lat="49.39446" lon="5.81042">
        <ele>296.79998779297</ele>
        <time>2022-09-13T11:33:36.000Z</time>
      </trkpt>
      <trkpt lat="49.39448" lon="5.8104">
        <ele>297.20001220703</ele>
        <time>2022-09-13T11:33:38.000Z</time>
      </trkpt>
      <trkpt lat="49.39449" lon="5.81038">
        <ele>297.39999389648</ele>
        <time>2022-09-13T11:33:39.000Z</time>
      </trkpt>
      <trkpt lat="49.39451" lon="5.81036">
        <ele>297.60000610352</ele>
        <time>2022-09-13T11:33:40.000Z</time>
      </trkpt>
      <trkpt lat="49.39453" lon="5.81034">
        <ele>298.39999389648</ele>
        <time>2022-09-13T11:33:41.000Z</time>
      </trkpt>
      <trkpt lat="49.39455" lon="5.81032">
        <ele>298.60000610352</ele>
        <time>2022-09-13T11:33:42.000Z</time>
      </trkpt>
      <trkpt lat="49.39457" lon="5.81029">
        <ele>299.20001220703</ele>
        <time>2022-09-13T11:33:43.000Z</time>
      </trkpt>
      <trkpt lat="49.39458" lon="5.81027">
        <ele>299.39999389648</ele>
        <time>2022-09-13T11:33:44.000Z</time>
      </trkpt>
      <trkpt lat="49.3946" lon="5.81025">
        <ele>299.79998779297</ele>
        <time>2022-09-13T11:33:45.000Z</time>
      </trkpt>
      <trkpt lat="49.39461" lon="5.81023">
        <ele>300.20001220703</ele>
        <time>2022-09-13T11:33:46.000Z</time>
      </trkpt>
      <trkpt lat="49.39462" lon="5.81021">
        <ele>300.39999389648</ele>
        <time>2022-09-13T11:33:47.000Z</time>
      </trkpt>
      <trkpt lat="49.39464" lon="5.8102">
        <ele>300.60000610352</ele>
        <time>2022-09-13T11:33:48.000Z</time>
      </trkpt>
      <trkpt lat="49.39467" lon="5.81019">
        <ele>300.79998779297</ele>
        <time>2022-09-13T11:33:49.000Z</time>
      </trkpt>
      <trkpt lat="49.39468" lon="5.81017">
        <ele>301.20001220703</ele>
        <time>2022-09-13T11:33:50.000Z</time>
      </trkpt>
      <trkpt lat="49.3947" lon="5.81016">
        <ele>301.60000610352</ele>
        <time>2022-09-13T11:33:51.000Z</time>
      </trkpt>
      <trkpt lat="49.39471" lon="5.81014">
        <ele>301.79998779297</ele>
        <time>2022-09-13T11:33:52.000Z</time>
      </trkpt>
      <trkpt lat="49.39471" lon="5.81013">
        <ele>302.20001220703</ele>
        <time>2022-09-13T11:33:53.000Z</time>
      </trkpt>
      <trkpt lat="49.39472" lon="5.81012">
        <ele>302.20001220703</ele>
        <time>2022-09-13T11:33:54.000Z</time>
      </trkpt>
      <trkpt lat="49.39474" lon="5.81011">
        <ele>302.60000610352</ele>
        <time>2022-09-13T11:33:55.000Z</time>
      </trkpt>
      <trkpt lat="49.39476" lon="5.81009">
        <ele>302.60000610352</ele>
        <time>2022-09-13T11:33:56.000Z</time>
      </trkpt>
      <trkpt lat="49.39477" lon="5.81008">
        <ele>302.79998779297</ele>
        <time>2022-09-13T11:33:57.000Z</time>
      </trkpt>
      <trkpt lat="49.39478" lon="5.81007">
        <ele>303</ele>
        <time>2022-09-13T11:33:58.000Z</time>
      </trkpt>
      <trkpt lat="49.39478" lon="5.81006">
        <ele>303.20001220703</ele>
        <time>2022-09-13T11:33:59.000Z</time>
      </trkpt>
      <trkpt lat="49.39479" lon="5.81005">
        <ele>303.39999389648</ele>
        <time>2022-09-13T11:34:00.000Z</time>
      </trkpt>
      <trkpt lat="49.39482" lon="5.81004">
        <ele>303.39999389648</ele>
        <time>2022-09-13T11:34:01.000Z</time>
      </trkpt>
      <trkpt lat="49.39483" lon="5.81003">
        <ele>303.60000610352</ele>
        <time>2022-09-13T11:34:02.000Z</time>
      </trkpt>
      <trkpt lat="49.39488" lon="5.81002">
        <ele>303.79998779297</ele>
        <time>2022-09-13T11:34:03.000Z</time>
      </trkpt>
      <trkpt lat="49.3949" lon="5.81001">
        <ele>304.20001220703</ele>
        <time>2022-09-13T11:34:04.000Z</time>
      </trkpt>
      <trkpt lat="49.39491" lon="5.81001">
        <ele>304.20001220703</ele>
        <time>2022-09-13T11:34:05.000Z</time>
      </trkpt>
      <trkpt lat="49.39491" lon="5.81002">
        <ele>304.39999389648</ele>
        <time>2022-09-13T11:34:06.000Z</time>
      </trkpt>
      <trkpt lat="49.39492" lon="5.81002">
        <ele>304.60000610352</ele>
        <time>2022-09-13T11:34:07.000Z</time>
      </trkpt>
      <trkpt lat="49.39495" lon="5.80998">
        <ele>304.79998779297</ele>
        <time>2022-09-13T11:34:10.000Z</time>
      </trkpt>
      <trkpt lat="49.39497" lon="5.80997">
        <ele>305.20001220703</ele>
        <time>2022-09-13T11:34:11.000Z</time>
      </trkpt>
      <trkpt lat="49.39498" lon="5.80997">
        <ele>305.39999389648</ele>
        <time>2022-09-13T11:34:12.000Z</time>
      </trkpt>
      <trkpt lat="49.39499" lon="5.80997">
        <ele>306</ele>
        <time>2022-09-13T11:34:14.000Z</time>
      </trkpt>
      <trkpt lat="49.395" lon="5.80997">
        <ele>306</ele>
        <time>2022-09-13T11:34:15.000Z</time>
      </trkpt>
      <trkpt lat="49.39501" lon="5.80997">
        <ele>306.20001220703</ele>
        <time>2022-09-13T11:34:16.000Z</time>
      </trkpt>
      <trkpt lat="49.39503" lon="5.80996">
        <ele>306.39999389648</ele>
        <time>2022-09-13T11:34:17.000Z</time>
      </trkpt>
      <trkpt lat="49.39505" lon="5.80995">
        <ele>306.60000610352</ele>
        <time>2022-09-13T11:34:18.000Z</time>
      </trkpt>
      <trkpt lat="49.39506" lon="5.80995">
        <ele>306.79998779297</ele>
        <time>2022-09-13T11:34:19.000Z</time>
      </trkpt>
      <trkpt lat="49.39508" lon="5.80995">
        <ele>307</ele>
        <time>2022-09-13T11:34:20.000Z</time>
      </trkpt>
      <trkpt lat="49.39509" lon="5.80995">
        <ele>307.39999389648</ele>
        <time>2022-09-13T11:34:21.000Z</time>
      </trkpt>
      <trkpt lat="49.3951" lon="5.80995">
        <ele>307.39999389648</ele>
        <time>2022-09-13T11:34:22.000Z</time>
      </trkpt>
      <trkpt lat="49.39512" lon="5.80995">
        <ele>307.60000610352</ele>
        <time>2022-09-13T11:34:23.000Z</time>
      </trkpt>
      <trkpt lat="49.39514" lon="5.80993">
        <ele>307.79998779297</ele>
        <time>2022-09-13T11:34:24.000Z</time>
      </trkpt>
      <trkpt lat="49.39516" lon="5.80992">
        <ele>308.20001220703</ele>
        <time>2022-09-13T11:34:25.000Z</time>
      </trkpt>
      <trkpt lat="49.39519" lon="5.80993">
        <ele>308.20001220703</ele>
        <time>2022-09-13T11:34:26.000Z</time>
      </trkpt>
      <trkpt lat="49.39521" lon="5.80993">
        <ele>308.60000610352</ele>
        <time>2022-09-13T11:34:27.000Z</time>
      </trkpt>
      <trkpt lat="49.39523" lon="5.80993">
        <ele>309</ele>
        <time>2022-09-13T11:34:28.000Z</time>
      </trkpt>
      <trkpt lat="49.39525" lon="5.80992">
        <ele>309.20001220703</ele>
        <time>2022-09-13T11:34:29.000Z</time>
      </trkpt>
      <trkpt lat="49.39526" lon="5.80993">
        <ele>309.39999389648</ele>
        <time>2022-09-13T11:34:30.000Z</time>
      </trkpt>
      <trkpt lat="49.39529" lon="5.80993">
        <ele>309.60000610352</ele>
        <time>2022-09-13T11:34:31.000Z</time>
      </trkpt>
      <trkpt lat="49.39531" lon="5.80993">
        <ele>309.79998779297</ele>
        <time>2022-09-13T11:34:32.000Z</time>
      </trkpt>
      <trkpt lat="49.39533" lon="5.80993">
        <ele>310</ele>
        <time>2022-09-13T11:34:33.000Z</time>
      </trkpt>
      <trkpt lat="49.39535" lon="5.80993">
        <ele>310.39999389648</ele>
        <time>2022-09-13T11:34:34.000Z</time>
      </trkpt>
      <trkpt lat="49.39536" lon="5.80994">
        <ele>310.60000610352</ele>
        <time>2022-09-13T11:34:35.000Z</time>
      </trkpt>
      <trkpt lat="49.39538" lon="5.80994">
        <ele>311</ele>
        <time>2022-09-13T11:34:36.000Z</time>
      </trkpt>
      <trkpt lat="49.3954" lon="5.80993">
        <ele>311.60000610352</ele>
        <time>2022-09-13T11:34:37.000Z</time>
      </trkpt>
      <trkpt lat="49.39543" lon="5.80992">
        <ele>312</ele>
        <time>2022-09-13T11:34:38.000Z</time>
      </trkpt>
      <trkpt lat="49.39545" lon="5.80991">
        <ele>312.39999389648</ele>
        <time>2022-09-13T11:34:39.000Z</time>
      </trkpt>
      <trkpt lat="49.39547" lon="5.80992">
        <ele>312.60000610352</ele>
        <time>2022-09-13T11:34:40.000Z</time>
      </trkpt>
      <trkpt lat="49.39549" lon="5.80993">
        <ele>312.79998779297</ele>
        <time>2022-09-13T11:34:41.000Z</time>
      </trkpt>
      <trkpt lat="49.39552" lon="5.80994">
        <ele>313</ele>
        <time>2022-09-13T11:34:42.000Z</time>
      </trkpt>
      <trkpt lat="49.39555" lon="5.80993">
        <ele>313.39999389648</ele>
        <time>2022-09-13T11:34:43.000Z</time>
      </trkpt>
      <trkpt lat="49.39558" lon="5.80993">
        <ele>313.60000610352</ele>
        <time>2022-09-13T11:34:44.000Z</time>
      </trkpt>
      <trkpt lat="49.3956" lon="5.80994">
        <ele>313.79998779297</ele>
        <time>2022-09-13T11:34:45.000Z</time>
      </trkpt>
      <trkpt lat="49.39562" lon="5.80993">
        <ele>314.20001220703</ele>
        <time>2022-09-13T11:34:46.000Z</time>
      </trkpt>
      <trkpt lat="49.39564" lon="5.80993">
        <ele>314.39999389648</ele>
        <time>2022-09-13T11:34:47.000Z</time>
      </trkpt>
      <trkpt lat="49.39565" lon="5.80991">
        <ele>314.39999389648</ele>
        <time>2022-09-13T11:34:48.000Z</time>
      </trkpt>
      <trkpt lat="49.39567" lon="5.8099">
        <ele>314.60000610352</ele>
        <time>2022-09-13T11:34:49.000Z</time>
      </trkpt>
      <trkpt lat="49.3957" lon="5.80988">
        <ele>314.79998779297</ele>
        <time>2022-09-13T11:34:50.000Z</time>
      </trkpt>
      <trkpt lat="49.39573" lon="5.80986">
        <ele>315</ele>
        <time>2022-09-13T11:34:51.000Z</time>
      </trkpt>
      <trkpt lat="49.39575" lon="5.80987">
        <ele>315.20001220703</ele>
        <time>2022-09-13T11:34:52.000Z</time>
      </trkpt>
      <trkpt lat="49.39578" lon="5.80986">
        <ele>315.39999389648</ele>
        <time>2022-09-13T11:34:53.000Z</time>
      </trkpt>
      <trkpt lat="49.39579" lon="5.80984">
        <ele>315.60000610352</ele>
        <time>2022-09-13T11:34:54.000Z</time>
      </trkpt>
      <trkpt lat="49.39581" lon="5.80984">
        <ele>315.60000610352</ele>
        <time>2022-09-13T11:34:55.000Z</time>
      </trkpt>
      <trkpt lat="49.39582" lon="5.80984">
        <ele>315.79998779297</ele>
        <time>2022-09-13T11:34:56.000Z</time>
      </trkpt>
      <trkpt lat="49.39583" lon="5.80984">
        <ele>316</ele>
        <time>2022-09-13T11:34:57.000Z</time>
      </trkpt>
      <trkpt lat="49.39584" lon="5.80985">
        <ele>316.39999389648</ele>
        <time>2022-09-13T11:34:58.000Z</time>
      </trkpt>
      <trkpt lat="49.39586" lon="5.80986">
        <ele>316.39999389648</ele>
        <time>2022-09-13T11:34:59.000Z</time>
      </trkpt>
      <trkpt lat="49.39587" lon="5.80986">
        <ele>316.79998779297</ele>
        <time>2022-09-13T11:35:00.000Z</time>
      </trkpt>
      <trkpt lat="49.39588" lon="5.80986">
        <ele>316.79998779297</ele>
        <time>2022-09-13T11:35:01.000Z</time>
      </trkpt>
      <trkpt lat="49.3959" lon="5.80986">
        <ele>317</ele>
        <time>2022-09-13T11:35:02.000Z</time>
      </trkpt>
      <trkpt lat="49.39591" lon="5.80986">
        <ele>317.20001220703</ele>
        <time>2022-09-13T11:35:03.000Z</time>
      </trkpt>
      <trkpt lat="49.39592" lon="5.80986">
        <ele>317.39999389648</ele>
        <time>2022-09-13T11:35:04.000Z</time>
      </trkpt>
      <trkpt lat="49.39595" lon="5.80984">
        <ele>317.60000610352</ele>
        <time>2022-09-13T11:35:05.000Z</time>
      </trkpt>
      <trkpt lat="49.39595" lon="5.80985">
        <ele>317.79998779297</ele>
        <time>2022-09-13T11:35:06.000Z</time>
      </trkpt>
      <trkpt lat="49.39598" lon="5.80982">
        <ele>318</ele>
        <time>2022-09-13T11:35:07.000Z</time>
      </trkpt>
      <trkpt lat="49.39603" lon="5.80979">
        <ele>318.20001220703</ele>
        <time>2022-09-13T11:35:08.000Z</time>
      </trkpt>
      <trkpt lat="49.39606" lon="5.80977">
        <ele>318.39999389648</ele>
        <time>2022-09-13T11:35:09.000Z</time>
      </trkpt>
      <trkpt lat="49.39609" lon="5.80975">
        <ele>318.39999389648</ele>
        <time>2022-09-13T11:35:10.000Z</time>
      </trkpt>
      <trkpt lat="49.39611" lon="5.80974">
        <ele>318.60000610352</ele>
        <time>2022-09-13T11:35:11.000Z</time>
      </trkpt>
      <trkpt lat="49.39613" lon="5.80974">
        <ele>319</ele>
        <time>2022-09-13T11:35:13.000Z</time>
      </trkpt>
      <trkpt lat="49.39614" lon="5.80975">
        <ele>319.20001220703</ele>
        <time>2022-09-13T11:35:14.000Z</time>
      </trkpt>
      <trkpt lat="49.39617" lon="5.80973">
        <ele>319.20001220703</ele>
        <time>2022-09-13T11:35:15.000Z</time>
      </trkpt>
      <trkpt lat="49.39619" lon="5.80972">
        <ele>319.60000610352</ele>
        <time>2022-09-13T11:35:16.000Z</time>
      </trkpt>
      <trkpt lat="49.39622" lon="5.8097">
        <ele>319.79998779297</ele>
        <time>2022-09-13T11:35:17.000Z</time>
      </trkpt>
      <trkpt lat="49.39624" lon="5.80968">
        <ele>319.79998779297</ele>
        <time>2022-09-13T11:35:18.000Z</time>
      </trkpt>
      <trkpt lat="49.39625" lon="5.80968">
        <ele>320</ele>
        <time>2022-09-13T11:35:19.000Z</time>
      </trkpt>
      <trkpt lat="49.39627" lon="5.80967">
        <ele>320.20001220703</ele>
        <time>2022-09-13T11:35:20.000Z</time>
      </trkpt>
      <trkpt lat="49.39632" lon="5.80962">
        <ele>320.39999389648</ele>
        <time>2022-09-13T11:35:21.000Z</time>
      </trkpt>
      <trkpt lat="49.39636" lon="5.80959">
        <ele>320.60000610352</ele>
        <time>2022-09-13T11:35:22.000Z</time>
      </trkpt>
      <trkpt lat="49.39637" lon="5.80957">
        <ele>320.60000610352</ele>
        <time>2022-09-13T11:35:23.000Z</time>
      </trkpt>
      <trkpt lat="49.39639" lon="5.80955">
        <ele>320.60000610352</ele>
        <time>2022-09-13T11:35:24.000Z</time>
      </trkpt>
      <trkpt lat="49.3964" lon="5.80955">
        <ele>320.79998779297</ele>
        <time>2022-09-13T11:35:25.000Z</time>
      </trkpt>
      <trkpt lat="49.39641" lon="5.80953">
        <ele>320.79998779297</ele>
        <time>2022-09-13T11:35:26.000Z</time>
      </trkpt>
      <trkpt lat="49.39644" lon="5.80953">
        <ele>320.79998779297</ele>
        <time>2022-09-13T11:35:27.000Z</time>
      </trkpt>
      <trkpt lat="49.39646" lon="5.80952">
        <ele>320.79998779297</ele>
        <time>2022-09-13T11:35:28.000Z</time>
      </trkpt>
      <trkpt lat="49.39647" lon="5.80952">
        <ele>321</ele>
        <time>2022-09-13T11:35:29.000Z</time>
      </trkpt>
      <trkpt lat="49.39648" lon="5.80952">
        <ele>321.20001220703</ele>
        <time>2022-09-13T11:35:30.000Z</time>
      </trkpt>
      <trkpt lat="49.39649" lon="5.80951">
        <ele>321.20001220703</ele>
        <time>2022-09-13T11:35:31.000Z</time>
      </trkpt>
      <trkpt lat="49.39651" lon="5.8095">
        <ele>321.20001220703</ele>
        <time>2022-09-13T11:35:32.000Z</time>
      </trkpt>
      <trkpt lat="49.39654" lon="5.80951">
        <ele>321.20001220703</ele>
        <time>2022-09-13T11:35:33.000Z</time>
      </trkpt>
      <trkpt lat="49.39656" lon="5.8095">
        <ele>321.39999389648</ele>
        <time>2022-09-13T11:35:34.000Z</time>
      </trkpt>
      <trkpt lat="49.3966" lon="5.80947">
        <ele>321.60000610352</ele>
        <time>2022-09-13T11:35:35.000Z</time>
      </trkpt>
      <trkpt lat="49.39662" lon="5.80944">
        <ele>321.79998779297</ele>
        <time>2022-09-13T11:35:36.000Z</time>
      </trkpt>
      <trkpt lat="49.39661" lon="5.80942">
        <ele>321.79998779297</ele>
        <time>2022-09-13T11:35:37.000Z</time>
      </trkpt>
      <trkpt lat="49.3966" lon="5.80939">
        <ele>321.79998779297</ele>
        <time>2022-09-13T11:35:38.000Z</time>
      </trkpt>
      <trkpt lat="49.39659" lon="5.80935">
        <ele>321.79998779297</ele>
        <time>2022-09-13T11:35:39.000Z</time>
      </trkpt>
      <trkpt lat="49.39659" lon="5.80931">
        <ele>321.79998779297</ele>
        <time>2022-09-13T11:35:40.000Z</time>
      </trkpt>
      <trkpt lat="49.3966" lon="5.80927">
        <ele>321.79998779297</ele>
        <time>2022-09-13T11:35:41.000Z</time>
      </trkpt>
      <trkpt lat="49.39662" lon="5.80923">
        <ele>321.79998779297</ele>
        <time>2022-09-13T11:35:42.000Z</time>
      </trkpt>
      <trkpt lat="49.39664" lon="5.80918">
        <ele>321.79998779297</ele>
        <time>2022-09-13T11:35:43.000Z</time>
      </trkpt>
      <trkpt lat="49.39665" lon="5.80914">
        <ele>321.79998779297</ele>
        <time>2022-09-13T11:35:44.000Z</time>
      </trkpt>
      <trkpt lat="49.39668" lon="5.8091">
        <ele>321.79998779297</ele>
        <time>2022-09-13T11:35:45.000Z</time>
      </trkpt>
      <trkpt lat="49.39672" lon="5.80897">
        <ele>321.39999389648</ele>
        <time>2022-09-13T11:35:48.000Z</time>
      </trkpt>
      <trkpt lat="49.39673" lon="5.80892">
        <ele>321.39999389648</ele>
        <time>2022-09-13T11:35:49.000Z</time>
      </trkpt>
      <trkpt lat="49.3968" lon="5.80878">
        <ele>321</ele>
        <time>2022-09-13T11:35:52.000Z</time>
      </trkpt>
      <trkpt lat="49.39682" lon="5.80873">
        <ele>320.79998779297</ele>
        <time>2022-09-13T11:35:53.000Z</time>
      </trkpt>
      <trkpt lat="49.39683" lon="5.80868">
        <ele>320.79998779297</ele>
        <time>2022-09-13T11:35:54.000Z</time>
      </trkpt>
      <trkpt lat="49.39684" lon="5.80864">
        <ele>320.79998779297</ele>
        <time>2022-09-13T11:35:55.000Z</time>
      </trkpt>
      <trkpt lat="49.39686" lon="5.80859">
        <ele>320.60000610352</ele>
        <time>2022-09-13T11:35:56.000Z</time>
      </trkpt>
      <trkpt lat="49.39687" lon="5.80855">
        <ele>320.60000610352</ele>
        <time>2022-09-13T11:35:57.000Z</time>
      </trkpt>
      <trkpt lat="49.39688" lon="5.8085">
        <ele>320.39999389648</ele>
        <time>2022-09-13T11:35:58.000Z</time>
      </trkpt>
      <trkpt lat="49.39688" lon="5.80847">
        <ele>320.39999389648</ele>
        <time>2022-09-13T11:35:59.000Z</time>
      </trkpt>
      <trkpt lat="49.39689" lon="5.80843">
        <ele>320.20001220703</ele>
        <time>2022-09-13T11:36:00.000Z</time>
      </trkpt>
      <trkpt lat="49.39689" lon="5.8084">
        <ele>320.20001220703</ele>
        <time>2022-09-13T11:36:01.000Z</time>
      </trkpt>
      <trkpt lat="49.3969" lon="5.80837">
        <ele>320</ele>
        <time>2022-09-13T11:36:02.000Z</time>
      </trkpt>
      <trkpt lat="49.39692" lon="5.80833">
        <ele>320</ele>
        <time>2022-09-13T11:36:03.000Z</time>
      </trkpt>
      <trkpt lat="49.39693" lon="5.80829">
        <ele>320</ele>
        <time>2022-09-13T11:36:04.000Z</time>
      </trkpt>
      <trkpt lat="49.39693" lon="5.80825">
        <ele>320</ele>
        <time>2022-09-13T11:36:05.000Z</time>
      </trkpt>
      <trkpt lat="49.39693" lon="5.80821">
        <ele>320</ele>
        <time>2022-09-13T11:36:06.000Z</time>
      </trkpt>
      <trkpt lat="49.39694" lon="5.80818">
        <ele>320</ele>
        <time>2022-09-13T11:36:07.000Z</time>
      </trkpt>
      <trkpt lat="49.39694" lon="5.80816">
        <ele>320.20001220703</ele>
        <time>2022-09-13T11:36:08.000Z</time>
      </trkpt>
      <trkpt lat="49.39697" lon="5.80811">
        <ele>320.20001220703</ele>
        <time>2022-09-13T11:36:09.000Z</time>
      </trkpt>
      <trkpt lat="49.39699" lon="5.80809">
        <ele>320.20001220703</ele>
        <time>2022-09-13T11:36:10.000Z</time>
      </trkpt>
      <trkpt lat="49.397" lon="5.80807">
        <ele>320.39999389648</ele>
        <time>2022-09-13T11:36:11.000Z</time>
      </trkpt>
      <trkpt lat="49.39702" lon="5.80802">
        <ele>320.39999389648</ele>
        <time>2022-09-13T11:36:12.000Z</time>
      </trkpt>
      <trkpt lat="49.39703" lon="5.80799">
        <ele>320.39999389648</ele>
        <time>2022-09-13T11:36:13.000Z</time>
      </trkpt>
      <trkpt lat="49.39705" lon="5.80796">
        <ele>320.39999389648</ele>
        <time>2022-09-13T11:36:14.000Z</time>
      </trkpt>
      <trkpt lat="49.39708" lon="5.80792">
        <ele>320.39999389648</ele>
        <time>2022-09-13T11:36:15.000Z</time>
      </trkpt>
      <trkpt lat="49.39709" lon="5.80789">
        <ele>320.60000610352</ele>
        <time>2022-09-13T11:36:16.000Z</time>
      </trkpt>
      <trkpt lat="49.3971" lon="5.80782">
        <ele>320.60000610352</ele>
        <time>2022-09-13T11:36:18.000Z</time>
      </trkpt>
      <trkpt lat="49.39712" lon="5.80779">
        <ele>320.60000610352</ele>
        <time>2022-09-13T11:36:19.000Z</time>
      </trkpt>
      <trkpt lat="49.39716" lon="5.80765">
        <ele>320.79998779297</ele>
        <time>2022-09-13T11:36:23.000Z</time>
      </trkpt>
      <trkpt lat="49.39716" lon="5.80762">
        <ele>320.79998779297</ele>
        <time>2022-09-13T11:36:24.000Z</time>
      </trkpt>
      <trkpt lat="49.39716" lon="5.80759">
        <ele>320.79998779297</ele>
        <time>2022-09-13T11:36:25.000Z</time>
      </trkpt>
      <trkpt lat="49.39721" lon="5.8075">
        <ele>321.20001220703</ele>
        <time>2022-09-13T11:36:28.000Z</time>
      </trkpt>
      <trkpt lat="49.3972" lon="5.80746">
        <ele>321.39999389648</ele>
        <time>2022-09-13T11:36:29.000Z</time>
      </trkpt>
      <trkpt lat="49.39719" lon="5.80742">
        <ele>321.39999389648</ele>
        <time>2022-09-13T11:36:30.000Z</time>
      </trkpt>
      <trkpt lat="49.3972" lon="5.80737">
        <ele>321.39999389648</ele>
        <time>2022-09-13T11:36:31.000Z</time>
      </trkpt>
      <trkpt lat="49.39721" lon="5.80733">
        <ele>321.60000610352</ele>
        <time>2022-09-13T11:36:32.000Z</time>
      </trkpt>
      <trkpt lat="49.39723" lon="5.80729">
        <ele>321.60000610352</ele>
        <time>2022-09-13T11:36:33.000Z</time>
      </trkpt>
      <trkpt lat="49.39725" lon="5.80726">
        <ele>321.60000610352</ele>
        <time>2022-09-13T11:36:34.000Z</time>
      </trkpt>
      <trkpt lat="49.3973" lon="5.80717">
        <ele>321.79998779297</ele>
        <time>2022-09-13T11:36:37.000Z</time>
      </trkpt>
      <trkpt lat="49.39743" lon="5.80685">
        <ele>322.20001220703</ele>
        <time>2022-09-13T11:36:46.000Z</time>
      </trkpt>
      <trkpt lat="49.39747" lon="5.80676">
        <ele>322.20001220703</ele>
        <time>2022-09-13T11:36:49.000Z</time>
      </trkpt>
      <trkpt lat="49.3975" lon="5.80672">
        <ele>322.20001220703</ele>
        <time>2022-09-13T11:36:50.000Z</time>
      </trkpt>
      <trkpt lat="49.39755" lon="5.8066">
        <ele>322.20001220703</ele>
        <time>2022-09-13T11:36:53.000Z</time>
      </trkpt>
      <trkpt lat="49.39759" lon="5.80654">
        <ele>322.20001220703</ele>
        <time>2022-09-13T11:36:55.000Z</time>
      </trkpt>
      <trkpt lat="49.39759" lon="5.8065">
        <ele>322.20001220703</ele>
        <time>2022-09-13T11:36:56.000Z</time>
      </trkpt>
      <trkpt lat="49.39758" lon="5.80644">
        <ele>322.39999389648</ele>
        <time>2022-09-13T11:36:57.000Z</time>
      </trkpt>
      <trkpt lat="49.39759" lon="5.8064">
        <ele>322.39999389648</ele>
        <time>2022-09-13T11:36:58.000Z</time>
      </trkpt>
      <trkpt lat="49.3976" lon="5.80637">
        <ele>322.39999389648</ele>
        <time>2022-09-13T11:36:59.000Z</time>
      </trkpt>
      <trkpt lat="49.39761" lon="5.80634">
        <ele>322.20001220703</ele>
        <time>2022-09-13T11:37:00.000Z</time>
      </trkpt>
      <trkpt lat="49.39762" lon="5.8063">
        <ele>322.20001220703</ele>
        <time>2022-09-13T11:37:01.000Z</time>
      </trkpt>
      <trkpt lat="49.39763" lon="5.80627">
        <ele>322.20001220703</ele>
        <time>2022-09-13T11:37:02.000Z</time>
      </trkpt>
      <trkpt lat="49.39763" lon="5.80624">
        <ele>322.20001220703</ele>
        <time>2022-09-13T11:37:03.000Z</time>
      </trkpt>
      <trkpt lat="49.39765" lon="5.80621">
        <ele>322.20001220703</ele>
        <time>2022-09-13T11:37:04.000Z</time>
      </trkpt>
      <trkpt lat="49.39766" lon="5.80618">
        <ele>322.20001220703</ele>
        <time>2022-09-13T11:37:05.000Z</time>
      </trkpt>
      <trkpt lat="49.39769" lon="5.80604">
        <ele>322.20001220703</ele>
        <time>2022-09-13T11:37:08.000Z</time>
      </trkpt>
      <trkpt lat="49.39769" lon="5.80599">
        <ele>322</ele>
        <time>2022-09-13T11:37:09.000Z</time>
      </trkpt>
      <trkpt lat="49.39769" lon="5.80594">
        <ele>322</ele>
        <time>2022-09-13T11:37:10.000Z</time>
      </trkpt>
      <trkpt lat="49.39768" lon="5.80588">
        <ele>321.79998779297</ele>
        <time>2022-09-13T11:37:11.000Z</time>
      </trkpt>
      <trkpt lat="49.39768" lon="5.80582">
        <ele>321.79998779297</ele>
        <time>2022-09-13T11:37:12.000Z</time>
      </trkpt>
      <trkpt lat="49.39761" lon="5.80554">
        <ele>321</ele>
        <time>2022-09-13T11:37:16.000Z</time>
      </trkpt>
      <trkpt lat="49.39748" lon="5.80515">
        <ele>320.60000610352</ele>
        <time>2022-09-13T11:37:21.000Z</time>
      </trkpt>
      <trkpt lat="49.39743" lon="5.80505">
        <ele>320.39999389648</ele>
        <time>2022-09-13T11:37:22.000Z</time>
      </trkpt>
      <trkpt lat="49.39736" lon="5.80486">
        <ele>320</ele>
        <time>2022-09-13T11:37:24.000Z</time>
      </trkpt>
      <trkpt lat="49.39734" lon="5.80477">
        <ele>319.20001220703</ele>
        <time>2022-09-13T11:37:25.000Z</time>
      </trkpt>
      <trkpt lat="49.39734" lon="5.80467">
        <ele>319</ele>
        <time>2022-09-13T11:37:26.000Z</time>
      </trkpt>
      <trkpt lat="49.39734" lon="5.80458">
        <ele>318.39999389648</ele>
        <time>2022-09-13T11:37:27.000Z</time>
      </trkpt>
      <trkpt lat="49.39732" lon="5.80448">
        <ele>318.20001220703</ele>
        <time>2022-09-13T11:37:28.000Z</time>
      </trkpt>
      <trkpt lat="49.3973" lon="5.80436">
        <ele>317.39999389648</ele>
        <time>2022-09-13T11:37:29.000Z</time>
      </trkpt>
      <trkpt lat="49.39724" lon="5.80403">
        <ele>315.79998779297</ele>
        <time>2022-09-13T11:37:32.000Z</time>
      </trkpt>
      <trkpt lat="49.39721" lon="5.8039">
        <ele>315.60000610352</ele>
        <time>2022-09-13T11:37:33.000Z</time>
      </trkpt>
      <trkpt lat="49.39718" lon="5.80378">
        <ele>315.20001220703</ele>
        <time>2022-09-13T11:37:34.000Z</time>
      </trkpt>
      <trkpt lat="49.3971" lon="5.80354">
        <ele>314.39999389648</ele>
        <time>2022-09-13T11:37:36.000Z</time>
      </trkpt>
      <trkpt lat="49.39702" lon="5.8033">
        <ele>313</ele>
        <time>2022-09-13T11:37:38.000Z</time>
      </trkpt>
      <trkpt lat="49.397" lon="5.80319">
        <ele>312.20001220703</ele>
        <time>2022-09-13T11:37:39.000Z</time>
      </trkpt>
      <trkpt lat="49.39698" lon="5.80309">
        <ele>311.79998779297</ele>
        <time>2022-09-13T11:37:40.000Z</time>
      </trkpt>
      <trkpt lat="49.39698" lon="5.80298">
        <ele>311.20001220703</ele>
        <time>2022-09-13T11:37:41.000Z</time>
      </trkpt>
      <trkpt lat="49.39699" lon="5.80288">
        <ele>310.79998779297</ele>
        <time>2022-09-13T11:37:42.000Z</time>
      </trkpt>
      <trkpt lat="49.39701" lon="5.80279">
        <ele>309.20001220703</ele>
        <time>2022-09-13T11:37:43.000Z</time>
      </trkpt>
      <trkpt lat="49.39703" lon="5.80267">
        <ele>308.60000610352</ele>
        <time>2022-09-13T11:37:44.000Z</time>
      </trkpt>
      <trkpt lat="49.39706" lon="5.80256">
        <ele>307</ele>
        <time>2022-09-13T11:37:45.000Z</time>
      </trkpt>
      <trkpt lat="49.39709" lon="5.80243">
        <ele>306</ele>
        <time>2022-09-13T11:37:46.000Z</time>
      </trkpt>
      <trkpt lat="49.39711" lon="5.80232">
        <ele>305.60000610352</ele>
        <time>2022-09-13T11:37:47.000Z</time>
      </trkpt>
      <trkpt lat="49.39719" lon="5.80209">
        <ele>304</ele>
        <time>2022-09-13T11:37:49.000Z</time>
      </trkpt>
      <trkpt lat="49.39721" lon="5.80201">
        <ele>302.39999389648</ele>
        <time>2022-09-13T11:37:50.000Z</time>
      </trkpt>
      <trkpt lat="49.39724" lon="5.80193">
        <ele>301.39999389648</ele>
        <time>2022-09-13T11:37:51.000Z</time>
      </trkpt>
      <trkpt lat="49.39728" lon="5.80183">
        <ele>299.79998779297</ele>
        <time>2022-09-13T11:37:52.000Z</time>
      </trkpt>
      <trkpt lat="49.39732" lon="5.80174">
        <ele>297.79998779297</ele>
        <time>2022-09-13T11:37:53.000Z</time>
      </trkpt>
      <trkpt lat="49.39737" lon="5.80167">
        <ele>297.20001220703</ele>
        <time>2022-09-13T11:37:54.000Z</time>
      </trkpt>
      <trkpt lat="49.39741" lon="5.80161">
        <ele>295.20001220703</ele>
        <time>2022-09-13T11:37:55.000Z</time>
      </trkpt>
      <trkpt lat="49.39743" lon="5.80155">
        <ele>294</ele>
        <time>2022-09-13T11:37:56.000Z</time>
      </trkpt>
      <trkpt lat="49.39746" lon="5.80149">
        <ele>292.39999389648</ele>
        <time>2022-09-13T11:37:57.000Z</time>
      </trkpt>
      <trkpt lat="49.39751" lon="5.80144">
        <ele>292</ele>
        <time>2022-09-13T11:37:58.000Z</time>
      </trkpt>
      <trkpt lat="49.39754" lon="5.80138">
        <ele>291</ele>
        <time>2022-09-13T11:37:59.000Z</time>
      </trkpt>
      <trkpt lat="49.39758" lon="5.80132">
        <ele>289.79998779297</ele>
        <time>2022-09-13T11:38:00.000Z</time>
      </trkpt>
      <trkpt lat="49.39767" lon="5.80124">
        <ele>289.20001220703</ele>
        <time>2022-09-13T11:38:01.000Z</time>
      </trkpt>
      <trkpt lat="49.39775" lon="5.80118">
        <ele>288</ele>
        <time>2022-09-13T11:38:02.000Z</time>
      </trkpt>
      <trkpt lat="49.39783" lon="5.80112">
        <ele>287</ele>
        <time>2022-09-13T11:38:03.000Z</time>
      </trkpt>
      <trkpt lat="49.3979" lon="5.80106">
        <ele>284.39999389648</ele>
        <time>2022-09-13T11:38:04.000Z</time>
      </trkpt>
      <trkpt lat="49.39797" lon="5.80101">
        <ele>283.60000610352</ele>
        <time>2022-09-13T11:38:05.000Z</time>
      </trkpt>
      <trkpt lat="49.39808" lon="5.80094">
        <ele>282.60000610352</ele>
        <time>2022-09-13T11:38:06.000Z</time>
      </trkpt>
      <trkpt lat="49.39826" lon="5.8008">
        <ele>280.79998779297</ele>
        <time>2022-09-13T11:38:08.000Z</time>
      </trkpt>
      <trkpt lat="49.39828" lon="5.80074">
        <ele>280</ele>
        <time>2022-09-13T11:38:09.000Z</time>
      </trkpt>
      <trkpt lat="49.39832" lon="5.80068">
        <ele>279.60000610352</ele>
        <time>2022-09-13T11:38:10.000Z</time>
      </trkpt>
      <trkpt lat="49.39837" lon="5.80062">
        <ele>279.39999389648</ele>
        <time>2022-09-13T11:38:11.000Z</time>
      </trkpt>
      <trkpt lat="49.39841" lon="5.80057">
        <ele>279.20001220703</ele>
        <time>2022-09-13T11:38:12.000Z</time>
      </trkpt>
      <trkpt lat="49.39845" lon="5.80054">
        <ele>279</ele>
        <time>2022-09-13T11:38:13.000Z</time>
      </trkpt>
      <trkpt lat="49.39848" lon="5.80051">
        <ele>278.60000610352</ele>
        <time>2022-09-13T11:38:14.000Z</time>
      </trkpt>
      <trkpt lat="49.3985" lon="5.80048">
        <ele>278.39999389648</ele>
        <time>2022-09-13T11:38:15.000Z</time>
      </trkpt>
      <trkpt lat="49.39852" lon="5.80046">
        <ele>278.20001220703</ele>
        <time>2022-09-13T11:38:16.000Z</time>
      </trkpt>
      <trkpt lat="49.39853" lon="5.80043">
        <ele>278.20001220703</ele>
        <time>2022-09-13T11:38:17.000Z</time>
      </trkpt>
      <trkpt lat="49.39854" lon="5.80041">
        <ele>278.20001220703</ele>
        <time>2022-09-13T11:38:18.000Z</time>
      </trkpt>
      <trkpt lat="49.39855" lon="5.80039">
        <ele>278</ele>
        <time>2022-09-13T11:38:19.000Z</time>
      </trkpt>
      <trkpt lat="49.39857" lon="5.80038">
        <ele>278</ele>
        <time>2022-09-13T11:38:20.000Z</time>
      </trkpt>
      <trkpt lat="49.39858" lon="5.80036">
        <ele>278</ele>
        <time>2022-09-13T11:38:21.000Z</time>
      </trkpt>
      <trkpt lat="49.39863" lon="5.80028">
        <ele>278.20001220703</ele>
        <time>2022-09-13T11:38:25.000Z</time>
      </trkpt>
      <trkpt lat="49.39864" lon="5.80026">
        <ele>278.20001220703</ele>
        <time>2022-09-13T11:38:26.000Z</time>
      </trkpt>
      <trkpt lat="49.39865" lon="5.80024">
        <ele>278.20001220703</ele>
        <time>2022-09-13T11:38:27.000Z</time>
      </trkpt>
      <trkpt lat="49.39867" lon="5.80022">
        <ele>278.20001220703</ele>
        <time>2022-09-13T11:38:28.000Z</time>
      </trkpt>
      <trkpt lat="49.39872" lon="5.80017">
        <ele>278.39999389648</ele>
        <time>2022-09-13T11:38:30.000Z</time>
      </trkpt>
      <trkpt lat="49.39874" lon="5.80015">
        <ele>278.79998779297</ele>
        <time>2022-09-13T11:38:31.000Z</time>
      </trkpt>
      <trkpt lat="49.39881" lon="5.8001">
        <ele>279.60000610352</ele>
        <time>2022-09-13T11:38:34.000Z</time>
      </trkpt>
      <trkpt lat="49.39896" lon="5.8">
        <ele>280.39999389648</ele>
        <time>2022-09-13T11:38:41.000Z</time>
      </trkpt>
      <trkpt lat="49.39899" lon="5.79999">
        <ele>280.60000610352</ele>
        <time>2022-09-13T11:38:42.000Z</time>
      </trkpt>
      <trkpt lat="49.39904" lon="5.79997">
        <ele>280.79998779297</ele>
        <time>2022-09-13T11:38:44.000Z</time>
      </trkpt>
      <trkpt lat="49.39905" lon="5.79996">
        <ele>281</ele>
        <time>2022-09-13T11:38:45.000Z</time>
      </trkpt>
      <trkpt lat="49.39907" lon="5.79997">
        <ele>281.20001220703</ele>
        <time>2022-09-13T11:38:46.000Z</time>
      </trkpt>
      <trkpt lat="49.39909" lon="5.79996">
        <ele>281.20001220703</ele>
        <time>2022-09-13T11:38:47.000Z</time>
      </trkpt>
      <trkpt lat="49.39912" lon="5.79995">
        <ele>281.39999389648</ele>
        <time>2022-09-13T11:38:48.000Z</time>
      </trkpt>
      <trkpt lat="49.39917" lon="5.7999">
        <ele>272.3</ele>
        <time>2022-09-13T11:38:49.000Z</time>
      </trkpt>
      <trkpt lat="49.39934" lon="5.79986">
        <ele>273.5</ele>
      </trkpt>
      <trkpt lat="49.39953" lon="5.79989">
        <ele>274.8</ele>
      </trkpt>
      <trkpt lat="49.39957" lon="5.79989">
        <ele>274.8</ele>
      </trkpt>
      <trkpt lat="49.39967" lon="5.79994">
        <ele>275.4</ele>
      </trkpt>
      <trkpt lat="49.39988" lon="5.80009">
        <ele>277</ele>
      </trkpt>
      <trkpt lat="49.40011" lon="5.80033">
        <ele>279.5</ele>
      </trkpt>
      <trkpt lat="49.40034" lon="5.80055">
        <ele>281.2</ele>
      </trkpt>
      <trkpt lat="49.40056" lon="5.80063">
        <ele>282.6</ele>
      </trkpt>
      <trkpt lat="49.40069" lon="5.80062">
        <ele>282.9</ele>
      </trkpt>
      <trkpt lat="49.4008" lon="5.80059">
        <ele>283</ele>
      </trkpt>
      <trkpt lat="49.40094" lon="5.80047">
        <ele>283.6</ele>
      </trkpt>
      <trkpt lat="49.401" lon="5.80036">
        <ele>283.9</ele>
      </trkpt>
      <trkpt lat="49.40102" lon="5.80016">
        <ele>284.5</ele>
      </trkpt>
      <trkpt lat="49.40099" lon="5.79971">
        <ele>286.5</ele>
      </trkpt>
      <trkpt lat="49.40089" lon="5.79949">
        <ele>287.5</ele>
      </trkpt>
      <trkpt lat="49.40073" lon="5.79936">
        <ele>287.2</ele>
      </trkpt>
      <trkpt lat="49.40026" lon="5.79877">
        <ele>291.1</ele>
      </trkpt>
      <trkpt lat="49.40011" lon="5.79846">
        <ele>290.7</ele>
      </trkpt>
      <trkpt lat="49.3997" lon="5.79674">
        <ele>299.5</ele>
      </trkpt>
      <trkpt lat="49.39966" lon="5.79637">
        <ele>300.3</ele>
      </trkpt>
      <trkpt lat="49.3997" lon="5.79616">
        <ele>302.4</ele>
      </trkpt>
      <trkpt lat="49.39977" lon="5.79597">
        <ele>303.3</ele>
      </trkpt>
      <trkpt lat="49.39992" lon="5.79584">
        <ele>303.7</ele>
      </trkpt>
      <trkpt lat="49.40046" lon="5.79564">
        <ele>306</ele>
      </trkpt>
      <trkpt lat="49.40316" lon="5.79477">
        <ele>308.2</ele>
      </trkpt>
      <trkpt lat="49.40346" lon="5.79466">
        <ele>308.1</ele>
      </trkpt>
      <trkpt lat="49.40426" lon="5.79397">
        <ele>313.2</ele>
      </trkpt>
      <trkpt lat="49.40451" lon="5.79368">
        <ele>316.3</ele>
      </trkpt>
      <trkpt lat="49.40521" lon="5.79302">
        <ele>322.5</ele>
      </trkpt>
      <trkpt lat="49.40521" lon="5.79302">
        <ele>322.5</ele>
      </trkpt>
      <trkpt lat="49.40707" lon="5.79055">
        <ele>326.4</ele>
      </trkpt>
      <trkpt lat="49.40739" lon="5.79">
        <ele>326.2</ele>
      </trkpt>
      <trkpt lat="49.4075" lon="5.7897">
        <ele>326.9</ele>
      </trkpt>
      <trkpt lat="49.40758" lon="5.78938">
        <ele>326.6</ele>
      </trkpt>
      <trkpt lat="49.4077" lon="5.78889">
        <ele>327.7</ele>
      </trkpt>
      <trkpt lat="49.4078" lon="5.78844">
        <ele>329.8</ele>
      </trkpt>
      <trkpt lat="49.40779" lon="5.78844">
        <ele>329.8</ele>
      </trkpt>
      <trkpt lat="49.40777" lon="5.7884">
        <ele>329.7</ele>
      </trkpt>
      <trkpt lat="49.40769" lon="5.78842">
        <ele>329</ele>
      </trkpt>
      <trkpt lat="49.40762" lon="5.7884">
        <ele>328.6</ele>
      </trkpt>
      <trkpt lat="49.40747" lon="5.7882">
        <ele>328.2</ele>
      </trkpt>
      <trkpt lat="49.40735" lon="5.788">
        <ele>327.3</ele>
      </trkpt>
      <trkpt lat="49.40724" lon="5.78787">
        <ele>326.1</ele>
      </trkpt>
      <trkpt lat="49.40708" lon="5.7878">
        <ele>325.5</ele>
      </trkpt>
      <trkpt lat="49.4068" lon="5.78786">
        <ele>324.5</ele>
      </trkpt>
      <trkpt lat="49.40605" lon="5.7881">
        <ele>320.4</ele>
      </trkpt>
      <trkpt lat="49.40559" lon="5.78815">
        <ele>318.1</ele>
      </trkpt>
      <trkpt lat="49.40544" lon="5.78818">
        <ele>317</ele>
      </trkpt>
      <trkpt lat="49.40508" lon="5.7883">
        <ele>313.7</ele>
      </trkpt>
      <trkpt lat="49.40498" lon="5.78831">
        <ele>312.9</ele>
      </trkpt>
      <trkpt lat="49.40481" lon="5.78822">
        <ele>312.1</ele>
      </trkpt>
      <trkpt lat="49.40465" lon="5.7882">
        <ele>310.5</ele>
      </trkpt>
      <trkpt lat="49.40447" lon="5.78797">
        <ele>308.9</ele>
      </trkpt>
      <trkpt lat="49.4043" lon="5.78758">
        <ele>309.5</ele>
      </trkpt>
      <trkpt lat="49.40417" lon="5.78749">
        <ele>309.1</ele>
      </trkpt>
      <trkpt lat="49.4043" lon="5.78758">
        <ele>309.5</ele>
      </trkpt>
      <trkpt lat="49.40447" lon="5.78797">
        <ele>308.9</ele>
      </trkpt>
      <trkpt lat="49.40466" lon="5.78819">
        <ele>310.5</ele>
      </trkpt>
      <trkpt lat="49.40481" lon="5.7882">
        <ele>312.1</ele>
      </trkpt>
      <trkpt lat="49.40489" lon="5.78827">
        <ele>312.5</ele>
      </trkpt>
      <trkpt lat="49.40498" lon="5.78831">
        <ele>312.9</ele>
      </trkpt>
      <trkpt lat="49.40507" lon="5.78831">
        <ele>313.6</ele>
      </trkpt>
      <trkpt lat="49.40544" lon="5.78818">
        <ele>317</ele>
      </trkpt>
      <trkpt lat="49.40551" lon="5.78816">
        <ele>317.6</ele>
      </trkpt>
      <trkpt lat="49.40559" lon="5.78815">
        <ele>318.1</ele>
      </trkpt>
      <trkpt lat="49.40605" lon="5.78809">
        <ele>320.5</ele>
      </trkpt>
      <trkpt lat="49.4064" lon="5.78799">
        <ele>322.3</ele>
      </trkpt>
      <trkpt lat="49.40681" lon="5.78786">
        <ele>324.5</ele>
      </trkpt>
      <trkpt lat="49.40708" lon="5.7878">
        <ele>325.5</ele>
      </trkpt>
      <trkpt lat="49.40724" lon="5.78787">
        <ele>326.1</ele>
      </trkpt>
      <trkpt lat="49.40735" lon="5.78799">
        <ele>327.2</ele>
      </trkpt>
      <trkpt lat="49.40747" lon="5.7882">
        <ele>328.2</ele>
      </trkpt>
      <trkpt lat="49.40761" lon="5.7884">
        <ele>328.5</ele>
      </trkpt>
      <trkpt lat="49.40769" lon="5.78842">
        <ele>329</ele>
      </trkpt>
      <trkpt lat="49.40777" lon="5.7884">
        <ele>329.7</ele>
      </trkpt>
      <trkpt lat="49.4078" lon="5.78843">
        <ele>329.9</ele>
      </trkpt>
      <trkpt lat="49.40768" lon="5.78896">
        <ele>327.6</ele>
      </trkpt>
      <trkpt lat="49.4075" lon="5.7897">
        <ele>326.9</ele>
      </trkpt>
      <trkpt lat="49.4074" lon="5.78999">
        <ele>326.2</ele>
      </trkpt>
      <trkpt lat="49.40724" lon="5.79028">
        <ele>326.1</ele>
      </trkpt>
      <trkpt lat="49.40707" lon="5.79054">
        <ele>326.4</ele>
      </trkpt>
      <trkpt lat="49.4064" lon="5.79141">
        <ele>327.1</ele>
      </trkpt>
      <trkpt lat="49.4058" lon="5.79224">
        <ele>325.9</ele>
      </trkpt>
      <trkpt lat="49.4052" lon="5.79304">
        <ele>322.5</ele>
      </trkpt>
      <trkpt lat="49.40451" lon="5.79369">
        <ele>316.2</ele>
      </trkpt>
      <trkpt lat="49.40426" lon="5.79399">
        <ele>313.2</ele>
      </trkpt>
      <trkpt lat="49.40424" lon="5.79399">
        <ele>313</ele>
      </trkpt>
      <trkpt lat="49.40347" lon="5.79464">
        <ele>308</ele>
      </trkpt>
      <trkpt lat="49.4022" lon="5.79508">
        <ele>308.6</ele>
      </trkpt>
      <trkpt lat="49.40115" lon="5.79543">
        <ele>307.2</ele>
      </trkpt>
      <trkpt lat="49.39994" lon="5.79584">
        <ele>303.8</ele>
      </trkpt>
      <trkpt lat="49.39978" lon="5.79597">
        <ele>303.3</ele>
      </trkpt>
      <trkpt lat="49.39969" lon="5.79617">
        <ele>302.2</ele>
      </trkpt>
      <trkpt lat="49.39967" lon="5.79637">
        <ele>300.3</ele>
      </trkpt>
      <trkpt lat="49.39969" lon="5.79672">
        <ele>299.2</ele>
      </trkpt>
      <trkpt lat="49.40012" lon="5.79849">
        <ele>290.6</ele>
      </trkpt>
      <trkpt lat="49.40025" lon="5.79877">
        <ele>290.8</ele>
      </trkpt>
      <trkpt lat="49.40073" lon="5.79936">
        <ele>287.1</ele>
      </trkpt>
      <trkpt lat="49.40089" lon="5.79949">
        <ele>287.5</ele>
      </trkpt>
      <trkpt lat="49.40099" lon="5.7997">
        <ele>286.5</ele>
      </trkpt>
      <trkpt lat="49.40101" lon="5.79991">
        <ele>285.4</ele>
      </trkpt>
      <trkpt lat="49.40102" lon="5.80016">
        <ele>284.5</ele>
      </trkpt>
      <trkpt lat="49.401" lon="5.80035">
        <ele>283.9</ele>
      </trkpt>
      <trkpt lat="49.40095" lon="5.80046">
        <ele>283.6</ele>
      </trkpt>
      <trkpt lat="49.4008" lon="5.80059">
        <ele>283</ele>
      </trkpt>
      <trkpt lat="49.40069" lon="5.80062">
        <ele>282.8</ele>
      </trkpt>
      <trkpt lat="49.40056" lon="5.80063">
        <ele>282.5</ele>
      </trkpt>
      <trkpt lat="49.40034" lon="5.80055">
        <ele>281.1</ele>
      </trkpt>
      <trkpt lat="49.40011" lon="5.80033">
        <ele>279.5</ele>
      </trkpt>
      <trkpt lat="49.39988" lon="5.80009">
        <ele>277</ele>
      </trkpt>
      <trkpt lat="49.39967" lon="5.79994">
        <ele>275.4</ele>
      </trkpt>
      <trkpt lat="49.39958" lon="5.79989">
        <ele>274.8</ele>
      </trkpt>
      <trkpt lat="49.39953" lon="5.79989">
        <ele>274.8</ele>
        <time>2022-09-13T11:38:50.000Z</time>
      </trkpt>
      <trkpt lat="49.39934" lon="5.79987">
        <ele>273.6</ele>
      </trkpt>
      <trkpt lat="49.39917" lon="5.7999">
        <ele>272.3</ele>
        <time>2022-09-13T11:38:51.000Z</time>
      </trkpt>
    </trkseg>
  </trk>
  <trk>
    <name><![CDATA[Nocturne Mercy le Bas 20 km_3]]></name>
    <extensions>
      <line xmlns="http://www.topografix.com/GPX/gpx_style/0/2">
        <color>FF0000</color>
        <width>4</width>
      </line>
    </extensions>
    <trkseg>
      <trkpt lat="49.42227" lon="5.74736">
        <ele>323.4</ele>
        <time>2022-09-13T12:38:50.000Z</time>
      </trkpt>
      <trkpt lat="49.42215" lon="5.74704">
        <ele>336.39999389648</ele>
        <time>2022-09-13T12:38:53.000Z</time>
      </trkpt>
      <trkpt lat="49.42212" lon="5.74699">
        <ele>336.20001220703</ele>
        <time>2022-09-13T12:38:54.000Z</time>
      </trkpt>
      <trkpt lat="49.42209" lon="5.74694">
        <ele>336</ele>
        <time>2022-09-13T12:38:55.000Z</time>
      </trkpt>
      <trkpt lat="49.42207" lon="5.74691">
        <ele>335.60000610352</ele>
        <time>2022-09-13T12:38:56.000Z</time>
      </trkpt>
      <trkpt lat="49.42205" lon="5.74687">
        <ele>335.60000610352</ele>
        <time>2022-09-13T12:38:57.000Z</time>
      </trkpt>
      <trkpt lat="49.42203" lon="5.74683">
        <ele>335.39999389648</ele>
        <time>2022-09-13T12:38:58.000Z</time>
      </trkpt>
      <trkpt lat="49.42198" lon="5.74671">
        <ele>335.20001220703</ele>
        <time>2022-09-13T12:39:00.000Z</time>
      </trkpt>
      <trkpt lat="49.42193" lon="5.74659">
        <ele>335</ele>
        <time>2022-09-13T12:39:01.000Z</time>
      </trkpt>
      <trkpt lat="49.4219" lon="5.74652">
        <ele>335</ele>
        <time>2022-09-13T12:39:02.000Z</time>
      </trkpt>
      <trkpt lat="49.42187" lon="5.74642">
        <ele>334.79998779297</ele>
        <time>2022-09-13T12:39:03.000Z</time>
      </trkpt>
      <trkpt lat="49.42171" lon="5.74603">
        <ele>334.60000610352</ele>
        <time>2022-09-13T12:39:08.000Z</time>
      </trkpt>
      <trkpt lat="49.42166" lon="5.74592">
        <ele>334.60000610352</ele>
        <time>2022-09-13T12:39:11.000Z</time>
      </trkpt>
      <trkpt lat="49.42155" lon="5.74554">
        <ele>334</ele>
        <time>2022-09-13T12:39:14.000Z</time>
      </trkpt>
      <trkpt lat="49.42147" lon="5.74537">
        <ele>333.60000610352</ele>
        <time>2022-09-13T12:39:16.000Z</time>
      </trkpt>
      <trkpt lat="49.42142" lon="5.7453">
        <ele>333.39999389648</ele>
        <time>2022-09-13T12:39:17.000Z</time>
      </trkpt>
      <trkpt lat="49.4214" lon="5.74522">
        <ele>333</ele>
        <time>2022-09-13T12:39:19.000Z</time>
      </trkpt>
      <trkpt lat="49.42139" lon="5.74517">
        <ele>332.79998779297</ele>
        <time>2022-09-13T12:39:20.000Z</time>
      </trkpt>
      <trkpt lat="49.42137" lon="5.74511">
        <ele>332.60000610352</ele>
        <time>2022-09-13T12:39:21.000Z</time>
      </trkpt>
      <trkpt lat="49.4213" lon="5.745">
        <ele>332.39999389648</ele>
        <time>2022-09-13T12:39:23.000Z</time>
      </trkpt>
      <trkpt lat="49.42125" lon="5.74491">
        <ele>332.20001220703</ele>
        <time>2022-09-13T12:39:26.000Z</time>
      </trkpt>
      <trkpt lat="49.42124" lon="5.74479">
        <ele>332.20001220703</ele>
        <time>2022-09-13T12:39:27.000Z</time>
      </trkpt>
      <trkpt lat="49.42123" lon="5.74473">
        <ele>332.20001220703</ele>
        <time>2022-09-13T12:39:28.000Z</time>
      </trkpt>
      <trkpt lat="49.42121" lon="5.74467">
        <ele>332.20001220703</ele>
        <time>2022-09-13T12:39:29.000Z</time>
      </trkpt>
      <trkpt lat="49.42119" lon="5.74463">
        <ele>332.20001220703</ele>
        <time>2022-09-13T12:39:30.000Z</time>
      </trkpt>
      <trkpt lat="49.42115" lon="5.74457">
        <ele>332</ele>
        <time>2022-09-13T12:39:31.000Z</time>
      </trkpt>
      <trkpt lat="49.42112" lon="5.74452">
        <ele>332</ele>
        <time>2022-09-13T12:39:32.000Z</time>
      </trkpt>
      <trkpt lat="49.42108" lon="5.74448">
        <ele>332</ele>
        <time>2022-09-13T12:39:33.000Z</time>
      </trkpt>
      <trkpt lat="49.42107" lon="5.74446">
        <ele>332</ele>
        <time>2022-09-13T12:39:34.000Z</time>
      </trkpt>
      <trkpt lat="49.42106" lon="5.74443">
        <ele>331.79998779297</ele>
        <time>2022-09-13T12:39:35.000Z</time>
      </trkpt>
      <trkpt lat="49.42103" lon="5.74439">
        <ele>331.79998779297</ele>
        <time>2022-09-13T12:39:37.000Z</time>
      </trkpt>
      <trkpt lat="49.42101" lon="5.74437">
        <ele>331.79998779297</ele>
        <time>2022-09-13T12:39:38.000Z</time>
      </trkpt>
      <trkpt lat="49.42093" lon="5.7443">
        <ele>331.60000610352</ele>
        <time>2022-09-13T12:39:40.000Z</time>
      </trkpt>
      <trkpt lat="49.42091" lon="5.74425">
        <ele>331.60000610352</ele>
        <time>2022-09-13T12:39:41.000Z</time>
      </trkpt>
      <trkpt lat="49.4209" lon="5.74422">
        <ele>331.60000610352</ele>
        <time>2022-09-13T12:39:42.000Z</time>
      </trkpt>
      <trkpt lat="49.42089" lon="5.74416">
        <ele>331.60000610352</ele>
        <time>2022-09-13T12:39:44.000Z</time>
      </trkpt>
      <trkpt lat="49.42089" lon="5.74411">
        <ele>331.39999389648</ele>
        <time>2022-09-13T12:39:45.000Z</time>
      </trkpt>
      <trkpt lat="49.42083" lon="5.74394">
        <ele>331.20001220703</ele>
        <time>2022-09-13T12:39:47.000Z</time>
      </trkpt>
      <trkpt lat="49.42078" lon="5.74378">
        <ele>331.20001220703</ele>
        <time>2022-09-13T12:39:50.000Z</time>
      </trkpt>
      <trkpt lat="49.42075" lon="5.74372">
        <ele>331.20001220703</ele>
        <time>2022-09-13T12:39:51.000Z</time>
      </trkpt>
      <trkpt lat="49.42074" lon="5.74364">
        <ele>331</ele>
        <time>2022-09-13T12:39:53.000Z</time>
      </trkpt>
      <trkpt lat="49.42072" lon="5.74358">
        <ele>331</ele>
        <time>2022-09-13T12:39:54.000Z</time>
      </trkpt>
      <trkpt lat="49.42065" lon="5.74344">
        <ele>330.79998779297</ele>
        <time>2022-09-13T12:39:56.000Z</time>
      </trkpt>
      <trkpt lat="49.42062" lon="5.7434">
        <ele>330.60000610352</ele>
        <time>2022-09-13T12:39:57.000Z</time>
      </trkpt>
      <trkpt lat="49.4206" lon="5.74338">
        <ele>330.20001220703</ele>
        <time>2022-09-13T12:39:58.000Z</time>
      </trkpt>
      <trkpt lat="49.4206" lon="5.74335">
        <ele>330.20001220703</ele>
        <time>2022-09-13T12:39:59.000Z</time>
      </trkpt>
      <trkpt lat="49.4206" lon="5.74331">
        <ele>330</ele>
        <time>2022-09-13T12:40:00.000Z</time>
      </trkpt>
      <trkpt lat="49.42058" lon="5.74318">
        <ele>329.60000610352</ele>
        <time>2022-09-13T12:40:02.000Z</time>
      </trkpt>
      <trkpt lat="49.42054" lon="5.74306">
        <ele>329.60000610352</ele>
        <time>2022-09-13T12:40:04.000Z</time>
      </trkpt>
      <trkpt lat="49.42044" lon="5.74284">
        <ele>329.39999389648</ele>
        <time>2022-09-13T12:40:08.000Z</time>
      </trkpt>
      <trkpt lat="49.42042" lon="5.74279">
        <ele>329.20001220703</ele>
        <time>2022-09-13T12:40:09.000Z</time>
      </trkpt>
      <trkpt lat="49.42035" lon="5.74258">
        <ele>329</ele>
        <time>2022-09-13T12:40:13.000Z</time>
      </trkpt>
      <trkpt lat="49.42036" lon="5.74255">
        <ele>328.79998779297</ele>
        <time>2022-09-13T12:40:14.000Z</time>
      </trkpt>
      <trkpt lat="49.42037" lon="5.74251">
        <ele>328.60000610352</ele>
        <time>2022-09-13T12:40:15.000Z</time>
      </trkpt>
      <trkpt lat="49.42039" lon="5.74243">
        <ele>328.39999389648</ele>
        <time>2022-09-13T12:40:17.000Z</time>
      </trkpt>
      <trkpt lat="49.42038" lon="5.74232">
        <ele>328.20001220703</ele>
        <time>2022-09-13T12:40:18.000Z</time>
      </trkpt>
      <trkpt lat="49.42037" lon="5.74223">
        <ele>328</ele>
        <time>2022-09-13T12:40:19.000Z</time>
      </trkpt>
      <trkpt lat="49.42035" lon="5.74215">
        <ele>327.79998779297</ele>
        <time>2022-09-13T12:40:20.000Z</time>
      </trkpt>
      <trkpt lat="49.42033" lon="5.74211">
        <ele>327.79998779297</ele>
        <time>2022-09-13T12:40:21.000Z</time>
      </trkpt>
      <trkpt lat="49.4203" lon="5.74203">
        <ele>327.60000610352</ele>
        <time>2022-09-13T12:40:22.000Z</time>
      </trkpt>
      <trkpt lat="49.42027" lon="5.74202">
        <ele>327.60000610352</ele>
        <time>2022-09-13T12:40:23.000Z</time>
      </trkpt>
      <trkpt lat="49.42026" lon="5.74203">
        <ele>327.60000610352</ele>
        <time>2022-09-13T12:40:24.000Z</time>
      </trkpt>
      <trkpt lat="49.42025" lon="5.74204">
        <ele>327.60000610352</ele>
        <time>2022-09-13T12:40:25.000Z</time>
      </trkpt>
      <trkpt lat="49.42023" lon="5.74208">
        <ele>327.60000610352</ele>
        <time>2022-09-13T12:40:26.000Z</time>
      </trkpt>
      <trkpt lat="49.42022" lon="5.74211">
        <ele>327.60000610352</ele>
        <time>2022-09-13T12:40:27.000Z</time>
      </trkpt>
      <trkpt lat="49.42021" lon="5.74213">
        <ele>327.39999389648</ele>
        <time>2022-09-13T12:40:28.000Z</time>
      </trkpt>
      <trkpt lat="49.4202" lon="5.74215">
        <ele>327.39999389648</ele>
        <time>2022-09-13T12:40:29.000Z</time>
      </trkpt>
      <trkpt lat="49.42019" lon="5.74221">
        <ele>327.60000610352</ele>
        <time>2022-09-13T12:40:31.000Z</time>
      </trkpt>
      <trkpt lat="49.42009" lon="5.74244">
        <ele>327.60000610352</ele>
        <time>2022-09-13T12:40:38.000Z</time>
      </trkpt>
      <trkpt lat="49.41995" lon="5.74267">
        <ele>328.60000610352</ele>
        <time>2022-09-13T12:40:45.000Z</time>
      </trkpt>
      <trkpt lat="49.41974" lon="5.74299">
        <ele>329</ele>
        <time>2022-09-13T12:40:55.000Z</time>
      </trkpt>
      <trkpt lat="49.41955" lon="5.74325">
        <ele>329.39999389648</ele>
        <time>2022-09-13T12:41:04.000Z</time>
      </trkpt>
      <trkpt lat="49.41949" lon="5.74333">
        <ele>329.60000610352</ele>
        <time>2022-09-13T12:41:06.000Z</time>
      </trkpt>
      <trkpt lat="49.41947" lon="5.74336">
        <ele>329.79998779297</ele>
        <time>2022-09-13T12:41:07.000Z</time>
      </trkpt>
      <trkpt lat="49.41943" lon="5.74342">
        <ele>330</ele>
        <time>2022-09-13T12:41:09.000Z</time>
      </trkpt>
      <trkpt lat="49.41937" lon="5.7435">
        <ele>330.39999389648</ele>
        <time>2022-09-13T12:41:12.000Z</time>
      </trkpt>
      <trkpt lat="49.41934" lon="5.74353">
        <ele>330.39999389648</ele>
        <time>2022-09-13T12:41:13.000Z</time>
      </trkpt>
      <trkpt lat="49.41932" lon="5.74355">
        <ele>330.39999389648</ele>
        <time>2022-09-13T12:41:14.000Z</time>
      </trkpt>
      <trkpt lat="49.4193" lon="5.74358">
        <ele>330.39999389648</ele>
        <time>2022-09-13T12:41:15.000Z</time>
      </trkpt>
      <trkpt lat="49.41928" lon="5.74361">
        <ele>330.60000610352</ele>
        <time>2022-09-13T12:41:16.000Z</time>
      </trkpt>
      <trkpt lat="49.41917" lon="5.74375">
        <ele>331</ele>
        <time>2022-09-13T12:41:21.000Z</time>
      </trkpt>
      <trkpt lat="49.41903" lon="5.74392">
        <ele>331.60000610352</ele>
        <time>2022-09-13T12:41:27.000Z</time>
      </trkpt>
      <trkpt lat="49.41892" lon="5.74405">
        <ele>331.79998779297</ele>
        <time>2022-09-13T12:41:31.000Z</time>
      </trkpt>
      <trkpt lat="49.41884" lon="5.74415">
        <ele>331.79998779297</ele>
        <time>2022-09-13T12:41:34.000Z</time>
      </trkpt>
      <trkpt lat="49.41868" lon="5.74436">
        <ele>332.79998779297</ele>
        <time>2022-09-13T12:41:40.000Z</time>
      </trkpt>
      <trkpt lat="49.41862" lon="5.74443">
        <ele>332.79998779297</ele>
        <time>2022-09-13T12:41:42.000Z</time>
      </trkpt>
      <trkpt lat="49.41831" lon="5.74479">
        <ele>333.79998779297</ele>
        <time>2022-09-13T12:41:52.000Z</time>
      </trkpt>
      <trkpt lat="49.41827" lon="5.74483">
        <ele>334</ele>
        <time>2022-09-13T12:41:53.000Z</time>
      </trkpt>
      <trkpt lat="49.4182" lon="5.74492">
        <ele>334</ele>
        <time>2022-09-13T12:41:55.000Z</time>
      </trkpt>
      <trkpt lat="49.41813" lon="5.745">
        <ele>334</ele>
        <time>2022-09-13T12:41:57.000Z</time>
      </trkpt>
      <trkpt lat="49.4181" lon="5.74504">
        <ele>334</ele>
        <time>2022-09-13T12:41:59.000Z</time>
      </trkpt>
      <trkpt lat="49.4178" lon="5.7454">
        <ele>333.79998779297</ele>
        <time>2022-09-13T12:42:06.000Z</time>
      </trkpt>
      <trkpt lat="49.41777" lon="5.74544">
        <ele>333.79998779297</ele>
        <time>2022-09-13T12:42:07.000Z</time>
      </trkpt>
      <trkpt lat="49.41767" lon="5.74555">
        <ele>334</ele>
        <time>2022-09-13T12:42:10.000Z</time>
      </trkpt>
      <trkpt lat="49.4176" lon="5.74562">
        <ele>334.20001220703</ele>
        <time>2022-09-13T12:42:12.000Z</time>
      </trkpt>
      <trkpt lat="49.41757" lon="5.74566">
        <ele>334.20001220703</ele>
        <time>2022-09-13T12:42:13.000Z</time>
      </trkpt>
      <trkpt lat="49.41753" lon="5.7457">
        <ele>334.20001220703</ele>
        <time>2022-09-13T12:42:14.000Z</time>
      </trkpt>
      <trkpt lat="49.4175" lon="5.74573">
        <ele>334.39999389648</ele>
        <time>2022-09-13T12:42:15.000Z</time>
      </trkpt>
      <trkpt lat="49.41744" lon="5.7458">
        <ele>334.79998779297</ele>
        <time>2022-09-13T12:42:17.000Z</time>
      </trkpt>
      <trkpt lat="49.41741" lon="5.74583">
        <ele>334.79998779297</ele>
        <time>2022-09-13T12:42:18.000Z</time>
      </trkpt>
      <trkpt lat="49.41738" lon="5.74585">
        <ele>335</ele>
        <time>2022-09-13T12:42:19.000Z</time>
      </trkpt>
      <trkpt lat="49.41734" lon="5.74588">
        <ele>335.20001220703</ele>
        <time>2022-09-13T12:42:20.000Z</time>
      </trkpt>
      <trkpt lat="49.41731" lon="5.74591">
        <ele>335.39999389648</ele>
        <time>2022-09-13T12:42:21.000Z</time>
      </trkpt>
      <trkpt lat="49.41727" lon="5.74594">
        <ele>335.39999389648</ele>
        <time>2022-09-13T12:42:22.000Z</time>
      </trkpt>
      <trkpt lat="49.41724" lon="5.74597">
        <ele>335.39999389648</ele>
        <time>2022-09-13T12:42:23.000Z</time>
      </trkpt>
      <trkpt lat="49.41716" lon="5.74602">
        <ele>335.79998779297</ele>
        <time>2022-09-13T12:42:25.000Z</time>
      </trkpt>
      <trkpt lat="49.41684" lon="5.74621">
        <ele>336.20001220703</ele>
        <time>2022-09-13T12:42:34.000Z</time>
      </trkpt>
      <trkpt lat="49.41681" lon="5.74622">
        <ele>336.20001220703</ele>
        <time>2022-09-13T12:42:35.000Z</time>
      </trkpt>
      <trkpt lat="49.41676" lon="5.74625">
        <ele>336.60000610352</ele>
        <time>2022-09-13T12:42:37.000Z</time>
      </trkpt>
      <trkpt lat="49.41672" lon="5.74626">
        <ele>337</ele>
        <time>2022-09-13T12:42:38.000Z</time>
      </trkpt>
      <trkpt lat="49.41671" lon="5.74627">
        <ele>337.20001220703</ele>
        <time>2022-09-13T12:42:39.000Z</time>
      </trkpt>
      <trkpt lat="49.41668" lon="5.74628">
        <ele>337.60000610352</ele>
        <time>2022-09-13T12:42:40.000Z</time>
      </trkpt>
      <trkpt lat="49.41666" lon="5.74629">
        <ele>337.79998779297</ele>
        <time>2022-09-13T12:42:41.000Z</time>
      </trkpt>
      <trkpt lat="49.41664" lon="5.7463">
        <ele>338</ele>
        <time>2022-09-13T12:42:42.000Z</time>
      </trkpt>
      <trkpt lat="49.41661" lon="5.74631">
        <ele>338</ele>
        <time>2022-09-13T12:42:43.000Z</time>
      </trkpt>
      <trkpt lat="49.41658" lon="5.74633">
        <ele>338.20001220703</ele>
        <time>2022-09-13T12:42:44.000Z</time>
      </trkpt>
      <trkpt lat="49.41656" lon="5.74635">
        <ele>338.39999389648</ele>
        <time>2022-09-13T12:42:45.000Z</time>
      </trkpt>
      <trkpt lat="49.41653" lon="5.74637">
        <ele>338.60000610352</ele>
        <time>2022-09-13T12:42:46.000Z</time>
      </trkpt>
      <trkpt lat="49.4165" lon="5.74638">
        <ele>338.79998779297</ele>
        <time>2022-09-13T12:42:47.000Z</time>
      </trkpt>
      <trkpt lat="49.41647" lon="5.74639">
        <ele>339</ele>
        <time>2022-09-13T12:42:48.000Z</time>
      </trkpt>
      <trkpt lat="49.41644" lon="5.74641">
        <ele>339.20001220703</ele>
        <time>2022-09-13T12:42:49.000Z</time>
      </trkpt>
      <trkpt lat="49.41642" lon="5.74642">
        <ele>339.39999389648</ele>
        <time>2022-09-13T12:42:50.000Z</time>
      </trkpt>
      <trkpt lat="49.41639" lon="5.74643">
        <ele>339.60000610352</ele>
        <time>2022-09-13T12:42:51.000Z</time>
      </trkpt>
      <trkpt lat="49.41637" lon="5.74644">
        <ele>340</ele>
        <time>2022-09-13T12:42:52.000Z</time>
      </trkpt>
      <trkpt lat="49.41634" lon="5.74646">
        <ele>340.60000610352</ele>
        <time>2022-09-13T12:42:53.000Z</time>
      </trkpt>
      <trkpt lat="49.41632" lon="5.74648">
        <ele>341.20001220703</ele>
        <time>2022-09-13T12:42:54.000Z</time>
      </trkpt>
      <trkpt lat="49.41629" lon="5.7465">
        <ele>341.60000610352</ele>
        <time>2022-09-13T12:42:55.000Z</time>
      </trkpt>
      <trkpt lat="49.41626" lon="5.74652">
        <ele>342</ele>
        <time>2022-09-13T12:42:56.000Z</time>
      </trkpt>
      <trkpt lat="49.41623" lon="5.74654">
        <ele>342</ele>
        <time>2022-09-13T12:42:57.000Z</time>
      </trkpt>
      <trkpt lat="49.4162" lon="5.74656">
        <ele>342.39999389648</ele>
        <time>2022-09-13T12:42:58.000Z</time>
      </trkpt>
      <trkpt lat="49.41618" lon="5.74658">
        <ele>342.79998779297</ele>
        <time>2022-09-13T12:42:59.000Z</time>
      </trkpt>
      <trkpt lat="49.41615" lon="5.74659">
        <ele>343</ele>
        <time>2022-09-13T12:43:00.000Z</time>
      </trkpt>
      <trkpt lat="49.41613" lon="5.74661">
        <ele>343.60000610352</ele>
        <time>2022-09-13T12:43:01.000Z</time>
      </trkpt>
      <trkpt lat="49.41609" lon="5.74663">
        <ele>343.60000610352</ele>
        <time>2022-09-13T12:43:02.000Z</time>
      </trkpt>
      <trkpt lat="49.41607" lon="5.74664">
        <ele>344.20001220703</ele>
        <time>2022-09-13T12:43:03.000Z</time>
      </trkpt>
      <trkpt lat="49.41604" lon="5.74665">
        <ele>344.39999389648</ele>
        <time>2022-09-13T12:43:04.000Z</time>
      </trkpt>
      <trkpt lat="49.41601" lon="5.74667">
        <ele>344.79998779297</ele>
        <time>2022-09-13T12:43:05.000Z</time>
      </trkpt>
      <trkpt lat="49.41599" lon="5.74669">
        <ele>345.20001220703</ele>
        <time>2022-09-13T12:43:06.000Z</time>
      </trkpt>
      <trkpt lat="49.41596" lon="5.74671">
        <ele>345.39999389648</ele>
        <time>2022-09-13T12:43:07.000Z</time>
      </trkpt>
      <trkpt lat="49.41593" lon="5.74673">
        <ele>345.60000610352</ele>
        <time>2022-09-13T12:43:08.000Z</time>
      </trkpt>
      <trkpt lat="49.4159" lon="5.74674">
        <ele>345.79998779297</ele>
        <time>2022-09-13T12:43:09.000Z</time>
      </trkpt>
      <trkpt lat="49.41588" lon="5.74676">
        <ele>346.20001220703</ele>
        <time>2022-09-13T12:43:10.000Z</time>
      </trkpt>
      <trkpt lat="49.41586" lon="5.74678">
        <ele>346.60000610352</ele>
        <time>2022-09-13T12:43:11.000Z</time>
      </trkpt>
      <trkpt lat="49.41583" lon="5.7468">
        <ele>347.20001220703</ele>
        <time>2022-09-13T12:43:12.000Z</time>
      </trkpt>
      <trkpt lat="49.4158" lon="5.74682">
        <ele>347.39999389648</ele>
        <time>2022-09-13T12:43:13.000Z</time>
      </trkpt>
      <trkpt lat="49.41577" lon="5.74683">
        <ele>347.79998779297</ele>
        <time>2022-09-13T12:43:14.000Z</time>
      </trkpt>
      <trkpt lat="49.41575" lon="5.74685">
        <ele>348</ele>
        <time>2022-09-13T12:43:15.000Z</time>
      </trkpt>
      <trkpt lat="49.41573" lon="5.74687">
        <ele>348.20001220703</ele>
        <time>2022-09-13T12:43:16.000Z</time>
      </trkpt>
      <trkpt lat="49.4157" lon="5.74689">
        <ele>348.60000610352</ele>
        <time>2022-09-13T12:43:17.000Z</time>
      </trkpt>
      <trkpt lat="49.41567" lon="5.74691">
        <ele>348.60000610352</ele>
        <time>2022-09-13T12:43:18.000Z</time>
      </trkpt>
      <trkpt lat="49.41565" lon="5.74693">
        <ele>349</ele>
        <time>2022-09-13T12:43:19.000Z</time>
      </trkpt>
      <trkpt lat="49.41562" lon="5.74696">
        <ele>349.20001220703</ele>
        <time>2022-09-13T12:43:20.000Z</time>
      </trkpt>
      <trkpt lat="49.41559" lon="5.74698">
        <ele>349.20001220703</ele>
        <time>2022-09-13T12:43:21.000Z</time>
      </trkpt>
      <trkpt lat="49.41556" lon="5.747">
        <ele>349.39999389648</ele>
        <time>2022-09-13T12:43:22.000Z</time>
      </trkpt>
      <trkpt lat="49.41553" lon="5.74701">
        <ele>349.60000610352</ele>
        <time>2022-09-13T12:43:23.000Z</time>
      </trkpt>
      <trkpt lat="49.4155" lon="5.74704">
        <ele>350.20001220703</ele>
        <time>2022-09-13T12:43:24.000Z</time>
      </trkpt>
      <trkpt lat="49.41547" lon="5.74706">
        <ele>350.39999389648</ele>
        <time>2022-09-13T12:43:25.000Z</time>
      </trkpt>
      <trkpt lat="49.41545" lon="5.74708">
        <ele>350.60000610352</ele>
        <time>2022-09-13T12:43:26.000Z</time>
      </trkpt>
      <trkpt lat="49.41543" lon="5.74711">
        <ele>350.60000610352</ele>
        <time>2022-09-13T12:43:27.000Z</time>
      </trkpt>
      <trkpt lat="49.4154" lon="5.74715">
        <ele>350.79998779297</ele>
        <time>2022-09-13T12:43:28.000Z</time>
      </trkpt>
      <trkpt lat="49.41537" lon="5.74718">
        <ele>351</ele>
        <time>2022-09-13T12:43:29.000Z</time>
      </trkpt>
      <trkpt lat="49.41535" lon="5.74721">
        <ele>351</ele>
        <time>2022-09-13T12:43:30.000Z</time>
      </trkpt>
      <trkpt lat="49.41533" lon="5.74724">
        <ele>351.20001220703</ele>
        <time>2022-09-13T12:43:31.000Z</time>
      </trkpt>
      <trkpt lat="49.4153" lon="5.74727">
        <ele>351.39999389648</ele>
        <time>2022-09-13T12:43:32.000Z</time>
      </trkpt>
      <trkpt lat="49.41528" lon="5.7473">
        <ele>351.39999389648</ele>
        <time>2022-09-13T12:43:33.000Z</time>
      </trkpt>
      <trkpt lat="49.41526" lon="5.74734">
        <ele>351.60000610352</ele>
        <time>2022-09-13T12:43:34.000Z</time>
      </trkpt>
      <trkpt lat="49.41523" lon="5.74738">
        <ele>351.79998779297</ele>
        <time>2022-09-13T12:43:35.000Z</time>
      </trkpt>
      <trkpt lat="49.41522" lon="5.74741">
        <ele>351.79998779297</ele>
        <time>2022-09-13T12:43:36.000Z</time>
      </trkpt>
      <trkpt lat="49.41519" lon="5.74745">
        <ele>351.79998779297</ele>
        <time>2022-09-13T12:43:37.000Z</time>
      </trkpt>
      <trkpt lat="49.41518" lon="5.74749">
        <ele>351.79998779297</ele>
        <time>2022-09-13T12:43:38.000Z</time>
      </trkpt>
      <trkpt lat="49.41515" lon="5.74755">
        <ele>351.79998779297</ele>
        <time>2022-09-13T12:43:40.000Z</time>
      </trkpt>
      <trkpt lat="49.41513" lon="5.74759">
        <ele>351.79998779297</ele>
        <time>2022-09-13T12:43:41.000Z</time>
      </trkpt>
      <trkpt lat="49.41512" lon="5.74761">
        <ele>351.79998779297</ele>
        <time>2022-09-13T12:43:42.000Z</time>
      </trkpt>
      <trkpt lat="49.4151" lon="5.74764">
        <ele>351.79998779297</ele>
        <time>2022-09-13T12:43:43.000Z</time>
      </trkpt>
      <trkpt lat="49.41508" lon="5.74767">
        <ele>351.79998779297</ele>
        <time>2022-09-13T12:43:44.000Z</time>
      </trkpt>
      <trkpt lat="49.41506" lon="5.74769">
        <ele>352</ele>
        <time>2022-09-13T12:43:45.000Z</time>
      </trkpt>
      <trkpt lat="49.41504" lon="5.74772">
        <ele>352</ele>
        <time>2022-09-13T12:43:46.000Z</time>
      </trkpt>
      <trkpt lat="49.41502" lon="5.74775">
        <ele>351.79998779297</ele>
        <time>2022-09-13T12:43:47.000Z</time>
      </trkpt>
      <trkpt lat="49.41499" lon="5.74777">
        <ele>351.79998779297</ele>
        <time>2022-09-13T12:43:48.000Z</time>
      </trkpt>
      <trkpt lat="49.41497" lon="5.74779">
        <ele>351.79998779297</ele>
        <time>2022-09-13T12:43:49.000Z</time>
      </trkpt>
      <trkpt lat="49.41494" lon="5.74782">
        <ele>351.79998779297</ele>
        <time>2022-09-13T12:43:50.000Z</time>
      </trkpt>
      <trkpt lat="49.41491" lon="5.74785">
        <ele>351.79998779297</ele>
        <time>2022-09-13T12:43:51.000Z</time>
      </trkpt>
      <trkpt lat="49.41479" lon="5.74793">
        <ele>351.39999389648</ele>
        <time>2022-09-13T12:43:55.000Z</time>
      </trkpt>
      <trkpt lat="49.41459" lon="5.74808">
        <ele>350.20001220703</ele>
        <time>2022-09-13T12:44:00.000Z</time>
      </trkpt>
      <trkpt lat="49.41426" lon="5.74831">
        <ele>349</ele>
        <time>2022-09-13T12:44:06.000Z</time>
      </trkpt>
      <trkpt lat="49.414" lon="5.7485">
        <ele>347.79998779297</ele>
        <time>2022-09-13T12:44:10.000Z</time>
      </trkpt>
      <trkpt lat="49.41381" lon="5.74864">
        <ele>346.39999389648</ele>
        <time>2022-09-13T12:44:13.000Z</time>
      </trkpt>
      <trkpt lat="49.41375" lon="5.74868">
        <ele>346.20001220703</ele>
        <time>2022-09-13T12:44:14.000Z</time>
      </trkpt>
      <trkpt lat="49.41369" lon="5.74873">
        <ele>345.79998779297</ele>
        <time>2022-09-13T12:44:15.000Z</time>
      </trkpt>
      <trkpt lat="49.41364" lon="5.74876">
        <ele>345.60000610352</ele>
        <time>2022-09-13T12:44:16.000Z</time>
      </trkpt>
      <trkpt lat="49.41358" lon="5.7488">
        <ele>345.20001220703</ele>
        <time>2022-09-13T12:44:17.000Z</time>
      </trkpt>
      <trkpt lat="49.41354" lon="5.74883">
        <ele>345</ele>
        <time>2022-09-13T12:44:18.000Z</time>
      </trkpt>
      <trkpt lat="49.41349" lon="5.74887">
        <ele>344.39999389648</ele>
        <time>2022-09-13T12:44:19.000Z</time>
      </trkpt>
      <trkpt lat="49.41345" lon="5.7489">
        <ele>343.39999389648</ele>
        <time>2022-09-13T12:44:20.000Z</time>
      </trkpt>
      <trkpt lat="49.4134" lon="5.74893">
        <ele>343</ele>
        <time>2022-09-13T12:44:21.000Z</time>
      </trkpt>
      <trkpt lat="49.41336" lon="5.74896">
        <ele>341.79998779297</ele>
        <time>2022-09-13T12:44:22.000Z</time>
      </trkpt>
      <trkpt lat="49.41331" lon="5.74899">
        <ele>341.39999389648</ele>
        <time>2022-09-13T12:44:23.000Z</time>
      </trkpt>
      <trkpt lat="49.41327" lon="5.74902">
        <ele>341</ele>
        <time>2022-09-13T12:44:24.000Z</time>
      </trkpt>
      <trkpt lat="49.41323" lon="5.74905">
        <ele>340.60000610352</ele>
        <time>2022-09-13T12:44:25.000Z</time>
      </trkpt>
      <trkpt lat="49.4131" lon="5.74915">
        <ele>339.60000610352</ele>
        <time>2022-09-13T12:44:28.000Z</time>
      </trkpt>
      <trkpt lat="49.41281" lon="5.74935">
        <ele>338.39999389648</ele>
        <time>2022-09-13T12:44:35.000Z</time>
      </trkpt>
      <trkpt lat="49.41273" lon="5.74941">
        <ele>338.20001220703</ele>
        <time>2022-09-13T12:44:37.000Z</time>
      </trkpt>
      <trkpt lat="49.41269" lon="5.74944">
        <ele>338</ele>
        <time>2022-09-13T12:44:38.000Z</time>
      </trkpt>
      <trkpt lat="49.41265" lon="5.74947">
        <ele>338</ele>
        <time>2022-09-13T12:44:39.000Z</time>
      </trkpt>
      <trkpt lat="49.41261" lon="5.7495">
        <ele>338</ele>
        <time>2022-09-13T12:44:40.000Z</time>
      </trkpt>
      <trkpt lat="49.41257" lon="5.74952">
        <ele>337.79998779297</ele>
        <time>2022-09-13T12:44:41.000Z</time>
      </trkpt>
      <trkpt lat="49.41254" lon="5.74955">
        <ele>337.79998779297</ele>
        <time>2022-09-13T12:44:42.000Z</time>
      </trkpt>
      <trkpt lat="49.4125" lon="5.74958">
        <ele>337.60000610352</ele>
        <time>2022-09-13T12:44:43.000Z</time>
      </trkpt>
      <trkpt lat="49.41246" lon="5.74961">
        <ele>337.39999389648</ele>
        <time>2022-09-13T12:44:44.000Z</time>
      </trkpt>
      <trkpt lat="49.41242" lon="5.74964">
        <ele>337</ele>
        <time>2022-09-13T12:44:45.000Z</time>
      </trkpt>
      <trkpt lat="49.41235" lon="5.7497">
        <ele>336.60000610352</ele>
        <time>2022-09-13T12:44:47.000Z</time>
      </trkpt>
      <trkpt lat="49.41231" lon="5.74973">
        <ele>336.39999389648</ele>
        <time>2022-09-13T12:44:48.000Z</time>
      </trkpt>
      <trkpt lat="49.41219" lon="5.74982">
        <ele>336</ele>
        <time>2022-09-13T12:44:51.000Z</time>
      </trkpt>
      <trkpt lat="49.41208" lon="5.74991">
        <ele>335.39999389648</ele>
        <time>2022-09-13T12:44:54.000Z</time>
      </trkpt>
      <trkpt lat="49.41201" lon="5.74996">
        <ele>335.20001220703</ele>
        <time>2022-09-13T12:44:56.000Z</time>
      </trkpt>
      <trkpt lat="49.41193" lon="5.75001">
        <ele>335</ele>
        <time>2022-09-13T12:44:58.000Z</time>
      </trkpt>
      <trkpt lat="49.41191" lon="5.75003">
        <ele>335</ele>
        <time>2022-09-13T12:44:59.000Z</time>
      </trkpt>
      <trkpt lat="49.41188" lon="5.75005">
        <ele>335</ele>
        <time>2022-09-13T12:45:00.000Z</time>
      </trkpt>
      <trkpt lat="49.41185" lon="5.75008">
        <ele>335</ele>
        <time>2022-09-13T12:45:01.000Z</time>
      </trkpt>
      <trkpt lat="49.41181" lon="5.75011">
        <ele>335</ele>
        <time>2022-09-13T12:45:02.000Z</time>
      </trkpt>
      <trkpt lat="49.41178" lon="5.75013">
        <ele>335</ele>
        <time>2022-09-13T12:45:03.000Z</time>
      </trkpt>
      <trkpt lat="49.41174" lon="5.75015">
        <ele>335</ele>
        <time>2022-09-13T12:45:04.000Z</time>
      </trkpt>
      <trkpt lat="49.41171" lon="5.75018">
        <ele>335.20001220703</ele>
        <time>2022-09-13T12:45:05.000Z</time>
      </trkpt>
      <trkpt lat="49.41168" lon="5.7502">
        <ele>335.20001220703</ele>
        <time>2022-09-13T12:45:06.000Z</time>
      </trkpt>
      <trkpt lat="49.41161" lon="5.75025">
        <ele>335.39999389648</ele>
        <time>2022-09-13T12:45:08.000Z</time>
      </trkpt>
      <trkpt lat="49.4114" lon="5.75037">
        <ele>335.79998779297</ele>
        <time>2022-09-13T12:45:15.000Z</time>
      </trkpt>
      <trkpt lat="49.41137" lon="5.7504">
        <ele>336</ele>
        <time>2022-09-13T12:45:16.000Z</time>
      </trkpt>
      <trkpt lat="49.41134" lon="5.75042">
        <ele>336</ele>
        <time>2022-09-13T12:45:17.000Z</time>
      </trkpt>
      <trkpt lat="49.41131" lon="5.75045">
        <ele>336</ele>
        <time>2022-09-13T12:45:18.000Z</time>
      </trkpt>
      <trkpt lat="49.41119" lon="5.75052">
        <ele>336</ele>
        <time>2022-09-13T12:45:21.000Z</time>
      </trkpt>
      <trkpt lat="49.41112" lon="5.75057">
        <ele>336</ele>
        <time>2022-09-13T12:45:23.000Z</time>
      </trkpt>
      <trkpt lat="49.41109" lon="5.75059">
        <ele>336</ele>
        <time>2022-09-13T12:45:24.000Z</time>
      </trkpt>
      <trkpt lat="49.41105" lon="5.75062">
        <ele>335.79998779297</ele>
        <time>2022-09-13T12:45:25.000Z</time>
      </trkpt>
      <trkpt lat="49.41078" lon="5.7508">
        <ele>335.39999389648</ele>
        <time>2022-09-13T12:45:32.000Z</time>
      </trkpt>
      <trkpt lat="49.41055" lon="5.75096">
        <ele>335.79998779297</ele>
        <time>2022-09-13T12:45:38.000Z</time>
      </trkpt>
      <trkpt lat="49.41051" lon="5.75098">
        <ele>335.79998779297</ele>
        <time>2022-09-13T12:45:39.000Z</time>
      </trkpt>
      <trkpt lat="49.41048" lon="5.75101">
        <ele>335.79998779297</ele>
        <time>2022-09-13T12:45:40.000Z</time>
      </trkpt>
      <trkpt lat="49.4104" lon="5.75106">
        <ele>336</ele>
        <time>2022-09-13T12:45:42.000Z</time>
      </trkpt>
      <trkpt lat="49.41037" lon="5.75109">
        <ele>336</ele>
        <time>2022-09-13T12:45:43.000Z</time>
      </trkpt>
      <trkpt lat="49.41033" lon="5.75112">
        <ele>336.20001220703</ele>
        <time>2022-09-13T12:45:44.000Z</time>
      </trkpt>
      <trkpt lat="49.40992" lon="5.75141">
        <ele>336.79998779297</ele>
        <time>2022-09-13T12:45:54.000Z</time>
      </trkpt>
      <trkpt lat="49.40988" lon="5.75144">
        <ele>336.79998779297</ele>
        <time>2022-09-13T12:45:55.000Z</time>
      </trkpt>
      <trkpt lat="49.40961" lon="5.75162">
        <ele>337.60000610352</ele>
        <time>2022-09-13T12:46:02.000Z</time>
      </trkpt>
      <trkpt lat="49.40958" lon="5.75165">
        <ele>337.60000610352</ele>
        <time>2022-09-13T12:46:03.000Z</time>
      </trkpt>
      <trkpt lat="49.40954" lon="5.75167">
        <ele>337.60000610352</ele>
        <time>2022-09-13T12:46:04.000Z</time>
      </trkpt>
      <trkpt lat="49.40951" lon="5.75171">
        <ele>337.60000610352</ele>
        <time>2022-09-13T12:46:05.000Z</time>
      </trkpt>
      <trkpt lat="49.40948" lon="5.75174">
        <ele>337.79998779297</ele>
        <time>2022-09-13T12:46:06.000Z</time>
      </trkpt>
      <trkpt lat="49.40944" lon="5.75177">
        <ele>338</ele>
        <time>2022-09-13T12:46:07.000Z</time>
      </trkpt>
      <trkpt lat="49.40941" lon="5.75179">
        <ele>338</ele>
        <time>2022-09-13T12:46:08.000Z</time>
      </trkpt>
      <trkpt lat="49.40937" lon="5.75181">
        <ele>338</ele>
        <time>2022-09-13T12:46:09.000Z</time>
      </trkpt>
      <trkpt lat="49.40934" lon="5.75184">
        <ele>338</ele>
        <time>2022-09-13T12:46:10.000Z</time>
      </trkpt>
      <trkpt lat="49.40927" lon="5.75188">
        <ele>338</ele>
        <time>2022-09-13T12:46:12.000Z</time>
      </trkpt>
      <trkpt lat="49.40923" lon="5.75191">
        <ele>338</ele>
        <time>2022-09-13T12:46:13.000Z</time>
      </trkpt>
      <trkpt lat="49.4092" lon="5.75194">
        <ele>338</ele>
        <time>2022-09-13T12:46:14.000Z</time>
      </trkpt>
      <trkpt lat="49.40917" lon="5.75197">
        <ele>338</ele>
        <time>2022-09-13T12:46:15.000Z</time>
      </trkpt>
      <trkpt lat="49.40913" lon="5.75199">
        <ele>338</ele>
        <time>2022-09-13T12:46:16.000Z</time>
      </trkpt>
      <trkpt lat="49.40903" lon="5.75207">
        <ele>338.60000610352</ele>
        <time>2022-09-13T12:46:19.000Z</time>
      </trkpt>
      <trkpt lat="49.40871" lon="5.7523">
        <ele>339.20001220703</ele>
        <time>2022-09-13T12:46:28.000Z</time>
      </trkpt>
      <trkpt lat="49.4086" lon="5.75239">
        <ele>339</ele>
        <time>2022-09-13T12:46:31.000Z</time>
      </trkpt>
      <trkpt lat="49.40841" lon="5.75252">
        <ele>338.79998779297</ele>
        <time>2022-09-13T12:46:36.000Z</time>
      </trkpt>
      <trkpt lat="49.40806" lon="5.75276">
        <ele>339</ele>
        <time>2022-09-13T12:46:45.000Z</time>
      </trkpt>
      <trkpt lat="49.40802" lon="5.75279">
        <ele>339</ele>
        <time>2022-09-13T12:46:46.000Z</time>
      </trkpt>
      <trkpt lat="49.40791" lon="5.75288">
        <ele>339</ele>
        <time>2022-09-13T12:46:49.000Z</time>
      </trkpt>
      <trkpt lat="49.40784" lon="5.75293">
        <ele>339</ele>
        <time>2022-09-13T12:46:51.000Z</time>
      </trkpt>
      <trkpt lat="49.40781" lon="5.75296">
        <ele>338.79998779297</ele>
        <time>2022-09-13T12:46:52.000Z</time>
      </trkpt>
      <trkpt lat="49.40777" lon="5.75299">
        <ele>338.79998779297</ele>
        <time>2022-09-13T12:46:53.000Z</time>
      </trkpt>
      <trkpt lat="49.40774" lon="5.75302">
        <ele>338.60000610352</ele>
        <time>2022-09-13T12:46:54.000Z</time>
      </trkpt>
      <trkpt lat="49.40771" lon="5.75304">
        <ele>338.60000610352</ele>
        <time>2022-09-13T12:46:55.000Z</time>
      </trkpt>
      <trkpt lat="49.40767" lon="5.75306">
        <ele>338.39999389648</ele>
        <time>2022-09-13T12:46:56.000Z</time>
      </trkpt>
      <trkpt lat="49.40764" lon="5.75308">
        <ele>338.20001220703</ele>
        <time>2022-09-13T12:46:57.000Z</time>
      </trkpt>
      <trkpt lat="49.40756" lon="5.75309">
        <ele>337.79998779297</ele>
        <time>2022-09-13T12:46:59.000Z</time>
      </trkpt>
      <trkpt lat="49.40753" lon="5.75306">
        <ele>337.79998779297</ele>
        <time>2022-09-13T12:47:00.000Z</time>
      </trkpt>
      <trkpt lat="49.40751" lon="5.75301">
        <ele>337.79998779297</ele>
        <time>2022-09-13T12:47:01.000Z</time>
      </trkpt>
      <trkpt lat="49.4075" lon="5.75295">
        <ele>337.39999389648</ele>
        <time>2022-09-13T12:47:02.000Z</time>
      </trkpt>
      <trkpt lat="49.40751" lon="5.75288">
        <ele>337.39999389648</ele>
        <time>2022-09-13T12:47:03.000Z</time>
      </trkpt>
      <trkpt lat="49.40751" lon="5.75281">
        <ele>337</ele>
        <time>2022-09-13T12:47:04.000Z</time>
      </trkpt>
      <trkpt lat="49.40751" lon="5.75274">
        <ele>336.79998779297</ele>
        <time>2022-09-13T12:47:05.000Z</time>
      </trkpt>
      <trkpt lat="49.40751" lon="5.75266">
        <ele>336.60000610352</ele>
        <time>2022-09-13T12:47:06.000Z</time>
      </trkpt>
      <trkpt lat="49.40752" lon="5.75249">
        <ele>336.20001220703</ele>
        <time>2022-09-13T12:47:08.000Z</time>
      </trkpt>
      <trkpt lat="49.40752" lon="5.7524">
        <ele>336</ele>
        <time>2022-09-13T12:47:09.000Z</time>
      </trkpt>
      <trkpt lat="49.40752" lon="5.75214">
        <ele>335.60000610352</ele>
        <time>2022-09-13T12:47:12.000Z</time>
      </trkpt>
      <trkpt lat="49.40752" lon="5.75168">
        <ele>335.39999389648</ele>
        <time>2022-09-13T12:47:17.000Z</time>
      </trkpt>
      <trkpt lat="49.40752" lon="5.75148">
        <ele>335.20001220703</ele>
        <time>2022-09-13T12:47:19.000Z</time>
      </trkpt>
      <trkpt lat="49.40753" lon="5.75079">
        <ele>334.79998779297</ele>
        <time>2022-09-13T12:47:26.000Z</time>
      </trkpt>
      <trkpt lat="49.40753" lon="5.7504">
        <ele>334.39999389648</ele>
        <time>2022-09-13T12:47:30.000Z</time>
      </trkpt>
      <trkpt lat="49.40753" lon="5.74976">
        <ele>333.79998779297</ele>
        <time>2022-09-13T12:47:36.000Z</time>
      </trkpt>
      <trkpt lat="49.40753" lon="5.74914">
        <ele>333.39999389648</ele>
        <time>2022-09-13T12:47:42.000Z</time>
      </trkpt>
      <trkpt lat="49.40753" lon="5.74904">
        <ele>333.20001220703</ele>
        <time>2022-09-13T12:47:43.000Z</time>
      </trkpt>
      <trkpt lat="49.40753" lon="5.74894">
        <ele>333.20001220703</ele>
        <time>2022-09-13T12:47:44.000Z</time>
      </trkpt>
      <trkpt lat="49.40753" lon="5.74874">
        <ele>333.20001220703</ele>
        <time>2022-09-13T12:47:46.000Z</time>
      </trkpt>
      <trkpt lat="49.40753" lon="5.74864">
        <ele>333</ele>
        <time>2022-09-13T12:47:47.000Z</time>
      </trkpt>
      <trkpt lat="49.40754" lon="5.74854">
        <ele>333</ele>
        <time>2022-09-13T12:47:48.000Z</time>
      </trkpt>
      <trkpt lat="49.40754" lon="5.74844">
        <ele>333</ele>
        <time>2022-09-13T12:47:49.000Z</time>
      </trkpt>
      <trkpt lat="49.40754" lon="5.74834">
        <ele>333</ele>
        <time>2022-09-13T12:47:50.000Z</time>
      </trkpt>
      <trkpt lat="49.40753" lon="5.74775">
        <ele>332.20001220703</ele>
        <time>2022-09-13T12:47:56.000Z</time>
      </trkpt>
      <trkpt lat="49.40751" lon="5.74706">
        <ele>331.60000610352</ele>
        <time>2022-09-13T12:48:03.000Z</time>
      </trkpt>
      <trkpt lat="49.40749" lon="5.74702">
        <ele>331.39999389648</ele>
        <time>2022-09-13T12:48:04.000Z</time>
      </trkpt>
      <trkpt lat="49.40745" lon="5.74701">
        <ele>331.20001220703</ele>
        <time>2022-09-13T12:48:05.000Z</time>
      </trkpt>
      <trkpt lat="49.4074" lon="5.74702">
        <ele>331.20001220703</ele>
        <time>2022-09-13T12:48:06.000Z</time>
      </trkpt>
      <trkpt lat="49.40736" lon="5.74704">
        <ele>331</ele>
        <time>2022-09-13T12:48:07.000Z</time>
      </trkpt>
      <trkpt lat="49.40732" lon="5.74707">
        <ele>331</ele>
        <time>2022-09-13T12:48:08.000Z</time>
      </trkpt>
      <trkpt lat="49.40728" lon="5.74709">
        <ele>330.79998779297</ele>
        <time>2022-09-13T12:48:09.000Z</time>
      </trkpt>
      <trkpt lat="49.40724" lon="5.74711">
        <ele>330.79998779297</ele>
        <time>2022-09-13T12:48:10.000Z</time>
      </trkpt>
      <trkpt lat="49.40695" lon="5.74727">
        <ele>331.20001220703</ele>
        <time>2022-09-13T12:48:16.000Z</time>
      </trkpt>
      <trkpt lat="49.40656" lon="5.74748">
        <ele>331.39999389648</ele>
        <time>2022-09-13T12:48:24.000Z</time>
      </trkpt>
      <trkpt lat="49.40638" lon="5.74757">
        <ele>331.20001220703</ele>
        <time>2022-09-13T12:48:28.000Z</time>
      </trkpt>
      <trkpt lat="49.4063" lon="5.74763">
        <ele>331.20001220703</ele>
        <time>2022-09-13T12:48:30.000Z</time>
      </trkpt>
      <trkpt lat="49.40625" lon="5.74765">
        <ele>331.20001220703</ele>
        <time>2022-09-13T12:48:31.000Z</time>
      </trkpt>
      <trkpt lat="49.4062" lon="5.74768">
        <ele>331.39999389648</ele>
        <time>2022-09-13T12:48:32.000Z</time>
      </trkpt>
      <trkpt lat="49.40616" lon="5.7477">
        <ele>331.20001220703</ele>
        <time>2022-09-13T12:48:33.000Z</time>
      </trkpt>
      <trkpt lat="49.40595" lon="5.74778">
        <ele>331</ele>
        <time>2022-09-13T12:48:37.000Z</time>
      </trkpt>
      <trkpt lat="49.40547" lon="5.74803">
        <ele>331</ele>
        <time>2022-09-13T12:48:47.000Z</time>
      </trkpt>
      <trkpt lat="49.40498" lon="5.74826">
        <ele>331</ele>
        <time>2022-09-13T12:48:56.000Z</time>
      </trkpt>
      <trkpt lat="49.40493" lon="5.74828">
        <ele>330.60000610352</ele>
        <time>2022-09-13T12:48:58.000Z</time>
      </trkpt>
      <trkpt lat="49.40466" lon="5.74841">
        <ele>329.60000610352</ele>
        <time>2022-09-13T12:49:02.000Z</time>
      </trkpt>
      <trkpt lat="49.40461" lon="5.74843">
        <ele>329.20001220703</ele>
        <time>2022-09-13T12:49:03.000Z</time>
      </trkpt>
      <trkpt lat="49.40433" lon="5.74855">
        <ele>328.60000610352</ele>
        <time>2022-09-13T12:49:08.000Z</time>
      </trkpt>
      <trkpt lat="49.40427" lon="5.74857">
        <ele>328.39999389648</ele>
        <time>2022-09-13T12:49:09.000Z</time>
      </trkpt>
      <trkpt lat="49.40407" lon="5.74866">
        <ele>327.20001220703</ele>
        <time>2022-09-13T12:49:13.000Z</time>
      </trkpt>
      <trkpt lat="49.40401" lon="5.74869">
        <ele>326.79998779297</ele>
        <time>2022-09-13T12:49:14.000Z</time>
      </trkpt>
      <trkpt lat="49.40391" lon="5.74873">
        <ele>326.39999389648</ele>
        <time>2022-09-13T12:49:16.000Z</time>
      </trkpt>
      <trkpt lat="49.40385" lon="5.74875">
        <ele>326</ele>
        <time>2022-09-13T12:49:17.000Z</time>
      </trkpt>
      <trkpt lat="49.40355" lon="5.74889">
        <ele>324.79998779297</ele>
        <time>2022-09-13T12:49:23.000Z</time>
      </trkpt>
      <trkpt lat="49.40345" lon="5.74894">
        <ele>324.20001220703</ele>
        <time>2022-09-13T12:49:25.000Z</time>
      </trkpt>
      <trkpt lat="49.40341" lon="5.74896">
        <ele>324</ele>
        <time>2022-09-13T12:49:26.000Z</time>
      </trkpt>
      <trkpt lat="49.40336" lon="5.74898">
        <ele>323.60000610352</ele>
        <time>2022-09-13T12:49:27.000Z</time>
      </trkpt>
      <trkpt lat="49.40331" lon="5.749">
        <ele>323.20001220703</ele>
        <time>2022-09-13T12:49:28.000Z</time>
      </trkpt>
      <trkpt lat="49.40326" lon="5.74902">
        <ele>323</ele>
        <time>2022-09-13T12:49:29.000Z</time>
      </trkpt>
      <trkpt lat="49.40321" lon="5.74905">
        <ele>322.79998779297</ele>
        <time>2022-09-13T12:49:30.000Z</time>
      </trkpt>
      <trkpt lat="49.40302" lon="5.74913">
        <ele>322</ele>
        <time>2022-09-13T12:49:34.000Z</time>
      </trkpt>
      <trkpt lat="49.40297" lon="5.74916">
        <ele>321.39999389648</ele>
        <time>2022-09-13T12:49:35.000Z</time>
      </trkpt>
      <trkpt lat="49.40292" lon="5.74918">
        <ele>321.39999389648</ele>
        <time>2022-09-13T12:49:36.000Z</time>
      </trkpt>
      <trkpt lat="49.40286" lon="5.74913">
        <ele>320.79998779297</ele>
        <time>2022-09-13T12:49:38.000Z</time>
      </trkpt>
      <trkpt lat="49.40283" lon="5.74908">
        <ele>320.39999389648</ele>
        <time>2022-09-13T12:49:39.000Z</time>
      </trkpt>
      <trkpt lat="49.40282" lon="5.74902">
        <ele>320.20001220703</ele>
        <time>2022-09-13T12:49:40.000Z</time>
      </trkpt>
      <trkpt lat="49.40279" lon="5.74889">
        <ele>319.79998779297</ele>
        <time>2022-09-13T12:49:42.000Z</time>
      </trkpt>
      <trkpt lat="49.40278" lon="5.74882">
        <ele>319.60000610352</ele>
        <time>2022-09-13T12:49:43.000Z</time>
      </trkpt>
      <trkpt lat="49.40276" lon="5.74875">
        <ele>319.39999389648</ele>
        <time>2022-09-13T12:49:44.000Z</time>
      </trkpt>
      <trkpt lat="49.40272" lon="5.74856">
        <ele>318.60000610352</ele>
        <time>2022-09-13T12:49:47.000Z</time>
      </trkpt>
      <trkpt lat="49.40271" lon="5.74849">
        <ele>318.60000610352</ele>
        <time>2022-09-13T12:49:48.000Z</time>
      </trkpt>
      <trkpt lat="49.40268" lon="5.74835">
        <ele>318.20001220703</ele>
        <time>2022-09-13T12:49:50.000Z</time>
      </trkpt>
      <trkpt lat="49.4026" lon="5.7479">
        <ele>317.60000610352</ele>
        <time>2022-09-13T12:49:56.000Z</time>
      </trkpt>
      <trkpt lat="49.40257" lon="5.74785">
        <ele>317.39999389648</ele>
        <time>2022-09-13T12:49:57.000Z</time>
      </trkpt>
      <trkpt lat="49.40254" lon="5.74782">
        <ele>317.20001220703</ele>
        <time>2022-09-13T12:49:58.000Z</time>
      </trkpt>
      <trkpt lat="49.4025" lon="5.74782">
        <ele>317.20001220703</ele>
        <time>2022-09-13T12:49:59.000Z</time>
      </trkpt>
      <trkpt lat="49.40245" lon="5.74783">
        <ele>317</ele>
        <time>2022-09-13T12:50:00.000Z</time>
      </trkpt>
      <trkpt lat="49.4024" lon="5.74786">
        <ele>316.39999389648</ele>
        <time>2022-09-13T12:50:01.000Z</time>
      </trkpt>
      <trkpt lat="49.40234" lon="5.7479">
        <ele>316.20001220703</ele>
        <time>2022-09-13T12:50:02.000Z</time>
      </trkpt>
      <trkpt lat="49.40227" lon="5.74793">
        <ele>315.60000610352</ele>
        <time>2022-09-13T12:50:03.000Z</time>
      </trkpt>
      <trkpt lat="49.40221" lon="5.74796">
        <ele>315.39999389648</ele>
        <time>2022-09-13T12:50:04.000Z</time>
      </trkpt>
      <trkpt lat="49.40213" lon="5.74801">
        <ele>315</ele>
        <time>2022-09-13T12:50:05.000Z</time>
      </trkpt>
      <trkpt lat="49.40206" lon="5.74804">
        <ele>314.60000610352</ele>
        <time>2022-09-13T12:50:06.000Z</time>
      </trkpt>
      <trkpt lat="49.40198" lon="5.74807">
        <ele>314</ele>
        <time>2022-09-13T12:50:07.000Z</time>
      </trkpt>
      <trkpt lat="49.40176" lon="5.74815">
        <ele>312.60000610352</ele>
        <time>2022-09-13T12:50:10.000Z</time>
      </trkpt>
      <trkpt lat="49.40171" lon="5.74817">
        <ele>312.39999389648</ele>
        <time>2022-09-13T12:50:11.000Z</time>
      </trkpt>
      <trkpt lat="49.40168" lon="5.7482">
        <ele>311.39999389648</ele>
        <time>2022-09-13T12:50:12.000Z</time>
      </trkpt>
      <trkpt lat="49.40164" lon="5.74822">
        <ele>311</ele>
        <time>2022-09-13T12:50:13.000Z</time>
      </trkpt>
      <trkpt lat="49.40161" lon="5.74823">
        <ele>309.79998779297</ele>
        <time>2022-09-13T12:50:14.000Z</time>
      </trkpt>
      <trkpt lat="49.40156" lon="5.74825">
        <ele>308.39999389648</ele>
        <time>2022-09-13T12:50:15.000Z</time>
      </trkpt>
      <trkpt lat="49.40147" lon="5.74829">
        <ele>307.20001220703</ele>
        <time>2022-09-13T12:50:17.000Z</time>
      </trkpt>
      <trkpt lat="49.40137" lon="5.74833">
        <ele>306.60000610352</ele>
        <time>2022-09-13T12:50:19.000Z</time>
      </trkpt>
      <trkpt lat="49.40125" lon="5.74838">
        <ele>306</ele>
        <time>2022-09-13T12:50:21.000Z</time>
      </trkpt>
      <trkpt lat="49.40113" lon="5.74844">
        <ele>305.39999389648</ele>
        <time>2022-09-13T12:50:23.000Z</time>
      </trkpt>
      <trkpt lat="49.40099" lon="5.74849">
        <ele>304.79998779297</ele>
        <time>2022-09-13T12:50:25.000Z</time>
      </trkpt>
      <trkpt lat="49.40071" lon="5.7486">
        <ele>303.60000610352</ele>
        <time>2022-09-13T12:50:29.000Z</time>
      </trkpt>
      <trkpt lat="49.4004" lon="5.74867">
        <ele>302.39999389648</ele>
        <time>2022-09-13T12:50:33.000Z</time>
      </trkpt>
      <trkpt lat="49.40023" lon="5.74866">
        <ele>302</ele>
        <time>2022-09-13T12:50:35.000Z</time>
      </trkpt>
      <trkpt lat="49.39998" lon="5.74857">
        <ele>301</ele>
        <time>2022-09-13T12:50:38.000Z</time>
      </trkpt>
      <trkpt lat="49.39989" lon="5.74852">
        <ele>300.60000610352</ele>
        <time>2022-09-13T12:50:39.000Z</time>
      </trkpt>
      <trkpt lat="49.39973" lon="5.7484">
        <ele>299.79998779297</ele>
        <time>2022-09-13T12:50:41.000Z</time>
      </trkpt>
      <trkpt lat="49.39945" lon="5.74818">
        <ele>298.20001220703</ele>
        <time>2022-09-13T12:50:44.000Z</time>
      </trkpt>
      <trkpt lat="49.39926" lon="5.74803">
        <ele>297</ele>
        <time>2022-09-13T12:50:46.000Z</time>
      </trkpt>
      <trkpt lat="49.39916" lon="5.74797">
        <ele>296.39999389648</ele>
        <time>2022-09-13T12:50:47.000Z</time>
      </trkpt>
      <trkpt lat="49.39905" lon="5.74794">
        <ele>296.20001220703</ele>
        <time>2022-09-13T12:50:48.000Z</time>
      </trkpt>
      <trkpt lat="49.39894" lon="5.74793">
        <ele>295.20001220703</ele>
        <time>2022-09-13T12:50:49.000Z</time>
      </trkpt>
      <trkpt lat="49.39884" lon="5.74798">
        <ele>294.60000610352</ele>
        <time>2022-09-13T12:50:50.000Z</time>
      </trkpt>
      <trkpt lat="49.39874" lon="5.74806">
        <ele>293.79998779297</ele>
        <time>2022-09-13T12:50:51.000Z</time>
      </trkpt>
      <trkpt lat="49.39866" lon="5.74817">
        <ele>292.79998779297</ele>
        <time>2022-09-13T12:50:52.000Z</time>
      </trkpt>
      <trkpt lat="49.39857" lon="5.74829">
        <ele>292.20001220703</ele>
        <time>2022-09-13T12:50:53.000Z</time>
      </trkpt>
      <trkpt lat="49.3985" lon="5.74842">
        <ele>291.20001220703</ele>
        <time>2022-09-13T12:50:54.000Z</time>
      </trkpt>
      <trkpt lat="49.39844" lon="5.74853">
        <ele>290.79998779297</ele>
        <time>2022-09-13T12:50:55.000Z</time>
      </trkpt>
      <trkpt lat="49.39839" lon="5.74865">
        <ele>289.60000610352</ele>
        <time>2022-09-13T12:50:56.000Z</time>
      </trkpt>
      <trkpt lat="49.39835" lon="5.74877">
        <ele>289</ele>
        <time>2022-09-13T12:50:57.000Z</time>
      </trkpt>
      <trkpt lat="49.39832" lon="5.74888">
        <ele>287.79998779297</ele>
        <time>2022-09-13T12:50:58.000Z</time>
      </trkpt>
      <trkpt lat="49.39828" lon="5.74896">
        <ele>286.79998779297</ele>
        <time>2022-09-13T12:50:59.000Z</time>
      </trkpt>
      <trkpt lat="49.39824" lon="5.749">
        <ele>286</ele>
        <time>2022-09-13T12:51:00.000Z</time>
      </trkpt>
      <trkpt lat="49.39822" lon="5.74904">
        <ele>285.20001220703</ele>
        <time>2022-09-13T12:51:01.000Z</time>
      </trkpt>
      <trkpt lat="49.39821" lon="5.74908">
        <ele>284.79998779297</ele>
        <time>2022-09-13T12:51:02.000Z</time>
      </trkpt>
      <trkpt lat="49.39819" lon="5.74911">
        <ele>283.79998779297</ele>
        <time>2022-09-13T12:51:03.000Z</time>
      </trkpt>
      <trkpt lat="49.39818" lon="5.74916">
        <ele>283.39999389648</ele>
        <time>2022-09-13T12:51:04.000Z</time>
      </trkpt>
      <trkpt lat="49.39817" lon="5.7492">
        <ele>282.60000610352</ele>
        <time>2022-09-13T12:51:05.000Z</time>
      </trkpt>
      <trkpt lat="49.39816" lon="5.74925">
        <ele>282.20001220703</ele>
        <time>2022-09-13T12:51:06.000Z</time>
      </trkpt>
      <trkpt lat="49.39813" lon="5.74936">
        <ele>281.79998779297</ele>
        <time>2022-09-13T12:51:08.000Z</time>
      </trkpt>
      <trkpt lat="49.39811" lon="5.74946">
        <ele>281.60000610352</ele>
        <time>2022-09-13T12:51:10.000Z</time>
      </trkpt>
      <trkpt lat="49.3981" lon="5.74951">
        <ele>281.60000610352</ele>
        <time>2022-09-13T12:51:11.000Z</time>
      </trkpt>
      <trkpt lat="49.39807" lon="5.74972">
        <ele>281.39999389648</ele>
        <time>2022-09-13T12:51:15.000Z</time>
      </trkpt>
      <trkpt lat="49.39802" lon="5.75004">
        <ele>282</ele>
        <time>2022-09-13T12:51:21.000Z</time>
      </trkpt>
      <trkpt lat="49.39797" lon="5.75038">
        <ele>282.60000610352</ele>
        <time>2022-09-13T12:51:27.000Z</time>
      </trkpt>
      <trkpt lat="49.39796" lon="5.75049">
        <ele>282.60000610352</ele>
        <time>2022-09-13T12:51:29.000Z</time>
      </trkpt>
      <trkpt lat="49.39791" lon="5.75077">
        <ele>283.79998779297</ele>
        <time>2022-09-13T12:51:35.000Z</time>
      </trkpt>
      <trkpt lat="49.39789" lon="5.75088">
        <ele>283.79998779297</ele>
        <time>2022-09-13T12:51:36.000Z</time>
      </trkpt>
      <trkpt lat="49.39789" lon="5.75094">
        <ele>284</ele>
        <time>2022-09-13T12:51:37.000Z</time>
      </trkpt>
      <trkpt lat="49.39788" lon="5.75099">
        <ele>284</ele>
        <time>2022-09-13T12:51:38.000Z</time>
      </trkpt>
      <trkpt lat="49.39781" lon="5.75126">
        <ele>284.79998779297</ele>
        <time>2022-09-13T12:51:43.000Z</time>
      </trkpt>
      <trkpt lat="49.39779" lon="5.75131">
        <ele>285</ele>
        <time>2022-09-13T12:51:44.000Z</time>
      </trkpt>
      <trkpt lat="49.39767" lon="5.75168">
        <ele>285.79998779297</ele>
        <time>2022-09-13T12:51:51.000Z</time>
      </trkpt>
      <trkpt lat="49.39765" lon="5.75173">
        <ele>286</ele>
        <time>2022-09-13T12:51:52.000Z</time>
      </trkpt>
      <trkpt lat="49.39763" lon="5.75178">
        <ele>286.20001220703</ele>
        <time>2022-09-13T12:51:53.000Z</time>
      </trkpt>
      <trkpt lat="49.39761" lon="5.75184">
        <ele>286.20001220703</ele>
        <time>2022-09-13T12:51:54.000Z</time>
      </trkpt>
      <trkpt lat="49.39759" lon="5.75191">
        <ele>286.39999389648</ele>
        <time>2022-09-13T12:51:55.000Z</time>
      </trkpt>
      <trkpt lat="49.39757" lon="5.75195">
        <ele>286.39999389648</ele>
        <time>2022-09-13T12:51:56.000Z</time>
      </trkpt>
      <trkpt lat="49.39754" lon="5.75201">
        <ele>286.39999389648</ele>
        <time>2022-09-13T12:51:57.000Z</time>
      </trkpt>
      <trkpt lat="49.39752" lon="5.75205">
        <ele>286.60000610352</ele>
        <time>2022-09-13T12:51:58.000Z</time>
      </trkpt>
      <trkpt lat="49.3975" lon="5.7521">
        <ele>286.60000610352</ele>
        <time>2022-09-13T12:51:59.000Z</time>
      </trkpt>
      <trkpt lat="49.39748" lon="5.75215">
        <ele>287</ele>
        <time>2022-09-13T12:52:00.000Z</time>
      </trkpt>
      <trkpt lat="49.39746" lon="5.7522">
        <ele>287.20001220703</ele>
        <time>2022-09-13T12:52:01.000Z</time>
      </trkpt>
      <trkpt lat="49.39744" lon="5.75225">
        <ele>287.39999389648</ele>
        <time>2022-09-13T12:52:02.000Z</time>
      </trkpt>
      <trkpt lat="49.39743" lon="5.7523">
        <ele>287.60000610352</ele>
        <time>2022-09-13T12:52:03.000Z</time>
      </trkpt>
      <trkpt lat="49.39741" lon="5.75234">
        <ele>287.60000610352</ele>
        <time>2022-09-13T12:52:04.000Z</time>
      </trkpt>
      <trkpt lat="49.39739" lon="5.75239">
        <ele>287.79998779297</ele>
        <time>2022-09-13T12:52:05.000Z</time>
      </trkpt>
      <trkpt lat="49.39737" lon="5.75244">
        <ele>288</ele>
        <time>2022-09-13T12:52:06.000Z</time>
      </trkpt>
      <trkpt lat="49.39734" lon="5.75249">
        <ele>288</ele>
        <time>2022-09-13T12:52:07.000Z</time>
      </trkpt>
      <trkpt lat="49.39732" lon="5.75254">
        <ele>288.20001220703</ele>
        <time>2022-09-13T12:52:08.000Z</time>
      </trkpt>
      <trkpt lat="49.3973" lon="5.75259">
        <ele>288.39999389648</ele>
        <time>2022-09-13T12:52:09.000Z</time>
      </trkpt>
      <trkpt lat="49.39728" lon="5.75264">
        <ele>288.39999389648</ele>
        <time>2022-09-13T12:52:10.000Z</time>
      </trkpt>
      <trkpt lat="49.39726" lon="5.75269">
        <ele>288.60000610352</ele>
        <time>2022-09-13T12:52:11.000Z</time>
      </trkpt>
      <trkpt lat="49.39724" lon="5.75274">
        <ele>288.60000610352</ele>
        <time>2022-09-13T12:52:12.000Z</time>
      </trkpt>
      <trkpt lat="49.39722" lon="5.75279">
        <ele>288.79998779297</ele>
        <time>2022-09-13T12:52:13.000Z</time>
      </trkpt>
      <trkpt lat="49.39721" lon="5.75284">
        <ele>288.79998779297</ele>
        <time>2022-09-13T12:52:14.000Z</time>
      </trkpt>
      <trkpt lat="49.39718" lon="5.75289">
        <ele>289.20001220703</ele>
        <time>2022-09-13T12:52:15.000Z</time>
      </trkpt>
      <trkpt lat="49.39716" lon="5.75294">
        <ele>289.39999389648</ele>
        <time>2022-09-13T12:52:16.000Z</time>
      </trkpt>
      <trkpt lat="49.39714" lon="5.75299">
        <ele>289.60000610352</ele>
        <time>2022-09-13T12:52:17.000Z</time>
      </trkpt>
      <trkpt lat="49.39712" lon="5.75303">
        <ele>289.79998779297</ele>
        <time>2022-09-13T12:52:18.000Z</time>
      </trkpt>
      <trkpt lat="49.39709" lon="5.75308">
        <ele>290.20001220703</ele>
        <time>2022-09-13T12:52:19.000Z</time>
      </trkpt>
      <trkpt lat="49.39706" lon="5.75313">
        <ele>290.60000610352</ele>
        <time>2022-09-13T12:52:20.000Z</time>
      </trkpt>
      <trkpt lat="49.39704" lon="5.75318">
        <ele>290.79998779297</ele>
        <time>2022-09-13T12:52:21.000Z</time>
      </trkpt>
      <trkpt lat="49.39702" lon="5.75323">
        <ele>291</ele>
        <time>2022-09-13T12:52:22.000Z</time>
      </trkpt>
      <trkpt lat="49.39699" lon="5.75328">
        <ele>291</ele>
        <time>2022-09-13T12:52:23.000Z</time>
      </trkpt>
      <trkpt lat="49.39697" lon="5.75333">
        <ele>291</ele>
        <time>2022-09-13T12:52:24.000Z</time>
      </trkpt>
      <trkpt lat="49.39694" lon="5.75338">
        <ele>291.39999389648</ele>
        <time>2022-09-13T12:52:25.000Z</time>
      </trkpt>
      <trkpt lat="49.39692" lon="5.75343">
        <ele>291.60000610352</ele>
        <time>2022-09-13T12:52:26.000Z</time>
      </trkpt>
      <trkpt lat="49.39689" lon="5.75348">
        <ele>291.79998779297</ele>
        <time>2022-09-13T12:52:27.000Z</time>
      </trkpt>
      <trkpt lat="49.39687" lon="5.75354">
        <ele>291.79998779297</ele>
        <time>2022-09-13T12:52:28.000Z</time>
      </trkpt>
      <trkpt lat="49.39685" lon="5.75359">
        <ele>292</ele>
        <time>2022-09-13T12:52:29.000Z</time>
      </trkpt>
      <trkpt lat="49.39682" lon="5.75365">
        <ele>292</ele>
        <time>2022-09-13T12:52:30.000Z</time>
      </trkpt>
      <trkpt lat="49.39679" lon="5.7537">
        <ele>292.20001220703</ele>
        <time>2022-09-13T12:52:31.000Z</time>
      </trkpt>
      <trkpt lat="49.39677" lon="5.75375">
        <ele>292.20001220703</ele>
        <time>2022-09-13T12:52:32.000Z</time>
      </trkpt>
      <trkpt lat="49.39674" lon="5.7538">
        <ele>292.39999389648</ele>
        <time>2022-09-13T12:52:33.000Z</time>
      </trkpt>
      <trkpt lat="49.39671" lon="5.75385">
        <ele>292.39999389648</ele>
        <time>2022-09-13T12:52:34.000Z</time>
      </trkpt>
      <trkpt lat="49.39667" lon="5.7539">
        <ele>292.60000610352</ele>
        <time>2022-09-13T12:52:35.000Z</time>
      </trkpt>
      <trkpt lat="49.39664" lon="5.75395">
        <ele>293</ele>
        <time>2022-09-13T12:52:36.000Z</time>
      </trkpt>
      <trkpt lat="49.39661" lon="5.75399">
        <ele>293</ele>
        <time>2022-09-13T12:52:37.000Z</time>
      </trkpt>
      <trkpt lat="49.39658" lon="5.75404">
        <ele>293.60000610352</ele>
        <time>2022-09-13T12:52:38.000Z</time>
      </trkpt>
      <trkpt lat="49.39654" lon="5.75409">
        <ele>293.79998779297</ele>
        <time>2022-09-13T12:52:39.000Z</time>
      </trkpt>
      <trkpt lat="49.39651" lon="5.75413">
        <ele>294</ele>
        <time>2022-09-13T12:52:40.000Z</time>
      </trkpt>
      <trkpt lat="49.39648" lon="5.75418">
        <ele>294.20001220703</ele>
        <time>2022-09-13T12:52:41.000Z</time>
      </trkpt>
      <trkpt lat="49.39641" lon="5.75427">
        <ele>294.60000610352</ele>
        <time>2022-09-13T12:52:43.000Z</time>
      </trkpt>
      <trkpt lat="49.39637" lon="5.75431">
        <ele>294.60000610352</ele>
        <time>2022-09-13T12:52:44.000Z</time>
      </trkpt>
      <trkpt lat="49.39633" lon="5.75435">
        <ele>294.79998779297</ele>
        <time>2022-09-13T12:52:45.000Z</time>
      </trkpt>
      <trkpt lat="49.39629" lon="5.75439">
        <ele>295</ele>
        <time>2022-09-13T12:52:46.000Z</time>
      </trkpt>
      <trkpt lat="49.39626" lon="5.75444">
        <ele>295.20001220703</ele>
        <time>2022-09-13T12:52:47.000Z</time>
      </trkpt>
      <trkpt lat="49.39622" lon="5.75448">
        <ele>295.39999389648</ele>
        <time>2022-09-13T12:52:48.000Z</time>
      </trkpt>
      <trkpt lat="49.39619" lon="5.75452">
        <ele>295.60000610352</ele>
        <time>2022-09-13T12:52:49.000Z</time>
      </trkpt>
      <trkpt lat="49.39615" lon="5.75456">
        <ele>295.60000610352</ele>
        <time>2022-09-13T12:52:50.000Z</time>
      </trkpt>
      <trkpt lat="49.39612" lon="5.75459">
        <ele>295.79998779297</ele>
        <time>2022-09-13T12:52:51.000Z</time>
      </trkpt>
      <trkpt lat="49.39608" lon="5.75463">
        <ele>296.20001220703</ele>
        <time>2022-09-13T12:52:52.000Z</time>
      </trkpt>
      <trkpt lat="49.39604" lon="5.75467">
        <ele>296.39999389648</ele>
        <time>2022-09-13T12:52:53.000Z</time>
      </trkpt>
      <trkpt lat="49.396" lon="5.75472">
        <ele>296.39999389648</ele>
        <time>2022-09-13T12:52:54.000Z</time>
      </trkpt>
      <trkpt lat="49.39596" lon="5.75477">
        <ele>296.60000610352</ele>
        <time>2022-09-13T12:52:55.000Z</time>
      </trkpt>
      <trkpt lat="49.39591" lon="5.75481">
        <ele>296.60000610352</ele>
        <time>2022-09-13T12:52:56.000Z</time>
      </trkpt>
      <trkpt lat="49.39588" lon="5.75485">
        <ele>297</ele>
        <time>2022-09-13T12:52:57.000Z</time>
      </trkpt>
      <trkpt lat="49.39584" lon="5.75488">
        <ele>297.20001220703</ele>
        <time>2022-09-13T12:52:58.000Z</time>
      </trkpt>
      <trkpt lat="49.39581" lon="5.75493">
        <ele>297.39999389648</ele>
        <time>2022-09-13T12:52:59.000Z</time>
      </trkpt>
      <trkpt lat="49.39577" lon="5.75496">
        <ele>297.79998779297</ele>
        <time>2022-09-13T12:53:00.000Z</time>
      </trkpt>
      <trkpt lat="49.39573" lon="5.755">
        <ele>297.79998779297</ele>
        <time>2022-09-13T12:53:01.000Z</time>
      </trkpt>
      <trkpt lat="49.39569" lon="5.75503">
        <ele>298.20001220703</ele>
        <time>2022-09-13T12:53:02.000Z</time>
      </trkpt>
      <trkpt lat="49.39566" lon="5.75507">
        <ele>298.20001220703</ele>
        <time>2022-09-13T12:53:03.000Z</time>
      </trkpt>
      <trkpt lat="49.39562" lon="5.75511">
        <ele>298.20001220703</ele>
        <time>2022-09-13T12:53:04.000Z</time>
      </trkpt>
      <trkpt lat="49.39559" lon="5.75514">
        <ele>298.39999389648</ele>
        <time>2022-09-13T12:53:05.000Z</time>
      </trkpt>
      <trkpt lat="49.39555" lon="5.75517">
        <ele>298.60000610352</ele>
        <time>2022-09-13T12:53:06.000Z</time>
      </trkpt>
      <trkpt lat="49.39551" lon="5.7552">
        <ele>299</ele>
        <time>2022-09-13T12:53:07.000Z</time>
      </trkpt>
      <trkpt lat="49.39548" lon="5.75524">
        <ele>299</ele>
        <time>2022-09-13T12:53:08.000Z</time>
      </trkpt>
      <trkpt lat="49.39544" lon="5.75528">
        <ele>299.60000610352</ele>
        <time>2022-09-13T12:53:09.000Z</time>
      </trkpt>
      <trkpt lat="49.39541" lon="5.75533">
        <ele>299.79998779297</ele>
        <time>2022-09-13T12:53:10.000Z</time>
      </trkpt>
      <trkpt lat="49.39538" lon="5.75536">
        <ele>300.20001220703</ele>
        <time>2022-09-13T12:53:11.000Z</time>
      </trkpt>
      <trkpt lat="49.39535" lon="5.7554">
        <ele>300.39999389648</ele>
        <time>2022-09-13T12:53:12.000Z</time>
      </trkpt>
      <trkpt lat="49.39531" lon="5.75543">
        <ele>300.60000610352</ele>
        <time>2022-09-13T12:53:13.000Z</time>
      </trkpt>
      <trkpt lat="49.39528" lon="5.75546">
        <ele>301</ele>
        <time>2022-09-13T12:53:14.000Z</time>
      </trkpt>
      <trkpt lat="49.39525" lon="5.7555">
        <ele>301</ele>
        <time>2022-09-13T12:53:15.000Z</time>
      </trkpt>
      <trkpt lat="49.39521" lon="5.75553">
        <ele>301.20001220703</ele>
        <time>2022-09-13T12:53:16.000Z</time>
      </trkpt>
      <trkpt lat="49.39518" lon="5.75557">
        <ele>301.20001220703</ele>
        <time>2022-09-13T12:53:17.000Z</time>
      </trkpt>
      <trkpt lat="49.39514" lon="5.7556">
        <ele>301.39999389648</ele>
        <time>2022-09-13T12:53:18.000Z</time>
      </trkpt>
      <trkpt lat="49.39512" lon="5.75564">
        <ele>301.60000610352</ele>
        <time>2022-09-13T12:53:19.000Z</time>
      </trkpt>
      <trkpt lat="49.39509" lon="5.75568">
        <ele>301.79998779297</ele>
        <time>2022-09-13T12:53:20.000Z</time>
      </trkpt>
      <trkpt lat="49.39506" lon="5.75572">
        <ele>302.20001220703</ele>
        <time>2022-09-13T12:53:21.000Z</time>
      </trkpt>
      <trkpt lat="49.39503" lon="5.75578">
        <ele>302.20001220703</ele>
        <time>2022-09-13T12:53:22.000Z</time>
      </trkpt>
      <trkpt lat="49.395" lon="5.75583">
        <ele>302.39999389648</ele>
        <time>2022-09-13T12:53:23.000Z</time>
      </trkpt>
      <trkpt lat="49.39497" lon="5.75587">
        <ele>302.60000610352</ele>
        <time>2022-09-13T12:53:24.000Z</time>
      </trkpt>
      <trkpt lat="49.39495" lon="5.75592">
        <ele>302.79998779297</ele>
        <time>2022-09-13T12:53:25.000Z</time>
      </trkpt>
      <trkpt lat="49.39492" lon="5.75596">
        <ele>303</ele>
        <time>2022-09-13T12:53:26.000Z</time>
      </trkpt>
      <trkpt lat="49.3949" lon="5.75601">
        <ele>303.20001220703</ele>
        <time>2022-09-13T12:53:27.000Z</time>
      </trkpt>
      <trkpt lat="49.39487" lon="5.75605">
        <ele>303.39999389648</ele>
        <time>2022-09-13T12:53:28.000Z</time>
      </trkpt>
      <trkpt lat="49.39485" lon="5.75609">
        <ele>303.60000610352</ele>
        <time>2022-09-13T12:53:29.000Z</time>
      </trkpt>
      <trkpt lat="49.39483" lon="5.75613">
        <ele>304.20001220703</ele>
        <time>2022-09-13T12:53:30.000Z</time>
      </trkpt>
      <trkpt lat="49.3948" lon="5.75617">
        <ele>304.39999389648</ele>
        <time>2022-09-13T12:53:31.000Z</time>
      </trkpt>
      <trkpt lat="49.39479" lon="5.75621">
        <ele>305</ele>
        <time>2022-09-13T12:53:32.000Z</time>
      </trkpt>
      <trkpt lat="49.39477" lon="5.75625">
        <ele>305.20001220703</ele>
        <time>2022-09-13T12:53:33.000Z</time>
      </trkpt>
      <trkpt lat="49.39473" lon="5.75632">
        <ele>305.79998779297</ele>
        <time>2022-09-13T12:53:35.000Z</time>
      </trkpt>
      <trkpt lat="49.39472" lon="5.75636">
        <ele>306</ele>
        <time>2022-09-13T12:53:36.000Z</time>
      </trkpt>
      <trkpt lat="49.3947" lon="5.7564">
        <ele>306.39999389648</ele>
        <time>2022-09-13T12:53:37.000Z</time>
      </trkpt>
      <trkpt lat="49.39468" lon="5.75644">
        <ele>306.60000610352</ele>
        <time>2022-09-13T12:53:38.000Z</time>
      </trkpt>
      <trkpt lat="49.39466" lon="5.75647">
        <ele>306.79998779297</ele>
        <time>2022-09-13T12:53:39.000Z</time>
      </trkpt>
      <trkpt lat="49.39464" lon="5.75651">
        <ele>307</ele>
        <time>2022-09-13T12:53:40.000Z</time>
      </trkpt>
      <trkpt lat="49.39463" lon="5.75655">
        <ele>307.20001220703</ele>
        <time>2022-09-13T12:53:41.000Z</time>
      </trkpt>
      <trkpt lat="49.39461" lon="5.75658">
        <ele>307.39999389648</ele>
        <time>2022-09-13T12:53:42.000Z</time>
      </trkpt>
      <trkpt lat="49.39459" lon="5.75662">
        <ele>307.60000610352</ele>
        <time>2022-09-13T12:53:43.000Z</time>
      </trkpt>
      <trkpt lat="49.39457" lon="5.75667">
        <ele>308</ele>
        <time>2022-09-13T12:53:44.000Z</time>
      </trkpt>
      <trkpt lat="49.39455" lon="5.75671">
        <ele>308.39999389648</ele>
        <time>2022-09-13T12:53:45.000Z</time>
      </trkpt>
      <trkpt lat="49.39453" lon="5.75675">
        <ele>309</ele>
        <time>2022-09-13T12:53:46.000Z</time>
      </trkpt>
      <trkpt lat="49.39451" lon="5.75679">
        <ele>309.39999389648</ele>
        <time>2022-09-13T12:53:47.000Z</time>
      </trkpt>
      <trkpt lat="49.39449" lon="5.75683">
        <ele>309.79998779297</ele>
        <time>2022-09-13T12:53:48.000Z</time>
      </trkpt>
      <trkpt lat="49.39447" lon="5.75688">
        <ele>310.20001220703</ele>
        <time>2022-09-13T12:53:49.000Z</time>
      </trkpt>
      <trkpt lat="49.39445" lon="5.75693">
        <ele>310.20001220703</ele>
        <time>2022-09-13T12:53:50.000Z</time>
      </trkpt>
      <trkpt lat="49.39444" lon="5.75697">
        <ele>310.39999389648</ele>
        <time>2022-09-13T12:53:51.000Z</time>
      </trkpt>
      <trkpt lat="49.39441" lon="5.75701">
        <ele>310.60000610352</ele>
        <time>2022-09-13T12:53:52.000Z</time>
      </trkpt>
      <trkpt lat="49.39439" lon="5.75706">
        <ele>310.79998779297</ele>
        <time>2022-09-13T12:53:53.000Z</time>
      </trkpt>
      <trkpt lat="49.39437" lon="5.7571">
        <ele>311</ele>
        <time>2022-09-13T12:53:54.000Z</time>
      </trkpt>
      <trkpt lat="49.39435" lon="5.75715">
        <ele>311</ele>
        <time>2022-09-13T12:53:55.000Z</time>
      </trkpt>
      <trkpt lat="49.39432" lon="5.75719">
        <ele>311.20001220703</ele>
        <time>2022-09-13T12:53:56.000Z</time>
      </trkpt>
      <trkpt lat="49.3943" lon="5.75723">
        <ele>311.20001220703</ele>
        <time>2022-09-13T12:53:57.000Z</time>
      </trkpt>
      <trkpt lat="49.39428" lon="5.75728">
        <ele>311.39999389648</ele>
        <time>2022-09-13T12:53:58.000Z</time>
      </trkpt>
      <trkpt lat="49.39425" lon="5.75733">
        <ele>311.39999389648</ele>
        <time>2022-09-13T12:53:59.000Z</time>
      </trkpt>
      <trkpt lat="49.39424" lon="5.75737">
        <ele>311.39999389648</ele>
        <time>2022-09-13T12:54:00.000Z</time>
      </trkpt>
      <trkpt lat="49.39422" lon="5.75742">
        <ele>311.39999389648</ele>
        <time>2022-09-13T12:54:01.000Z</time>
      </trkpt>
      <trkpt lat="49.39419" lon="5.75747">
        <ele>311.60000610352</ele>
        <time>2022-09-13T12:54:02.000Z</time>
      </trkpt>
      <trkpt lat="49.39418" lon="5.75751">
        <ele>311.60000610352</ele>
        <time>2022-09-13T12:54:03.000Z</time>
      </trkpt>
      <trkpt lat="49.39416" lon="5.75755">
        <ele>311.60000610352</ele>
        <time>2022-09-13T12:54:04.000Z</time>
      </trkpt>
      <trkpt lat="49.39414" lon="5.75759">
        <ele>311.79998779297</ele>
        <time>2022-09-13T12:54:05.000Z</time>
      </trkpt>
      <trkpt lat="49.39412" lon="5.75764">
        <ele>311.79998779297</ele>
        <time>2022-09-13T12:54:06.000Z</time>
      </trkpt>
      <trkpt lat="49.3941" lon="5.75768">
        <ele>311.79998779297</ele>
        <time>2022-09-13T12:54:07.000Z</time>
      </trkpt>
      <trkpt lat="49.39408" lon="5.75773">
        <ele>312</ele>
        <time>2022-09-13T12:54:08.000Z</time>
      </trkpt>
      <trkpt lat="49.39406" lon="5.75777">
        <ele>312</ele>
        <time>2022-09-13T12:54:09.000Z</time>
      </trkpt>
      <trkpt lat="49.39404" lon="5.75782">
        <ele>312.20001220703</ele>
        <time>2022-09-13T12:54:10.000Z</time>
      </trkpt>
      <trkpt lat="49.39402" lon="5.75786">
        <ele>312.20001220703</ele>
        <time>2022-09-13T12:54:11.000Z</time>
      </trkpt>
      <trkpt lat="49.394" lon="5.7579">
        <ele>312.20001220703</ele>
        <time>2022-09-13T12:54:12.000Z</time>
      </trkpt>
      <trkpt lat="49.39397" lon="5.75794">
        <ele>312.20001220703</ele>
        <time>2022-09-13T12:54:13.000Z</time>
      </trkpt>
      <trkpt lat="49.39395" lon="5.75798">
        <ele>312.39999389648</ele>
        <time>2022-09-13T12:54:14.000Z</time>
      </trkpt>
      <trkpt lat="49.39393" lon="5.75803">
        <ele>312.39999389648</ele>
        <time>2022-09-13T12:54:15.000Z</time>
      </trkpt>
      <trkpt lat="49.39388" lon="5.75812">
        <ele>312.60000610352</ele>
        <time>2022-09-13T12:54:17.000Z</time>
      </trkpt>
      <trkpt lat="49.39386" lon="5.75816">
        <ele>312.60000610352</ele>
        <time>2022-09-13T12:54:18.000Z</time>
      </trkpt>
      <trkpt lat="49.39384" lon="5.75821">
        <ele>312.60000610352</ele>
        <time>2022-09-13T12:54:19.000Z</time>
      </trkpt>
      <trkpt lat="49.39382" lon="5.75825">
        <ele>312.79998779297</ele>
        <time>2022-09-13T12:54:20.000Z</time>
      </trkpt>
      <trkpt lat="49.39367" lon="5.75862">
        <ele>313</ele>
        <time>2022-09-13T12:54:28.000Z</time>
      </trkpt>
      <trkpt lat="49.39366" lon="5.75867">
        <ele>313.20001220703</ele>
        <time>2022-09-13T12:54:29.000Z</time>
      </trkpt>
      <trkpt lat="49.39366" lon="5.75872">
        <ele>313.20001220703</ele>
        <time>2022-09-13T12:54:30.000Z</time>
      </trkpt>
      <trkpt lat="49.39366" lon="5.75876">
        <ele>313.20001220703</ele>
        <time>2022-09-13T12:54:31.000Z</time>
      </trkpt>
      <trkpt lat="49.39367" lon="5.75881">
        <ele>313.39999389648</ele>
        <time>2022-09-13T12:54:32.000Z</time>
      </trkpt>
      <trkpt lat="49.3937" lon="5.75887">
        <ele>313.39999389648</ele>
        <time>2022-09-13T12:54:33.000Z</time>
      </trkpt>
      <trkpt lat="49.39372" lon="5.75892">
        <ele>313.39999389648</ele>
        <time>2022-09-13T12:54:34.000Z</time>
      </trkpt>
      <trkpt lat="49.39373" lon="5.75897">
        <ele>313.39999389648</ele>
        <time>2022-09-13T12:54:35.000Z</time>
      </trkpt>
      <trkpt lat="49.39384" lon="5.75933">
        <ele>314.20001220703</ele>
        <time>2022-09-13T12:54:42.000Z</time>
      </trkpt>
      <trkpt lat="49.39399" lon="5.75985">
        <ele>314.60000610352</ele>
        <time>2022-09-13T12:54:51.000Z</time>
      </trkpt>
      <trkpt lat="49.39402" lon="5.75997">
        <ele>314.79998779297</ele>
        <time>2022-09-13T12:54:53.000Z</time>
      </trkpt>
      <trkpt lat="49.39415" lon="5.7605">
        <ele>315</ele>
        <time>2022-09-13T12:55:02.000Z</time>
      </trkpt>
      <trkpt lat="49.39432" lon="5.76101">
        <ele>314.79998779297</ele>
        <time>2022-09-13T12:55:10.000Z</time>
      </trkpt>
      <trkpt lat="49.39436" lon="5.76118">
        <ele>314.79998779297</ele>
        <time>2022-09-13T12:55:13.000Z</time>
      </trkpt>
      <trkpt lat="49.39441" lon="5.7613">
        <ele>314.79998779297</ele>
        <time>2022-09-13T12:55:15.000Z</time>
      </trkpt>
      <trkpt lat="49.39443" lon="5.76136">
        <ele>314.79998779297</ele>
        <time>2022-09-13T12:55:16.000Z</time>
      </trkpt>
      <trkpt lat="49.39461" lon="5.76195">
        <ele>314.60000610352</ele>
        <time>2022-09-13T12:55:25.000Z</time>
      </trkpt>
      <trkpt lat="49.3947" lon="5.76226">
        <ele>314.39999389648</ele>
        <time>2022-09-13T12:55:30.000Z</time>
      </trkpt>
      <trkpt lat="49.39472" lon="5.76232">
        <ele>314.39999389648</ele>
        <time>2022-09-13T12:55:31.000Z</time>
      </trkpt>
      <trkpt lat="49.39474" lon="5.76238">
        <ele>314.39999389648</ele>
        <time>2022-09-13T12:55:32.000Z</time>
      </trkpt>
      <trkpt lat="49.39475" lon="5.76244">
        <ele>314.39999389648</ele>
        <time>2022-09-13T12:55:33.000Z</time>
      </trkpt>
      <trkpt lat="49.39477" lon="5.76249">
        <ele>314.39999389648</ele>
        <time>2022-09-13T12:55:34.000Z</time>
      </trkpt>
      <trkpt lat="49.39479" lon="5.76255">
        <ele>314.39999389648</ele>
        <time>2022-09-13T12:55:35.000Z</time>
      </trkpt>
      <trkpt lat="49.3948" lon="5.76261">
        <ele>314.60000610352</ele>
        <time>2022-09-13T12:55:36.000Z</time>
      </trkpt>
      <trkpt lat="49.39482" lon="5.76266">
        <ele>314.60000610352</ele>
        <time>2022-09-13T12:55:37.000Z</time>
      </trkpt>
      <trkpt lat="49.39483" lon="5.76272">
        <ele>314.60000610352</ele>
        <time>2022-09-13T12:55:38.000Z</time>
      </trkpt>
      <trkpt lat="49.39485" lon="5.76277">
        <ele>314.60000610352</ele>
        <time>2022-09-13T12:55:39.000Z</time>
      </trkpt>
      <trkpt lat="49.39487" lon="5.76283">
        <ele>314.60000610352</ele>
        <time>2022-09-13T12:55:40.000Z</time>
      </trkpt>
      <trkpt lat="49.39489" lon="5.7629">
        <ele>314.79998779297</ele>
        <time>2022-09-13T12:55:41.000Z</time>
      </trkpt>
      <trkpt lat="49.39491" lon="5.76295">
        <ele>314.79998779297</ele>
        <time>2022-09-13T12:55:42.000Z</time>
      </trkpt>
      <trkpt lat="49.39511" lon="5.76358">
        <ele>315.39999389648</ele>
        <time>2022-09-13T12:55:53.000Z</time>
      </trkpt>
      <trkpt lat="49.39512" lon="5.76363">
        <ele>315.79998779297</ele>
        <time>2022-09-13T12:55:54.000Z</time>
      </trkpt>
      <trkpt lat="49.39513" lon="5.76367">
        <ele>315.79998779297</ele>
        <time>2022-09-13T12:55:55.000Z</time>
      </trkpt>
      <trkpt lat="49.39513" lon="5.76372">
        <ele>315.79998779297</ele>
        <time>2022-09-13T12:55:56.000Z</time>
      </trkpt>
      <trkpt lat="49.39512" lon="5.76376">
        <ele>315.79998779297</ele>
        <time>2022-09-13T12:55:57.000Z</time>
      </trkpt>
      <trkpt lat="49.39509" lon="5.76377">
        <ele>315.79998779297</ele>
        <time>2022-09-13T12:55:58.000Z</time>
      </trkpt>
      <trkpt lat="49.39506" lon="5.76377">
        <ele>315.79998779297</ele>
        <time>2022-09-13T12:55:59.000Z</time>
      </trkpt>
      <trkpt lat="49.39503" lon="5.76376">
        <ele>316</ele>
        <time>2022-09-13T12:56:00.000Z</time>
      </trkpt>
      <trkpt lat="49.39497" lon="5.76375">
        <ele>316</ele>
        <time>2022-09-13T12:56:02.000Z</time>
      </trkpt>
      <trkpt lat="49.39493" lon="5.76375">
        <ele>316</ele>
        <time>2022-09-13T12:56:03.000Z</time>
      </trkpt>
      <trkpt lat="49.3947" lon="5.76373">
        <ele>315.79998779297</ele>
        <time>2022-09-13T12:56:09.000Z</time>
      </trkpt>
      <trkpt lat="49.39444" lon="5.76373">
        <ele>315.60000610352</ele>
        <time>2022-09-13T12:56:16.000Z</time>
      </trkpt>
      <trkpt lat="49.39442" lon="5.76376">
        <ele>315.60000610352</ele>
        <time>2022-09-13T12:56:17.000Z</time>
      </trkpt>
      <trkpt lat="49.39441" lon="5.7638">
        <ele>315.39999389648</ele>
        <time>2022-09-13T12:56:18.000Z</time>
      </trkpt>
      <trkpt lat="49.39442" lon="5.76384">
        <ele>315.39999389648</ele>
        <time>2022-09-13T12:56:19.000Z</time>
      </trkpt>
      <trkpt lat="49.39443" lon="5.76389">
        <ele>315.39999389648</ele>
        <time>2022-09-13T12:56:20.000Z</time>
      </trkpt>
      <trkpt lat="49.39448" lon="5.76407">
        <ele>315.60000610352</ele>
        <time>2022-09-13T12:56:24.000Z</time>
      </trkpt>
      <trkpt lat="49.39449" lon="5.76412">
        <ele>315.79998779297</ele>
        <time>2022-09-13T12:56:25.000Z</time>
      </trkpt>
      <trkpt lat="49.39448" lon="5.76418">
        <ele>315.79998779297</ele>
        <time>2022-09-13T12:56:26.000Z</time>
      </trkpt>
      <trkpt lat="49.39447" lon="5.76422">
        <ele>316</ele>
        <time>2022-09-13T12:56:27.000Z</time>
      </trkpt>
      <trkpt lat="49.39446" lon="5.76427">
        <ele>315.79998779297</ele>
        <time>2022-09-13T12:56:28.000Z</time>
      </trkpt>
      <trkpt lat="49.39446" lon="5.7643">
        <ele>316</ele>
        <time>2022-09-13T12:56:29.000Z</time>
      </trkpt>
    </trkseg>
  </trk>
  <trk>
    <name><![CDATA[Nocturne Mercy le Bas 20 km_4]]></name>
    <trkseg>
      <trkpt lat="49.38696" lon="5.82949">
        <ele>333.79998779297</ele>
        <time>2022-09-13T11:00:50.000Z</time>
      </trkpt>
    </trkseg>
  </trk>
  <trk>
    <name><![CDATA[Nocturne Mercy le Bas 20 km_5]]></name>
    <trkseg>
      <trkpt lat="49.40417" lon="5.78749">
        <ele>309.1</ele>
        <time>2022-09-13T11:47:23.000Z</time>
      </trkpt>
      <trkpt lat="49.40415" lon="5.78747">
        <ele>318.39999389648</ele>
        <time>2022-09-13T11:47:24.000Z</time>
      </trkpt>
      <trkpt lat="49.40413" lon="5.78745">
        <ele>318.60000610352</ele>
        <time>2022-09-13T11:47:25.000Z</time>
      </trkpt>
      <trkpt lat="49.40411" lon="5.78743">
        <ele>318.79998779297</ele>
        <time>2022-09-13T11:47:26.000Z</time>
      </trkpt>
      <trkpt lat="49.40409" lon="5.78741">
        <ele>318.79998779297</ele>
        <time>2022-09-13T11:47:27.000Z</time>
      </trkpt>
      <trkpt lat="49.40406" lon="5.7874">
        <ele>318.79998779297</ele>
        <time>2022-09-13T11:47:28.000Z</time>
      </trkpt>
      <trkpt lat="49.40403" lon="5.78738">
        <ele>319</ele>
        <time>2022-09-13T11:47:29.000Z</time>
      </trkpt>
      <trkpt lat="49.40399" lon="5.78736">
        <ele>319</ele>
        <time>2022-09-13T11:47:30.000Z</time>
      </trkpt>
      <trkpt lat="49.40395" lon="5.78734">
        <ele>319</ele>
        <time>2022-09-13T11:47:31.000Z</time>
      </trkpt>
      <trkpt lat="49.4039" lon="5.78731">
        <ele>319</ele>
        <time>2022-09-13T11:47:32.000Z</time>
      </trkpt>
      <trkpt lat="49.40385" lon="5.78728">
        <ele>318.60000610352</ele>
        <time>2022-09-13T11:47:33.000Z</time>
      </trkpt>
      <trkpt lat="49.4038" lon="5.78725">
        <ele>318.79998779297</ele>
        <time>2022-09-13T11:47:34.000Z</time>
      </trkpt>
      <trkpt lat="49.40375" lon="5.78723">
        <ele>318.60000610352</ele>
        <time>2022-09-13T11:47:35.000Z</time>
      </trkpt>
      <trkpt lat="49.40369" lon="5.7872">
        <ele>318.39999389648</ele>
        <time>2022-09-13T11:47:36.000Z</time>
      </trkpt>
      <trkpt lat="49.40363" lon="5.78716">
        <ele>318.20001220703</ele>
        <time>2022-09-13T11:47:37.000Z</time>
      </trkpt>
      <trkpt lat="49.40358" lon="5.78712">
        <ele>318</ele>
        <time>2022-09-13T11:47:38.000Z</time>
      </trkpt>
      <trkpt lat="49.40354" lon="5.78708">
        <ele>317.79998779297</ele>
        <time>2022-09-13T11:47:39.000Z</time>
      </trkpt>
      <trkpt lat="49.4035" lon="5.78705">
        <ele>317.39999389648</ele>
        <time>2022-09-13T11:47:40.000Z</time>
      </trkpt>
      <trkpt lat="49.40347" lon="5.78701">
        <ele>317.39999389648</ele>
        <time>2022-09-13T11:47:41.000Z</time>
      </trkpt>
      <trkpt lat="49.40343" lon="5.78696">
        <ele>317.20001220703</ele>
        <time>2022-09-13T11:47:42.000Z</time>
      </trkpt>
      <trkpt lat="49.40339" lon="5.78693">
        <ele>316.79998779297</ele>
        <time>2022-09-13T11:47:43.000Z</time>
      </trkpt>
      <trkpt lat="49.40336" lon="5.7869">
        <ele>316.60000610352</ele>
        <time>2022-09-13T11:47:44.000Z</time>
      </trkpt>
      <trkpt lat="49.40332" lon="5.78688">
        <ele>316.20001220703</ele>
        <time>2022-09-13T11:47:45.000Z</time>
      </trkpt>
      <trkpt lat="49.40329" lon="5.78685">
        <ele>316.20001220703</ele>
        <time>2022-09-13T11:47:46.000Z</time>
      </trkpt>
      <trkpt lat="49.40326" lon="5.78681">
        <ele>316</ele>
        <time>2022-09-13T11:47:47.000Z</time>
      </trkpt>
      <trkpt lat="49.40323" lon="5.78679">
        <ele>316</ele>
        <time>2022-09-13T11:47:48.000Z</time>
      </trkpt>
      <trkpt lat="49.40321" lon="5.78676">
        <ele>315.79998779297</ele>
        <time>2022-09-13T11:47:49.000Z</time>
      </trkpt>
      <trkpt lat="49.40317" lon="5.78673">
        <ele>315.79998779297</ele>
        <time>2022-09-13T11:47:50.000Z</time>
      </trkpt>
      <trkpt lat="49.40314" lon="5.78672">
        <ele>315.79998779297</ele>
        <time>2022-09-13T11:47:51.000Z</time>
      </trkpt>
      <trkpt lat="49.4031" lon="5.78669">
        <ele>315.79998779297</ele>
        <time>2022-09-13T11:47:52.000Z</time>
      </trkpt>
      <trkpt lat="49.40307" lon="5.78666">
        <ele>315.79998779297</ele>
        <time>2022-09-13T11:47:53.000Z</time>
      </trkpt>
      <trkpt lat="49.40305" lon="5.78664">
        <ele>315.79998779297</ele>
        <time>2022-09-13T11:47:54.000Z</time>
      </trkpt>
      <trkpt lat="49.40301" lon="5.78661">
        <ele>315.79998779297</ele>
        <time>2022-09-13T11:47:55.000Z</time>
      </trkpt>
      <trkpt lat="49.40299" lon="5.78659">
        <ele>315.79998779297</ele>
        <time>2022-09-13T11:47:56.000Z</time>
      </trkpt>
      <trkpt lat="49.40294" lon="5.78654">
        <ele>315.60000610352</ele>
        <time>2022-09-13T11:47:58.000Z</time>
      </trkpt>
      <trkpt lat="49.40293" lon="5.78652">
        <ele>315.60000610352</ele>
        <time>2022-09-13T11:47:59.000Z</time>
      </trkpt>
      <trkpt lat="49.40291" lon="5.7865">
        <ele>315.60000610352</ele>
        <time>2022-09-13T11:48:00.000Z</time>
      </trkpt>
      <trkpt lat="49.40289" lon="5.78648">
        <ele>315.60000610352</ele>
        <time>2022-09-13T11:48:01.000Z</time>
      </trkpt>
      <trkpt lat="49.40286" lon="5.78646">
        <ele>315.60000610352</ele>
        <time>2022-09-13T11:48:02.000Z</time>
      </trkpt>
      <trkpt lat="49.40284" lon="5.78645">
        <ele>315.39999389648</ele>
        <time>2022-09-13T11:48:03.000Z</time>
      </trkpt>
      <trkpt lat="49.40282" lon="5.78644">
        <ele>315.39999389648</ele>
        <time>2022-09-13T11:48:04.000Z</time>
      </trkpt>
      <trkpt lat="49.40272" lon="5.78642">
        <ele>315.39999389648</ele>
        <time>2022-09-13T11:48:07.000Z</time>
      </trkpt>
      <trkpt lat="49.40263" lon="5.78639">
        <ele>315.20001220703</ele>
        <time>2022-09-13T11:48:10.000Z</time>
      </trkpt>
      <trkpt lat="49.40263" lon="5.78638">
        <ele>315.20001220703</ele>
        <time>2022-09-13T11:48:11.000Z</time>
      </trkpt>
      <trkpt lat="49.40263" lon="5.78635">
        <ele>315</ele>
        <time>2022-09-13T11:48:12.000Z</time>
      </trkpt>
      <trkpt lat="49.40263" lon="5.78632">
        <ele>315</ele>
        <time>2022-09-13T11:48:13.000Z</time>
      </trkpt>
      <trkpt lat="49.40264" lon="5.78622">
        <ele>314.79998779297</ele>
        <time>2022-09-13T11:48:16.000Z</time>
      </trkpt>
      <trkpt lat="49.40264" lon="5.78619">
        <ele>314.60000610352</ele>
        <time>2022-09-13T11:48:17.000Z</time>
      </trkpt>
      <trkpt lat="49.40264" lon="5.78616">
        <ele>314.60000610352</ele>
        <time>2022-09-13T11:48:18.000Z</time>
      </trkpt>
      <trkpt lat="49.40264" lon="5.78609">
        <ele>314.79998779297</ele>
        <time>2022-09-13T11:48:20.000Z</time>
      </trkpt>
      <trkpt lat="49.40265" lon="5.78606">
        <ele>315</ele>
        <time>2022-09-13T11:48:21.000Z</time>
      </trkpt>
      <trkpt lat="49.40266" lon="5.78604">
        <ele>315.20001220703</ele>
        <time>2022-09-13T11:48:22.000Z</time>
      </trkpt>
      <trkpt lat="49.40266" lon="5.78601">
        <ele>315.20001220703</ele>
        <time>2022-09-13T11:48:23.000Z</time>
      </trkpt>
      <trkpt lat="49.40267" lon="5.78598">
        <ele>315.20001220703</ele>
        <time>2022-09-13T11:48:24.000Z</time>
      </trkpt>
      <trkpt lat="49.40271" lon="5.78586">
        <ele>315.79998779297</ele>
        <time>2022-09-13T11:48:28.000Z</time>
      </trkpt>
      <trkpt lat="49.40272" lon="5.78584">
        <ele>315.79998779297</ele>
        <time>2022-09-13T11:48:29.000Z</time>
      </trkpt>
      <trkpt lat="49.40273" lon="5.78582">
        <ele>316</ele>
        <time>2022-09-13T11:48:30.000Z</time>
      </trkpt>
      <trkpt lat="49.40274" lon="5.7858">
        <ele>316.20001220703</ele>
        <time>2022-09-13T11:48:31.000Z</time>
      </trkpt>
      <trkpt lat="49.40275" lon="5.78578">
        <ele>316.20001220703</ele>
        <time>2022-09-13T11:48:32.000Z</time>
      </trkpt>
      <trkpt lat="49.40276" lon="5.78575">
        <ele>316.20001220703</ele>
        <time>2022-09-13T11:48:33.000Z</time>
      </trkpt>
      <trkpt lat="49.40277" lon="5.78572">
        <ele>316.20001220703</ele>
        <time>2022-09-13T11:48:34.000Z</time>
      </trkpt>
      <trkpt lat="49.40278" lon="5.78569">
        <ele>316.39999389648</ele>
        <time>2022-09-13T11:48:35.000Z</time>
      </trkpt>
      <trkpt lat="49.40277" lon="5.78565">
        <ele>316.60000610352</ele>
        <time>2022-09-13T11:48:36.000Z</time>
      </trkpt>
      <trkpt lat="49.40278" lon="5.78554">
        <ele>316.79998779297</ele>
        <time>2022-09-13T11:48:39.000Z</time>
      </trkpt>
      <trkpt lat="49.40277" lon="5.7855">
        <ele>317</ele>
        <time>2022-09-13T11:48:40.000Z</time>
      </trkpt>
      <trkpt lat="49.40276" lon="5.78545">
        <ele>317</ele>
        <time>2022-09-13T11:48:41.000Z</time>
      </trkpt>
      <trkpt lat="49.40274" lon="5.7854">
        <ele>317.39999389648</ele>
        <time>2022-09-13T11:48:42.000Z</time>
      </trkpt>
      <trkpt lat="49.40274" lon="5.78534">
        <ele>317.60000610352</ele>
        <time>2022-09-13T11:48:43.000Z</time>
      </trkpt>
      <trkpt lat="49.40274" lon="5.78529">
        <ele>317.60000610352</ele>
        <time>2022-09-13T11:48:44.000Z</time>
      </trkpt>
      <trkpt lat="49.40278" lon="5.78513">
        <ele>318</ele>
        <time>2022-09-13T11:48:48.000Z</time>
      </trkpt>
      <trkpt lat="49.40279" lon="5.78509">
        <ele>318</ele>
        <time>2022-09-13T11:48:49.000Z</time>
      </trkpt>
      <trkpt lat="49.40279" lon="5.78487">
        <ele>318.20001220703</ele>
        <time>2022-09-13T11:48:53.000Z</time>
      </trkpt>
      <trkpt lat="49.40278" lon="5.78481">
        <ele>318.39999389648</ele>
        <time>2022-09-13T11:48:54.000Z</time>
      </trkpt>
      <trkpt lat="49.40278" lon="5.78475">
        <ele>318.39999389648</ele>
        <time>2022-09-13T11:48:55.000Z</time>
      </trkpt>
      <trkpt lat="49.40277" lon="5.78468">
        <ele>318.39999389648</ele>
        <time>2022-09-13T11:48:56.000Z</time>
      </trkpt>
      <trkpt lat="49.40274" lon="5.78451">
        <ele>318.60000610352</ele>
        <time>2022-09-13T11:48:59.000Z</time>
      </trkpt>
      <trkpt lat="49.40275" lon="5.78447">
        <ele>318.60000610352</ele>
        <time>2022-09-13T11:49:00.000Z</time>
      </trkpt>
      <trkpt lat="49.40275" lon="5.78442">
        <ele>318.60000610352</ele>
        <time>2022-09-13T11:49:01.000Z</time>
      </trkpt>
      <trkpt lat="49.40274" lon="5.78437">
        <ele>318.60000610352</ele>
        <time>2022-09-13T11:49:02.000Z</time>
      </trkpt>
      <trkpt lat="49.40275" lon="5.78422">
        <ele>318.20001220703</ele>
        <time>2022-09-13T11:49:05.000Z</time>
      </trkpt>
      <trkpt lat="49.40278" lon="5.78417">
        <ele>318</ele>
        <time>2022-09-13T11:49:06.000Z</time>
      </trkpt>
      <trkpt lat="49.4028" lon="5.78414">
        <ele>317.79998779297</ele>
        <time>2022-09-13T11:49:07.000Z</time>
      </trkpt>
      <trkpt lat="49.40287" lon="5.7841">
        <ele>317.39999389648</ele>
        <time>2022-09-13T11:49:08.000Z</time>
      </trkpt>
      <trkpt lat="49.40294" lon="5.78406">
        <ele>317.20001220703</ele>
        <time>2022-09-13T11:49:09.000Z</time>
      </trkpt>
      <trkpt lat="49.40299" lon="5.78403">
        <ele>317.20001220703</ele>
        <time>2022-09-13T11:49:10.000Z</time>
      </trkpt>
      <trkpt lat="49.40305" lon="5.78399">
        <ele>317</ele>
        <time>2022-09-13T11:49:11.000Z</time>
      </trkpt>
      <trkpt lat="49.40309" lon="5.78398">
        <ele>317</ele>
        <time>2022-09-13T11:49:12.000Z</time>
      </trkpt>
      <trkpt lat="49.40312" lon="5.78397">
        <ele>316.79998779297</ele>
        <time>2022-09-13T11:49:13.000Z</time>
      </trkpt>
      <trkpt lat="49.40314" lon="5.78395">
        <ele>316.60000610352</ele>
        <time>2022-09-13T11:49:14.000Z</time>
      </trkpt>
      <trkpt lat="49.40316" lon="5.78395">
        <ele>316.20001220703</ele>
        <time>2022-09-13T11:49:15.000Z</time>
      </trkpt>
      <trkpt lat="49.40318" lon="5.78395">
        <ele>316</ele>
        <time>2022-09-13T11:49:16.000Z</time>
      </trkpt>
      <trkpt lat="49.40321" lon="5.78395">
        <ele>315.60000610352</ele>
        <time>2022-09-13T11:49:17.000Z</time>
      </trkpt>
      <trkpt lat="49.40323" lon="5.78394">
        <ele>315.60000610352</ele>
        <time>2022-09-13T11:49:18.000Z</time>
      </trkpt>
      <trkpt lat="49.40325" lon="5.78394">
        <ele>315.60000610352</ele>
        <time>2022-09-13T11:49:19.000Z</time>
      </trkpt>
      <trkpt lat="49.40327" lon="5.78393">
        <ele>315.60000610352</ele>
        <time>2022-09-13T11:49:20.000Z</time>
      </trkpt>
      <trkpt lat="49.4033" lon="5.78393">
        <ele>315.60000610352</ele>
        <time>2022-09-13T11:49:21.000Z</time>
      </trkpt>
      <trkpt lat="49.40334" lon="5.78393">
        <ele>315.60000610352</ele>
        <time>2022-09-13T11:49:22.000Z</time>
      </trkpt>
      <trkpt lat="49.40336" lon="5.78392">
        <ele>315.60000610352</ele>
        <time>2022-09-13T11:49:23.000Z</time>
      </trkpt>
      <trkpt lat="49.40339" lon="5.78391">
        <ele>315.60000610352</ele>
        <time>2022-09-13T11:49:24.000Z</time>
      </trkpt>
      <trkpt lat="49.40343" lon="5.78391">
        <ele>315.60000610352</ele>
        <time>2022-09-13T11:49:25.000Z</time>
      </trkpt>
      <trkpt lat="49.40349" lon="5.78391">
        <ele>315.79998779297</ele>
        <time>2022-09-13T11:49:26.000Z</time>
      </trkpt>
      <trkpt lat="49.40381" lon="5.78387">
        <ele>316.20001220703</ele>
        <time>2022-09-13T11:49:35.000Z</time>
      </trkpt>
      <trkpt lat="49.40386" lon="5.78385">
        <ele>316.39999389648</ele>
        <time>2022-09-13T11:49:36.000Z</time>
      </trkpt>
      <trkpt lat="49.40389" lon="5.78385">
        <ele>316.39999389648</ele>
        <time>2022-09-13T11:49:37.000Z</time>
      </trkpt>
      <trkpt lat="49.40392" lon="5.78383">
        <ele>316.79998779297</ele>
        <time>2022-09-13T11:49:38.000Z</time>
      </trkpt>
      <trkpt lat="49.40407" lon="5.78374">
        <ele>317.39999389648</ele>
        <time>2022-09-13T11:49:44.000Z</time>
      </trkpt>
      <trkpt lat="49.40415" lon="5.78369">
        <ele>317.39999389648</ele>
        <time>2022-09-13T11:49:46.000Z</time>
      </trkpt>
      <trkpt lat="49.40419" lon="5.78368">
        <ele>317.39999389648</ele>
        <time>2022-09-13T11:49:47.000Z</time>
      </trkpt>
      <trkpt lat="49.40423" lon="5.78366">
        <ele>317.39999389648</ele>
        <time>2022-09-13T11:49:48.000Z</time>
      </trkpt>
      <trkpt lat="49.40428" lon="5.78361">
        <ele>317.39999389648</ele>
        <time>2022-09-13T11:49:51.000Z</time>
      </trkpt>
      <trkpt lat="49.4043" lon="5.78358">
        <ele>317.39999389648</ele>
        <time>2022-09-13T11:49:52.000Z</time>
      </trkpt>
      <trkpt lat="49.40431" lon="5.78355">
        <ele>317.20001220703</ele>
        <time>2022-09-13T11:49:53.000Z</time>
      </trkpt>
      <trkpt lat="49.40443" lon="5.78348">
        <ele>317.20001220703</ele>
        <time>2022-09-13T11:49:55.000Z</time>
      </trkpt>
      <trkpt lat="49.40451" lon="5.78344">
        <ele>317.20001220703</ele>
        <time>2022-09-13T11:49:56.000Z</time>
      </trkpt>
      <trkpt lat="49.40456" lon="5.78341">
        <ele>317.20001220703</ele>
        <time>2022-09-13T11:49:57.000Z</time>
      </trkpt>
      <trkpt lat="49.40457" lon="5.78337">
        <ele>317.20001220703</ele>
        <time>2022-09-13T11:49:58.000Z</time>
      </trkpt>
      <trkpt lat="49.40459" lon="5.78327">
        <ele>317.20001220703</ele>
        <time>2022-09-13T11:50:00.000Z</time>
      </trkpt>
      <trkpt lat="49.40462" lon="5.78319">
        <ele>317.20001220703</ele>
        <time>2022-09-13T11:50:01.000Z</time>
      </trkpt>
      <trkpt lat="49.40467" lon="5.78313">
        <ele>317</ele>
        <time>2022-09-13T11:50:02.000Z</time>
      </trkpt>
      <trkpt lat="49.40472" lon="5.78306">
        <ele>317</ele>
        <time>2022-09-13T11:50:03.000Z</time>
      </trkpt>
      <trkpt lat="49.40478" lon="5.783">
        <ele>316.79998779297</ele>
        <time>2022-09-13T11:50:04.000Z</time>
      </trkpt>
      <trkpt lat="49.40487" lon="5.78291">
        <ele>316.79998779297</ele>
        <time>2022-09-13T11:50:06.000Z</time>
      </trkpt>
      <trkpt lat="49.40491" lon="5.78288">
        <ele>316.60000610352</ele>
        <time>2022-09-13T11:50:07.000Z</time>
      </trkpt>
      <trkpt lat="49.40493" lon="5.78286">
        <ele>316.39999389648</ele>
        <time>2022-09-13T11:50:08.000Z</time>
      </trkpt>
      <trkpt lat="49.40496" lon="5.78283">
        <ele>316.20001220703</ele>
        <time>2022-09-13T11:50:09.000Z</time>
      </trkpt>
      <trkpt lat="49.40501" lon="5.78281">
        <ele>316</ele>
        <time>2022-09-13T11:50:10.000Z</time>
      </trkpt>
      <trkpt lat="49.40504" lon="5.78278">
        <ele>316</ele>
        <time>2022-09-13T11:50:11.000Z</time>
      </trkpt>
      <trkpt lat="49.40508" lon="5.78274">
        <ele>315.79998779297</ele>
        <time>2022-09-13T11:50:13.000Z</time>
      </trkpt>
      <trkpt lat="49.4051" lon="5.78272">
        <ele>315.79998779297</ele>
        <time>2022-09-13T11:50:14.000Z</time>
      </trkpt>
      <trkpt lat="49.40513" lon="5.7827">
        <ele>315.60000610352</ele>
        <time>2022-09-13T11:50:15.000Z</time>
      </trkpt>
      <trkpt lat="49.40517" lon="5.78268">
        <ele>315.60000610352</ele>
        <time>2022-09-13T11:50:16.000Z</time>
      </trkpt>
      <trkpt lat="49.4052" lon="5.78267">
        <ele>315.60000610352</ele>
        <time>2022-09-13T11:50:17.000Z</time>
      </trkpt>
      <trkpt lat="49.40527" lon="5.78262">
        <ele>315.39999389648</ele>
        <time>2022-09-13T11:50:19.000Z</time>
      </trkpt>
      <trkpt lat="49.40554" lon="5.7825">
        <ele>315</ele>
        <time>2022-09-13T11:50:24.000Z</time>
      </trkpt>
      <trkpt lat="49.40556" lon="5.78247">
        <ele>315</ele>
        <time>2022-09-13T11:50:25.000Z</time>
      </trkpt>
      <trkpt lat="49.40559" lon="5.78245">
        <ele>314.79998779297</ele>
        <time>2022-09-13T11:50:26.000Z</time>
      </trkpt>
      <trkpt lat="49.4056" lon="5.78243">
        <ele>314.79998779297</ele>
        <time>2022-09-13T11:50:27.000Z</time>
      </trkpt>
      <trkpt lat="49.40563" lon="5.78241">
        <ele>314.60000610352</ele>
        <time>2022-09-13T11:50:28.000Z</time>
      </trkpt>
      <trkpt lat="49.40565" lon="5.78239">
        <ele>314.20001220703</ele>
        <time>2022-09-13T11:50:29.000Z</time>
      </trkpt>
      <trkpt lat="49.40572" lon="5.78222">
        <ele>314</ele>
        <time>2022-09-13T11:50:32.000Z</time>
      </trkpt>
      <trkpt lat="49.40576" lon="5.78213">
        <ele>313.60000610352</ele>
        <time>2022-09-13T11:50:33.000Z</time>
      </trkpt>
      <trkpt lat="49.4058" lon="5.78201">
        <ele>313.39999389648</ele>
        <time>2022-09-13T11:50:34.000Z</time>
      </trkpt>
      <trkpt lat="49.40583" lon="5.78192">
        <ele>313</ele>
        <time>2022-09-13T11:50:35.000Z</time>
      </trkpt>
      <trkpt lat="49.40587" lon="5.78174">
        <ele>312.20001220703</ele>
        <time>2022-09-13T11:50:37.000Z</time>
      </trkpt>
      <trkpt lat="49.40587" lon="5.7817">
        <ele>311.39999389648</ele>
        <time>2022-09-13T11:50:38.000Z</time>
      </trkpt>
      <trkpt lat="49.40583" lon="5.78167">
        <ele>310.60000610352</ele>
        <time>2022-09-13T11:50:39.000Z</time>
      </trkpt>
      <trkpt lat="49.40579" lon="5.78166">
        <ele>309</ele>
        <time>2022-09-13T11:50:40.000Z</time>
      </trkpt>
      <trkpt lat="49.40576" lon="5.78165">
        <ele>308.20001220703</ele>
        <time>2022-09-13T11:50:41.000Z</time>
      </trkpt>
      <trkpt lat="49.40571" lon="5.78165">
        <ele>307.60000610352</ele>
        <time>2022-09-13T11:50:42.000Z</time>
      </trkpt>
      <trkpt lat="49.40566" lon="5.78163">
        <ele>307.39999389648</ele>
        <time>2022-09-13T11:50:43.000Z</time>
      </trkpt>
      <trkpt lat="49.4055" lon="5.78166">
        <ele>306.39999389648</ele>
        <time>2022-09-13T11:50:47.000Z</time>
      </trkpt>
      <trkpt lat="49.40515" lon="5.78181">
        <ele>305.39999389648</ele>
        <time>2022-09-13T11:50:55.000Z</time>
      </trkpt>
      <trkpt lat="49.40492" lon="5.78189">
        <ele>304.60000610352</ele>
        <time>2022-09-13T11:50:59.000Z</time>
      </trkpt>
      <trkpt lat="49.40471" lon="5.78193">
        <ele>304.20001220703</ele>
        <time>2022-09-13T11:51:02.000Z</time>
      </trkpt>
      <trkpt lat="49.40451" lon="5.782">
        <ele>303.60000610352</ele>
        <time>2022-09-13T11:51:05.000Z</time>
      </trkpt>
      <trkpt lat="49.40446" lon="5.78203">
        <ele>303.39999389648</ele>
        <time>2022-09-13T11:51:06.000Z</time>
      </trkpt>
      <trkpt lat="49.40442" lon="5.78205">
        <ele>302.20001220703</ele>
        <time>2022-09-13T11:51:07.000Z</time>
      </trkpt>
      <trkpt lat="49.40438" lon="5.78205">
        <ele>301.39999389648</ele>
        <time>2022-09-13T11:51:08.000Z</time>
      </trkpt>
      <trkpt lat="49.40435" lon="5.78205">
        <ele>300.79998779297</ele>
        <time>2022-09-13T11:51:09.000Z</time>
      </trkpt>
      <trkpt lat="49.40432" lon="5.78202">
        <ele>300</ele>
        <time>2022-09-13T11:51:10.000Z</time>
      </trkpt>
      <trkpt lat="49.40431" lon="5.78201">
        <ele>299.79998779297</ele>
        <time>2022-09-13T11:51:11.000Z</time>
      </trkpt>
      <trkpt lat="49.40429" lon="5.78199">
        <ele>299.60000610352</ele>
        <time>2022-09-13T11:51:12.000Z</time>
      </trkpt>
      <trkpt lat="49.40427" lon="5.78198">
        <ele>299.39999389648</ele>
        <time>2022-09-13T11:51:13.000Z</time>
      </trkpt>
      <trkpt lat="49.40425" lon="5.78198">
        <ele>299.20001220703</ele>
        <time>2022-09-13T11:51:14.000Z</time>
      </trkpt>
      <trkpt lat="49.40423" lon="5.78198">
        <ele>299.20001220703</ele>
        <time>2022-09-13T11:51:15.000Z</time>
      </trkpt>
      <trkpt lat="49.40416" lon="5.78202">
        <ele>299</ele>
        <time>2022-09-13T11:51:18.000Z</time>
      </trkpt>
      <trkpt lat="49.40414" lon="5.78203">
        <ele>299</ele>
        <time>2022-09-13T11:51:19.000Z</time>
      </trkpt>
      <trkpt lat="49.40404" lon="5.78208">
        <ele>299</ele>
        <time>2022-09-13T11:51:23.000Z</time>
      </trkpt>
      <trkpt lat="49.40394" lon="5.78212">
        <ele>299</ele>
        <time>2022-09-13T11:51:27.000Z</time>
      </trkpt>
      <trkpt lat="49.40392" lon="5.78213">
        <ele>299</ele>
        <time>2022-09-13T11:51:28.000Z</time>
      </trkpt>
      <trkpt lat="49.4039" lon="5.78214">
        <ele>299</ele>
        <time>2022-09-13T11:51:29.000Z</time>
      </trkpt>
      <trkpt lat="49.40388" lon="5.78215">
        <ele>299</ele>
        <time>2022-09-13T11:51:30.000Z</time>
      </trkpt>
      <trkpt lat="49.40386" lon="5.78215">
        <ele>299</ele>
        <time>2022-09-13T11:51:31.000Z</time>
      </trkpt>
      <trkpt lat="49.40383" lon="5.78216">
        <ele>299.20001220703</ele>
        <time>2022-09-13T11:51:32.000Z</time>
      </trkpt>
      <trkpt lat="49.40381" lon="5.78217">
        <ele>299.20001220703</ele>
        <time>2022-09-13T11:51:33.000Z</time>
      </trkpt>
      <trkpt lat="49.40379" lon="5.78218">
        <ele>299.39999389648</ele>
        <time>2022-09-13T11:51:34.000Z</time>
      </trkpt>
      <trkpt lat="49.40376" lon="5.78219">
        <ele>299.60000610352</ele>
        <time>2022-09-13T11:51:35.000Z</time>
      </trkpt>
      <trkpt lat="49.40374" lon="5.7822">
        <ele>299.60000610352</ele>
        <time>2022-09-13T11:51:36.000Z</time>
      </trkpt>
      <trkpt lat="49.40353" lon="5.78225">
        <ele>299.60000610352</ele>
        <time>2022-09-13T11:51:44.000Z</time>
      </trkpt>
      <trkpt lat="49.40334" lon="5.78223">
        <ele>298.60000610352</ele>
        <time>2022-09-13T11:51:51.000Z</time>
      </trkpt>
      <trkpt lat="49.40332" lon="5.78221">
        <ele>298.60000610352</ele>
        <time>2022-09-13T11:51:52.000Z</time>
      </trkpt>
      <trkpt lat="49.40331" lon="5.78221">
        <ele>298.60000610352</ele>
        <time>2022-09-13T11:51:53.000Z</time>
      </trkpt>
      <trkpt lat="49.4033" lon="5.78219">
        <ele>298.60000610352</ele>
        <time>2022-09-13T11:51:54.000Z</time>
      </trkpt>
      <trkpt lat="49.40328" lon="5.78218">
        <ele>298.60000610352</ele>
        <time>2022-09-13T11:51:55.000Z</time>
      </trkpt>
      <trkpt lat="49.40326" lon="5.78219">
        <ele>298.60000610352</ele>
        <time>2022-09-13T11:51:56.000Z</time>
      </trkpt>
      <trkpt lat="49.40324" lon="5.7822">
        <ele>298.60000610352</ele>
        <time>2022-09-13T11:51:57.000Z</time>
      </trkpt>
      <trkpt lat="49.4032" lon="5.78224">
        <ele>298.60000610352</ele>
        <time>2022-09-13T11:51:59.000Z</time>
      </trkpt>
      <trkpt lat="49.40318" lon="5.78224">
        <ele>298.60000610352</ele>
        <time>2022-09-13T11:52:00.000Z</time>
      </trkpt>
      <trkpt lat="49.40317" lon="5.78223">
        <ele>298.60000610352</ele>
        <time>2022-09-13T11:52:01.000Z</time>
      </trkpt>
      <trkpt lat="49.40315" lon="5.78221">
        <ele>298.60000610352</ele>
        <time>2022-09-13T11:52:02.000Z</time>
      </trkpt>
      <trkpt lat="49.40313" lon="5.78219">
        <ele>298.39999389648</ele>
        <time>2022-09-13T11:52:03.000Z</time>
      </trkpt>
      <trkpt lat="49.40311" lon="5.78218">
        <ele>298.39999389648</ele>
        <time>2022-09-13T11:52:04.000Z</time>
      </trkpt>
      <trkpt lat="49.40309" lon="5.78214">
        <ele>298.20001220703</ele>
        <time>2022-09-13T11:52:06.000Z</time>
      </trkpt>
      <trkpt lat="49.40307" lon="5.78212">
        <ele>298.20001220703</ele>
        <time>2022-09-13T11:52:07.000Z</time>
      </trkpt>
      <trkpt lat="49.40294" lon="5.78214">
        <ele>298.60000610352</ele>
        <time>2022-09-13T11:52:11.000Z</time>
      </trkpt>
      <trkpt lat="49.4029" lon="5.78212">
        <ele>298.79998779297</ele>
        <time>2022-09-13T11:52:12.000Z</time>
      </trkpt>
      <trkpt lat="49.40288" lon="5.7821">
        <ele>298.79998779297</ele>
        <time>2022-09-13T11:52:13.000Z</time>
      </trkpt>
      <trkpt lat="49.40286" lon="5.78207">
        <ele>298.79998779297</ele>
        <time>2022-09-13T11:52:14.000Z</time>
      </trkpt>
      <trkpt lat="49.40271" lon="5.78197">
        <ele>299.39999389648</ele>
        <time>2022-09-13T11:52:18.000Z</time>
      </trkpt>
      <trkpt lat="49.40269" lon="5.78197">
        <ele>299.39999389648</ele>
        <time>2022-09-13T11:52:19.000Z</time>
      </trkpt>
      <trkpt lat="49.40264" lon="5.78197">
        <ele>299.20001220703</ele>
        <time>2022-09-13T11:52:21.000Z</time>
      </trkpt>
      <trkpt lat="49.40261" lon="5.78197">
        <ele>299.20001220703</ele>
        <time>2022-09-13T11:52:22.000Z</time>
      </trkpt>
      <trkpt lat="49.40254" lon="5.78191">
        <ele>299</ele>
        <time>2022-09-13T11:52:25.000Z</time>
      </trkpt>
      <trkpt lat="49.4025" lon="5.78189">
        <ele>299</ele>
        <time>2022-09-13T11:52:26.000Z</time>
      </trkpt>
      <trkpt lat="49.40245" lon="5.78187">
        <ele>299</ele>
        <time>2022-09-13T11:52:27.000Z</time>
      </trkpt>
      <trkpt lat="49.40234" lon="5.7818">
        <ele>298.60000610352</ele>
        <time>2022-09-13T11:52:30.000Z</time>
      </trkpt>
      <trkpt lat="49.4023" lon="5.78179">
        <ele>298.60000610352</ele>
        <time>2022-09-13T11:52:31.000Z</time>
      </trkpt>
      <trkpt lat="49.40228" lon="5.78178">
        <ele>298.39999389648</ele>
        <time>2022-09-13T11:52:32.000Z</time>
      </trkpt>
      <trkpt lat="49.40221" lon="5.78175">
        <ele>298.20001220703</ele>
        <time>2022-09-13T11:52:34.000Z</time>
      </trkpt>
      <trkpt lat="49.4021" lon="5.78165">
        <ele>297.60000610352</ele>
        <time>2022-09-13T11:52:39.000Z</time>
      </trkpt>
      <trkpt lat="49.40207" lon="5.78164">
        <ele>297.60000610352</ele>
        <time>2022-09-13T11:52:40.000Z</time>
      </trkpt>
      <trkpt lat="49.40198" lon="5.78159">
        <ele>297.39999389648</ele>
        <time>2022-09-13T11:52:43.000Z</time>
      </trkpt>
      <trkpt lat="49.40192" lon="5.78153">
        <ele>297.20001220703</ele>
        <time>2022-09-13T11:52:45.000Z</time>
      </trkpt>
      <trkpt lat="49.40188" lon="5.78149">
        <ele>297.20001220703</ele>
        <time>2022-09-13T11:52:46.000Z</time>
      </trkpt>
      <trkpt lat="49.40184" lon="5.78148">
        <ele>297.20001220703</ele>
        <time>2022-09-13T11:52:47.000Z</time>
      </trkpt>
      <trkpt lat="49.40171" lon="5.78142">
        <ele>297.20001220703</ele>
        <time>2022-09-13T11:52:51.000Z</time>
      </trkpt>
      <trkpt lat="49.40161" lon="5.78134">
        <ele>297.20001220703</ele>
        <time>2022-09-13T11:52:54.000Z</time>
      </trkpt>
      <trkpt lat="49.40159" lon="5.78132">
        <ele>297.20001220703</ele>
        <time>2022-09-13T11:52:55.000Z</time>
      </trkpt>
      <trkpt lat="49.40156" lon="5.78133">
        <ele>297.20001220703</ele>
        <time>2022-09-13T11:52:56.000Z</time>
      </trkpt>
      <trkpt lat="49.40154" lon="5.78135">
        <ele>297.20001220703</ele>
        <time>2022-09-13T11:52:57.000Z</time>
      </trkpt>
      <trkpt lat="49.40151" lon="5.78135">
        <ele>297.39999389648</ele>
        <time>2022-09-13T11:52:58.000Z</time>
      </trkpt>
      <trkpt lat="49.40147" lon="5.78134">
        <ele>297.39999389648</ele>
        <time>2022-09-13T11:52:59.000Z</time>
      </trkpt>
      <trkpt lat="49.4014" lon="5.78132">
        <ele>297.39999389648</ele>
        <time>2022-09-13T11:53:01.000Z</time>
      </trkpt>
      <trkpt lat="49.40135" lon="5.78131">
        <ele>297.39999389648</ele>
        <time>2022-09-13T11:53:02.000Z</time>
      </trkpt>
      <trkpt lat="49.40131" lon="5.78131">
        <ele>297.20001220703</ele>
        <time>2022-09-13T11:53:03.000Z</time>
      </trkpt>
      <trkpt lat="49.40127" lon="5.78129">
        <ele>297.20001220703</ele>
        <time>2022-09-13T11:53:04.000Z</time>
      </trkpt>
      <trkpt lat="49.40123" lon="5.78127">
        <ele>297</ele>
        <time>2022-09-13T11:53:05.000Z</time>
      </trkpt>
      <trkpt lat="49.40119" lon="5.78124">
        <ele>296.60000610352</ele>
        <time>2022-09-13T11:53:06.000Z</time>
      </trkpt>
      <trkpt lat="49.40116" lon="5.78121">
        <ele>296.39999389648</ele>
        <time>2022-09-13T11:53:07.000Z</time>
      </trkpt>
      <trkpt lat="49.40113" lon="5.78119">
        <ele>296.20001220703</ele>
        <time>2022-09-13T11:53:08.000Z</time>
      </trkpt>
      <trkpt lat="49.40111" lon="5.78117">
        <ele>296</ele>
        <time>2022-09-13T11:53:09.000Z</time>
      </trkpt>
      <trkpt lat="49.40109" lon="5.78115">
        <ele>295.79998779297</ele>
        <time>2022-09-13T11:53:10.000Z</time>
      </trkpt>
      <trkpt lat="49.40107" lon="5.78114">
        <ele>295.60000610352</ele>
        <time>2022-09-13T11:53:11.000Z</time>
      </trkpt>
      <trkpt lat="49.40105" lon="5.78111">
        <ele>295.39999389648</ele>
        <time>2022-09-13T11:53:12.000Z</time>
      </trkpt>
      <trkpt lat="49.40102" lon="5.7811">
        <ele>295.39999389648</ele>
        <time>2022-09-13T11:53:13.000Z</time>
      </trkpt>
      <trkpt lat="49.40096" lon="5.78105">
        <ele>295.20001220703</ele>
        <time>2022-09-13T11:53:15.000Z</time>
      </trkpt>
      <trkpt lat="49.40074" lon="5.78101">
        <ele>295.20001220703</ele>
        <time>2022-09-13T11:53:20.000Z</time>
      </trkpt>
      <trkpt lat="49.40067" lon="5.78102">
        <ele>295.20001220703</ele>
        <time>2022-09-13T11:53:21.000Z</time>
      </trkpt>
      <trkpt lat="49.40056" lon="5.78101">
        <ele>295</ele>
        <time>2022-09-13T11:53:23.000Z</time>
      </trkpt>
      <trkpt lat="49.40049" lon="5.781">
        <ele>294.79998779297</ele>
        <time>2022-09-13T11:53:24.000Z</time>
      </trkpt>
      <trkpt lat="49.40034" lon="5.78093">
        <ele>293.60000610352</ele>
        <time>2022-09-13T11:53:26.000Z</time>
      </trkpt>
      <trkpt lat="49.40027" lon="5.78089">
        <ele>293.39999389648</ele>
        <time>2022-09-13T11:53:27.000Z</time>
      </trkpt>
      <trkpt lat="49.40023" lon="5.78086">
        <ele>293</ele>
        <time>2022-09-13T11:53:28.000Z</time>
      </trkpt>
      <trkpt lat="49.40019" lon="5.78084">
        <ele>292.79998779297</ele>
        <time>2022-09-13T11:53:29.000Z</time>
      </trkpt>
      <trkpt lat="49.40016" lon="5.78082">
        <ele>292.60000610352</ele>
        <time>2022-09-13T11:53:30.000Z</time>
      </trkpt>
      <trkpt lat="49.40013" lon="5.7808">
        <ele>292.60000610352</ele>
        <time>2022-09-13T11:53:31.000Z</time>
      </trkpt>
      <trkpt lat="49.40011" lon="5.78079">
        <ele>292.60000610352</ele>
        <time>2022-09-13T11:53:32.000Z</time>
      </trkpt>
      <trkpt lat="49.40009" lon="5.78077">
        <ele>292.79998779297</ele>
        <time>2022-09-13T11:53:33.000Z</time>
      </trkpt>
      <trkpt lat="49.40006" lon="5.78076">
        <ele>292.79998779297</ele>
        <time>2022-09-13T11:53:34.000Z</time>
      </trkpt>
      <trkpt lat="49.40003" lon="5.78074">
        <ele>293.20001220703</ele>
        <time>2022-09-13T11:53:35.000Z</time>
      </trkpt>
      <trkpt lat="49.39988" lon="5.78067">
        <ele>294</ele>
        <time>2022-09-13T11:53:39.000Z</time>
      </trkpt>
      <trkpt lat="49.39986" lon="5.78065">
        <ele>294.20001220703</ele>
        <time>2022-09-13T11:53:40.000Z</time>
      </trkpt>
      <trkpt lat="49.39985" lon="5.78064">
        <ele>294.20001220703</ele>
        <time>2022-09-13T11:53:41.000Z</time>
      </trkpt>
      <trkpt lat="49.39982" lon="5.78063">
        <ele>294.79998779297</ele>
        <time>2022-09-13T11:53:42.000Z</time>
      </trkpt>
      <trkpt lat="49.39973" lon="5.78059">
        <ele>296</ele>
        <time>2022-09-13T11:53:45.000Z</time>
      </trkpt>
      <trkpt lat="49.39972" lon="5.78057">
        <ele>296</ele>
        <time>2022-09-13T11:53:46.000Z</time>
      </trkpt>
      <trkpt lat="49.39971" lon="5.78055">
        <ele>296.39999389648</ele>
        <time>2022-09-13T11:53:47.000Z</time>
      </trkpt>
      <trkpt lat="49.3997" lon="5.78052">
        <ele>296.39999389648</ele>
        <time>2022-09-13T11:53:48.000Z</time>
      </trkpt>
      <trkpt lat="49.39968" lon="5.78048">
        <ele>296.60000610352</ele>
        <time>2022-09-13T11:53:49.000Z</time>
      </trkpt>
      <trkpt lat="49.39966" lon="5.78044">
        <ele>296.60000610352</ele>
        <time>2022-09-13T11:53:50.000Z</time>
      </trkpt>
      <trkpt lat="49.39961" lon="5.78038">
        <ele>296.79998779297</ele>
        <time>2022-09-13T11:53:52.000Z</time>
      </trkpt>
      <trkpt lat="49.3996" lon="5.78036">
        <ele>296.79998779297</ele>
        <time>2022-09-13T11:53:53.000Z</time>
      </trkpt>
      <trkpt lat="49.39958" lon="5.78034">
        <ele>296.79998779297</ele>
        <time>2022-09-13T11:53:54.000Z</time>
      </trkpt>
      <trkpt lat="49.39957" lon="5.78033">
        <ele>296.79998779297</ele>
        <time>2022-09-13T11:53:55.000Z</time>
      </trkpt>
      <trkpt lat="49.39956" lon="5.78031">
        <ele>296.79998779297</ele>
        <time>2022-09-13T11:53:56.000Z</time>
      </trkpt>
      <trkpt lat="49.39956" lon="5.78028">
        <ele>296.79998779297</ele>
        <time>2022-09-13T11:53:57.000Z</time>
      </trkpt>
      <trkpt lat="49.39955" lon="5.78025">
        <ele>296.79998779297</ele>
        <time>2022-09-13T11:53:58.000Z</time>
      </trkpt>
      <trkpt lat="49.39955" lon="5.78021">
        <ele>296.79998779297</ele>
        <time>2022-09-13T11:53:59.000Z</time>
      </trkpt>
      <trkpt lat="49.39955" lon="5.78017">
        <ele>296.79998779297</ele>
        <time>2022-09-13T11:54:00.000Z</time>
      </trkpt>
      <trkpt lat="49.39955" lon="5.78013">
        <ele>296.79998779297</ele>
        <time>2022-09-13T11:54:01.000Z</time>
      </trkpt>
      <trkpt lat="49.39956" lon="5.78009">
        <ele>296.79998779297</ele>
        <time>2022-09-13T11:54:02.000Z</time>
      </trkpt>
      <trkpt lat="49.39957" lon="5.78001">
        <ele>296.79998779297</ele>
        <time>2022-09-13T11:54:04.000Z</time>
      </trkpt>
      <trkpt lat="49.39959" lon="5.77993">
        <ele>296.60000610352</ele>
        <time>2022-09-13T11:54:07.000Z</time>
      </trkpt>
      <trkpt lat="49.39962" lon="5.77984">
        <ele>296.60000610352</ele>
        <time>2022-09-13T11:54:10.000Z</time>
      </trkpt>
      <trkpt lat="49.39963" lon="5.77981">
        <ele>296.60000610352</ele>
        <time>2022-09-13T11:54:11.000Z</time>
      </trkpt>
      <trkpt lat="49.39963" lon="5.77978">
        <ele>296.60000610352</ele>
        <time>2022-09-13T11:54:12.000Z</time>
      </trkpt>
      <trkpt lat="49.39964" lon="5.77967">
        <ele>296.60000610352</ele>
        <time>2022-09-13T11:54:15.000Z</time>
      </trkpt>
      <trkpt lat="49.39964" lon="5.77964">
        <ele>296.60000610352</ele>
        <time>2022-09-13T11:54:16.000Z</time>
      </trkpt>
      <trkpt lat="49.39965" lon="5.77961">
        <ele>296.60000610352</ele>
        <time>2022-09-13T11:54:17.000Z</time>
      </trkpt>
      <trkpt lat="49.39966" lon="5.77958">
        <ele>296.60000610352</ele>
        <time>2022-09-13T11:54:18.000Z</time>
      </trkpt>
      <trkpt lat="49.39967" lon="5.77954">
        <ele>296.60000610352</ele>
        <time>2022-09-13T11:54:19.000Z</time>
      </trkpt>
      <trkpt lat="49.39967" lon="5.77951">
        <ele>296.60000610352</ele>
        <time>2022-09-13T11:54:20.000Z</time>
      </trkpt>
      <trkpt lat="49.39968" lon="5.77948">
        <ele>296.79998779297</ele>
        <time>2022-09-13T11:54:21.000Z</time>
      </trkpt>
      <trkpt lat="49.39967" lon="5.77944">
        <ele>296.79998779297</ele>
        <time>2022-09-13T11:54:22.000Z</time>
      </trkpt>
      <trkpt lat="49.39966" lon="5.7794">
        <ele>296.79998779297</ele>
        <time>2022-09-13T11:54:23.000Z</time>
      </trkpt>
      <trkpt lat="49.39966" lon="5.77937">
        <ele>296.79998779297</ele>
        <time>2022-09-13T11:54:24.000Z</time>
      </trkpt>
      <trkpt lat="49.39967" lon="5.77929">
        <ele>297</ele>
        <time>2022-09-13T11:54:26.000Z</time>
      </trkpt>
      <trkpt lat="49.39967" lon="5.77924">
        <ele>297</ele>
        <time>2022-09-13T11:54:27.000Z</time>
      </trkpt>
      <trkpt lat="49.39966" lon="5.7792">
        <ele>297</ele>
        <time>2022-09-13T11:54:28.000Z</time>
      </trkpt>
      <trkpt lat="49.39967" lon="5.77916">
        <ele>297.20001220703</ele>
        <time>2022-09-13T11:54:29.000Z</time>
      </trkpt>
      <trkpt lat="49.39968" lon="5.77908">
        <ele>297.20001220703</ele>
        <time>2022-09-13T11:54:31.000Z</time>
      </trkpt>
      <trkpt lat="49.3997" lon="5.77883">
        <ele>297.20001220703</ele>
        <time>2022-09-13T11:54:36.000Z</time>
      </trkpt>
      <trkpt lat="49.39972" lon="5.77855">
        <ele>296.79998779297</ele>
        <time>2022-09-13T11:54:42.000Z</time>
      </trkpt>
      <trkpt lat="49.39972" lon="5.77851">
        <ele>297</ele>
        <time>2022-09-13T11:54:43.000Z</time>
      </trkpt>
      <trkpt lat="49.39972" lon="5.77847">
        <ele>297</ele>
        <time>2022-09-13T11:54:44.000Z</time>
      </trkpt>
      <trkpt lat="49.39972" lon="5.77842">
        <ele>297.20001220703</ele>
        <time>2022-09-13T11:54:45.000Z</time>
      </trkpt>
      <trkpt lat="49.39974" lon="5.77829">
        <ele>297.20001220703</ele>
        <time>2022-09-13T11:54:48.000Z</time>
      </trkpt>
      <trkpt lat="49.39975" lon="5.77815">
        <ele>297.39999389648</ele>
        <time>2022-09-13T11:54:51.000Z</time>
      </trkpt>
      <trkpt lat="49.39975" lon="5.77812">
        <ele>297.39999389648</ele>
        <time>2022-09-13T11:54:52.000Z</time>
      </trkpt>
      <trkpt lat="49.39975" lon="5.77804">
        <ele>297.60000610352</ele>
        <time>2022-09-13T11:54:54.000Z</time>
      </trkpt>
      <trkpt lat="49.39976" lon="5.778">
        <ele>297.60000610352</ele>
        <time>2022-09-13T11:54:55.000Z</time>
      </trkpt>
      <trkpt lat="49.39976" lon="5.77796">
        <ele>297.79998779297</ele>
        <time>2022-09-13T11:54:56.000Z</time>
      </trkpt>
      <trkpt lat="49.39976" lon="5.77793">
        <ele>297.79998779297</ele>
        <time>2022-09-13T11:54:57.000Z</time>
      </trkpt>
      <trkpt lat="49.39976" lon="5.77789">
        <ele>298.20001220703</ele>
        <time>2022-09-13T11:54:58.000Z</time>
      </trkpt>
      <trkpt lat="49.39976" lon="5.77785">
        <ele>298.39999389648</ele>
        <time>2022-09-13T11:54:59.000Z</time>
      </trkpt>
      <trkpt lat="49.39976" lon="5.77782">
        <ele>298.39999389648</ele>
        <time>2022-09-13T11:55:00.000Z</time>
      </trkpt>
      <trkpt lat="49.39975" lon="5.77778">
        <ele>298.39999389648</ele>
        <time>2022-09-13T11:55:01.000Z</time>
      </trkpt>
      <trkpt lat="49.39974" lon="5.77771">
        <ele>298.79998779297</ele>
        <time>2022-09-13T11:55:03.000Z</time>
      </trkpt>
      <trkpt lat="49.39976" lon="5.77767">
        <ele>298.79998779297</ele>
        <time>2022-09-13T11:55:04.000Z</time>
      </trkpt>
      <trkpt lat="49.39977" lon="5.77764">
        <ele>299</ele>
        <time>2022-09-13T11:55:05.000Z</time>
      </trkpt>
      <trkpt lat="49.39977" lon="5.77761">
        <ele>299.20001220703</ele>
        <time>2022-09-13T11:55:06.000Z</time>
      </trkpt>
      <trkpt lat="49.39979" lon="5.77756">
        <ele>299.20001220703</ele>
        <time>2022-09-13T11:55:07.000Z</time>
      </trkpt>
      <trkpt lat="49.39979" lon="5.77753">
        <ele>299.39999389648</ele>
        <time>2022-09-13T11:55:08.000Z</time>
      </trkpt>
      <trkpt lat="49.39981" lon="5.7775">
        <ele>299.39999389648</ele>
        <time>2022-09-13T11:55:09.000Z</time>
      </trkpt>
      <trkpt lat="49.39981" lon="5.77721">
        <ele>300.39999389648</ele>
        <time>2022-09-13T11:55:16.000Z</time>
      </trkpt>
      <trkpt lat="49.39981" lon="5.77717">
        <ele>300.79998779297</ele>
        <time>2022-09-13T11:55:17.000Z</time>
      </trkpt>
      <trkpt lat="49.39981" lon="5.77714">
        <ele>300.79998779297</ele>
        <time>2022-09-13T11:55:18.000Z</time>
      </trkpt>
      <trkpt lat="49.39981" lon="5.77711">
        <ele>300.79998779297</ele>
        <time>2022-09-13T11:55:19.000Z</time>
      </trkpt>
      <trkpt lat="49.39982" lon="5.77707">
        <ele>301</ele>
        <time>2022-09-13T11:55:20.000Z</time>
      </trkpt>
      <trkpt lat="49.39983" lon="5.77704">
        <ele>301.20001220703</ele>
        <time>2022-09-13T11:55:21.000Z</time>
      </trkpt>
      <trkpt lat="49.39983" lon="5.777">
        <ele>301.20001220703</ele>
        <time>2022-09-13T11:55:22.000Z</time>
      </trkpt>
      <trkpt lat="49.39984" lon="5.77697">
        <ele>301.39999389648</ele>
        <time>2022-09-13T11:55:23.000Z</time>
      </trkpt>
      <trkpt lat="49.39985" lon="5.77692">
        <ele>301.39999389648</ele>
        <time>2022-09-13T11:55:24.000Z</time>
      </trkpt>
      <trkpt lat="49.39984" lon="5.77686">
        <ele>301.39999389648</ele>
        <time>2022-09-13T11:55:25.000Z</time>
      </trkpt>
      <trkpt lat="49.39984" lon="5.77681">
        <ele>301.60000610352</ele>
        <time>2022-09-13T11:55:26.000Z</time>
      </trkpt>
      <trkpt lat="49.39983" lon="5.77677">
        <ele>301.60000610352</ele>
        <time>2022-09-13T11:55:27.000Z</time>
      </trkpt>
      <trkpt lat="49.39983" lon="5.77673">
        <ele>301.60000610352</ele>
        <time>2022-09-13T11:55:28.000Z</time>
      </trkpt>
      <trkpt lat="49.39983" lon="5.77669">
        <ele>301.60000610352</ele>
        <time>2022-09-13T11:55:29.000Z</time>
      </trkpt>
      <trkpt lat="49.39983" lon="5.77666">
        <ele>301.79998779297</ele>
        <time>2022-09-13T11:55:30.000Z</time>
      </trkpt>
      <trkpt lat="49.39982" lon="5.77661">
        <ele>301.79998779297</ele>
        <time>2022-09-13T11:55:31.000Z</time>
      </trkpt>
      <trkpt lat="49.39982" lon="5.77655">
        <ele>301.79998779297</ele>
        <time>2022-09-13T11:55:32.000Z</time>
      </trkpt>
      <trkpt lat="49.39983" lon="5.77649">
        <ele>302</ele>
        <time>2022-09-13T11:55:33.000Z</time>
      </trkpt>
      <trkpt lat="49.39984" lon="5.77643">
        <ele>302</ele>
        <time>2022-09-13T11:55:34.000Z</time>
      </trkpt>
      <trkpt lat="49.39984" lon="5.7764">
        <ele>302.20001220703</ele>
        <time>2022-09-13T11:55:35.000Z</time>
      </trkpt>
      <trkpt lat="49.39984" lon="5.77637">
        <ele>302.20001220703</ele>
        <time>2022-09-13T11:55:36.000Z</time>
      </trkpt>
      <trkpt lat="49.39984" lon="5.77633">
        <ele>302.39999389648</ele>
        <time>2022-09-13T11:55:37.000Z</time>
      </trkpt>
      <trkpt lat="49.39983" lon="5.77629">
        <ele>302.60000610352</ele>
        <time>2022-09-13T11:55:38.000Z</time>
      </trkpt>
      <trkpt lat="49.39982" lon="5.77623">
        <ele>302.79998779297</ele>
        <time>2022-09-13T11:55:39.000Z</time>
      </trkpt>
      <trkpt lat="49.39982" lon="5.77611">
        <ele>303.20001220703</ele>
        <time>2022-09-13T11:55:42.000Z</time>
      </trkpt>
      <trkpt lat="49.39982" lon="5.77608">
        <ele>303.39999389648</ele>
        <time>2022-09-13T11:55:43.000Z</time>
      </trkpt>
      <trkpt lat="49.39982" lon="5.77606">
        <ele>303.39999389648</ele>
        <time>2022-09-13T11:55:44.000Z</time>
      </trkpt>
      <trkpt lat="49.39983" lon="5.77602">
        <ele>303.60000610352</ele>
        <time>2022-09-13T11:55:45.000Z</time>
      </trkpt>
      <trkpt lat="49.39984" lon="5.77599">
        <ele>303.60000610352</ele>
        <time>2022-09-13T11:55:46.000Z</time>
      </trkpt>
      <trkpt lat="49.39985" lon="5.77595">
        <ele>303.60000610352</ele>
        <time>2022-09-13T11:55:47.000Z</time>
      </trkpt>
      <trkpt lat="49.39986" lon="5.77593">
        <ele>303.79998779297</ele>
        <time>2022-09-13T11:55:48.000Z</time>
      </trkpt>
      <trkpt lat="49.39987" lon="5.7759">
        <ele>304</ele>
        <time>2022-09-13T11:55:49.000Z</time>
      </trkpt>
      <trkpt lat="49.39988" lon="5.77588">
        <ele>304.20001220703</ele>
        <time>2022-09-13T11:55:50.000Z</time>
      </trkpt>
      <trkpt lat="49.3999" lon="5.77587">
        <ele>304.20001220703</ele>
        <time>2022-09-13T11:55:51.000Z</time>
      </trkpt>
      <trkpt lat="49.39992" lon="5.77586">
        <ele>304.39999389648</ele>
        <time>2022-09-13T11:55:52.000Z</time>
      </trkpt>
      <trkpt lat="49.39994" lon="5.77585">
        <ele>304.39999389648</ele>
        <time>2022-09-13T11:55:53.000Z</time>
      </trkpt>
      <trkpt lat="49.39997" lon="5.77584">
        <ele>304.79998779297</ele>
        <time>2022-09-13T11:55:54.000Z</time>
      </trkpt>
      <trkpt lat="49.39999" lon="5.77584">
        <ele>305</ele>
        <time>2022-09-13T11:55:55.000Z</time>
      </trkpt>
      <trkpt lat="49.40002" lon="5.77585">
        <ele>305.39999389648</ele>
        <time>2022-09-13T11:55:56.000Z</time>
      </trkpt>
      <trkpt lat="49.40006" lon="5.77586">
        <ele>305.79998779297</ele>
        <time>2022-09-13T11:55:57.000Z</time>
      </trkpt>
      <trkpt lat="49.4001" lon="5.77587">
        <ele>306</ele>
        <time>2022-09-13T11:55:58.000Z</time>
      </trkpt>
      <trkpt lat="49.40011" lon="5.77586">
        <ele>306.39999389648</ele>
        <time>2022-09-13T11:55:59.000Z</time>
      </trkpt>
      <trkpt lat="49.40014" lon="5.77585">
        <ele>306.39999389648</ele>
        <time>2022-09-13T11:56:00.000Z</time>
      </trkpt>
      <trkpt lat="49.40016" lon="5.77584">
        <ele>306.79998779297</ele>
        <time>2022-09-13T11:56:01.000Z</time>
      </trkpt>
      <trkpt lat="49.40018" lon="5.77584">
        <ele>307</ele>
        <time>2022-09-13T11:56:02.000Z</time>
      </trkpt>
      <trkpt lat="49.40021" lon="5.77583">
        <ele>307.20001220703</ele>
        <time>2022-09-13T11:56:03.000Z</time>
      </trkpt>
      <trkpt lat="49.40022" lon="5.77582">
        <ele>307.60000610352</ele>
        <time>2022-09-13T11:56:04.000Z</time>
      </trkpt>
      <trkpt lat="49.40024" lon="5.77581">
        <ele>307.79998779297</ele>
        <time>2022-09-13T11:56:05.000Z</time>
      </trkpt>
      <trkpt lat="49.40026" lon="5.77581">
        <ele>308.20001220703</ele>
        <time>2022-09-13T11:56:06.000Z</time>
      </trkpt>
      <trkpt lat="49.4003" lon="5.77581">
        <ele>308.20001220703</ele>
        <time>2022-09-13T11:56:07.000Z</time>
      </trkpt>
      <trkpt lat="49.40031" lon="5.77581">
        <ele>308.60000610352</ele>
        <time>2022-09-13T11:56:08.000Z</time>
      </trkpt>
      <trkpt lat="49.40033" lon="5.77581">
        <ele>308.60000610352</ele>
        <time>2022-09-13T11:56:09.000Z</time>
      </trkpt>
      <trkpt lat="49.40035" lon="5.77581">
        <ele>309</ele>
        <time>2022-09-13T11:56:10.000Z</time>
      </trkpt>
      <trkpt lat="49.40038" lon="5.77581">
        <ele>309</ele>
        <time>2022-09-13T11:56:11.000Z</time>
      </trkpt>
      <trkpt lat="49.40039" lon="5.77581">
        <ele>309.39999389648</ele>
        <time>2022-09-13T11:56:12.000Z</time>
      </trkpt>
      <trkpt lat="49.40041" lon="5.77581">
        <ele>309.60000610352</ele>
        <time>2022-09-13T11:56:13.000Z</time>
      </trkpt>
      <trkpt lat="49.40045" lon="5.77581">
        <ele>309.79998779297</ele>
        <time>2022-09-13T11:56:14.000Z</time>
      </trkpt>
      <trkpt lat="49.40049" lon="5.77581">
        <ele>310</ele>
        <time>2022-09-13T11:56:15.000Z</time>
      </trkpt>
      <trkpt lat="49.40051" lon="5.7758">
        <ele>310</ele>
        <time>2022-09-13T11:56:16.000Z</time>
      </trkpt>
      <trkpt lat="49.40053" lon="5.77581">
        <ele>310.20001220703</ele>
        <time>2022-09-13T11:56:17.000Z</time>
      </trkpt>
      <trkpt lat="49.40056" lon="5.77581">
        <ele>310.39999389648</ele>
        <time>2022-09-13T11:56:18.000Z</time>
      </trkpt>
      <trkpt lat="49.40059" lon="5.77581">
        <ele>310.60000610352</ele>
        <time>2022-09-13T11:56:19.000Z</time>
      </trkpt>
      <trkpt lat="49.40063" lon="5.7758">
        <ele>310.79998779297</ele>
        <time>2022-09-13T11:56:20.000Z</time>
      </trkpt>
      <trkpt lat="49.40065" lon="5.77579">
        <ele>310.79998779297</ele>
        <time>2022-09-13T11:56:21.000Z</time>
      </trkpt>
      <trkpt lat="49.40067" lon="5.77579">
        <ele>310.79998779297</ele>
        <time>2022-09-13T11:56:22.000Z</time>
      </trkpt>
      <trkpt lat="49.40071" lon="5.77579">
        <ele>310.79998779297</ele>
        <time>2022-09-13T11:56:23.000Z</time>
      </trkpt>
      <trkpt lat="49.40075" lon="5.77578">
        <ele>310.79998779297</ele>
        <time>2022-09-13T11:56:24.000Z</time>
      </trkpt>
      <trkpt lat="49.40078" lon="5.77577">
        <ele>310.79998779297</ele>
        <time>2022-09-13T11:56:25.000Z</time>
      </trkpt>
      <trkpt lat="49.4008" lon="5.77574">
        <ele>311</ele>
        <time>2022-09-13T11:56:26.000Z</time>
      </trkpt>
      <trkpt lat="49.40081" lon="5.77573">
        <ele>311.39999389648</ele>
        <time>2022-09-13T11:56:27.000Z</time>
      </trkpt>
      <trkpt lat="49.40084" lon="5.77571">
        <ele>311.39999389648</ele>
        <time>2022-09-13T11:56:28.000Z</time>
      </trkpt>
      <trkpt lat="49.40086" lon="5.77569">
        <ele>312</ele>
        <time>2022-09-13T11:56:29.000Z</time>
      </trkpt>
      <trkpt lat="49.40089" lon="5.77568">
        <ele>312.20001220703</ele>
        <time>2022-09-13T11:56:30.000Z</time>
      </trkpt>
      <trkpt lat="49.40091" lon="5.77568">
        <ele>312.60000610352</ele>
        <time>2022-09-13T11:56:31.000Z</time>
      </trkpt>
      <trkpt lat="49.40094" lon="5.77567">
        <ele>312.79998779297</ele>
        <time>2022-09-13T11:56:32.000Z</time>
      </trkpt>
      <trkpt lat="49.40097" lon="5.77567">
        <ele>313</ele>
        <time>2022-09-13T11:56:33.000Z</time>
      </trkpt>
      <trkpt lat="49.401" lon="5.77567">
        <ele>313</ele>
        <time>2022-09-13T11:56:34.000Z</time>
      </trkpt>
      <trkpt lat="49.40103" lon="5.77567">
        <ele>313.20001220703</ele>
        <time>2022-09-13T11:56:35.000Z</time>
      </trkpt>
      <trkpt lat="49.40106" lon="5.77567">
        <ele>313.20001220703</ele>
        <time>2022-09-13T11:56:36.000Z</time>
      </trkpt>
      <trkpt lat="49.40108" lon="5.77566">
        <ele>313.20001220703</ele>
        <time>2022-09-13T11:56:37.000Z</time>
      </trkpt>
      <trkpt lat="49.40111" lon="5.77566">
        <ele>313.20001220703</ele>
        <time>2022-09-13T11:56:38.000Z</time>
      </trkpt>
      <trkpt lat="49.40114" lon="5.77566">
        <ele>313.20001220703</ele>
        <time>2022-09-13T11:56:39.000Z</time>
      </trkpt>
      <trkpt lat="49.40117" lon="5.77566">
        <ele>313.20001220703</ele>
        <time>2022-09-13T11:56:40.000Z</time>
      </trkpt>
      <trkpt lat="49.40119" lon="5.77566">
        <ele>313.79998779297</ele>
        <time>2022-09-13T11:56:41.000Z</time>
      </trkpt>
      <trkpt lat="49.40122" lon="5.77566">
        <ele>313.79998779297</ele>
        <time>2022-09-13T11:56:42.000Z</time>
      </trkpt>
      <trkpt lat="49.40125" lon="5.77566">
        <ele>314</ele>
        <time>2022-09-13T11:56:43.000Z</time>
      </trkpt>
      <trkpt lat="49.40128" lon="5.77565">
        <ele>314</ele>
        <time>2022-09-13T11:56:44.000Z</time>
      </trkpt>
      <trkpt lat="49.40132" lon="5.77565">
        <ele>314</ele>
        <time>2022-09-13T11:56:45.000Z</time>
      </trkpt>
      <trkpt lat="49.40134" lon="5.77565">
        <ele>314.20001220703</ele>
        <time>2022-09-13T11:56:46.000Z</time>
      </trkpt>
      <trkpt lat="49.40138" lon="5.77564">
        <ele>314.20001220703</ele>
        <time>2022-09-13T11:56:47.000Z</time>
      </trkpt>
      <trkpt lat="49.40141" lon="5.77564">
        <ele>314.20001220703</ele>
        <time>2022-09-13T11:56:48.000Z</time>
      </trkpt>
      <trkpt lat="49.40145" lon="5.77564">
        <ele>314.20001220703</ele>
        <time>2022-09-13T11:56:49.000Z</time>
      </trkpt>
      <trkpt lat="49.40149" lon="5.77563">
        <ele>314.20001220703</ele>
        <time>2022-09-13T11:56:50.000Z</time>
      </trkpt>
      <trkpt lat="49.40152" lon="5.77563">
        <ele>314.20001220703</ele>
        <time>2022-09-13T11:56:51.000Z</time>
      </trkpt>
      <trkpt lat="49.40155" lon="5.77563">
        <ele>314.20001220703</ele>
        <time>2022-09-13T11:56:52.000Z</time>
      </trkpt>
      <trkpt lat="49.4016" lon="5.77562">
        <ele>314.20001220703</ele>
        <time>2022-09-13T11:56:53.000Z</time>
      </trkpt>
      <trkpt lat="49.40163" lon="5.77562">
        <ele>314.39999389648</ele>
        <time>2022-09-13T11:56:54.000Z</time>
      </trkpt>
      <trkpt lat="49.40167" lon="5.77561">
        <ele>314.39999389648</ele>
        <time>2022-09-13T11:56:55.000Z</time>
      </trkpt>
      <trkpt lat="49.40169" lon="5.77561">
        <ele>314.39999389648</ele>
        <time>2022-09-13T11:56:56.000Z</time>
      </trkpt>
      <trkpt lat="49.40181" lon="5.77561">
        <ele>315.20001220703</ele>
        <time>2022-09-13T11:56:59.000Z</time>
      </trkpt>
      <trkpt lat="49.40187" lon="5.7756">
        <ele>315.60000610352</ele>
        <time>2022-09-13T11:57:01.000Z</time>
      </trkpt>
      <trkpt lat="49.40216" lon="5.77561">
        <ele>315.79998779297</ele>
        <time>2022-09-13T11:57:09.000Z</time>
      </trkpt>
      <trkpt lat="49.40229" lon="5.77566">
        <ele>316.39999389648</ele>
        <time>2022-09-13T11:57:13.000Z</time>
      </trkpt>
      <trkpt lat="49.40238" lon="5.77572">
        <ele>317</ele>
        <time>2022-09-13T11:57:16.000Z</time>
      </trkpt>
      <trkpt lat="49.40241" lon="5.77574">
        <ele>317.20001220703</ele>
        <time>2022-09-13T11:57:17.000Z</time>
      </trkpt>
      <trkpt lat="49.40244" lon="5.77576">
        <ele>317.39999389648</ele>
        <time>2022-09-13T11:57:18.000Z</time>
      </trkpt>
      <trkpt lat="49.40248" lon="5.77578">
        <ele>317.39999389648</ele>
        <time>2022-09-13T11:57:19.000Z</time>
      </trkpt>
      <trkpt lat="49.4025" lon="5.77579">
        <ele>317.79998779297</ele>
        <time>2022-09-13T11:57:20.000Z</time>
      </trkpt>
      <trkpt lat="49.40254" lon="5.77581">
        <ele>317.79998779297</ele>
        <time>2022-09-13T11:57:21.000Z</time>
      </trkpt>
      <trkpt lat="49.40257" lon="5.77584">
        <ele>317.79998779297</ele>
        <time>2022-09-13T11:57:22.000Z</time>
      </trkpt>
      <trkpt lat="49.4026" lon="5.77585">
        <ele>318</ele>
        <time>2022-09-13T11:57:23.000Z</time>
      </trkpt>
      <trkpt lat="49.40263" lon="5.77587">
        <ele>318</ele>
        <time>2022-09-13T11:57:24.000Z</time>
      </trkpt>
      <trkpt lat="49.40266" lon="5.77588">
        <ele>318.20001220703</ele>
        <time>2022-09-13T11:57:25.000Z</time>
      </trkpt>
      <trkpt lat="49.40269" lon="5.7759">
        <ele>318.39999389648</ele>
        <time>2022-09-13T11:57:26.000Z</time>
      </trkpt>
      <trkpt lat="49.40272" lon="5.77592">
        <ele>318.39999389648</ele>
        <time>2022-09-13T11:57:27.000Z</time>
      </trkpt>
      <trkpt lat="49.40276" lon="5.77594">
        <ele>318.60000610352</ele>
        <time>2022-09-13T11:57:28.000Z</time>
      </trkpt>
      <trkpt lat="49.40279" lon="5.77595">
        <ele>318.60000610352</ele>
        <time>2022-09-13T11:57:29.000Z</time>
      </trkpt>
      <trkpt lat="49.40282" lon="5.77597">
        <ele>318.79998779297</ele>
        <time>2022-09-13T11:57:30.000Z</time>
      </trkpt>
      <trkpt lat="49.40285" lon="5.77598">
        <ele>318.79998779297</ele>
        <time>2022-09-13T11:57:31.000Z</time>
      </trkpt>
      <trkpt lat="49.40288" lon="5.776">
        <ele>319</ele>
        <time>2022-09-13T11:57:32.000Z</time>
      </trkpt>
      <trkpt lat="49.40292" lon="5.77602">
        <ele>319.20001220703</ele>
        <time>2022-09-13T11:57:33.000Z</time>
      </trkpt>
      <trkpt lat="49.40296" lon="5.77604">
        <ele>319.20001220703</ele>
        <time>2022-09-13T11:57:34.000Z</time>
      </trkpt>
      <trkpt lat="49.40298" lon="5.77606">
        <ele>319.39999389648</ele>
        <time>2022-09-13T11:57:35.000Z</time>
      </trkpt>
      <trkpt lat="49.40302" lon="5.77608">
        <ele>319.60000610352</ele>
        <time>2022-09-13T11:57:36.000Z</time>
      </trkpt>
      <trkpt lat="49.40305" lon="5.77609">
        <ele>319.60000610352</ele>
        <time>2022-09-13T11:57:37.000Z</time>
      </trkpt>
      <trkpt lat="49.40309" lon="5.77612">
        <ele>319.79998779297</ele>
        <time>2022-09-13T11:57:38.000Z</time>
      </trkpt>
      <trkpt lat="49.40312" lon="5.77613">
        <ele>319.79998779297</ele>
        <time>2022-09-13T11:57:39.000Z</time>
      </trkpt>
      <trkpt lat="49.40315" lon="5.77615">
        <ele>319.79998779297</ele>
        <time>2022-09-13T11:57:40.000Z</time>
      </trkpt>
      <trkpt lat="49.40318" lon="5.77617">
        <ele>320.20001220703</ele>
        <time>2022-09-13T11:57:41.000Z</time>
      </trkpt>
      <trkpt lat="49.40322" lon="5.77619">
        <ele>320.60000610352</ele>
        <time>2022-09-13T11:57:42.000Z</time>
      </trkpt>
      <trkpt lat="49.40325" lon="5.77621">
        <ele>321</ele>
        <time>2022-09-13T11:57:43.000Z</time>
      </trkpt>
      <trkpt lat="49.40328" lon="5.77622">
        <ele>321.20001220703</ele>
        <time>2022-09-13T11:57:44.000Z</time>
      </trkpt>
      <trkpt lat="49.40331" lon="5.77624">
        <ele>321.39999389648</ele>
        <time>2022-09-13T11:57:45.000Z</time>
      </trkpt>
      <trkpt lat="49.40334" lon="5.77626">
        <ele>321.39999389648</ele>
        <time>2022-09-13T11:57:46.000Z</time>
      </trkpt>
      <trkpt lat="49.40337" lon="5.77628">
        <ele>321.60000610352</ele>
        <time>2022-09-13T11:57:47.000Z</time>
      </trkpt>
      <trkpt lat="49.40341" lon="5.7763">
        <ele>321.60000610352</ele>
        <time>2022-09-13T11:57:48.000Z</time>
      </trkpt>
      <trkpt lat="49.40343" lon="5.77631">
        <ele>321.79998779297</ele>
        <time>2022-09-13T11:57:49.000Z</time>
      </trkpt>
      <trkpt lat="49.40346" lon="5.77632">
        <ele>321.79998779297</ele>
        <time>2022-09-13T11:57:50.000Z</time>
      </trkpt>
      <trkpt lat="49.40348" lon="5.77634">
        <ele>321.79998779297</ele>
        <time>2022-09-13T11:57:51.000Z</time>
      </trkpt>
      <trkpt lat="49.40351" lon="5.77636">
        <ele>322.20001220703</ele>
        <time>2022-09-13T11:57:52.000Z</time>
      </trkpt>
      <trkpt lat="49.40354" lon="5.77638">
        <ele>322.20001220703</ele>
        <time>2022-09-13T11:57:53.000Z</time>
      </trkpt>
      <trkpt lat="49.40357" lon="5.77639">
        <ele>322.39999389648</ele>
        <time>2022-09-13T11:57:54.000Z</time>
      </trkpt>
      <trkpt lat="49.4036" lon="5.77641">
        <ele>322.79998779297</ele>
        <time>2022-09-13T11:57:55.000Z</time>
      </trkpt>
      <trkpt lat="49.40363" lon="5.77644">
        <ele>323</ele>
        <time>2022-09-13T11:57:56.000Z</time>
      </trkpt>
      <trkpt lat="49.40365" lon="5.77646">
        <ele>323.39999389648</ele>
        <time>2022-09-13T11:57:57.000Z</time>
      </trkpt>
      <trkpt lat="49.40368" lon="5.77648">
        <ele>323.60000610352</ele>
        <time>2022-09-13T11:57:58.000Z</time>
      </trkpt>
      <trkpt lat="49.40371" lon="5.77649">
        <ele>323.79998779297</ele>
        <time>2022-09-13T11:57:59.000Z</time>
      </trkpt>
      <trkpt lat="49.40374" lon="5.77651">
        <ele>324</ele>
        <time>2022-09-13T11:58:00.000Z</time>
      </trkpt>
      <trkpt lat="49.40378" lon="5.77651">
        <ele>324.39999389648</ele>
        <time>2022-09-13T11:58:01.000Z</time>
      </trkpt>
      <trkpt lat="49.40381" lon="5.77651">
        <ele>324.79998779297</ele>
        <time>2022-09-13T11:58:02.000Z</time>
      </trkpt>
      <trkpt lat="49.40384" lon="5.7765">
        <ele>325</ele>
        <time>2022-09-13T11:58:03.000Z</time>
      </trkpt>
      <trkpt lat="49.40387" lon="5.77648">
        <ele>325.20001220703</ele>
        <time>2022-09-13T11:58:04.000Z</time>
      </trkpt>
      <trkpt lat="49.4039" lon="5.77646">
        <ele>325.20001220703</ele>
        <time>2022-09-13T11:58:05.000Z</time>
      </trkpt>
      <trkpt lat="49.40394" lon="5.77642">
        <ele>325.39999389648</ele>
        <time>2022-09-13T11:58:06.000Z</time>
      </trkpt>
      <trkpt lat="49.40397" lon="5.77638">
        <ele>325.39999389648</ele>
        <time>2022-09-13T11:58:07.000Z</time>
      </trkpt>
      <trkpt lat="49.404" lon="5.77635">
        <ele>325.60000610352</ele>
        <time>2022-09-13T11:58:08.000Z</time>
      </trkpt>
      <trkpt lat="49.40402" lon="5.77632">
        <ele>325.60000610352</ele>
        <time>2022-09-13T11:58:09.000Z</time>
      </trkpt>
      <trkpt lat="49.40405" lon="5.77629">
        <ele>325.79998779297</ele>
        <time>2022-09-13T11:58:10.000Z</time>
      </trkpt>
      <trkpt lat="49.40409" lon="5.77624">
        <ele>325.79998779297</ele>
        <time>2022-09-13T11:58:11.000Z</time>
      </trkpt>
      <trkpt lat="49.40412" lon="5.7762">
        <ele>326</ele>
        <time>2022-09-13T11:58:12.000Z</time>
      </trkpt>
      <trkpt lat="49.40415" lon="5.77616">
        <ele>326</ele>
        <time>2022-09-13T11:58:13.000Z</time>
      </trkpt>
      <trkpt lat="49.40418" lon="5.77613">
        <ele>326</ele>
        <time>2022-09-13T11:58:14.000Z</time>
      </trkpt>
      <trkpt lat="49.40422" lon="5.77609">
        <ele>326.20001220703</ele>
        <time>2022-09-13T11:58:15.000Z</time>
      </trkpt>
      <trkpt lat="49.40426" lon="5.77605">
        <ele>326.20001220703</ele>
        <time>2022-09-13T11:58:16.000Z</time>
      </trkpt>
      <trkpt lat="49.40429" lon="5.77601">
        <ele>326.20001220703</ele>
        <time>2022-09-13T11:58:17.000Z</time>
      </trkpt>
      <trkpt lat="49.40433" lon="5.77597">
        <ele>326.20001220703</ele>
        <time>2022-09-13T11:58:18.000Z</time>
      </trkpt>
      <trkpt lat="49.40436" lon="5.77594">
        <ele>326.20001220703</ele>
        <time>2022-09-13T11:58:19.000Z</time>
      </trkpt>
      <trkpt lat="49.4044" lon="5.7759">
        <ele>326.20001220703</ele>
        <time>2022-09-13T11:58:20.000Z</time>
      </trkpt>
      <trkpt lat="49.40444" lon="5.77586">
        <ele>326.20001220703</ele>
        <time>2022-09-13T11:58:21.000Z</time>
      </trkpt>
      <trkpt lat="49.40448" lon="5.77582">
        <ele>326.20001220703</ele>
        <time>2022-09-13T11:58:22.000Z</time>
      </trkpt>
      <trkpt lat="49.40451" lon="5.77578">
        <ele>326.39999389648</ele>
        <time>2022-09-13T11:58:23.000Z</time>
      </trkpt>
      <trkpt lat="49.40454" lon="5.77575">
        <ele>326.60000610352</ele>
        <time>2022-09-13T11:58:24.000Z</time>
      </trkpt>
      <trkpt lat="49.40458" lon="5.77572">
        <ele>326.60000610352</ele>
        <time>2022-09-13T11:58:25.000Z</time>
      </trkpt>
      <trkpt lat="49.40462" lon="5.77567">
        <ele>326.60000610352</ele>
        <time>2022-09-13T11:58:26.000Z</time>
      </trkpt>
      <trkpt lat="49.40466" lon="5.77563">
        <ele>326.79998779297</ele>
        <time>2022-09-13T11:58:27.000Z</time>
      </trkpt>
      <trkpt lat="49.40472" lon="5.77556">
        <ele>327</ele>
        <time>2022-09-13T11:58:29.000Z</time>
      </trkpt>
      <trkpt lat="49.40486" lon="5.77541">
        <ele>327.60000610352</ele>
        <time>2022-09-13T11:58:33.000Z</time>
      </trkpt>
      <trkpt lat="49.40489" lon="5.77538">
        <ele>327.79998779297</ele>
        <time>2022-09-13T11:58:34.000Z</time>
      </trkpt>
      <trkpt lat="49.40496" lon="5.7753">
        <ele>328</ele>
        <time>2022-09-13T11:58:36.000Z</time>
      </trkpt>
      <trkpt lat="49.405" lon="5.77526">
        <ele>328.20001220703</ele>
        <time>2022-09-13T11:58:37.000Z</time>
      </trkpt>
      <trkpt lat="49.40506" lon="5.77519">
        <ele>328.39999389648</ele>
        <time>2022-09-13T11:58:39.000Z</time>
      </trkpt>
      <trkpt lat="49.40514" lon="5.77511">
        <ele>328.60000610352</ele>
        <time>2022-09-13T11:58:41.000Z</time>
      </trkpt>
      <trkpt lat="49.40518" lon="5.77507">
        <ele>328.60000610352</ele>
        <time>2022-09-13T11:58:42.000Z</time>
      </trkpt>
      <trkpt lat="49.40522" lon="5.77504">
        <ele>329</ele>
        <time>2022-09-13T11:58:43.000Z</time>
      </trkpt>
      <trkpt lat="49.40525" lon="5.77501">
        <ele>329</ele>
        <time>2022-09-13T11:58:44.000Z</time>
      </trkpt>
      <trkpt lat="49.40529" lon="5.77497">
        <ele>329.20001220703</ele>
        <time>2022-09-13T11:58:45.000Z</time>
      </trkpt>
      <trkpt lat="49.40532" lon="5.77493">
        <ele>329.39999389648</ele>
        <time>2022-09-13T11:58:46.000Z</time>
      </trkpt>
      <trkpt lat="49.40536" lon="5.77489">
        <ele>329.39999389648</ele>
        <time>2022-09-13T11:58:47.000Z</time>
      </trkpt>
      <trkpt lat="49.40539" lon="5.77486">
        <ele>329.60000610352</ele>
        <time>2022-09-13T11:58:48.000Z</time>
      </trkpt>
      <trkpt lat="49.40542" lon="5.77482">
        <ele>329.60000610352</ele>
        <time>2022-09-13T11:58:49.000Z</time>
      </trkpt>
      <trkpt lat="49.40546" lon="5.77478">
        <ele>329.79998779297</ele>
        <time>2022-09-13T11:58:50.000Z</time>
      </trkpt>
      <trkpt lat="49.4055" lon="5.77474">
        <ele>330</ele>
        <time>2022-09-13T11:58:51.000Z</time>
      </trkpt>
      <trkpt lat="49.40554" lon="5.7747">
        <ele>330.20001220703</ele>
        <time>2022-09-13T11:58:52.000Z</time>
      </trkpt>
      <trkpt lat="49.40557" lon="5.77467">
        <ele>330.39999389648</ele>
        <time>2022-09-13T11:58:53.000Z</time>
      </trkpt>
      <trkpt lat="49.4056" lon="5.77463">
        <ele>330.60000610352</ele>
        <time>2022-09-13T11:58:54.000Z</time>
      </trkpt>
      <trkpt lat="49.40565" lon="5.77459">
        <ele>330.79998779297</ele>
        <time>2022-09-13T11:58:55.000Z</time>
      </trkpt>
      <trkpt lat="49.40569" lon="5.77455">
        <ele>331</ele>
        <time>2022-09-13T11:58:56.000Z</time>
      </trkpt>
      <trkpt lat="49.40573" lon="5.77451">
        <ele>331.20001220703</ele>
        <time>2022-09-13T11:58:57.000Z</time>
      </trkpt>
      <trkpt lat="49.40576" lon="5.77448">
        <ele>331.20001220703</ele>
        <time>2022-09-13T11:58:58.000Z</time>
      </trkpt>
      <trkpt lat="49.40581" lon="5.77442">
        <ele>331.39999389648</ele>
        <time>2022-09-13T11:58:59.000Z</time>
      </trkpt>
      <trkpt lat="49.40586" lon="5.77438">
        <ele>331.39999389648</ele>
        <time>2022-09-13T11:59:00.000Z</time>
      </trkpt>
      <trkpt lat="49.4059" lon="5.77434">
        <ele>331.60000610352</ele>
        <time>2022-09-13T11:59:01.000Z</time>
      </trkpt>
      <trkpt lat="49.40594" lon="5.77431">
        <ele>331.60000610352</ele>
        <time>2022-09-13T11:59:02.000Z</time>
      </trkpt>
      <trkpt lat="49.40598" lon="5.77427">
        <ele>331.60000610352</ele>
        <time>2022-09-13T11:59:03.000Z</time>
      </trkpt>
      <trkpt lat="49.40603" lon="5.77422">
        <ele>331.79998779297</ele>
        <time>2022-09-13T11:59:04.000Z</time>
      </trkpt>
      <trkpt lat="49.40607" lon="5.77418">
        <ele>331.79998779297</ele>
        <time>2022-09-13T11:59:05.000Z</time>
      </trkpt>
      <trkpt lat="49.40612" lon="5.77413">
        <ele>331.79998779297</ele>
        <time>2022-09-13T11:59:06.000Z</time>
      </trkpt>
      <trkpt lat="49.40616" lon="5.77408">
        <ele>331.79998779297</ele>
        <time>2022-09-13T11:59:07.000Z</time>
      </trkpt>
      <trkpt lat="49.40621" lon="5.77404">
        <ele>331.79998779297</ele>
        <time>2022-09-13T11:59:08.000Z</time>
      </trkpt>
      <trkpt lat="49.40625" lon="5.77399">
        <ele>331.79998779297</ele>
        <time>2022-09-13T11:59:09.000Z</time>
      </trkpt>
      <trkpt lat="49.40629" lon="5.77395">
        <ele>331.79998779297</ele>
        <time>2022-09-13T11:59:10.000Z</time>
      </trkpt>
      <trkpt lat="49.40633" lon="5.77391">
        <ele>332</ele>
        <time>2022-09-13T11:59:11.000Z</time>
      </trkpt>
      <trkpt lat="49.40636" lon="5.77387">
        <ele>332</ele>
        <time>2022-09-13T11:59:12.000Z</time>
      </trkpt>
      <trkpt lat="49.4064" lon="5.77383">
        <ele>332</ele>
        <time>2022-09-13T11:59:13.000Z</time>
      </trkpt>
      <trkpt lat="49.40645" lon="5.77378">
        <ele>332</ele>
        <time>2022-09-13T11:59:14.000Z</time>
      </trkpt>
      <trkpt lat="49.40684" lon="5.77339">
        <ele>332.39999389648</ele>
        <time>2022-09-13T11:59:23.000Z</time>
      </trkpt>
      <trkpt lat="49.40688" lon="5.77335">
        <ele>332.39999389648</ele>
        <time>2022-09-13T11:59:24.000Z</time>
      </trkpt>
      <trkpt lat="49.40692" lon="5.7733">
        <ele>332.60000610352</ele>
        <time>2022-09-13T11:59:25.000Z</time>
      </trkpt>
      <trkpt lat="49.40709" lon="5.77313">
        <ele>332.79998779297</ele>
        <time>2022-09-13T11:59:29.000Z</time>
      </trkpt>
      <trkpt lat="49.40717" lon="5.77305">
        <ele>332.79998779297</ele>
        <time>2022-09-13T11:59:31.000Z</time>
      </trkpt>
      <trkpt lat="49.40729" lon="5.77292">
        <ele>333.20001220703</ele>
        <time>2022-09-13T11:59:34.000Z</time>
      </trkpt>
      <trkpt lat="49.40732" lon="5.77288">
        <ele>333.39999389648</ele>
        <time>2022-09-13T11:59:35.000Z</time>
      </trkpt>
      <trkpt lat="49.4074" lon="5.77281">
        <ele>333.60000610352</ele>
        <time>2022-09-13T11:59:37.000Z</time>
      </trkpt>
      <trkpt lat="49.40744" lon="5.77277">
        <ele>333.60000610352</ele>
        <time>2022-09-13T11:59:38.000Z</time>
      </trkpt>
      <trkpt lat="49.40748" lon="5.77273">
        <ele>333.79998779297</ele>
        <time>2022-09-13T11:59:39.000Z</time>
      </trkpt>
      <trkpt lat="49.40751" lon="5.7727">
        <ele>333.79998779297</ele>
        <time>2022-09-13T11:59:40.000Z</time>
      </trkpt>
      <trkpt lat="49.40754" lon="5.77267">
        <ele>334</ele>
        <time>2022-09-13T11:59:41.000Z</time>
      </trkpt>
      <trkpt lat="49.40758" lon="5.77264">
        <ele>334</ele>
        <time>2022-09-13T11:59:42.000Z</time>
      </trkpt>
      <trkpt lat="49.40761" lon="5.77259">
        <ele>334</ele>
        <time>2022-09-13T11:59:43.000Z</time>
      </trkpt>
      <trkpt lat="49.40764" lon="5.77255">
        <ele>334</ele>
        <time>2022-09-13T11:59:44.000Z</time>
      </trkpt>
      <trkpt lat="49.40767" lon="5.7725">
        <ele>334</ele>
        <time>2022-09-13T11:59:45.000Z</time>
      </trkpt>
      <trkpt lat="49.40768" lon="5.77246">
        <ele>334</ele>
        <time>2022-09-13T11:59:46.000Z</time>
      </trkpt>
      <trkpt lat="49.4077" lon="5.77241">
        <ele>334</ele>
        <time>2022-09-13T11:59:47.000Z</time>
      </trkpt>
      <trkpt lat="49.40771" lon="5.77233">
        <ele>334</ele>
        <time>2022-09-13T11:59:48.000Z</time>
      </trkpt>
      <trkpt lat="49.40771" lon="5.77227">
        <ele>334</ele>
        <time>2022-09-13T11:59:49.000Z</time>
      </trkpt>
      <trkpt lat="49.40772" lon="5.7722">
        <ele>334</ele>
        <time>2022-09-13T11:59:50.000Z</time>
      </trkpt>
      <trkpt lat="49.40772" lon="5.77215">
        <ele>334</ele>
        <time>2022-09-13T11:59:51.000Z</time>
      </trkpt>
      <trkpt lat="49.40773" lon="5.77157">
        <ele>334.39999389648</ele>
        <time>2022-09-13T11:59:59.000Z</time>
      </trkpt>
      <trkpt lat="49.40774" lon="5.77105">
        <ele>334.39999389648</ele>
        <time>2022-09-13T12:00:06.000Z</time>
      </trkpt>
      <trkpt lat="49.40775" lon="5.77083">
        <ele>334.39999389648</ele>
        <time>2022-09-13T12:00:09.000Z</time>
      </trkpt>
      <trkpt lat="49.40777" lon="5.77032">
        <ele>333.20001220703</ele>
        <time>2022-09-13T12:00:16.000Z</time>
      </trkpt>
      <trkpt lat="49.40777" lon="5.77025">
        <ele>333</ele>
        <time>2022-09-13T12:00:17.000Z</time>
      </trkpt>
      <trkpt lat="49.40777" lon="5.77018">
        <ele>332.79998779297</ele>
        <time>2022-09-13T12:00:18.000Z</time>
      </trkpt>
      <trkpt lat="49.40774" lon="5.77005">
        <ele>332.79998779297</ele>
        <time>2022-09-13T12:00:20.000Z</time>
      </trkpt>
      <trkpt lat="49.40772" lon="5.76999">
        <ele>332.79998779297</ele>
        <time>2022-09-13T12:00:21.000Z</time>
      </trkpt>
      <trkpt lat="49.40769" lon="5.76993">
        <ele>332.79998779297</ele>
        <time>2022-09-13T12:00:22.000Z</time>
      </trkpt>
      <trkpt lat="49.40765" lon="5.76987">
        <ele>332.60000610352</ele>
        <time>2022-09-13T12:00:23.000Z</time>
      </trkpt>
      <trkpt lat="49.40761" lon="5.76982">
        <ele>332.60000610352</ele>
        <time>2022-09-13T12:00:24.000Z</time>
      </trkpt>
      <trkpt lat="49.40756" lon="5.76975">
        <ele>332.60000610352</ele>
        <time>2022-09-13T12:00:25.000Z</time>
      </trkpt>
      <trkpt lat="49.40753" lon="5.76968">
        <ele>332.60000610352</ele>
        <time>2022-09-13T12:00:26.000Z</time>
      </trkpt>
      <trkpt lat="49.40751" lon="5.76961">
        <ele>332.60000610352</ele>
        <time>2022-09-13T12:00:27.000Z</time>
      </trkpt>
      <trkpt lat="49.40751" lon="5.76953">
        <ele>332.60000610352</ele>
        <time>2022-09-13T12:00:28.000Z</time>
      </trkpt>
      <trkpt lat="49.40752" lon="5.76946">
        <ele>332.39999389648</ele>
        <time>2022-09-13T12:00:29.000Z</time>
      </trkpt>
      <trkpt lat="49.40755" lon="5.76939">
        <ele>332.20001220703</ele>
        <time>2022-09-13T12:00:30.000Z</time>
      </trkpt>
      <trkpt lat="49.40759" lon="5.76934">
        <ele>332</ele>
        <time>2022-09-13T12:00:31.000Z</time>
      </trkpt>
      <trkpt lat="49.40769" lon="5.76926">
        <ele>331.20001220703</ele>
        <time>2022-09-13T12:00:33.000Z</time>
      </trkpt>
      <trkpt lat="49.40773" lon="5.76922">
        <ele>330.79998779297</ele>
        <time>2022-09-13T12:00:34.000Z</time>
      </trkpt>
      <trkpt lat="49.40777" lon="5.76919">
        <ele>330.60000610352</ele>
        <time>2022-09-13T12:00:35.000Z</time>
      </trkpt>
      <trkpt lat="49.40781" lon="5.76917">
        <ele>330.60000610352</ele>
        <time>2022-09-13T12:00:36.000Z</time>
      </trkpt>
      <trkpt lat="49.40785" lon="5.76914">
        <ele>330.39999389648</ele>
        <time>2022-09-13T12:00:37.000Z</time>
      </trkpt>
      <trkpt lat="49.40789" lon="5.76911">
        <ele>330.39999389648</ele>
        <time>2022-09-13T12:00:38.000Z</time>
      </trkpt>
      <trkpt lat="49.40793" lon="5.76908">
        <ele>330.39999389648</ele>
        <time>2022-09-13T12:00:39.000Z</time>
      </trkpt>
      <trkpt lat="49.40796" lon="5.76905">
        <ele>330.39999389648</ele>
        <time>2022-09-13T12:00:40.000Z</time>
      </trkpt>
      <trkpt lat="49.40803" lon="5.76898">
        <ele>330.39999389648</ele>
        <time>2022-09-13T12:00:42.000Z</time>
      </trkpt>
      <trkpt lat="49.40806" lon="5.76894">
        <ele>330.39999389648</ele>
        <time>2022-09-13T12:00:43.000Z</time>
      </trkpt>
      <trkpt lat="49.40809" lon="5.76891">
        <ele>330.60000610352</ele>
        <time>2022-09-13T12:00:44.000Z</time>
      </trkpt>
      <trkpt lat="49.40812" lon="5.76888">
        <ele>330.60000610352</ele>
        <time>2022-09-13T12:00:45.000Z</time>
      </trkpt>
      <trkpt lat="49.40815" lon="5.76885">
        <ele>330.60000610352</ele>
        <time>2022-09-13T12:00:46.000Z</time>
      </trkpt>
      <trkpt lat="49.40819" lon="5.76882">
        <ele>330.60000610352</ele>
        <time>2022-09-13T12:00:47.000Z</time>
      </trkpt>
      <trkpt lat="49.40838" lon="5.76858">
        <ele>330.60000610352</ele>
        <time>2022-09-13T12:00:53.000Z</time>
      </trkpt>
      <trkpt lat="49.40839" lon="5.76852">
        <ele>330.60000610352</ele>
        <time>2022-09-13T12:00:54.000Z</time>
      </trkpt>
      <trkpt lat="49.40841" lon="5.76847">
        <ele>330.39999389648</ele>
        <time>2022-09-13T12:00:55.000Z</time>
      </trkpt>
      <trkpt lat="49.40841" lon="5.7684">
        <ele>330.39999389648</ele>
        <time>2022-09-13T12:00:56.000Z</time>
      </trkpt>
      <trkpt lat="49.4084" lon="5.76834">
        <ele>330.39999389648</ele>
        <time>2022-09-13T12:00:57.000Z</time>
      </trkpt>
      <trkpt lat="49.40838" lon="5.76827">
        <ele>330.20001220703</ele>
        <time>2022-09-13T12:00:58.000Z</time>
      </trkpt>
      <trkpt lat="49.40836" lon="5.76819">
        <ele>330.20001220703</ele>
        <time>2022-09-13T12:00:59.000Z</time>
      </trkpt>
      <trkpt lat="49.40834" lon="5.76811">
        <ele>330</ele>
        <time>2022-09-13T12:01:00.000Z</time>
      </trkpt>
      <trkpt lat="49.4083" lon="5.76794">
        <ele>329.60000610352</ele>
        <time>2022-09-13T12:01:02.000Z</time>
      </trkpt>
      <trkpt lat="49.40823" lon="5.76768">
        <ele>328.39999389648</ele>
        <time>2022-09-13T12:01:05.000Z</time>
      </trkpt>
      <trkpt lat="49.40821" lon="5.76759">
        <ele>328.20001220703</ele>
        <time>2022-09-13T12:01:06.000Z</time>
      </trkpt>
      <trkpt lat="49.4082" lon="5.76739">
        <ele>327.60000610352</ele>
        <time>2022-09-13T12:01:08.000Z</time>
      </trkpt>
      <trkpt lat="49.40822" lon="5.7673">
        <ele>327.39999389648</ele>
        <time>2022-09-13T12:01:09.000Z</time>
      </trkpt>
      <trkpt lat="49.40825" lon="5.76723">
        <ele>327.20001220703</ele>
        <time>2022-09-13T12:01:10.000Z</time>
      </trkpt>
      <trkpt lat="49.40829" lon="5.76716">
        <ele>327</ele>
        <time>2022-09-13T12:01:11.000Z</time>
      </trkpt>
      <trkpt lat="49.40832" lon="5.76709">
        <ele>327</ele>
        <time>2022-09-13T12:01:12.000Z</time>
      </trkpt>
      <trkpt lat="49.40836" lon="5.76703">
        <ele>326.79998779297</ele>
        <time>2022-09-13T12:01:13.000Z</time>
      </trkpt>
      <trkpt lat="49.40839" lon="5.76698">
        <ele>326.79998779297</ele>
        <time>2022-09-13T12:01:14.000Z</time>
      </trkpt>
      <trkpt lat="49.40841" lon="5.76692">
        <ele>326.79998779297</ele>
        <time>2022-09-13T12:01:15.000Z</time>
      </trkpt>
      <trkpt lat="49.40843" lon="5.76687">
        <ele>326.79998779297</ele>
        <time>2022-09-13T12:01:16.000Z</time>
      </trkpt>
      <trkpt lat="49.40846" lon="5.76682">
        <ele>326.79998779297</ele>
        <time>2022-09-13T12:01:17.000Z</time>
      </trkpt>
      <trkpt lat="49.40848" lon="5.76676">
        <ele>327</ele>
        <time>2022-09-13T12:01:18.000Z</time>
      </trkpt>
      <trkpt lat="49.40855" lon="5.76668">
        <ele>327</ele>
        <time>2022-09-13T12:01:20.000Z</time>
      </trkpt>
      <trkpt lat="49.40858" lon="5.76665">
        <ele>327.20001220703</ele>
        <time>2022-09-13T12:01:21.000Z</time>
      </trkpt>
      <trkpt lat="49.4086" lon="5.76665">
        <ele>327.20001220703</ele>
        <time>2022-09-13T12:01:22.000Z</time>
      </trkpt>
      <trkpt lat="49.40861" lon="5.76665">
        <ele>327.20001220703</ele>
        <time>2022-09-13T12:01:23.000Z</time>
      </trkpt>
      <trkpt lat="49.40863" lon="5.76665">
        <ele>327.39999389648</ele>
        <time>2022-09-13T12:01:24.000Z</time>
      </trkpt>
      <trkpt lat="49.40865" lon="5.76664">
        <ele>327.39999389648</ele>
        <time>2022-09-13T12:01:25.000Z</time>
      </trkpt>
      <trkpt lat="49.40867" lon="5.76663">
        <ele>327.60000610352</ele>
        <time>2022-09-13T12:01:26.000Z</time>
      </trkpt>
      <trkpt lat="49.4087" lon="5.76662">
        <ele>327.60000610352</ele>
        <time>2022-09-13T12:01:27.000Z</time>
      </trkpt>
      <trkpt lat="49.40872" lon="5.76661">
        <ele>327.79998779297</ele>
        <time>2022-09-13T12:01:28.000Z</time>
      </trkpt>
      <trkpt lat="49.40877" lon="5.7666">
        <ele>328.20001220703</ele>
        <time>2022-09-13T12:01:30.000Z</time>
      </trkpt>
      <trkpt lat="49.40888" lon="5.7666">
        <ele>328.60000610352</ele>
        <time>2022-09-13T12:01:34.000Z</time>
      </trkpt>
      <trkpt lat="49.40896" lon="5.76663">
        <ele>329.20001220703</ele>
        <time>2022-09-13T12:01:37.000Z</time>
      </trkpt>
      <trkpt lat="49.40901" lon="5.76663">
        <ele>329.60000610352</ele>
        <time>2022-09-13T12:01:39.000Z</time>
      </trkpt>
      <trkpt lat="49.40915" lon="5.76663">
        <ele>330.79998779297</ele>
        <time>2022-09-13T12:01:44.000Z</time>
      </trkpt>
      <trkpt lat="49.40918" lon="5.76663">
        <ele>331</ele>
        <time>2022-09-13T12:01:45.000Z</time>
      </trkpt>
      <trkpt lat="49.40921" lon="5.76662">
        <ele>331.20001220703</ele>
        <time>2022-09-13T12:01:46.000Z</time>
      </trkpt>
      <trkpt lat="49.40923" lon="5.76661">
        <ele>331.20001220703</ele>
        <time>2022-09-13T12:01:47.000Z</time>
      </trkpt>
      <trkpt lat="49.40926" lon="5.76659">
        <ele>331.39999389648</ele>
        <time>2022-09-13T12:01:48.000Z</time>
      </trkpt>
      <trkpt lat="49.40927" lon="5.76657">
        <ele>331.39999389648</ele>
        <time>2022-09-13T12:01:49.000Z</time>
      </trkpt>
      <trkpt lat="49.40929" lon="5.76653">
        <ele>331.39999389648</ele>
        <time>2022-09-13T12:01:50.000Z</time>
      </trkpt>
      <trkpt lat="49.40929" lon="5.7665">
        <ele>331.39999389648</ele>
        <time>2022-09-13T12:01:51.000Z</time>
      </trkpt>
      <trkpt lat="49.4093" lon="5.76646">
        <ele>331.60000610352</ele>
        <time>2022-09-13T12:01:52.000Z</time>
      </trkpt>
      <trkpt lat="49.40929" lon="5.76642">
        <ele>331.79998779297</ele>
        <time>2022-09-13T12:01:53.000Z</time>
      </trkpt>
      <trkpt lat="49.40929" lon="5.76638">
        <ele>331.60000610352</ele>
        <time>2022-09-13T12:01:54.000Z</time>
      </trkpt>
      <trkpt lat="49.40929" lon="5.76632">
        <ele>331.79998779297</ele>
        <time>2022-09-13T12:01:55.000Z</time>
      </trkpt>
      <trkpt lat="49.40929" lon="5.76627">
        <ele>331.60000610352</ele>
        <time>2022-09-13T12:01:56.000Z</time>
      </trkpt>
      <trkpt lat="49.40928" lon="5.76622">
        <ele>331.39999389648</ele>
        <time>2022-09-13T12:01:57.000Z</time>
      </trkpt>
      <trkpt lat="49.40928" lon="5.76616">
        <ele>331.20001220703</ele>
        <time>2022-09-13T12:01:58.000Z</time>
      </trkpt>
      <trkpt lat="49.40928" lon="5.76612">
        <ele>331.39999389648</ele>
        <time>2022-09-13T12:01:59.000Z</time>
      </trkpt>
      <trkpt lat="49.40927" lon="5.76605">
        <ele>331</ele>
        <time>2022-09-13T12:02:00.000Z</time>
      </trkpt>
      <trkpt lat="49.40926" lon="5.76599">
        <ele>331</ele>
        <time>2022-09-13T12:02:01.000Z</time>
      </trkpt>
      <trkpt lat="49.40925" lon="5.76593">
        <ele>331</ele>
        <time>2022-09-13T12:02:02.000Z</time>
      </trkpt>
      <trkpt lat="49.40918" lon="5.76568">
        <ele>330.60000610352</ele>
        <time>2022-09-13T12:02:06.000Z</time>
      </trkpt>
      <trkpt lat="49.40915" lon="5.76556">
        <ele>330.60000610352</ele>
        <time>2022-09-13T12:02:08.000Z</time>
      </trkpt>
      <trkpt lat="49.40914" lon="5.76551">
        <ele>330.39999389648</ele>
        <time>2022-09-13T12:02:09.000Z</time>
      </trkpt>
      <trkpt lat="49.40912" lon="5.76546">
        <ele>330.39999389648</ele>
        <time>2022-09-13T12:02:10.000Z</time>
      </trkpt>
      <trkpt lat="49.40907" lon="5.76531">
        <ele>330.20001220703</ele>
        <time>2022-09-13T12:02:13.000Z</time>
      </trkpt>
      <trkpt lat="49.40905" lon="5.76526">
        <ele>330.20001220703</ele>
        <time>2022-09-13T12:02:14.000Z</time>
      </trkpt>
      <trkpt lat="49.40904" lon="5.76521">
        <ele>330.20001220703</ele>
        <time>2022-09-13T12:02:15.000Z</time>
      </trkpt>
      <trkpt lat="49.40903" lon="5.76516">
        <ele>330.20001220703</ele>
        <time>2022-09-13T12:02:16.000Z</time>
      </trkpt>
      <trkpt lat="49.40903" lon="5.76511">
        <ele>330.20001220703</ele>
        <time>2022-09-13T12:02:17.000Z</time>
      </trkpt>
      <trkpt lat="49.40904" lon="5.76507">
        <ele>330.39999389648</ele>
        <time>2022-09-13T12:02:18.000Z</time>
      </trkpt>
      <trkpt lat="49.40905" lon="5.76502">
        <ele>330.60000610352</ele>
        <time>2022-09-13T12:02:19.000Z</time>
      </trkpt>
      <trkpt lat="49.40906" lon="5.76499">
        <ele>330.60000610352</ele>
        <time>2022-09-13T12:02:20.000Z</time>
      </trkpt>
      <trkpt lat="49.40907" lon="5.76496">
        <ele>330.79998779297</ele>
        <time>2022-09-13T12:02:21.000Z</time>
      </trkpt>
      <trkpt lat="49.40909" lon="5.76492">
        <ele>331</ele>
        <time>2022-09-13T12:02:22.000Z</time>
      </trkpt>
      <trkpt lat="49.40911" lon="5.76488">
        <ele>331</ele>
        <time>2022-09-13T12:02:23.000Z</time>
      </trkpt>
      <trkpt lat="49.40913" lon="5.76484">
        <ele>331.20001220703</ele>
        <time>2022-09-13T12:02:24.000Z</time>
      </trkpt>
      <trkpt lat="49.40919" lon="5.7646">
        <ele>332</ele>
        <time>2022-09-13T12:02:29.000Z</time>
      </trkpt>
      <trkpt lat="49.4092" lon="5.7645">
        <ele>332.39999389648</ele>
        <time>2022-09-13T12:02:31.000Z</time>
      </trkpt>
      <trkpt lat="49.40924" lon="5.76416">
        <ele>333</ele>
        <time>2022-09-13T12:02:38.000Z</time>
      </trkpt>
      <trkpt lat="49.40925" lon="5.76404">
        <ele>333.39999389648</ele>
        <time>2022-09-13T12:02:40.000Z</time>
      </trkpt>
      <trkpt lat="49.40928" lon="5.76367">
        <ele>334</ele>
        <time>2022-09-13T12:02:47.000Z</time>
      </trkpt>
      <trkpt lat="49.40928" lon="5.76355">
        <ele>334.39999389648</ele>
        <time>2022-09-13T12:02:49.000Z</time>
      </trkpt>
      <trkpt lat="49.40928" lon="5.76349">
        <ele>334.39999389648</ele>
        <time>2022-09-13T12:02:50.000Z</time>
      </trkpt>
      <trkpt lat="49.40928" lon="5.76344">
        <ele>334.60000610352</ele>
        <time>2022-09-13T12:02:51.000Z</time>
      </trkpt>
      <trkpt lat="49.40928" lon="5.76339">
        <ele>334.60000610352</ele>
        <time>2022-09-13T12:02:52.000Z</time>
      </trkpt>
      <trkpt lat="49.40928" lon="5.76333">
        <ele>334.79998779297</ele>
        <time>2022-09-13T12:02:53.000Z</time>
      </trkpt>
      <trkpt lat="49.40928" lon="5.76327">
        <ele>335</ele>
        <time>2022-09-13T12:02:54.000Z</time>
      </trkpt>
      <trkpt lat="49.40928" lon="5.76322">
        <ele>335</ele>
        <time>2022-09-13T12:02:55.000Z</time>
      </trkpt>
      <trkpt lat="49.40928" lon="5.76317">
        <ele>335.20001220703</ele>
        <time>2022-09-13T12:02:56.000Z</time>
      </trkpt>
      <trkpt lat="49.40928" lon="5.76311">
        <ele>335.20001220703</ele>
        <time>2022-09-13T12:02:57.000Z</time>
      </trkpt>
      <trkpt lat="49.40928" lon="5.76305">
        <ele>335.39999389648</ele>
        <time>2022-09-13T12:02:58.000Z</time>
      </trkpt>
      <trkpt lat="49.40928" lon="5.763">
        <ele>335.39999389648</ele>
        <time>2022-09-13T12:02:59.000Z</time>
      </trkpt>
      <trkpt lat="49.40928" lon="5.76295">
        <ele>335.39999389648</ele>
        <time>2022-09-13T12:03:00.000Z</time>
      </trkpt>
      <trkpt lat="49.40928" lon="5.76291">
        <ele>335.60000610352</ele>
        <time>2022-09-13T12:03:01.000Z</time>
      </trkpt>
      <trkpt lat="49.40928" lon="5.76286">
        <ele>335.60000610352</ele>
        <time>2022-09-13T12:03:02.000Z</time>
      </trkpt>
      <trkpt lat="49.40928" lon="5.76283">
        <ele>335.79998779297</ele>
        <time>2022-09-13T12:03:03.000Z</time>
      </trkpt>
      <trkpt lat="49.40929" lon="5.76279">
        <ele>335.79998779297</ele>
        <time>2022-09-13T12:03:04.000Z</time>
      </trkpt>
      <trkpt lat="49.4093" lon="5.76275">
        <ele>335.79998779297</ele>
        <time>2022-09-13T12:03:05.000Z</time>
      </trkpt>
      <trkpt lat="49.40932" lon="5.76271">
        <ele>335.79998779297</ele>
        <time>2022-09-13T12:03:06.000Z</time>
      </trkpt>
      <trkpt lat="49.40934" lon="5.76266">
        <ele>335.79998779297</ele>
        <time>2022-09-13T12:03:07.000Z</time>
      </trkpt>
      <trkpt lat="49.40936" lon="5.76261">
        <ele>335.79998779297</ele>
        <time>2022-09-13T12:03:08.000Z</time>
      </trkpt>
      <trkpt lat="49.40939" lon="5.76257">
        <ele>336</ele>
        <time>2022-09-13T12:03:09.000Z</time>
      </trkpt>
      <trkpt lat="49.40952" lon="5.76242">
        <ele>336.20001220703</ele>
        <time>2022-09-13T12:03:14.000Z</time>
      </trkpt>
      <trkpt lat="49.40959" lon="5.76233">
        <ele>336.20001220703</ele>
        <time>2022-09-13T12:03:17.000Z</time>
      </trkpt>
      <trkpt lat="49.40962" lon="5.76229">
        <ele>336.39999389648</ele>
        <time>2022-09-13T12:03:18.000Z</time>
      </trkpt>
      <trkpt lat="49.40968" lon="5.76219">
        <ele>336.60000610352</ele>
        <time>2022-09-13T12:03:21.000Z</time>
      </trkpt>
      <trkpt lat="49.40971" lon="5.76214">
        <ele>336.60000610352</ele>
        <time>2022-09-13T12:03:22.000Z</time>
      </trkpt>
      <trkpt lat="49.40993" lon="5.76183">
        <ele>337.79998779297</ele>
        <time>2022-09-13T12:03:31.000Z</time>
      </trkpt>
      <trkpt lat="49.40996" lon="5.7618">
        <ele>337.79998779297</ele>
        <time>2022-09-13T12:03:32.000Z</time>
      </trkpt>
      <trkpt lat="49.41019" lon="5.76154">
        <ele>337.79998779297</ele>
        <time>2022-09-13T12:03:40.000Z</time>
      </trkpt>
      <trkpt lat="49.41044" lon="5.76121">
        <ele>338.20001220703</ele>
        <time>2022-09-13T12:03:48.000Z</time>
      </trkpt>
      <trkpt lat="49.41062" lon="5.76099">
        <ele>338.60000610352</ele>
        <time>2022-09-13T12:03:54.000Z</time>
      </trkpt>
      <trkpt lat="49.41078" lon="5.76078">
        <ele>339</ele>
        <time>2022-09-13T12:03:59.000Z</time>
      </trkpt>
      <trkpt lat="49.41101" lon="5.76043">
        <ele>339.20001220703</ele>
        <time>2022-09-13T12:04:07.000Z</time>
      </trkpt>
      <trkpt lat="49.41116" lon="5.76014">
        <ele>339.79998779297</ele>
        <time>2022-09-13T12:04:13.000Z</time>
      </trkpt>
      <trkpt lat="49.4112" lon="5.76001">
        <ele>340</ele>
        <time>2022-09-13T12:04:15.000Z</time>
      </trkpt>
      <trkpt lat="49.41124" lon="5.75985">
        <ele>340.20001220703</ele>
        <time>2022-09-13T12:04:18.000Z</time>
      </trkpt>
      <trkpt lat="49.41129" lon="5.75959">
        <ele>340.60000610352</ele>
        <time>2022-09-13T12:04:22.000Z</time>
      </trkpt>
      <trkpt lat="49.41134" lon="5.75925">
        <ele>341</ele>
        <time>2022-09-13T12:04:27.000Z</time>
      </trkpt>
      <trkpt lat="49.41136" lon="5.75912">
        <ele>341.39999389648</ele>
        <time>2022-09-13T12:04:29.000Z</time>
      </trkpt>
      <trkpt lat="49.41138" lon="5.75897">
        <ele>341.60000610352</ele>
        <time>2022-09-13T12:04:31.000Z</time>
      </trkpt>
      <trkpt lat="49.41143" lon="5.75863">
        <ele>341.60000610352</ele>
        <time>2022-09-13T12:04:36.000Z</time>
      </trkpt>
      <trkpt lat="49.41146" lon="5.75852">
        <ele>341.39999389648</ele>
        <time>2022-09-13T12:04:38.000Z</time>
      </trkpt>
      <trkpt lat="49.41148" lon="5.75847">
        <ele>341.39999389648</ele>
        <time>2022-09-13T12:04:39.000Z</time>
      </trkpt>
      <trkpt lat="49.41152" lon="5.75842">
        <ele>341.20001220703</ele>
        <time>2022-09-13T12:04:40.000Z</time>
      </trkpt>
      <trkpt lat="49.41156" lon="5.75838">
        <ele>341.20001220703</ele>
        <time>2022-09-13T12:04:41.000Z</time>
      </trkpt>
      <trkpt lat="49.41159" lon="5.75836">
        <ele>341.20001220703</ele>
        <time>2022-09-13T12:04:42.000Z</time>
      </trkpt>
      <trkpt lat="49.41163" lon="5.75834">
        <ele>341</ele>
        <time>2022-09-13T12:04:43.000Z</time>
      </trkpt>
      <trkpt lat="49.41168" lon="5.75832">
        <ele>341</ele>
        <time>2022-09-13T12:04:44.000Z</time>
      </trkpt>
      <trkpt lat="49.41172" lon="5.7583">
        <ele>340.79998779297</ele>
        <time>2022-09-13T12:04:45.000Z</time>
      </trkpt>
      <trkpt lat="49.41175" lon="5.75828">
        <ele>340.79998779297</ele>
        <time>2022-09-13T12:04:46.000Z</time>
      </trkpt>
      <trkpt lat="49.41178" lon="5.75826">
        <ele>340.60000610352</ele>
        <time>2022-09-13T12:04:47.000Z</time>
      </trkpt>
      <trkpt lat="49.41182" lon="5.75823">
        <ele>340.60000610352</ele>
        <time>2022-09-13T12:04:48.000Z</time>
      </trkpt>
      <trkpt lat="49.41186" lon="5.7582">
        <ele>340.60000610352</ele>
        <time>2022-09-13T12:04:49.000Z</time>
      </trkpt>
      <trkpt lat="49.4119" lon="5.75818">
        <ele>340.60000610352</ele>
        <time>2022-09-13T12:04:50.000Z</time>
      </trkpt>
      <trkpt lat="49.41194" lon="5.75816">
        <ele>340.60000610352</ele>
        <time>2022-09-13T12:04:51.000Z</time>
      </trkpt>
      <trkpt lat="49.41197" lon="5.75814">
        <ele>340.60000610352</ele>
        <time>2022-09-13T12:04:52.000Z</time>
      </trkpt>
      <trkpt lat="49.412" lon="5.75811">
        <ele>340.60000610352</ele>
        <time>2022-09-13T12:04:53.000Z</time>
      </trkpt>
      <trkpt lat="49.41216" lon="5.75801">
        <ele>340.39999389648</ele>
        <time>2022-09-13T12:04:57.000Z</time>
      </trkpt>
      <trkpt lat="49.41242" lon="5.75786">
        <ele>340.20001220703</ele>
        <time>2022-09-13T12:05:04.000Z</time>
      </trkpt>
      <trkpt lat="49.41245" lon="5.75784">
        <ele>340.20001220703</ele>
        <time>2022-09-13T12:05:05.000Z</time>
      </trkpt>
      <trkpt lat="49.41256" lon="5.75776">
        <ele>340.39999389648</ele>
        <time>2022-09-13T12:05:08.000Z</time>
      </trkpt>
      <trkpt lat="49.41259" lon="5.75774">
        <ele>340.60000610352</ele>
        <time>2022-09-13T12:05:09.000Z</time>
      </trkpt>
      <trkpt lat="49.41263" lon="5.75772">
        <ele>340.60000610352</ele>
        <time>2022-09-13T12:05:10.000Z</time>
      </trkpt>
      <trkpt lat="49.41265" lon="5.75771">
        <ele>340.79998779297</ele>
        <time>2022-09-13T12:05:11.000Z</time>
      </trkpt>
      <trkpt lat="49.4128" lon="5.75762">
        <ele>341.39999389648</ele>
        <time>2022-09-13T12:05:15.000Z</time>
      </trkpt>
      <trkpt lat="49.41286" lon="5.75758">
        <ele>341.60000610352</ele>
        <time>2022-09-13T12:05:17.000Z</time>
      </trkpt>
      <trkpt lat="49.4129" lon="5.75755">
        <ele>341.60000610352</ele>
        <time>2022-09-13T12:05:18.000Z</time>
      </trkpt>
      <trkpt lat="49.41293" lon="5.75754">
        <ele>341.60000610352</ele>
        <time>2022-09-13T12:05:19.000Z</time>
      </trkpt>
      <trkpt lat="49.41296" lon="5.75755">
        <ele>341.60000610352</ele>
        <time>2022-09-13T12:05:20.000Z</time>
      </trkpt>
      <trkpt lat="49.41297" lon="5.75757">
        <ele>341.60000610352</ele>
        <time>2022-09-13T12:05:21.000Z</time>
      </trkpt>
      <trkpt lat="49.41299" lon="5.7576">
        <ele>341.60000610352</ele>
        <time>2022-09-13T12:05:22.000Z</time>
      </trkpt>
      <trkpt lat="49.413" lon="5.7577">
        <ele>341.60000610352</ele>
        <time>2022-09-13T12:05:24.000Z</time>
      </trkpt>
      <trkpt lat="49.41301" lon="5.75775">
        <ele>341.60000610352</ele>
        <time>2022-09-13T12:05:25.000Z</time>
      </trkpt>
      <trkpt lat="49.41302" lon="5.75778">
        <ele>341.60000610352</ele>
        <time>2022-09-13T12:05:26.000Z</time>
      </trkpt>
      <trkpt lat="49.4131" lon="5.75816">
        <ele>341.60000610352</ele>
        <time>2022-09-13T12:05:34.000Z</time>
      </trkpt>
      <trkpt lat="49.4132" lon="5.75855">
        <ele>342.60000610352</ele>
        <time>2022-09-13T12:05:42.000Z</time>
      </trkpt>
      <trkpt lat="49.41321" lon="5.75859">
        <ele>342.79998779297</ele>
        <time>2022-09-13T12:05:43.000Z</time>
      </trkpt>
      <trkpt lat="49.41323" lon="5.7587">
        <ele>342.79998779297</ele>
        <time>2022-09-13T12:05:46.000Z</time>
      </trkpt>
      <trkpt lat="49.41324" lon="5.75873">
        <ele>343</ele>
        <time>2022-09-13T12:05:47.000Z</time>
      </trkpt>
      <trkpt lat="49.41324" lon="5.75876">
        <ele>343.20001220703</ele>
        <time>2022-09-13T12:05:48.000Z</time>
      </trkpt>
      <trkpt lat="49.41325" lon="5.7588">
        <ele>343.20001220703</ele>
        <time>2022-09-13T12:05:49.000Z</time>
      </trkpt>
      <trkpt lat="49.41326" lon="5.75883">
        <ele>343.20001220703</ele>
        <time>2022-09-13T12:05:50.000Z</time>
      </trkpt>
      <trkpt lat="49.41327" lon="5.75888">
        <ele>343.20001220703</ele>
        <time>2022-09-13T12:05:52.000Z</time>
      </trkpt>
      <trkpt lat="49.41328" lon="5.75891">
        <ele>343.20001220703</ele>
        <time>2022-09-13T12:05:53.000Z</time>
      </trkpt>
      <trkpt lat="49.41329" lon="5.75893">
        <ele>343.39999389648</ele>
        <time>2022-09-13T12:05:54.000Z</time>
      </trkpt>
      <trkpt lat="49.41329" lon="5.75895">
        <ele>343.39999389648</ele>
        <time>2022-09-13T12:05:55.000Z</time>
      </trkpt>
      <trkpt lat="49.41331" lon="5.75896">
        <ele>343.39999389648</ele>
        <time>2022-09-13T12:05:56.000Z</time>
      </trkpt>
      <trkpt lat="49.41333" lon="5.75895">
        <ele>343.39999389648</ele>
        <time>2022-09-13T12:05:57.000Z</time>
      </trkpt>
      <trkpt lat="49.41336" lon="5.75894">
        <ele>343.39999389648</ele>
        <time>2022-09-13T12:05:58.000Z</time>
      </trkpt>
      <trkpt lat="49.41346" lon="5.75891">
        <ele>343.39999389648</ele>
        <time>2022-09-13T12:06:02.000Z</time>
      </trkpt>
      <trkpt lat="49.41349" lon="5.75891">
        <ele>343.39999389648</ele>
        <time>2022-09-13T12:06:03.000Z</time>
      </trkpt>
      <trkpt lat="49.41351" lon="5.75892">
        <ele>343.39999389648</ele>
        <time>2022-09-13T12:06:04.000Z</time>
      </trkpt>
      <trkpt lat="49.41355" lon="5.75893">
        <ele>343.39999389648</ele>
        <time>2022-09-13T12:06:05.000Z</time>
      </trkpt>
      <trkpt lat="49.41367" lon="5.75897">
        <ele>343.20001220703</ele>
        <time>2022-09-13T12:06:09.000Z</time>
      </trkpt>
      <trkpt lat="49.4137" lon="5.75897">
        <ele>343.20001220703</ele>
        <time>2022-09-13T12:06:10.000Z</time>
      </trkpt>
      <trkpt lat="49.41377" lon="5.75898">
        <ele>343.39999389648</ele>
        <time>2022-09-13T12:06:12.000Z</time>
      </trkpt>
      <trkpt lat="49.4138" lon="5.75898">
        <ele>343.39999389648</ele>
        <time>2022-09-13T12:06:13.000Z</time>
      </trkpt>
      <trkpt lat="49.41383" lon="5.75898">
        <ele>343.39999389648</ele>
        <time>2022-09-13T12:06:14.000Z</time>
      </trkpt>
      <trkpt lat="49.41386" lon="5.75901">
        <ele>343.39999389648</ele>
        <time>2022-09-13T12:06:15.000Z</time>
      </trkpt>
      <trkpt lat="49.41392" lon="5.759">
        <ele>343.60000610352</ele>
        <time>2022-09-13T12:06:16.000Z</time>
      </trkpt>
      <trkpt lat="49.41398" lon="5.75899">
        <ele>343.60000610352</ele>
        <time>2022-09-13T12:06:17.000Z</time>
      </trkpt>
      <trkpt lat="49.41405" lon="5.75898">
        <ele>343.79998779297</ele>
        <time>2022-09-13T12:06:18.000Z</time>
      </trkpt>
      <trkpt lat="49.4141" lon="5.75897">
        <ele>343.79998779297</ele>
        <time>2022-09-13T12:06:19.000Z</time>
      </trkpt>
      <trkpt lat="49.41414" lon="5.75897">
        <ele>343.79998779297</ele>
        <time>2022-09-13T12:06:20.000Z</time>
      </trkpt>
      <trkpt lat="49.41422" lon="5.75898">
        <ele>344</ele>
        <time>2022-09-13T12:06:22.000Z</time>
      </trkpt>
      <trkpt lat="49.41438" lon="5.75903">
        <ele>344.20001220703</ele>
        <time>2022-09-13T12:06:26.000Z</time>
      </trkpt>
      <trkpt lat="49.41442" lon="5.75903">
        <ele>344.20001220703</ele>
        <time>2022-09-13T12:06:27.000Z</time>
      </trkpt>
      <trkpt lat="49.41444" lon="5.75902">
        <ele>344.20001220703</ele>
        <time>2022-09-13T12:06:28.000Z</time>
      </trkpt>
      <trkpt lat="49.41447" lon="5.75901">
        <ele>344.20001220703</ele>
        <time>2022-09-13T12:06:29.000Z</time>
      </trkpt>
      <trkpt lat="49.41451" lon="5.759">
        <ele>344.20001220703</ele>
        <time>2022-09-13T12:06:30.000Z</time>
      </trkpt>
      <trkpt lat="49.41468" lon="5.759">
        <ele>344.20001220703</ele>
        <time>2022-09-13T12:06:34.000Z</time>
      </trkpt>
      <trkpt lat="49.41473" lon="5.75899">
        <ele>344.20001220703</ele>
        <time>2022-09-13T12:06:35.000Z</time>
      </trkpt>
      <trkpt lat="49.41479" lon="5.759">
        <ele>344.20001220703</ele>
        <time>2022-09-13T12:06:36.000Z</time>
      </trkpt>
      <trkpt lat="49.41498" lon="5.75894">
        <ele>344.60000610352</ele>
        <time>2022-09-13T12:06:41.000Z</time>
      </trkpt>
      <trkpt lat="49.415" lon="5.75894">
        <ele>344.79998779297</ele>
        <time>2022-09-13T12:06:42.000Z</time>
      </trkpt>
      <trkpt lat="49.41503" lon="5.75893">
        <ele>344.79998779297</ele>
        <time>2022-09-13T12:06:43.000Z</time>
      </trkpt>
      <trkpt lat="49.41513" lon="5.75891">
        <ele>345.20001220703</ele>
        <time>2022-09-13T12:06:46.000Z</time>
      </trkpt>
      <trkpt lat="49.41525" lon="5.75885">
        <ele>346</ele>
        <time>2022-09-13T12:06:50.000Z</time>
      </trkpt>
      <trkpt lat="49.41532" lon="5.75882">
        <ele>346.39999389648</ele>
        <time>2022-09-13T12:06:52.000Z</time>
      </trkpt>
      <trkpt lat="49.41542" lon="5.7588">
        <ele>347.39999389648</ele>
        <time>2022-09-13T12:06:55.000Z</time>
      </trkpt>
      <trkpt lat="49.41544" lon="5.75878">
        <ele>347.60000610352</ele>
        <time>2022-09-13T12:06:56.000Z</time>
      </trkpt>
      <trkpt lat="49.41547" lon="5.75874">
        <ele>348.20001220703</ele>
        <time>2022-09-13T12:06:57.000Z</time>
      </trkpt>
      <trkpt lat="49.41549" lon="5.75871">
        <ele>348.79998779297</ele>
        <time>2022-09-13T12:06:58.000Z</time>
      </trkpt>
      <trkpt lat="49.4155" lon="5.75868">
        <ele>349</ele>
        <time>2022-09-13T12:06:59.000Z</time>
      </trkpt>
      <trkpt lat="49.41552" lon="5.75867">
        <ele>349.20001220703</ele>
        <time>2022-09-13T12:07:00.000Z</time>
      </trkpt>
      <trkpt lat="49.41554" lon="5.75865">
        <ele>349.39999389648</ele>
        <time>2022-09-13T12:07:01.000Z</time>
      </trkpt>
      <trkpt lat="49.41556" lon="5.75863">
        <ele>349.60000610352</ele>
        <time>2022-09-13T12:07:02.000Z</time>
      </trkpt>
      <trkpt lat="49.4156" lon="5.75861">
        <ele>349.79998779297</ele>
        <time>2022-09-13T12:07:03.000Z</time>
      </trkpt>
      <trkpt lat="49.41562" lon="5.75857">
        <ele>350.20001220703</ele>
        <time>2022-09-13T12:07:04.000Z</time>
      </trkpt>
      <trkpt lat="49.41569" lon="5.75854">
        <ele>350.39999389648</ele>
        <time>2022-09-13T12:07:05.000Z</time>
      </trkpt>
      <trkpt lat="49.41572" lon="5.75851">
        <ele>350.79998779297</ele>
        <time>2022-09-13T12:07:06.000Z</time>
      </trkpt>
      <trkpt lat="49.41574" lon="5.75848">
        <ele>351.39999389648</ele>
        <time>2022-09-13T12:07:07.000Z</time>
      </trkpt>
      <trkpt lat="49.4158" lon="5.75844">
        <ele>351.39999389648</ele>
        <time>2022-09-13T12:07:08.000Z</time>
      </trkpt>
      <trkpt lat="49.41583" lon="5.7584">
        <ele>351.60000610352</ele>
        <time>2022-09-13T12:07:09.000Z</time>
      </trkpt>
      <trkpt lat="49.41585" lon="5.75836">
        <ele>351.60000610352</ele>
        <time>2022-09-13T12:07:10.000Z</time>
      </trkpt>
      <trkpt lat="49.41589" lon="5.75832">
        <ele>352</ele>
        <time>2022-09-13T12:07:11.000Z</time>
      </trkpt>
      <trkpt lat="49.4159" lon="5.75829">
        <ele>352</ele>
        <time>2022-09-13T12:07:12.000Z</time>
      </trkpt>
      <trkpt lat="49.41593" lon="5.75826">
        <ele>352.39999389648</ele>
        <time>2022-09-13T12:07:13.000Z</time>
      </trkpt>
      <trkpt lat="49.41597" lon="5.75824">
        <ele>352.60000610352</ele>
        <time>2022-09-13T12:07:14.000Z</time>
      </trkpt>
      <trkpt lat="49.41601" lon="5.75821">
        <ele>352.79998779297</ele>
        <time>2022-09-13T12:07:15.000Z</time>
      </trkpt>
      <trkpt lat="49.41604" lon="5.7582">
        <ele>353.20001220703</ele>
        <time>2022-09-13T12:07:16.000Z</time>
      </trkpt>
      <trkpt lat="49.41606" lon="5.75819">
        <ele>353.39999389648</ele>
        <time>2022-09-13T12:07:17.000Z</time>
      </trkpt>
      <trkpt lat="49.41607" lon="5.75818">
        <ele>353.60000610352</ele>
        <time>2022-09-13T12:07:18.000Z</time>
      </trkpt>
      <trkpt lat="49.41611" lon="5.75814">
        <ele>353.79998779297</ele>
        <time>2022-09-13T12:07:19.000Z</time>
      </trkpt>
      <trkpt lat="49.41615" lon="5.75811">
        <ele>354</ele>
        <time>2022-09-13T12:07:20.000Z</time>
      </trkpt>
      <trkpt lat="49.41618" lon="5.75806">
        <ele>354.39999389648</ele>
        <time>2022-09-13T12:07:21.000Z</time>
      </trkpt>
      <trkpt lat="49.41622" lon="5.75802">
        <ele>354.60000610352</ele>
        <time>2022-09-13T12:07:22.000Z</time>
      </trkpt>
      <trkpt lat="49.41625" lon="5.75798">
        <ele>354.79998779297</ele>
        <time>2022-09-13T12:07:23.000Z</time>
      </trkpt>
      <trkpt lat="49.41628" lon="5.75794">
        <ele>354.79998779297</ele>
        <time>2022-09-13T12:07:24.000Z</time>
      </trkpt>
      <trkpt lat="49.4163" lon="5.75791">
        <ele>355.20001220703</ele>
        <time>2022-09-13T12:07:25.000Z</time>
      </trkpt>
      <trkpt lat="49.41633" lon="5.75789">
        <ele>355.39999389648</ele>
        <time>2022-09-13T12:07:26.000Z</time>
      </trkpt>
      <trkpt lat="49.41634" lon="5.75787">
        <ele>355.39999389648</ele>
        <time>2022-09-13T12:07:27.000Z</time>
      </trkpt>
      <trkpt lat="49.41637" lon="5.75783">
        <ele>355.60000610352</ele>
        <time>2022-09-13T12:07:28.000Z</time>
      </trkpt>
      <trkpt lat="49.41639" lon="5.75779">
        <ele>355.79998779297</ele>
        <time>2022-09-13T12:07:29.000Z</time>
      </trkpt>
      <trkpt lat="49.41643" lon="5.75775">
        <ele>355.79998779297</ele>
        <time>2022-09-13T12:07:30.000Z</time>
      </trkpt>
      <trkpt lat="49.41645" lon="5.75772">
        <ele>355.79998779297</ele>
        <time>2022-09-13T12:07:31.000Z</time>
      </trkpt>
      <trkpt lat="49.41647" lon="5.7577">
        <ele>355.79998779297</ele>
        <time>2022-09-13T12:07:32.000Z</time>
      </trkpt>
      <trkpt lat="49.41651" lon="5.75766">
        <ele>355.79998779297</ele>
        <time>2022-09-13T12:07:33.000Z</time>
      </trkpt>
      <trkpt lat="49.41656" lon="5.75763">
        <ele>355.79998779297</ele>
        <time>2022-09-13T12:07:34.000Z</time>
      </trkpt>
      <trkpt lat="49.41659" lon="5.7576">
        <ele>355.79998779297</ele>
        <time>2022-09-13T12:07:35.000Z</time>
      </trkpt>
      <trkpt lat="49.41662" lon="5.75758">
        <ele>355.79998779297</ele>
        <time>2022-09-13T12:07:36.000Z</time>
      </trkpt>
      <trkpt lat="49.41665" lon="5.75755">
        <ele>355.79998779297</ele>
        <time>2022-09-13T12:07:37.000Z</time>
      </trkpt>
      <trkpt lat="49.41668" lon="5.75752">
        <ele>355.79998779297</ele>
        <time>2022-09-13T12:07:38.000Z</time>
      </trkpt>
      <trkpt lat="49.41671" lon="5.75749">
        <ele>356</ele>
        <time>2022-09-13T12:07:39.000Z</time>
      </trkpt>
      <trkpt lat="49.41674" lon="5.75746">
        <ele>356</ele>
        <time>2022-09-13T12:07:40.000Z</time>
      </trkpt>
      <trkpt lat="49.41677" lon="5.75744">
        <ele>356</ele>
        <time>2022-09-13T12:07:41.000Z</time>
      </trkpt>
      <trkpt lat="49.41681" lon="5.75741">
        <ele>356.20001220703</ele>
        <time>2022-09-13T12:07:42.000Z</time>
      </trkpt>
      <trkpt lat="49.41688" lon="5.75736">
        <ele>356.20001220703</ele>
        <time>2022-09-13T12:07:43.000Z</time>
      </trkpt>
      <trkpt lat="49.41692" lon="5.75732">
        <ele>356.39999389648</ele>
        <time>2022-09-13T12:07:44.000Z</time>
      </trkpt>
      <trkpt lat="49.41694" lon="5.75729">
        <ele>356.39999389648</ele>
        <time>2022-09-13T12:07:45.000Z</time>
      </trkpt>
      <trkpt lat="49.41695" lon="5.75727">
        <ele>356.79998779297</ele>
        <time>2022-09-13T12:07:46.000Z</time>
      </trkpt>
      <trkpt lat="49.41698" lon="5.75723">
        <ele>356.79998779297</ele>
        <time>2022-09-13T12:07:47.000Z</time>
      </trkpt>
      <trkpt lat="49.41701" lon="5.7572">
        <ele>356.79998779297</ele>
        <time>2022-09-13T12:07:48.000Z</time>
      </trkpt>
      <trkpt lat="49.41704" lon="5.75717">
        <ele>357</ele>
        <time>2022-09-13T12:07:49.000Z</time>
      </trkpt>
      <trkpt lat="49.41708" lon="5.75716">
        <ele>357.20001220703</ele>
        <time>2022-09-13T12:07:50.000Z</time>
      </trkpt>
      <trkpt lat="49.41711" lon="5.75713">
        <ele>357.20001220703</ele>
        <time>2022-09-13T12:07:51.000Z</time>
      </trkpt>
      <trkpt lat="49.41717" lon="5.75709">
        <ele>357.20001220703</ele>
        <time>2022-09-13T12:07:52.000Z</time>
      </trkpt>
      <trkpt lat="49.41721" lon="5.75705">
        <ele>357.39999389648</ele>
        <time>2022-09-13T12:07:53.000Z</time>
      </trkpt>
      <trkpt lat="49.41723" lon="5.75701">
        <ele>357.39999389648</ele>
        <time>2022-09-13T12:07:54.000Z</time>
      </trkpt>
      <trkpt lat="49.41724" lon="5.75698">
        <ele>357.60000610352</ele>
        <time>2022-09-13T12:07:55.000Z</time>
      </trkpt>
      <trkpt lat="49.41727" lon="5.75695">
        <ele>357.79998779297</ele>
        <time>2022-09-13T12:07:56.000Z</time>
      </trkpt>
      <trkpt lat="49.4173" lon="5.75691">
        <ele>357.79998779297</ele>
        <time>2022-09-13T12:07:57.000Z</time>
      </trkpt>
      <trkpt lat="49.41732" lon="5.75689">
        <ele>358</ele>
        <time>2022-09-13T12:07:58.000Z</time>
      </trkpt>
      <trkpt lat="49.41736" lon="5.75686">
        <ele>358</ele>
        <time>2022-09-13T12:07:59.000Z</time>
      </trkpt>
      <trkpt lat="49.41739" lon="5.75684">
        <ele>358.20001220703</ele>
        <time>2022-09-13T12:08:00.000Z</time>
      </trkpt>
      <trkpt lat="49.41743" lon="5.7568">
        <ele>358.39999389648</ele>
        <time>2022-09-13T12:08:01.000Z</time>
      </trkpt>
      <trkpt lat="49.41745" lon="5.75676">
        <ele>358.39999389648</ele>
        <time>2022-09-13T12:08:02.000Z</time>
      </trkpt>
      <trkpt lat="49.41746" lon="5.75674">
        <ele>358.60000610352</ele>
        <time>2022-09-13T12:08:03.000Z</time>
      </trkpt>
      <trkpt lat="49.41747" lon="5.75671">
        <ele>358.60000610352</ele>
        <time>2022-09-13T12:08:04.000Z</time>
      </trkpt>
      <trkpt lat="49.41749" lon="5.75669">
        <ele>358.60000610352</ele>
        <time>2022-09-13T12:08:05.000Z</time>
      </trkpt>
      <trkpt lat="49.41751" lon="5.75667">
        <ele>358.79998779297</ele>
        <time>2022-09-13T12:08:06.000Z</time>
      </trkpt>
      <trkpt lat="49.41754" lon="5.75664">
        <ele>358.79998779297</ele>
        <time>2022-09-13T12:08:07.000Z</time>
      </trkpt>
      <trkpt lat="49.41756" lon="5.75662">
        <ele>358.79998779297</ele>
        <time>2022-09-13T12:08:08.000Z</time>
      </trkpt>
      <trkpt lat="49.41759" lon="5.7566">
        <ele>358.79998779297</ele>
        <time>2022-09-13T12:08:09.000Z</time>
      </trkpt>
      <trkpt lat="49.41763" lon="5.75658">
        <ele>358.79998779297</ele>
        <time>2022-09-13T12:08:10.000Z</time>
      </trkpt>
      <trkpt lat="49.41767" lon="5.75656">
        <ele>358.79998779297</ele>
        <time>2022-09-13T12:08:11.000Z</time>
      </trkpt>
      <trkpt lat="49.4177" lon="5.75654">
        <ele>358.79998779297</ele>
        <time>2022-09-13T12:08:12.000Z</time>
      </trkpt>
      <trkpt lat="49.41772" lon="5.75652">
        <ele>359</ele>
        <time>2022-09-13T12:08:13.000Z</time>
      </trkpt>
      <trkpt lat="49.41775" lon="5.75649">
        <ele>359</ele>
        <time>2022-09-13T12:08:14.000Z</time>
      </trkpt>
      <trkpt lat="49.41783" lon="5.75643">
        <ele>359</ele>
        <time>2022-09-13T12:08:16.000Z</time>
      </trkpt>
      <trkpt lat="49.41793" lon="5.75632">
        <ele>358.79998779297</ele>
        <time>2022-09-13T12:08:19.000Z</time>
      </trkpt>
      <trkpt lat="49.41795" lon="5.75629">
        <ele>358.60000610352</ele>
        <time>2022-09-13T12:08:20.000Z</time>
      </trkpt>
      <trkpt lat="49.41798" lon="5.75627">
        <ele>358.60000610352</ele>
        <time>2022-09-13T12:08:21.000Z</time>
      </trkpt>
      <trkpt lat="49.41799" lon="5.75625">
        <ele>358.60000610352</ele>
        <time>2022-09-13T12:08:22.000Z</time>
      </trkpt>
      <trkpt lat="49.418" lon="5.75623">
        <ele>358.60000610352</ele>
        <time>2022-09-13T12:08:23.000Z</time>
      </trkpt>
      <trkpt lat="49.41801" lon="5.75621">
        <ele>358.39999389648</ele>
        <time>2022-09-13T12:08:25.000Z</time>
      </trkpt>
      <trkpt lat="49.41803" lon="5.75615">
        <ele>358.39999389648</ele>
        <time>2022-09-13T12:08:27.000Z</time>
      </trkpt>
      <trkpt lat="49.41803" lon="5.75612">
        <ele>358.39999389648</ele>
        <time>2022-09-13T12:08:28.000Z</time>
      </trkpt>
      <trkpt lat="49.41805" lon="5.75609">
        <ele>358.20001220703</ele>
        <time>2022-09-13T12:08:29.000Z</time>
      </trkpt>
      <trkpt lat="49.41807" lon="5.75606">
        <ele>358.20001220703</ele>
        <time>2022-09-13T12:08:30.000Z</time>
      </trkpt>
      <trkpt lat="49.41808" lon="5.75602">
        <ele>358.20001220703</ele>
        <time>2022-09-13T12:08:31.000Z</time>
      </trkpt>
      <trkpt lat="49.41808" lon="5.75599">
        <ele>358</ele>
        <time>2022-09-13T12:08:32.000Z</time>
      </trkpt>
      <trkpt lat="49.41814" lon="5.75593">
        <ele>358</ele>
        <time>2022-09-13T12:08:33.000Z</time>
      </trkpt>
      <trkpt lat="49.41815" lon="5.75585">
        <ele>358</ele>
        <time>2022-09-13T12:08:35.000Z</time>
      </trkpt>
      <trkpt lat="49.41816" lon="5.75581">
        <ele>358</ele>
        <time>2022-09-13T12:08:36.000Z</time>
      </trkpt>
      <trkpt lat="49.41816" lon="5.75579">
        <ele>357.79998779297</ele>
        <time>2022-09-13T12:08:37.000Z</time>
      </trkpt>
      <trkpt lat="49.41818" lon="5.75575">
        <ele>357.79998779297</ele>
        <time>2022-09-13T12:08:38.000Z</time>
      </trkpt>
      <trkpt lat="49.41818" lon="5.75568">
        <ele>356.79998779297</ele>
        <time>2022-09-13T12:09:27.000Z</time>
      </trkpt>
      <trkpt lat="49.41819" lon="5.7556">
        <ele>356.79998779297</ele>
        <time>2022-09-13T12:09:29.000Z</time>
      </trkpt>
      <trkpt lat="49.41818" lon="5.75549">
        <ele>356.79998779297</ele>
        <time>2022-09-13T12:09:32.000Z</time>
      </trkpt>
      <trkpt lat="49.41817" lon="5.75545">
        <ele>356.79998779297</ele>
        <time>2022-09-13T12:09:33.000Z</time>
      </trkpt>
      <trkpt lat="49.41816" lon="5.75538">
        <ele>357</ele>
        <time>2022-09-13T12:09:35.000Z</time>
      </trkpt>
      <trkpt lat="49.41809" lon="5.75523">
        <ele>357</ele>
        <time>2022-09-13T12:09:38.000Z</time>
      </trkpt>
      <trkpt lat="49.41807" lon="5.7552">
        <ele>357</ele>
        <time>2022-09-13T12:09:39.000Z</time>
      </trkpt>
      <trkpt lat="49.41803" lon="5.75514">
        <ele>357</ele>
        <time>2022-09-13T12:09:41.000Z</time>
      </trkpt>
      <trkpt lat="49.41801" lon="5.75511">
        <ele>357</ele>
        <time>2022-09-13T12:09:42.000Z</time>
      </trkpt>
      <trkpt lat="49.41799" lon="5.75505">
        <ele>357</ele>
        <time>2022-09-13T12:09:43.000Z</time>
      </trkpt>
      <trkpt lat="49.41791" lon="5.75482">
        <ele>357</ele>
        <time>2022-09-13T12:09:48.000Z</time>
      </trkpt>
      <trkpt lat="49.41791" lon="5.75476">
        <ele>357.20001220703</ele>
        <time>2022-09-13T12:09:49.000Z</time>
      </trkpt>
      <trkpt lat="49.41784" lon="5.75463">
        <ele>357.20001220703</ele>
        <time>2022-09-13T12:09:52.000Z</time>
      </trkpt>
      <trkpt lat="49.41782" lon="5.75458">
        <ele>357.20001220703</ele>
        <time>2022-09-13T12:09:53.000Z</time>
      </trkpt>
      <trkpt lat="49.4178" lon="5.75455">
        <ele>357.20001220703</ele>
        <time>2022-09-13T12:09:54.000Z</time>
      </trkpt>
      <trkpt lat="49.41777" lon="5.75451">
        <ele>357.20001220703</ele>
        <time>2022-09-13T12:09:55.000Z</time>
      </trkpt>
      <trkpt lat="49.41775" lon="5.75449">
        <ele>357.20001220703</ele>
        <time>2022-09-13T12:09:56.000Z</time>
      </trkpt>
      <trkpt lat="49.41774" lon="5.75447">
        <ele>357.20001220703</ele>
        <time>2022-09-13T12:09:57.000Z</time>
      </trkpt>
      <trkpt lat="49.41773" lon="5.75444">
        <ele>357.20001220703</ele>
        <time>2022-09-13T12:09:58.000Z</time>
      </trkpt>
      <trkpt lat="49.41769" lon="5.75437">
        <ele>357.20001220703</ele>
        <time>2022-09-13T12:10:00.000Z</time>
      </trkpt>
      <trkpt lat="49.41767" lon="5.75434">
        <ele>357</ele>
        <time>2022-09-13T12:10:01.000Z</time>
      </trkpt>
      <trkpt lat="49.41768" lon="5.75431">
        <ele>357</ele>
        <time>2022-09-13T12:10:02.000Z</time>
      </trkpt>
      <trkpt lat="49.41769" lon="5.75426">
        <ele>356.79998779297</ele>
        <time>2022-09-13T12:10:03.000Z</time>
      </trkpt>
      <trkpt lat="49.41768" lon="5.75423">
        <ele>356.79998779297</ele>
        <time>2022-09-13T12:10:04.000Z</time>
      </trkpt>
      <trkpt lat="49.41767" lon="5.7542">
        <ele>356.79998779297</ele>
        <time>2022-09-13T12:10:05.000Z</time>
      </trkpt>
      <trkpt lat="49.41766" lon="5.75415">
        <ele>356.79998779297</ele>
        <time>2022-09-13T12:10:06.000Z</time>
      </trkpt>
      <trkpt lat="49.41764" lon="5.7541">
        <ele>356.60000610352</ele>
        <time>2022-09-13T12:10:07.000Z</time>
      </trkpt>
      <trkpt lat="49.41756" lon="5.75394">
        <ele>356.60000610352</ele>
        <time>2022-09-13T12:10:11.000Z</time>
      </trkpt>
      <trkpt lat="49.41752" lon="5.7539">
        <ele>356.39999389648</ele>
        <time>2022-09-13T12:10:12.000Z</time>
      </trkpt>
      <trkpt lat="49.41749" lon="5.75385">
        <ele>356.39999389648</ele>
        <time>2022-09-13T12:10:13.000Z</time>
      </trkpt>
      <trkpt lat="49.41746" lon="5.75377">
        <ele>356.20001220703</ele>
        <time>2022-09-13T12:10:15.000Z</time>
      </trkpt>
      <trkpt lat="49.41745" lon="5.75374">
        <ele>356.20001220703</ele>
        <time>2022-09-13T12:10:16.000Z</time>
      </trkpt>
      <trkpt lat="49.41744" lon="5.7537">
        <ele>356</ele>
        <time>2022-09-13T12:10:17.000Z</time>
      </trkpt>
      <trkpt lat="49.41744" lon="5.75362">
        <ele>356</ele>
        <time>2022-09-13T12:10:18.000Z</time>
      </trkpt>
      <trkpt lat="49.41739" lon="5.75346">
        <ele>356</ele>
        <time>2022-09-13T12:10:21.000Z</time>
      </trkpt>
      <trkpt lat="49.41735" lon="5.75334">
        <ele>356</ele>
        <time>2022-09-13T12:10:23.000Z</time>
      </trkpt>
      <trkpt lat="49.41726" lon="5.75307">
        <ele>356</ele>
        <time>2022-09-13T12:10:28.000Z</time>
      </trkpt>
      <trkpt lat="49.41724" lon="5.75303">
        <ele>356</ele>
        <time>2022-09-13T12:10:29.000Z</time>
      </trkpt>
      <trkpt lat="49.4172" lon="5.75297">
        <ele>356</ele>
        <time>2022-09-13T12:10:30.000Z</time>
      </trkpt>
      <trkpt lat="49.41719" lon="5.75294">
        <ele>356</ele>
        <time>2022-09-13T12:10:31.000Z</time>
      </trkpt>
      <trkpt lat="49.41718" lon="5.75292">
        <ele>356</ele>
        <time>2022-09-13T12:10:32.000Z</time>
      </trkpt>
      <trkpt lat="49.41716" lon="5.75288">
        <ele>355.79998779297</ele>
        <time>2022-09-13T12:10:33.000Z</time>
      </trkpt>
      <trkpt lat="49.41713" lon="5.75283">
        <ele>355.60000610352</ele>
        <time>2022-09-13T12:10:34.000Z</time>
      </trkpt>
      <trkpt lat="49.41711" lon="5.75279">
        <ele>355.39999389648</ele>
        <time>2022-09-13T12:10:35.000Z</time>
      </trkpt>
      <trkpt lat="49.41708" lon="5.75277">
        <ele>355.20001220703</ele>
        <time>2022-09-13T12:10:36.000Z</time>
      </trkpt>
      <trkpt lat="49.41705" lon="5.75274">
        <ele>355</ele>
        <time>2022-09-13T12:10:37.000Z</time>
      </trkpt>
      <trkpt lat="49.41703" lon="5.75273">
        <ele>355</ele>
        <time>2022-09-13T12:10:38.000Z</time>
      </trkpt>
      <trkpt lat="49.41702" lon="5.75272">
        <ele>354.79998779297</ele>
        <time>2022-09-13T12:10:39.000Z</time>
      </trkpt>
      <trkpt lat="49.41701" lon="5.7527">
        <ele>354.79998779297</ele>
        <time>2022-09-13T12:10:40.000Z</time>
      </trkpt>
      <trkpt lat="49.41702" lon="5.75268">
        <ele>354.60000610352</ele>
        <time>2022-09-13T12:10:42.000Z</time>
      </trkpt>
      <trkpt lat="49.41715" lon="5.75256">
        <ele>354.20001220703</ele>
        <time>2022-09-13T12:10:48.000Z</time>
      </trkpt>
      <trkpt lat="49.41719" lon="5.75251">
        <ele>354</ele>
        <time>2022-09-13T12:10:50.000Z</time>
      </trkpt>
      <trkpt lat="49.41721" lon="5.75249">
        <ele>354</ele>
        <time>2022-09-13T12:10:51.000Z</time>
      </trkpt>
      <trkpt lat="49.4173" lon="5.7524">
        <ele>354.20001220703</ele>
        <time>2022-09-13T12:10:55.000Z</time>
      </trkpt>
      <trkpt lat="49.42234" lon="5.7477">
        <ele>323.9</ele>
      </trkpt>
      <trkpt lat="49.42225" lon="5.74726">
        <ele>323.1</ele>
      </trkpt>
      <trkpt lat="49.42236" lon="5.7477">
        <ele>323.8</ele>
      </trkpt>
      <trkpt lat="49.42091" lon="5.74895">
        <ele>325.8</ele>
      </trkpt>
      <trkpt lat="49.42015" lon="5.74971">
        <ele>326</ele>
      </trkpt>
      <trkpt lat="49.41943" lon="5.75036">
        <ele>329.3</ele>
      </trkpt>
      <trkpt lat="49.4194" lon="5.75047">
        <ele>329.9</ele>
      </trkpt>
      <trkpt lat="49.41747" lon="5.75223">
        <ele>354</ele>
        <time>2022-09-13T12:11:01.000Z</time>
      </trkpt>
      <trkpt lat="49.41748" lon="5.75222">
        <ele>353.79998779297</ele>
        <time>2022-09-13T12:11:02.000Z</time>
      </trkpt>
      <trkpt lat="49.41749" lon="5.75222">
        <ele>353.60000610352</ele>
        <time>2022-09-13T12:11:03.000Z</time>
      </trkpt>
      <trkpt lat="49.4175" lon="5.75223">
        <ele>353.39999389648</ele>
        <time>2022-09-13T12:11:05.000Z</time>
      </trkpt>
      <trkpt lat="49.41751" lon="5.75225">
        <ele>353.39999389648</ele>
        <time>2022-09-13T12:11:06.000Z</time>
      </trkpt>
    </trkseg>
  </trk>
</gpx>